# Wetter Temperatur Luftdruck Luftfeuchtigkeit Sichtweite Windgeschwindigkeit Windrichtung Zeit
1 Haze 27 1011 83 4000 2.6 180 02:52 05.04.2020
2 Haze 26 1010 88 4000 2.6 130 01:48 05.04.2020
3 Haze 26 1010 88 4000 2.1 150 01:28 05.04.2020
4 Haze 26 1010 88 4000 2.1 200 00:44 05.04.2020
5 Haze 26 1009 88 4000 2.1 170 00:21 05.04.2020
6 Haze 26 1009 88 4000 1.34 235 23:56 04.04.2020
7 Haze 26 1009 88 4000 1.5 280 23:37 04.04.2020
8 Haze 26 1009 88 4000 1.5 280 23:19 04.04.2020
9 Haze 26 1009 88 3000 2.6 270 22:41 04.04.2020
10 Haze 26 1009 88 3000 1.5 280 22:22 04.04.2020
11 Haze 26 1009 88 4000 1.5 330 21:59 04.04.2020
12 Haze 27 1009 83 5000 1.5 320 21:40 04.04.2020
13 Haze 27 1009 83 5000 1.5 320 21:20 04.04.2020
14 Haze 27 1009 83 5000 2.1 310 20:59 04.04.2020
15 Haze 27 1009 78 5000 1 330 20:41 04.04.2020
16 Haze 27 1009 78 5000 1 330 20:22 04.04.2020
17 Clouds 27 1010 78 6000 1 190 19:57 04.04.2020
18 Clouds 27 1011 78 6000 1 190 19:37 04.04.2020
19 Clouds 27 1011 78 6000 1 190 19:19 04.04.2020
20 Clouds 27 1011 78 6000 1.5 0 18:56 04.04.2020
21 Clouds 27 1011 78 6000 2.6 200 18:38 04.04.2020
22 Clouds 27 1011 78 6000 2.6 200 18:19 04.04.2020
23 Clouds 27 1012 83 6000 3.6 180 17:56 04.04.2020
24 Clouds 27 1012 78 6000 3.1 190 17:38 04.04.2020
25 Clouds 27 1012 78 6000 3.1 190 17:38 04.04.2020
26 Clouds 27 1012 78 6000 3.1 190 17:38 04.04.2020
27 Clouds 28 1012 78 6000 3.1 190 17:18 04.04.2020
28 Clouds 28 1011 78 6000 3.1 160 16:42 04.04.2020
29 Rain 28 1011 88 4000 3.6 170 16:22 04.04.2020
30 Rain 28 1011 88 4000 3.6 170 15:55 04.04.2020
31 Rain 28 1011 88 4000 3.6 170 15:37 04.04.2020
32 Rain 28 1011 88 4000 3.6 170 15:18 04.04.2020
33 Rain 28 1011 88 3000 2.6 150 14:43 04.04.2020
34 Rain 28 1010 83 3000 2.6 160 14:23 04.04.2020
35 Rain 29 1009 78 4000 3.1 180 13:56 04.04.2020
36 Rain 29 1009 74 4000 3.6 150 13:38 04.04.2020
37 Rain 29 1009 74 4000 3.6 150 13:19 04.04.2020
38 Rain 29 1009 74 4000 3.6 150 13:19 04.04.2020
39 Rain 30 1009 70 5000 4.1 10 12:45 04.04.2020
40 Rain 30 1009 70 5000 4.1 10 12:26 04.04.2020
41 Rain 31 1008 66 6000 4.1 330 11:59 04.04.2020
42 Rain 31 1008 66 6000 4.1 330 11:59 04.04.2020
43 Rain 32 1007 62 6000 3.6 320 11:38 04.04.2020
44 Rain 32 1007 62 6000 3.6 320 11:20 04.04.2020
45 Clouds 32 1007 62 6000 4.1 360 10:56 04.04.2020
46 Clouds 33 1007 62 6000 6.2 300 10:38 04.04.2020
47 Clouds 33 1007 62 6000 6.2 300 10:19 04.04.2020
48 Clouds 32 1007 62 6000 6.2 360 09:55 04.04.2020
49 Clouds 32 1008 63 6000 5.7 320 09:37 04.04.2020
50 Clouds 32 1008 63 6000 5.7 320 09:37 04.04.2020
51 Clouds 32 1008 63 6000 5.7 320 09:18 04.04.2020
52 Clouds 33 1008 59 6000 4.6 330 08:42 04.04.2020
53 Clouds 33 1008 63 6000 3.1 360 08:21 04.04.2020
54 Clouds 33 1009 59 6000 3.6 300 07:46 04.04.2020
55 Rain 33 1009 55 5000 2.6 310 07:26 04.04.2020
56 Rain 33 1010 59 5000 1.5 300 06:56 04.04.2020
57 Rain 32 1010 59 5000 1.5 300 06:20 04.04.2020
58 Rain 31 1011 66 5000 2.1 270 05:43 04.04.2020
59 Haze 31 1011 66 5000 1.5 220 05:24 04.04.2020
60 Haze 29 1011 70 5000 1.5 240 04:31 04.04.2020
61 Haze 29 1011 74 4000 1.5 10 03:53 04.04.2020
62 Haze 29 1011 74 4000 1.5 150 03:22 04.04.2020
63 Haze 27 1010 88 3000 1.5 140 02:38 04.04.2020
64 Haze 27 1010 88 3000 1.5 140 02:20 04.04.2020
65 Mist 26 1009 94 3000 1.51 163 01:26 04.04.2020
66 Haze 26 1009 94 4000 1.51 163 00:52 04.04.2020
67 Haze 26 1009 94 5000 1.51 163 00:30 04.04.2020
68 Haze 26 1009 88 5000 1.5 220 23:41 03.04.2020
69 Haze 26 1009 88 5000 1.5 220 23:22 03.04.2020
70 Haze 26 1009 88 3800 2.1 260 22:59 03.04.2020
71 Haze 26 1009 88 3800 2.1 260 22:40 03.04.2020
72 Haze 26 1009 88 3800 2.1 260 22:19 03.04.2020
73 Haze 25 1009 88 4000 2.6 280 21:56 03.04.2020
74 Haze 25 1009 83 3000 3.1 280 21:37 03.04.2020
75 Haze 26 1009 83 3000 3.1 280 21:19 03.04.2020
76 Haze 25 1009 88 3000 2.1 270 20:54 03.04.2020
77 Haze 25 1010 83 4000 1.5 260 20:36 03.04.2020
78 Haze 26 1010 83 4000 1.5 260 20:18 03.04.2020
79 Haze 26 1010 83 4200 2.6 270 19:54 03.04.2020
80 Haze 26 1010 83 4500 1.5 270 19:36 03.04.2020
81 Haze 26 1010 83 4500 1.5 270 19:36 03.04.2020
82 Haze 26 1010 78 4000 0.5 310 19:18 03.04.2020
83 Haze 27 1010 78 4000 0.5 310 18:42 03.04.2020
84 Haze 27 1011 88 5000 1.5 150 18:23 03.04.2020
85 Haze 27 1011 88 5000 1.5 150 17:58 03.04.2020
86 Haze 27 1011 88 5000 1.5 150 17:40 03.04.2020
87 Haze 27 1011 88 5000 1.5 150 17:19 03.04.2020
88 Haze 27 1011 88 5000 1.5 150 17:19 03.04.2020
89 Haze 27 1010 88 5000 1.5 230 16:54 03.04.2020
90 Clouds 27 1010 78 7000 3.1 200 16:36 03.04.2020
91 Clouds 27 1010 78 7000 3.1 200 16:18 03.04.2020
92 Clouds 27 1010 78 6000 1.5 0 15:41 03.04.2020
93 Rain 28 1009 83 5000 1.5 340 15:22 03.04.2020
94 Rain 27 1012 69 0 0.89 265 14:57 03.04.2020
95 Rain 27 1011 69 0 0.89 275 14:39 03.04.2020
96 Rain 28 1008 79 5000 3.1 360 14:21 03.04.2020
97 Rain 28 1008 79 5000 3.1 360 13:46 03.04.2020
98 Rain 28 1008 79 5000 3.1 360 13:26 03.04.2020
99 Rain 29 1008 79 5000 2.6 360 12:56 03.04.2020
100 Rain 30 1008 74 5000 2.1 30 12:38 03.04.2020
101 Rain 30 1008 74 5000 2.1 30 12:18 03.04.2020
102 Rain 31 1007 74 5000 1.5 330 11:55 03.04.2020
103 Rain 31 1007 74 5000 1.5 330 11:55 03.04.2020
104 Rain 32 1007 66 4000 3.1 30 11:37 03.04.2020
105 Rain 32 1007 66 4000 3.1 30 11:18 03.04.2020
106 Rain 32 1007 62 5000 4.1 290 10:56 03.04.2020
107 Rain 31 1008 66 6000 2.1 270 10:37 03.04.2020
108 Rain 31 1008 66 6000 2.1 270 10:18 03.04.2020
109 Rain 32 1008 66 5000 2.6 270 09:55 03.04.2020
110 Rain 31 1008 66 5000 5.1 270 09:37 03.04.2020
111 Rain 31 1008 66 5000 5.1 270 09:18 03.04.2020
112 Rain 30 1008 70 6000 8.2 270 08:43 03.04.2020
113 Clouds 32 1008 59 6000 2.1 330 08:23 03.04.2020
114 Clouds 33 1009 52 6000 1.5 330 07:51 03.04.2020
115 Clouds 34 1009 55 6000 2.6 300 07:33 03.04.2020
116 Clouds 33 1010 59 6000 2.1 330 06:57 03.04.2020
117 Clouds 32 1010 66 6000 2.1 330 06:27 03.04.2020
118 Haze 32 1011 62 5000 3.1 270 05:42 03.04.2020
119 Haze 29 1011 74 4000 2.72 286 03:52 03.04.2020
120 Haze 29 1011 74 4000 2.72 286 03:31 03.04.2020
121 Haze 26 1010 88 3000 2.11 231 02:30 03.04.2020
122 Haze 25 1009 94 4000 2.11 231 01:24 03.04.2020
123 Haze 25 1009 83 5000 1.5 270 00:43 03.04.2020
124 Haze 25 1009 83 5000 1.5 270 00:23 03.04.2020
125 Clouds 25 1008 88 0 1.79 240 23:43 02.04.2020
126 Clouds 25 1008 88 6000 2.1 240 23:24 02.04.2020
127 Clouds 23 1008 88 6000 2.1 240 23:00 02.04.2020
128 Clouds 25 1008 88 6000 2.1 240 22:41 02.04.2020
129 Clouds 23 1008 88 6000 2.1 240 22:22 02.04.2020
130 Clouds 24 1008 83 6000 3.1 260 21:57 02.04.2020
131 Haze 24 1009 83 5000 3.1 240 21:37 02.04.2020
132 Haze 26 1009 83 5000 3.1 240 21:18 02.04.2020
133 Clouds 26 1009 83 6000 3.1 250 20:44 02.04.2020
134 Clouds 25 1009 83 6000 3.1 270 20:24 02.04.2020
135 Clouds 25 1010 88 7000 3.1 280 19:57 02.04.2020
136 Clouds 25 1010 88 7000 3.1 280 19:38 02.04.2020
137 Clouds 25 1010 88 7000 3.1 280 19:20 02.04.2020
138 Clouds 25 1010 88 7000 2.1 300 18:43 02.04.2020
139 Rain 26 1010 88 7000 2.1 300 18:21 02.04.2020
140 Rain 26 1010 83 10000 2.1 270 17:59 02.04.2020
141 Rain 26 1010 83 10000 2.1 270 17:59 02.04.2020
142 Rain 26 1010 78 10000 2.6 220 17:41 02.04.2020
143 Rain 26 1010 78 10000 2.6 220 17:22 02.04.2020
144 Clouds 26 1010 78 10000 2.1 260 16:58 02.04.2020
145 Clouds 26 1010 78 10000 3.1 260 16:39 02.04.2020
146 Clouds 26 1010 78 10000 3.1 260 16:21 02.04.2020
147 Clouds 26 1010 78 10000 3.6 250 15:56 02.04.2020
148 Clouds 26 1010 78 10000 3.6 250 15:38 02.04.2020
149 Clouds 27 1009 70 6000 4.6 270 15:18 02.04.2020
150 Clouds 27 1009 70 6000 4.6 270 14:56 02.04.2020
151 Clouds 27 1009 70 6000 4.6 270 14:37 02.04.2020
152 Clouds 28 1009 70 6000 4.1 230 14:18 02.04.2020
153 Clouds 28 1009 70 6000 4.1 230 13:54 02.04.2020
154 Clouds 28 1008 70 6000 5.1 240 13:36 02.04.2020
155 Clouds 27 1008 70 6000 5.1 240 13:18 02.04.2020
156 Clouds 29 1007 70 6000 5.1 220 12:41 02.04.2020
157 Clouds 30 1007 70 6000 5.1 220 12:19 02.04.2020
158 Clouds 30 1007 66 6000 5.1 240 11:57 02.04.2020
159 Rain 31 1007 58 6000 4.6 290 11:39 02.04.2020
160 Rain 31 1007 58 6000 4.6 290 11:20 02.04.2020
161 Rain 32 1006 58 6000 3.6 270 10:56 02.04.2020
162 Rain 32 1006 58 6000 3.6 280 10:38 02.04.2020
163 Rain 32 1006 58 6000 3.6 280 10:20 02.04.2020
164 Rain 32 1006 62 6000 5.1 250 09:58 02.04.2020
165 Rain 33 1007 59 6000 4.6 250 09:39 02.04.2020
166 Rain 32 1007 59 6000 4.6 250 09:20 02.04.2020
167 Rain 34 1007 62 6000 2.1 340 08:47 02.04.2020
168 Rain 32 1008 62 6000 2.6 300 08:27 02.04.2020
169 Clouds 33 1008 59 6000 3.1 280 07:47 02.04.2020
170 Clouds 33 1009 55 6000 2.6 270 07:22 02.04.2020
171 Clouds 33 1010 55 6000 3.1 270 06:59 02.04.2020
172 Clouds 32 1010 59 6000 4.1 260 06:23 02.04.2020
173 Clouds 32 1010 66 6000 4.1 250 05:45 02.04.2020
174 Clouds 30 1010 70 6000 6.2 230 04:47 02.04.2020
175 Haze 27 1010 83 5000 2.01 216 02:18 02.04.2020
176 Haze 26 1009 88 5000 2.01 216 00:58 02.04.2020
177 Haze 26 1008 88 5000 2.01 216 00:36 02.04.2020
178 Haze 26 1008 88 5000 2.62 226 00:18 02.04.2020
179 Haze 25 1008 94 5000 2.62 226 23:38 01.04.2020
180 Haze 25 1008 94 5000 2.62 226 23:19 01.04.2020
181 Clouds 25 1008 88 7000 2.1 270 22:56 01.04.2020
182 Clouds 25 1008 88 7000 2.1 270 22:37 01.04.2020
183 Clouds 25 1008 88 7000 2.1 270 22:19 01.04.2020
184 Haze 25 1009 88 5000 2.1 270 21:39 01.04.2020
185 Haze 25 1009 88 5000 2.1 270 21:19 01.04.2020
186 Haze 25 1009 83 5000 1.5 280 20:56 01.04.2020
187 Clouds 25 1009 83 8000 2.6 260 20:38 01.04.2020
188 Clouds 25 1009 83 8000 2.6 260 20:19 01.04.2020
189 Clouds 26 1009 83 8000 2.6 270 19:57 01.04.2020
190 Clouds 26 1010 83 8000 3.1 240 19:37 01.04.2020
191 Clouds 26 1010 83 8000 3.1 240 19:37 01.04.2020
192 Clouds 26 1010 83 8000 3.1 240 19:19 01.04.2020
193 Clouds 26 1010 83 8000 2.6 230 18:42 01.04.2020
194 Clouds 26 1010 83 8000 2.6 230 18:22 01.04.2020
195 Clouds 26 1011 83 8000 2.6 240 17:57 01.04.2020
196 Clouds 26 1010 74 8000 3.6 240 17:37 01.04.2020
197 Clouds 26 1010 74 8000 3.6 240 17:19 01.04.2020
198 Clouds 27 1010 78 6000 2.47 274 16:56 01.04.2020
199 Clouds 27 1010 78 6000 2.47 274 16:38 01.04.2020
200 Clouds 27 1010 78 6000 2.47 274 16:20 01.04.2020
201 Clouds 27 1010 78 6000 2.47 274 15:56 01.04.2020
202 Clouds 27 1009 78 6000 2.47 274 15:37 01.04.2020
203 Clouds 27 1009 78 6000 3.19 307 15:18 01.04.2020
204 Clouds 28 1008 70 6000 1.5 340 14:40 01.04.2020
205 Clouds 28 1008 70 6000 1.5 340 14:22 01.04.2020
206 Clouds 28 1008 70 6000 2.1 330 13:59 01.04.2020
207 Rain 28 1008 70 6000 2.6 360 13:39 01.04.2020
208 Rain 29 1008 70 6000 2.6 360 13:20 01.04.2020
209 Rain 29 1008 70 6000 2.6 360 13:20 01.04.2020
210 Rain 29 1008 62 6000 2.6 330 12:58 01.04.2020
211 Rain 29 1007 62 6000 3.6 350 12:40 01.04.2020
212 Rain 30 1007 62 6000 3.6 350 12:21 01.04.2020
213 Clouds 30 1007 62 6000 2.6 10 11:56 01.04.2020
214 Clouds 31 1006 55 6000 3.6 360 11:37 01.04.2020
215 Clouds 31 1006 55 6000 3.6 360 11:18 01.04.2020
216 Clouds 33 1006 55 6000 3.6 340 10:39 01.04.2020
217 Clouds 33 1006 55 6000 3.6 340 10:21 01.04.2020
218 Clouds 33 1007 55 6000 4.1 20 09:59 01.04.2020
219 Clouds 33 1007 55 6000 4.1 20 09:59 01.04.2020
220 Clouds 32 1007 62 6000 6.7 10 09:40 01.04.2020
221 Clouds 32 1007 62 6000 6.7 10 09:20 01.04.2020
222 Clouds 33 1007 59 6000 6.7 350 08:44 01.04.2020
223 Clouds 33 1007 59 6000 6.7 350 08:44 01.04.2020
224 Clouds 33 1008 59 6000 4.1 330 08:20 01.04.2020
225 Clouds 33 1008 55 6000 3.1 360 07:58 01.04.2020
226 Clouds 34 1008 55 6000 3.1 360 07:58 01.04.2020
227 Clouds 33 1009 55 6000 3.1 20 07:40 01.04.2020
228 Clouds 33 1009 55 6000 3.1 20 07:19 01.04.2020
229 Clouds 32 1010 59 6000 2.1 280 06:42 01.04.2020
230 Clouds 32 1010 59 6000 2.1 280 06:20 01.04.2020
231 Clouds 31 1011 66 6000 1.5 270 05:28 01.04.2020
232 Haze 28 1010 83 5000 1.5 270 03:40 01.04.2020
233 Haze 27 1010 83 5000 1.5 210 02:59 01.04.2020
234 Haze 26 1010 94 5000 1.5 180 02:31 01.04.2020
235 Haze 25 1010 94 5000 1.5 180 01:50 01.04.2020
236 Mist 25 1010 94 3000 0.51 225 01:25 01.04.2020
237 Rain 25 1010 94 3000 1.5 270 00:47 01.04.2020
238 Rain 25 1010 94 3000 1.5 330 00:22 01.04.2020
239 Rain 25 1010 94 3000 1.5 360 23:55 31.03.2020
240 Rain 25 1010 100 3000 2.6 330 23:37 31.03.2020
241 Haze 25 1010 83 5000 2.1 320 23:19 31.03.2020
242 Haze 25 1010 88 5000 5.7 320 22:40 31.03.2020
243 Haze 26 1010 83 5000 5.1 320 22:21 31.03.2020
244 Haze 26 1010 83 5000 5.1 320 21:58 31.03.2020
245 Thunderstorm 26 1009 88 5000 2.1 290 21:39 31.03.2020
246 Haze 26 1009 88 5000 2.1 230 21:21 31.03.2020
247 Clouds 26 1010 88 6000 1.5 0 20:57 31.03.2020
248 Clouds 26 1010 88 6000 1.5 0 20:37 31.03.2020
249 Clouds 26 1010 83 6000 2.1 240 20:19 31.03.2020
250 Clouds 26 1010 83 6000 2.1 240 19:56 31.03.2020
251 Clouds 27 1010 83 6000 2.1 240 19:37 31.03.2020
252 Clouds 27 1010 83 6000 1.5 280 19:19 31.03.2020
253 Clouds 27 1011 78 6000 2.1 280 18:44 31.03.2020
254 Clouds 27 1010 78 6000 2.1 220 18:20 31.03.2020
255 Clouds 27 1010 78 6000 2.1 220 17:57 31.03.2020
256 Clouds 27 1010 78 6000 2.1 220 17:57 31.03.2020
257 Clouds 27 1011 83 7000 2.1 230 17:39 31.03.2020
258 Clouds 27 1011 83 7000 2.1 230 17:39 31.03.2020
259 Clouds 27 1010 83 7000 3.1 240 17:21 31.03.2020
260 Clouds 27 1010 83 7000 3.1 240 16:56 31.03.2020
261 Clouds 27 1010 78 8000 3.1 230 16:37 31.03.2020
262 Clouds 27 1010 78 8000 3.1 230 16:18 31.03.2020
263 Clouds 27 1010 78 8000 2.6 220 15:56 31.03.2020
264 Clouds 27 1010 78 8000 2.6 200 15:37 31.03.2020
265 Clouds 27 1010 78 8000 2.6 200 15:37 31.03.2020
266 Haze 27 1009 94 5000 2.6 140 15:18 31.03.2020
267 Haze 27 1009 94 5000 2.6 140 14:42 31.03.2020
268 Haze 27 1009 94 5000 2.6 140 14:23 31.03.2020
269 Rain 27 1009 94 5000 1.94 263 13:59 31.03.2020
270 Rain 27 1009 100 5000 1.94 263 13:41 31.03.2020
271 Rain 27 1009 100 5000 1.94 263 13:19 31.03.2020
272 Rain 27 1009 100 5000 1.94 263 13:19 31.03.2020
273 Rain 27 1008 100 5000 2.6 130 12:46 31.03.2020
274 Rain 27 1008 94 5000 2.6 270 12:21 31.03.2020
275 Thunderstorm 27 1008 100 2000 2.1 140 11:59 31.03.2020
276 Thunderstorm 28 1008 100 2000 2.1 140 11:38 31.03.2020
277 Thunderstorm 29 1008 100 2000 2.1 140 11:19 31.03.2020
278 Thunderstorm 32 1006 74 4000 4.1 270 10:56 31.03.2020
279 Thunderstorm 30 1006 74 4000 4.1 270 10:38 31.03.2020
280 Thunderstorm 31 1006 74 4000 4.1 270 10:20 31.03.2020
281 Rain 32 1007 70 6000 4.1 330 09:55 31.03.2020
282 Clouds 33 1007 59 6000 2.6 330 09:37 31.03.2020
283 Clouds 34 1007 59 6000 2.6 330 09:19 31.03.2020
284 Clouds 34 1007 47 6000 2.1 240 08:54 31.03.2020
285 Clouds 32 1008 49 6000 2.6 360 08:36 31.03.2020
286 Clouds 33 1008 49 6000 2.6 360 08:18 31.03.2020
287 Clouds 34 1008 52 6000 3.6 210 07:43 31.03.2020
288 Clouds 34 1008 52 6000 3.6 210 07:23 31.03.2020
289 Clouds 34 1009 52 6000 3.1 150 06:58 31.03.2020
290 Clouds 33 1009 55 6000 4.1 190 06:39 31.03.2020
291 Clouds 31 1010 66 6000 3.1 260 05:42 31.03.2020
292 Clouds 31 1010 66 6000 3.1 260 05:23 31.03.2020
293 Haze 26 1010 94 5000 2.15 275 02:53 31.03.2020
294 Haze 26 1010 94 5000 1.5 230 01:47 31.03.2020
295 Haze 25 1010 94 5000 1.5 230 01:19 31.03.2020
296 Mist 25 1010 94 4000 2.6 270 00:43 31.03.2020
297 Mist 25 1010 94 4000 2.6 270 00:20 31.03.2020
298 Mist 25 1009 94 4000 2.1 290 23:40 30.03.2020
299 Mist 25 1009 94 3000 1.5 320 23:20 30.03.2020
300 Mist 25 1009 94 3000 1 250 22:57 30.03.2020
301 Mist 25 1009 94 3000 2.6 280 22:38 30.03.2020
302 Mist 25 1009 94 3000 2.6 280 22:19 30.03.2020
303 Mist 25 1009 94 3000 2.6 280 21:57 30.03.2020
304 Mist 25 1009 94 4000 1 0 21:38 30.03.2020
305 Mist 25 1009 94 4000 1 0 21:20 30.03.2020
306 Mist 25 1010 94 2900 1 270 20:58 30.03.2020
307 Mist 25 1010 94 3000 2.6 280 20:38 30.03.2020
308 Mist 25 1010 94 3000 2.6 280 20:19 30.03.2020
309 Mist 25 1010 94 2400 2.6 280 19:54 30.03.2020
310 Mist 25 1010 94 3000 1 300 19:36 30.03.2020
311 Mist 25 1010 94 3000 1 300 19:18 30.03.2020
312 Haze 25 1010 94 4000 1 320 18:41 30.03.2020
313 Haze 25 1010 94 4000 1 320 18:23 30.03.2020
314 Clouds 26 1010 88 6000 1.5 0 17:57 30.03.2020
315 Clouds 26 1010 88 7000 2.1 140 17:39 30.03.2020
316 Clouds 26 1010 88 7000 2.1 140 17:19 30.03.2020
317 Clouds 26 1010 88 7000 2.1 140 16:57 30.03.2020
318 Clouds 26 1010 83 7000 3.1 130 16:39 30.03.2020
319 Clouds 26 1010 83 7000 3.1 130 16:20 30.03.2020
320 Clouds 26 1010 83 7000 2.6 160 15:55 30.03.2020
321 Clouds 26 1010 88 7000 2.6 160 15:37 30.03.2020
322 Clouds 25 1010 88 7000 2.6 160 15:19 30.03.2020
323 Clouds 25 1009 88 7000 2.6 0 14:55 30.03.2020
324 Rain 25 1009 88 7000 3.6 170 14:36 30.03.2020
325 Rain 25 1009 94 4000 1.5 220 14:18 30.03.2020
326 Rain 25 1009 94 4000 1.5 220 13:54 30.03.2020
327 Rain 25 1009 94 4000 1.5 220 13:36 30.03.2020
328 Rain 25 1009 94 4000 1.5 220 13:18 30.03.2020
329 Rain 25 1008 94 4000 2.6 220 12:41 30.03.2020
330 Rain 25 1008 94 4000 2.6 220 12:20 30.03.2020
331 Thunderstorm 25 1008 94 4000 4.1 240 11:57 30.03.2020
332 Thunderstorm 25 1008 94 4000 4.1 240 11:39 30.03.2020
333 Thunderstorm 25 1008 94 4000 4.1 240 11:21 30.03.2020
334 Thunderstorm 26 1008 88 3000 3.1 270 10:41 30.03.2020
335 Thunderstorm 26 1008 88 3000 3.1 270 10:22 30.03.2020
336 Thunderstorm 26 1008 94 3000 2.6 220 09:58 30.03.2020
337 Thunderstorm 27 1008 94 3000 2.6 220 09:39 30.03.2020
338 Thunderstorm 27 1008 94 3000 2.6 220 09:19 30.03.2020
339 Thunderstorm 28 1008 88 3000 2.1 10 08:42 30.03.2020
340 Thunderstorm 28 1008 88 3000 2.1 10 08:23 30.03.2020
341 Rain 30 1008 55 5000 2.6 100 07:53 30.03.2020
342 Rain 31 1008 55 5000 2.6 100 07:34 30.03.2020
343 Haze 32 1009 59 5000 1.5 220 06:59 30.03.2020
344 Haze 32 1009 59 5000 1.5 220 06:33 30.03.2020
345 Haze 32 1010 62 5000 2.1 210 05:59 30.03.2020
346 Haze 32 1010 62 5000 2.1 210 05:34 30.03.2020
347 Haze 30 1010 70 5000 1.5 260 04:26 30.03.2020
348 Haze 29 1010 74 4000 1.5 210 03:45 30.03.2020
349 Haze 28 1010 88 4000 1.5 140 02:42 30.03.2020
350 Haze 26 1009 94 4000 0.77 206 01:48 30.03.2020
351 Haze 26 1008 94 4000 0.77 206 00:56 30.03.2020
352 Haze 26 1008 94 4000 0.77 206 00:25 30.03.2020
353 Haze 26 1008 94 4000 0.63 181 23:43 29.03.2020
354 Haze 26 1008 94 4000 0.63 181 23:24 29.03.2020
355 Clouds 26 1008 83 6000 1 290 22:59 29.03.2020
356 Clouds 26 1008 83 6000 1.5 290 22:39 29.03.2020
357 Clouds 26 1008 83 6000 1.5 290 22:20 29.03.2020
358 Clouds 26 1008 83 6000 1 0 21:58 29.03.2020
359 Clouds 26 1008 83 6000 1.5 190 21:37 29.03.2020
360 Clouds 26 1008 83 6000 1.5 190 21:18 29.03.2020
361 Clouds 26 1009 83 6000 2.1 190 20:55 29.03.2020
362 Clouds 26 1009 83 6000 2.1 190 20:55 29.03.2020
363 Clouds 26 1009 83 6000 2.1 210 20:37 29.03.2020
364 Clouds 26 1009 83 6000 2.1 210 20:37 29.03.2020
365 Clouds 26 1009 83 6000 2.1 210 20:18 29.03.2020
366 Clouds 26 1009 83 6000 2.1 210 19:55 29.03.2020
367 Clouds 26 1009 83 6000 2.1 200 19:37 29.03.2020
368 Clouds 26 1010 83 6000 1.5 0 19:18 29.03.2020
369 Clouds 27 1010 78 6000 2.1 0 18:54 29.03.2020
370 Clouds 27 1010 78 6000 2.1 0 18:36 29.03.2020
371 Clouds 27 1010 78 6000 2.1 0 18:18 29.03.2020
372 Clouds 26 1010 83 7000 1.5 240 17:42 29.03.2020
373 Clouds 26 1010 83 7000 1.5 240 17:23 29.03.2020
374 Haze 26 1009 88 4000 1.5 120 16:59 29.03.2020
375 Haze 26 1009 88 4000 1.5 120 16:40 29.03.2020
376 Haze 26 1009 88 4000 1.5 120 16:21 29.03.2020
377 Haze 26 1009 88 4000 1.5 120 15:59 29.03.2020
378 Rain 26 1009 94 4000 2.1 230 15:40 29.03.2020
379 Rain 26 1009 94 4000 2.1 230 15:21 29.03.2020
380 Rain 26 1009 94 3000 2.1 130 14:57 29.03.2020
381 Rain 26 1009 94 3000 3.6 240 14:37 29.03.2020
382 Thunderstorm 26 1008 94 3000 3.6 150 14:19 29.03.2020
383 Thunderstorm 27 1008 94 3000 3.6 150 13:55 29.03.2020
384 Thunderstorm 27 1008 88 2000 6.2 190 13:37 29.03.2020
385 Rain 28 1008 78 3000 6.2 150 13:19 29.03.2020
386 Rain 30 1007 70 4000 4.1 10 12:54 29.03.2020
387 Rain 30 1007 70 4000 4.1 10 12:54 29.03.2020
388 Rain 30 1007 70 4000 4.1 10 12:36 29.03.2020
389 Rain 30 1006 66 5000 3.6 350 12:18 29.03.2020
390 Rain 31 1006 66 5000 4.1 330 11:39 29.03.2020
391 Rain 32 1006 66 5000 4.1 330 11:21 29.03.2020
392 Rain 32 1005 59 5000 6.2 360 10:55 29.03.2020
393 Rain 32 1005 59 5000 6.2 350 10:37 29.03.2020
394 Rain 32 1005 59 5000 6.2 350 10:18 29.03.2020
395 Rain 33 1006 63 4000 2.6 40 09:39 29.03.2020
396 Rain 32 1006 63 4000 2.6 40 09:19 29.03.2020
397 Rain 32 1006 63 4000 2.6 40 08:52 29.03.2020
398 Rain 33 1007 70 4000 3.1 20 08:28 29.03.2020
399 Rain 32 1007 70 3000 4.6 30 07:58 29.03.2020
400 Thunderstorm 33 1008 59 4000 3.1 320 07:39 29.03.2020
401 Thunderstorm 33 1008 59 4000 3.1 320 07:39 29.03.2020
402 Haze 33 1008 55 5000 2.1 40 07:20 29.03.2020
403 Haze 30 1009 66 4000 3.1 250 04:59 29.03.2020
404 Haze 30 1009 66 4000 3.1 250 04:59 29.03.2020
405 Haze 30 1009 74 4000 1.5 350 03:48 29.03.2020
406 Haze 29 1009 79 4000 1.5 270 03:26 29.03.2020
407 Haze 27 1009 83 4000 1.5 180 01:50 29.03.2020
408 Mist 27 1008 94 3000 1.5 190 01:23 29.03.2020
409 Mist 26 1008 94 3000 1.56 206 00:55 29.03.2020
410 Mist 26 1008 94 4000 1.5 160 00:30 29.03.2020
411 Haze 26 1008 83 4000 1.56 206 23:42 28.03.2020
412 Haze 25 1008 83 4000 1.56 206 23:23 28.03.2020
413 Haze 25 1008 94 4000 2.14 216 22:58 28.03.2020
414 Haze 25 1007 94 4000 1.5 330 22:38 28.03.2020
415 Haze 25 1007 94 4000 1.5 330 22:20 28.03.2020
416 Haze 25 1007 88 4000 2.1 300 21:43 28.03.2020
417 Haze 25 1007 88 5000 1 260 21:24 28.03.2020
418 Haze 25 1008 88 5000 1.5 250 20:59 28.03.2020
419 Haze 25 1008 88 5000 1.5 250 20:41 28.03.2020
420 Haze 25 1008 88 5000 2.1 230 20:23 28.03.2020
421 Haze 25 1008 83 5000 2.6 230 19:57 28.03.2020
422 Haze 26 1008 83 5000 2.6 210 19:38 28.03.2020
423 Haze 26 1008 83 5000 2.6 210 19:20 28.03.2020
424 Haze 26 1008 83 5000 3.1 230 18:56 28.03.2020
425 Haze 26 1009 83 5000 2.1 250 18:38 28.03.2020
426 Haze 26 1009 83 5000 2.1 250 18:38 28.03.2020
427 Haze 26 1009 83 5000 1 280 18:19 28.03.2020
428 Haze 26 1009 83 5000 1 280 17:38 28.03.2020
429 Haze 27 1009 83 5000 2.1 300 17:20 28.03.2020
430 Haze 27 1009 78 5000 2.6 300 16:43 28.03.2020
431 Haze 27 1009 78 5000 2.6 300 16:20 28.03.2020
432 Haze 27 1010 83 5000 2.1 310 15:58 28.03.2020
433 Clouds 27 1010 78 6000 2.1 320 15:39 28.03.2020
434 Clouds 27 1010 78 6000 2.1 320 15:19 28.03.2020
435 Clouds 27 1009 83 6000 2.6 300 14:54 28.03.2020
436 Clouds 27 1009 79 6000 1.5 330 14:36 28.03.2020
437 Haze 28 1008 74 5000 2.32 292 14:18 28.03.2020
438 Haze 28 1008 74 5000 2.32 292 13:38 28.03.2020
439 Haze 28 1008 74 5000 2.32 293 13:19 28.03.2020
440 Haze 29 1007 70 5000 1.5 300 12:39 28.03.2020
441 Haze 29 1007 70 5000 1.5 300 12:21 28.03.2020
442 Haze 30 1006 66 5000 1.5 330 11:42 28.03.2020
443 Haze 30 1006 66 5000 2.1 310 11:21 28.03.2020
444 Haze 30 1006 66 5000 2.1 310 10:56 28.03.2020
445 Rain 31 1006 66 5000 1.5 330 10:38 28.03.2020
446 Rain 31 1006 66 5000 1.5 330 10:18 28.03.2020
447 Rain 31 1007 66 5000 2.6 330 09:41 28.03.2020
448 Rain 31 1007 70 5000 3.6 360 09:23 28.03.2020
449 Rain 32 1007 74 5000 1.5 330 08:46 28.03.2020
450 Rain 31 1008 70 5000 3.1 20 08:27 28.03.2020
451 Rain 32 1008 66 5000 3.1 360 07:59 28.03.2020
452 Rain 32 1008 62 5000 2.1 330 07:41 28.03.2020
453 Haze 32 1010 66 5000 1.5 10 06:55 28.03.2020
454 Haze 32 1010 66 5000 1.5 10 06:33 28.03.2020
455 Haze 32 1010 66 5000 1.5 260 05:41 28.03.2020
456 Haze 32 1011 66 5000 2.1 240 05:19 28.03.2020
457 Haze 31 1011 66 5000 1.5 270 04:40 28.03.2020
458 Haze 29 1011 74 4000 1.5 90 02:55 28.03.2020
459 Haze 28 1010 83 5000 1 0 01:49 28.03.2020
460 Mist 26 1009 94 2000 0.94 196 01:24 28.03.2020
461 Mist 25 1009 94 2000 0.94 196 00:55 28.03.2020
462 Mist 25 1009 94 2000 0.94 196 00:33 28.03.2020
463 Haze 25 1009 94 4000 0.94 196 23:54 27.03.2020
464 Haze 26 1009 94 4000 0.94 196 23:36 27.03.2020
465 Haze 26 1008 94 5000 1.5 150 23:18 27.03.2020
466 Haze 25 1008 94 5000 1.5 150 22:54 27.03.2020
467 Haze 25 1008 94 5000 1.5 150 22:36 27.03.2020
468 Haze 25 1008 94 5000 1.5 150 22:18 27.03.2020
469 Haze 26 1009 83 5000 1.5 0 21:42 27.03.2020
470 Haze 26 1009 83 5000 1.5 0 21:23 27.03.2020
471 Haze 26 1009 83 5000 2.1 190 20:58 27.03.2020
472 Haze 26 1009 83 5000 2.1 190 20:58 27.03.2020
473 Haze 26 1009 83 5000 1.5 200 20:39 27.03.2020
474 Haze 26 1009 83 5000 1.5 200 20:20 27.03.2020
475 Haze 26 1010 78 5000 0.5 0 19:56 27.03.2020
476 Clouds 27 1010 78 6000 1.5 0 19:38 27.03.2020
477 Clouds 27 1010 78 6000 1.5 0 19:19 27.03.2020
478 Clouds 27 1010 78 7000 1 0 18:43 27.03.2020
479 Clouds 27 1010 78 7000 1 0 18:23 27.03.2020
480 Clouds 27 1010 78 7000 1.5 0 17:57 27.03.2020
481 Clouds 27 1010 78 6000 2.1 0 17:38 27.03.2020
482 Clouds 27 1011 78 8000 2.6 190 17:19 27.03.2020
483 Clouds 27 1011 78 8000 2.1 0 16:44 27.03.2020
484 Clouds 27 1011 78 8000 2.1 0 16:25 27.03.2020
485 Clouds 27 1011 78 8000 2.1 0 16:25 27.03.2020
486 Clouds 27 1011 78 8000 2.1 0 16:25 27.03.2020
487 Clouds 27 1010 78 6000 2.1 210 15:46 27.03.2020
488 Rain 27 1012 74 0 0.89 229 15:27 27.03.2020
489 Rain 27 1012 73 0 0.54 223 14:59 27.03.2020
490 Rain 27 1011 73 0 0.54 223 14:40 27.03.2020
491 Clouds 28 1009 74 6000 3.6 190 14:22 27.03.2020
492 Clouds 28 1009 74 6000 3.6 190 13:54 27.03.2020
493 Clouds 28 1009 74 6000 3.6 190 13:36 27.03.2020
494 Clouds 28 1009 74 6000 3.6 190 13:18 27.03.2020
495 Clouds 27 1008 94 6000 2.6 340 12:42 27.03.2020
496 Clouds 30 1007 70 6000 3.1 340 12:19 27.03.2020
497 Clouds 30 1007 70 6000 3.1 340 11:55 27.03.2020
498 Clouds 31 1007 70 6000 3.1 340 11:36 27.03.2020
499 Haze 32 1007 66 5000 3.6 360 11:18 27.03.2020
500 Haze 32 1007 66 5000 3.6 360 10:41 27.03.2020
501 Haze 33 1007 66 5000 3.6 360 10:22 27.03.2020
502 Haze 33 1008 66 5000 4.6 10 09:59 27.03.2020
503 Haze 34 1008 66 5000 4.6 10 09:40 27.03.2020
504 Haze 33 1008 66 5000 4.6 10 09:22 27.03.2020
505 Haze 33 1008 66 5000 2.6 330 08:59 27.03.2020
506 Haze 33 1008 66 5000 2.6 330 08:59 27.03.2020
507 Haze 33 1008 66 5000 2.6 330 08:40 27.03.2020
508 Haze 33 1008 66 5000 2.6 330 08:21 27.03.2020
509 Haze 32 1009 66 5000 2.6 360 07:57 27.03.2020
510 Haze 32 1009 66 5000 2.6 360 07:38 27.03.2020
511 Haze 33 1010 62 5000 1.5 270 07:20 27.03.2020
512 Haze 33 1010 62 5000 1.5 270 06:39 27.03.2020
513 Haze 33 1010 70 5000 1.5 270 05:45 27.03.2020
514 Haze 31 1011 78 5000 1.5 240 03:34 27.03.2020
515 Haze 28 1011 88 4000 1.5 250 01:55 27.03.2020
516 Haze 26 1010 94 4000 1.5 270 01:18 27.03.2020
517 Mist 26 1009 94 3000 1.68 165 00:41 27.03.2020
518 Haze 26 1009 94 4000 1.68 165 00:19 27.03.2020
519 Haze 26 1009 94 4000 1.68 165 23:37 26.03.2020
520 Haze 26 1009 94 4000 3.53 195 23:18 26.03.2020
521 Haze 26 1009 94 4000 3.53 195 22:56 26.03.2020
522 Haze 26 1009 94 4000 3.53 195 22:36 26.03.2020
523 Haze 26 1009 94 4000 3.53 195 22:18 26.03.2020
524 Rain 26 1010 85 0 3.53 195 21:40 26.03.2020
525 Rain 26 1010 85 0 0.45 225 21:21 26.03.2020
526 Rain 26 1010 85 0 0.89 226 20:59 26.03.2020
527 Rain 26 1010 85 0 0.89 227 20:39 26.03.2020
528 Rain 26 1011 85 0 0.89 229 20:21 26.03.2020
529 Rain 26 1011 85 0 0.65 140 19:58 26.03.2020
530 Rain 26 1011 85 0 0.65 140 19:40 26.03.2020
531 Rain 26 1011 85 0 0.89 229 19:21 26.03.2020
532 Rain 26 1011 85 0 1.79 226 18:58 26.03.2020
533 Rain 26 1011 86 0 1.79 216 18:40 26.03.2020
534 Rain 26 1012 86 0 0.89 198 18:21 26.03.2020
535 Rain 26 1012 86 0 0.89 225 17:44 26.03.2020
536 Rain 26 1012 86 0 0.89 225 17:44 26.03.2020
537 Rain 26 1012 86 0 1.34 220 17:20 26.03.2020
538 Rain 26 1012 85 0 0.89 225 16:57 26.03.2020
539 Rain 26 1012 85 0 0.89 235 16:38 26.03.2020
540 Rain 26 1012 85 0 0.89 235 16:38 26.03.2020
541 Rain 26 1012 85 0 2.68 239 16:19 26.03.2020
542 Rain 27 1012 85 0 1.79 225 15:54 26.03.2020
543 Rain 27 1012 84 0 2.24 224 15:36 26.03.2020
544 Rain 27 1012 84 0 3.13 236 15:18 26.03.2020
545 Rain 27 1009 88 3000 3.1 150 14:42 26.03.2020
546 Rain 27 1009 88 3000 3.1 150 14:24 26.03.2020
547 Rain 27 1009 88 3000 3.1 150 13:55 26.03.2020
548 Rain 28 1009 83 3000 3.1 200 13:37 26.03.2020
549 Rain 28 1009 83 3000 3.1 200 13:19 26.03.2020
550 Rain 29 1007 70 5000 2.1 340 12:38 26.03.2020
551 Rain 30 1007 66 5000 2.6 320 12:20 26.03.2020
552 Rain 30 1007 66 5000 3.6 350 11:46 26.03.2020
553 Rain 30 1007 66 5000 3.6 350 11:23 26.03.2020
554 Rain 32 1006 55 5000 4.1 340 10:57 26.03.2020
555 Rain 32 1006 55 5000 4.1 340 10:39 26.03.2020
556 Rain 32 1006 55 5000 4.1 340 10:19 26.03.2020
557 Rain 31 1006 59 5000 4.1 40 09:44 26.03.2020
558 Rain 32 1006 59 5000 5.7 330 09:21 26.03.2020
559 Rain 32 1007 55 5000 5.7 20 08:57 26.03.2020
560 Rain 32 1007 55 5000 5.7 20 08:57 26.03.2020
561 Rain 32 1007 66 5000 4.6 10 08:38 26.03.2020
562 Rain 32 1007 66 5000 4.6 10 08:19 26.03.2020
563 Rain 32 1008 66 5000 4.6 30 07:44 26.03.2020
564 Clouds 33 1008 66 6000 4.1 70 07:23 26.03.2020
565 Haze 33 1009 66 5000 4.1 60 06:57 26.03.2020
566 Haze 33 1009 66 5000 4.1 60 06:32 26.03.2020
567 Haze 32 1010 70 4000 2.1 10 05:29 26.03.2020
568 Haze 30 1011 83 4000 1.5 340 03:45 26.03.2020
569 Rain 28 1010 88 4000 1.5 330 02:56 26.03.2020
570 Rain 27 1010 88 4000 2.6 50 01:51 26.03.2020
571 Rain 27 1009 88 4000 2.6 60 00:56 26.03.2020
572 Rain 27 1009 83 4000 2.1 30 00:22 26.03.2020
573 Rain 27 1008 94 4000 3.1 30 23:41 25.03.2020
574 Rain 27 1008 94 4000 1.5 120 23:22 25.03.2020
575 Haze 27 1008 88 4000 1.5 120 22:42 25.03.2020
576 Haze 27 1008 88 4000 1.5 120 22:21 25.03.2020
577 Rain 28 1009 80 0 1.34 194 21:56 25.03.2020
578 Rain 28 1009 81 0 0.89 209 21:38 25.03.2020
579 Rain 28 1009 80 0 0.89 235 21:20 25.03.2020
580 Rain 28 1009 80 0 0.73 252 20:56 25.03.2020
581 Rain 28 1009 80 0 0.73 252 20:37 25.03.2020
582 Rain 27 1009 83 0 1.13 242 20:18 25.03.2020
583 Rain 28 1010 80 0 1.17 136 19:43 25.03.2020
584 Rain 28 1010 80 0 0.48 131 19:43 25.03.2020
585 Rain 28 1010 79 0 0.48 131 19:23 25.03.2020
586 Rain 27 1010 83 0 0.48 131 18:58 25.03.2020
587 Rain 28 1010 79 0 0.48 131 18:40 25.03.2020
588 Rain 28 1010 79 0 0.89 229 18:21 25.03.2020
589 Rain 28 1010 78 0 0.89 216 17:56 25.03.2020
590 Rain 28 1011 77 0 0.89 224 17:38 25.03.2020
591 Rain 28 1010 77 0 0.89 220 17:38 25.03.2020
592 Rain 28 1010 77 0 0.45 241 17:20 25.03.2020
593 Rain 28 1011 76 0 0.89 236 16:44 25.03.2020
594 Rain 28 1011 76 0 0.89 233 16:26 25.03.2020
595 Rain 28 1011 75 0 0.46 5 15:59 25.03.2020
596 Rain 28 1010 75 0 0.46 5 15:41 25.03.2020
597 Rain 28 1010 75 0 0.77 32 15:41 25.03.2020
598 Rain 28 1010 74 0 0.46 5 15:20 25.03.2020
599 Rain 28 1010 74 0 0.45 264 14:55 25.03.2020
600 Rain 28 1010 74 0 0.45 247 14:37 25.03.2020
601 Rain 29 1008 79 5000 1.5 240 14:18 25.03.2020
602 Rain 29 1008 79 5000 1.5 240 13:42 25.03.2020
603 Rain 29 1008 79 5000 1.5 240 13:22 25.03.2020
604 Rain 29 1007 74 5000 2.1 360 12:38 25.03.2020
605 Rain 29 1007 74 5000 2.6 360 12:19 25.03.2020
606 Rain 29 1007 74 5000 2.6 360 11:56 25.03.2020
607 Rain 30 1006 79 5000 3.6 330 11:37 25.03.2020
608 Clouds 30 1006 74 6000 2.1 330 11:19 25.03.2020
609 Clouds 31 1006 74 6000 2.1 330 10:56 25.03.2020
610 Clouds 31 1006 74 6000 4.6 360 10:38 25.03.2020
611 Clouds 31 1006 74 6000 4.6 360 10:18 25.03.2020
612 Clouds 31 1006 70 6000 3.1 360 09:43 25.03.2020
613 Clouds 32 1006 70 6000 4.1 360 09:24 25.03.2020
614 Clouds 33 1006 66 6000 3.1 360 08:57 25.03.2020
615 Clouds 33 1006 59 6000 3.1 40 08:39 25.03.2020
616 Clouds 33 1006 59 6000 3.1 40 08:19 25.03.2020
617 Haze 33 1007 62 5000 5.1 50 07:41 25.03.2020
618 Haze 34 1007 62 5000 5.1 50 07:22 25.03.2020
619 Haze 33 1007 66 5000 3.6 90 06:50 25.03.2020
620 Haze 34 1008 62 5000 1.5 20 06:28 25.03.2020
621 Haze 34 1008 62 5000 1.5 20 06:28 25.03.2020
622 Haze 34 1008 62 5000 4.6 120 05:56 25.03.2020
623 Haze 34 1008 62 5000 2.1 40 05:30 25.03.2020
624 Haze 32 1009 70 5000 1.5 50 04:39 25.03.2020
625 Haze 32 1010 70 5000 1.5 60 03:49 25.03.2020
626 Haze 31 1010 79 5000 2.1 40 03:29 25.03.2020
627 Haze 27 1009 100 5000 1.5 300 01:25 25.03.2020
628 Haze 25 1009 100 5000 1.5 300 00:49 25.03.2020
629 Haze 25 1009 100 5000 1.5 300 00:25 25.03.2020
630 Clouds 24 1010 88 0 1.27 139 23:46 24.03.2020
631 Clouds 24 1010 88 0 1.27 139 23:28 24.03.2020
632 Rain 24 1010 87 0 0.45 341 22:57 24.03.2020
633 Rain 24 1010 86 0 1.4 146 22:38 24.03.2020
634 Rain 24 1010 86 0 1.4 146 22:19 24.03.2020
635 Rain 24 1010 86 0 1.4 146 22:19 24.03.2020
636 Rain 24 1010 86 0 1.4 146 22:19 24.03.2020
637 Rain 24 1010 85 0 0.45 321 21:56 24.03.2020
638 Rain 24 1010 84 0 0.45 231 21:38 24.03.2020
639 Rain 26 1010 83 0 1.79 230 21:18 24.03.2020
640 Rain 26 1010 83 0 1.79 230 21:18 24.03.2020
641 Rain 26 1010 83 0 1.79 222 20:57 24.03.2020
642 Rain 26 1010 82 0 1.79 226 20:39 24.03.2020
643 Rain 26 1010 82 0 2.24 247 20:21 24.03.2020
644 Rain 26 1010 82 0 2.68 224 19:45 24.03.2020
645 Rain 27 1010 82 0 1.34 240 19:19 24.03.2020
646 Rain 27 1011 82 0 2.24 232 18:56 24.03.2020
647 Rain 27 1011 82 0 2.68 226 18:37 24.03.2020
648 Rain 27 1011 82 0 2.68 226 18:37 24.03.2020
649 Rain 27 1011 81 0 0.89 243 18:19 24.03.2020
650 Rain 27 1011 81 0 0.89 239 17:43 24.03.2020
651 Rain 27 1011 81 0 0.89 216 17:24 24.03.2020
652 Haze 27 1010 78 5000 3.1 180 16:59 24.03.2020
653 Haze 27 1010 83 5000 3.6 190 16:41 24.03.2020
654 Haze 27 1010 83 5000 3.6 190 16:23 24.03.2020
655 Haze 27 1010 83 5000 4.6 190 15:59 24.03.2020
656 Haze 27 1009 83 4000 4.1 200 15:40 24.03.2020
657 Haze 27 1009 83 4000 4.1 200 15:22 24.03.2020
658 Clouds 28 1009 78 7000 1 0 14:43 24.03.2020
659 Clouds 28 1009 78 7000 1 0 14:43 24.03.2020
660 Clouds 28 1009 78 7000 1 0 14:43 24.03.2020
661 Rain 27 1011 79 0 1.79 227 14:22 24.03.2020
662 Rain 28 1010 74 0 2.68 239 13:55 24.03.2020
663 Rain 28 1010 73 0 1.79 199 13:36 24.03.2020
664 Rain 28 1008 83 3000 2.1 130 13:18 24.03.2020
665 Rain 28 1008 83 3000 2.1 130 12:41 24.03.2020
666 Rain 29 1008 83 3000 2.1 130 12:23 24.03.2020
667 Rain 29 1007 78 4000 2.6 100 11:41 24.03.2020
668 Rain 30 1007 78 4000 2.6 100 11:20 24.03.2020
669 Clouds 30 1006 70 10000 3.1 10 10:57 24.03.2020
670 Rain 31 1006 70 6000 4.6 20 10:38 24.03.2020
671 Rain 31 1006 70 6000 4.6 20 10:18 24.03.2020
672 Clouds 31 1007 66 10000 5.1 20 09:43 24.03.2020
673 Rain 31 1006 66 6000 3.1 360 09:25 24.03.2020
674 Clouds 31 1007 70 10000 6.2 350 08:40 24.03.2020
675 Clouds 31 1007 70 10000 6.2 350 08:21 24.03.2020
676 Clouds 31 1008 70 8000 6.2 330 07:59 24.03.2020
677 Rain 30 1008 70 5000 2.6 300 07:41 24.03.2020
678 Rain 31 1008 70 5000 2.6 300 07:21 24.03.2020
679 Clouds 31 1009 70 8000 5.7 350 06:35 24.03.2020
680 Rain 31 1009 70 4000 1.5 320 05:42 24.03.2020
681 Clouds 31 1010 66 7000 1.5 30 04:51 24.03.2020
682 Haze 29 1010 74 4000 1.5 190 03:21 24.03.2020
683 Haze 29 1010 83 3000 1.5 130 02:37 24.03.2020
684 Mist 25 1009 100 3000 1.5 150 00:54 24.03.2020
685 Mist 25 1009 100 3000 1.5 120 00:27 24.03.2020
686 Mist 25 1008 88 3300 2.6 0 23:56 23.03.2020
687 Haze 25 1008 88 3000 1.5 150 23:37 23.03.2020
688 Haze 25 1008 88 3000 2.6 160 23:19 23.03.2020
689 Haze 25 1008 88 3000 2.6 160 22:44 23.03.2020
690 Mist 25 1008 94 3000 0.47 338 22:22 23.03.2020
691 Haze 25 1008 88 3100 1 0 21:55 23.03.2020
692 Clouds 25 1008 88 3900 1.5 210 21:37 23.03.2020
693 Clouds 25 1008 88 3900 1.5 210 21:18 23.03.2020
694 Clouds 25 1008 88 4000 1.5 220 20:44 23.03.2020
695 Haze 25 1009 88 4000 2.1 210 20:26 23.03.2020
696 Haze 25 1009 94 3500 1 0 19:59 23.03.2020
697 Haze 26 1010 88 4000 1 0 19:41 23.03.2020
698 Haze 26 1010 88 4000 1 0 19:22 23.03.2020
699 Haze 26 1010 88 4000 1 0 18:54 23.03.2020
700 Haze 26 1010 83 4500 1.5 230 18:36 23.03.2020
701 Haze 26 1010 83 4500 1.5 230 18:18 23.03.2020
702 Haze 26 1010 83 4000 1 0 17:41 23.03.2020
703 Haze 26 1011 83 4000 2.6 200 17:20 23.03.2020
704 Haze 26 1011 83 4000 2.6 200 16:55 23.03.2020
705 Haze 26 1011 83 4000 2.6 200 16:36 23.03.2020
706 Haze 26 1011 83 4000 2.6 200 16:18 23.03.2020
707 Haze 26 1010 88 4000 3.1 190 15:40 23.03.2020
708 Haze 26 1010 88 4000 3.1 190 15:19 23.03.2020
709 Haze 26 1010 88 4000 2.6 220 14:38 23.03.2020
710 Haze 26 1010 88 4000 2.6 220 14:19 23.03.2020
711 Haze 26 1009 94 4000 1.5 150 13:57 23.03.2020
712 Haze 26 1009 88 4000 1.5 140 13:38 23.03.2020
713 Haze 26 1009 88 4000 1.5 140 13:38 23.03.2020
714 Haze 26 1009 88 4000 1.5 140 13:38 23.03.2020
715 Haze 26 1009 88 4000 1.5 140 13:20 23.03.2020
716 Rain 26 1008 83 4000 1.5 160 12:43 23.03.2020
717 Rain 26 1008 83 4000 1.5 160 12:25 23.03.2020
718 Clouds 26 1008 83 6000 2.6 0 11:57 23.03.2020
719 Rain 25 1008 78 5000 2.61 354 11:38 23.03.2020
720 Rain 25 1008 78 5000 2.61 354 11:38 23.03.2020
721 Rain 26 1008 83 5000 2.1 160 11:19 23.03.2020
722 Rain 27 1008 83 5000 2.1 160 10:56 23.03.2020
723 Rain 28 1008 78 5000 2.6 180 10:37 23.03.2020
724 Rain 27 1008 78 5000 2.6 180 10:19 23.03.2020
725 Rain 29 1008 66 5000 2.1 210 09:43 23.03.2020
726 Rain 29 1008 66 5000 2.1 210 09:21 23.03.2020
727 Rain 32 1008 59 5000 2.1 360 08:40 23.03.2020
728 Rain 32 1008 59 5000 2.1 360 08:20 23.03.2020
729 Rain 31 1009 59 5000 3.1 360 07:59 23.03.2020
730 Rain 31 1009 59 5000 3.1 360 07:59 23.03.2020
731 Rain 31 1009 62 5000 1.5 330 07:40 23.03.2020
732 Rain 31 1009 62 5000 1.5 330 07:19 23.03.2020
733 Rain 32 1010 59 5000 1.5 330 06:48 23.03.2020
734 Clouds 32 1011 66 10000 3.6 20 05:50 23.03.2020
735 Clouds 31 1011 62 10000 3.1 10 04:57 23.03.2020
736 Haze 29 1012 66 5000 1.5 100 03:24 23.03.2020
737 Clouds 27 1011 78 9000 1.5 0 01:50 23.03.2020
738 Clouds 26 1011 88 6000 2.35 129 00:52 23.03.2020
739 Mist 25 1011 88 3000 1 0 00:33 23.03.2020
740 Haze 25 1010 94 4000 1.5 250 23:46 22.03.2020
741 Haze 25 1010 94 4000 1.5 250 23:25 22.03.2020
742 Haze 25 1010 94 4000 1.5 210 22:45 22.03.2020
743 Haze 25 1010 94 4000 1.5 210 22:23 22.03.2020
744 Mist 25 1010 88 2500 1.5 0 21:55 22.03.2020
745 Mist 25 1010 88 2500 1 0 21:37 22.03.2020
746 Mist 25 1010 88 2500 1 0 21:18 22.03.2020
747 Mist 25 1010 94 2500 1 260 20:46 22.03.2020
748 Mist 25 1010 94 2500 2.6 270 20:25 22.03.2020
749 Mist 25 1010 94 2500 2.6 270 20:25 22.03.2020
750 Mist 25 1011 94 2500 2.1 280 19:58 22.03.2020
751 Mist 25 1011 94 3000 1 360 19:40 22.03.2020
752 Mist 25 1011 94 3000 1 360 19:20 22.03.2020
753 Haze 25 1011 88 5000 1 10 18:59 22.03.2020
754 Clouds 26 1011 83 7000 1 40 18:41 22.03.2020
755 Clouds 26 1011 83 7000 1 40 18:22 22.03.2020
756 Clouds 26 1012 88 6000 0.5 0 17:58 22.03.2020
757 Clouds 26 1012 83 8000 2.1 0 17:38 22.03.2020
758 Clouds 26 1012 83 8000 2.1 0 17:20 22.03.2020
759 Clouds 26 1012 83 8000 2.6 200 16:57 22.03.2020
760 Clouds 26 1012 88 8000 2.6 180 16:39 22.03.2020
761 Clouds 26 1012 88 8000 2.6 180 16:39 22.03.2020
762 Clouds 26 1012 88 8000 2.6 180 16:21 22.03.2020
763 Clouds 26 1012 88 8000 3.1 210 15:44 22.03.2020
764 Clouds 26 1012 88 8000 2.6 220 15:26 22.03.2020
765 Clouds 26 1011 88 8000 1.5 230 14:46 22.03.2020
766 Clouds 27 1011 88 8000 1 250 14:19 22.03.2020
767 Clouds 27 1010 88 7000 1 300 13:55 22.03.2020
768 Clouds 27 1010 78 6000 1.5 20 13:37 22.03.2020
769 Clouds 28 1010 78 6000 1.5 20 13:18 22.03.2020
770 Clouds 28 1009 83 8000 1.5 360 12:43 22.03.2020
771 Clouds 29 1009 74 10000 2.1 360 12:20 22.03.2020
772 Clouds 29 1009 74 10000 2.1 360 11:56 22.03.2020
773 Clouds 29 1008 66 6000 3.1 10 11:37 22.03.2020
774 Clouds 29 1008 66 6000 3.1 10 11:19 22.03.2020
775 Clouds 30 1008 62 6000 4.1 350 10:43 22.03.2020
776 Clouds 30 1008 62 6000 4.1 350 10:23 22.03.2020
777 Clouds 30 1008 62 6000 2.1 10 09:48 22.03.2020
778 Clouds 30 1008 62 6000 1.5 240 09:29 22.03.2020
779 Clouds 29 1008 58 6000 2.1 280 08:54 22.03.2020
780 Clouds 29 1009 58 6000 2.1 20 08:36 22.03.2020
781 Clouds 29 1009 58 6000 2.1 20 08:18 22.03.2020
782 Clouds 30 1009 62 6000 2.1 300 07:41 22.03.2020
783 Clouds 29 1011 70 6000 2.1 150 07:18 22.03.2020
784 Rain 26 1012 83 6000 1 0 05:54 22.03.2020
785 Rain 26 1013 94 5000 2.1 320 04:50 22.03.2020
786 Thunderstorm 27 1013 94 5000 0.5 0 02:43 22.03.2020
787 Rain 26 1012 88 4000 1.49 89 01:20 22.03.2020
788 Haze 26 1011 88 5000 2.1 130 00:35 22.03.2020
789 Rain 26 1011 94 5000 1 290 23:57 21.03.2020
790 Thunderstorm 26 1010 88 5000 2.1 290 23:38 21.03.2020
791 Thunderstorm 26 1010 94 4000 0.5 0 23:18 21.03.2020
792 Thunderstorm 26 1010 88 4000 2.1 70 22:38 21.03.2020
793 Thunderstorm 26 1010 88 4000 2.1 70 22:20 21.03.2020
794 Thunderstorm 26 1010 83 4000 5.7 20 21:59 21.03.2020
795 Thunderstorm 27 1010 83 5000 2.6 0 21:39 21.03.2020
796 Thunderstorm 28 1010 83 5000 2.6 0 21:21 21.03.2020
797 Thunderstorm 28 1010 83 5000 2.1 30 20:45 21.03.2020
798 Haze 28 1010 83 5000 2.1 50 20:23 21.03.2020
799 Haze 28 1010 83 5000 2.6 50 19:57 21.03.2020
800 Haze 28 1011 83 5000 3.1 60 19:38 21.03.2020
801 Haze 28 1011 83 5000 3.1 60 19:19 21.03.2020
802 Haze 28 1011 83 5000 3.6 70 18:54 21.03.2020
803 Haze 28 1011 83 5000 3.6 70 18:36 21.03.2020
804 Haze 28 1011 83 5000 3.6 60 18:18 21.03.2020
805 Haze 28 1011 83 5000 3.6 60 18:18 21.03.2020
806 Haze 28 1011 83 5000 3.6 70 17:42 21.03.2020
807 Haze 28 1011 83 5000 3.6 70 17:23 21.03.2020
808 Haze 28 1012 83 5000 3.6 70 16:56 21.03.2020
809 Thunderstorm 28 1012 78 5000 2.6 60 16:38 21.03.2020
810 Thunderstorm 28 1012 78 5000 2.6 60 16:18 21.03.2020
811 Haze 29 1011 79 5000 1.5 60 15:41 21.03.2020
812 Haze 29 1011 79 5000 1.5 60 15:23 21.03.2020
813 Haze 29 1011 79 5000 1.5 50 14:58 21.03.2020
814 Haze 29 1011 79 5000 1.5 50 14:58 21.03.2020
815 Haze 29 1010 83 5000 1.5 50 14:40 21.03.2020
816 Haze 29 1010 83 5000 1.5 50 14:20 21.03.2020
817 Haze 29 1010 79 5000 2.6 60 13:59 21.03.2020
818 Clouds 29 1010 74 6000 3.1 40 13:40 21.03.2020
819 Clouds 29 1010 74 6000 3.1 40 13:21 21.03.2020
820 Clouds 29 1010 74 6000 3.1 40 13:21 21.03.2020
821 Clouds 29 1009 79 8000 2.6 50 12:58 21.03.2020
822 Clouds 29 1009 79 8000 2.6 50 12:37 21.03.2020
823 Clouds 30 1008 74 9000 3.1 50 12:19 21.03.2020
824 Clouds 30 1008 74 9000 3.1 50 11:55 21.03.2020
825 Clouds 29 1008 74 9000 3.1 50 11:37 21.03.2020
826 Clouds 30 1008 74 9000 4.1 40 11:18 21.03.2020
827 Clouds 31 1008 74 9000 4.1 40 10:56 21.03.2020
828 Rain 31 1008 66 6000 4.1 360 10:38 21.03.2020
829 Rain 31 1008 66 6000 4.1 360 10:19 21.03.2020
830 Clouds 31 1008 70 6000 3.6 40 09:55 21.03.2020
831 Clouds 31 1008 66 9000 4.6 70 09:36 21.03.2020
832 Clouds 31 1008 66 9000 4.6 70 09:18 21.03.2020
833 Clouds 31 1008 66 9000 4.6 60 08:42 21.03.2020
834 Clouds 32 1008 66 6000 4.1 10 08:23 21.03.2020
835 Clouds 32 1010 59 6000 3.6 50 07:43 21.03.2020
836 Clouds 32 1010 59 6000 3.6 50 07:23 21.03.2020
837 Clouds 32 1011 66 9000 4.1 80 06:47 21.03.2020
838 Clouds 32 1011 66 9000 4.1 80 06:27 21.03.2020
839 Clouds 31 1012 70 9000 4.6 90 05:46 21.03.2020
840 Haze 31 1013 70 5000 2.6 120 04:46 21.03.2020
841 Haze 28 1013 70 5000 2.66 62 02:51 21.03.2020
842 Haze 28 1012 74 4000 1.5 210 02:33 21.03.2020
843 Haze 25 1011 94 4000 1.28 94 01:32 21.03.2020
844 Mist 24 1011 100 4000 1.28 94 00:48 21.03.2020
845 Mist 24 1011 100 3000 1.28 94 00:26 21.03.2020
846 Mist 24 1010 100 3000 1.28 94 23:51 20.03.2020
847 Mist 24 1010 100 3000 1.28 94 23:27 20.03.2020
848 Clouds 24 1010 88 6000 1 0 22:57 20.03.2020
849 Mist 24 1010 100 3000 1.84 184 22:39 20.03.2020
850 Mist 24 1010 100 3000 1.84 184 22:20 20.03.2020
851 Clouds 24 1010 88 6000 1 160 21:55 20.03.2020
852 Clouds 24 1010 94 6000 0.5 220 21:37 20.03.2020
853 Clouds 24 1010 94 6000 0.5 220 21:18 20.03.2020
854 Haze 24 1010 88 5000 0.5 160 20:55 20.03.2020
855 Haze 25 1011 88 4000 1 160 20:37 20.03.2020
856 Haze 25 1011 88 4000 1 160 20:18 20.03.2020
857 Haze 24 1011 94 4000 1 240 19:44 20.03.2020
858 Haze 25 1011 88 4000 1 0 19:18 20.03.2020
859 Haze 25 1011 88 4000 1 110 18:55 20.03.2020
860 Haze 25 1011 88 4000 1 110 18:36 20.03.2020
861 Haze 25 1012 88 5000 1 150 18:18 20.03.2020
862 Haze 25 1012 88 5000 1 150 17:39 20.03.2020
863 Haze 25 1012 88 5000 1.5 180 17:21 20.03.2020
864 Haze 25 1012 88 5000 1.5 180 16:57 20.03.2020
865 Haze 25 1013 94 5000 1.5 150 16:39 20.03.2020
866 Haze 25 1013 94 5000 1.5 150 16:18 20.03.2020
867 Haze 25 1013 94 5000 2.6 190 15:42 20.03.2020
868 Haze 25 1013 94 5000 2.6 190 15:21 20.03.2020
869 Clouds 25 1012 88 6000 2.6 150 14:55 20.03.2020
870 Rain 25 1012 94 4000 2.1 230 14:37 20.03.2020
871 Rain 25 1012 94 4000 2.1 230 14:18 20.03.2020
872 Rain 25 1011 94 3000 3.1 200 13:42 20.03.2020
873 Rain 25 1011 94 3000 3.1 200 13:19 20.03.2020
874 Rain 25 1011 88 5000 2.6 170 12:40 20.03.2020
875 Rain 25 1011 88 5000 2.6 170 12:22 20.03.2020
876 Rain 25 1010 88 5000 1.5 0 11:58 20.03.2020
877 Rain 25 1010 88 6000 3.1 220 11:38 20.03.2020
878 Rain 26 1009 94 3000 2.6 230 11:19 20.03.2020
879 Thunderstorm 26 1009 100 3000 1.5 150 10:42 20.03.2020
880 Thunderstorm 26 1009 100 3000 1.5 150 10:21 20.03.2020
881 Thunderstorm 26 1009 100 3000 1.5 250 09:57 20.03.2020
882 Thunderstorm 27 1009 100 3000 1.5 300 09:39 20.03.2020
883 Thunderstorm 26 1009 100 3000 1.5 300 09:19 20.03.2020
884 Thunderstorm 27 1009 100 2500 2.6 270 08:42 20.03.2020
885 Thunderstorm 27 1010 94 3000 3.6 300 08:22 20.03.2020
886 Thunderstorm 27 1010 94 3000 3.6 300 08:22 20.03.2020
887 Thunderstorm 27 1010 94 3000 3.6 300 08:22 20.03.2020
888 Thunderstorm 28 1009 88 4000 7.2 10 07:55 20.03.2020
889 Rain 29 1010 66 4000 2.6 20 07:37 20.03.2020
890 Rain 30 1010 66 5000 2.6 240 07:18 20.03.2020
891 Rain 30 1010 74 5000 5.7 300 06:41 20.03.2020
892 Clouds 31 1012 70 6000 3.6 240 04:52 20.03.2020
893 Haze 28 1013 78 5000 2.1 240 03:40 20.03.2020
894 Haze 26 1012 94 4000 1.5 250 02:21 20.03.2020
895 Mist 26 1011 100 4000 1.5 240 01:33 20.03.2020
896 Haze 24 1011 94 3000 1 0 00:33 20.03.2020
897 Clouds 24 1010 94 6000 1 200 23:49 19.03.2020
898 Clouds 24 1010 94 6000 1 200 23:30 19.03.2020
899 Mist 24 1010 100 3000 2.39 144 22:57 19.03.2020
900 Mist 24 1010 100 3000 1.5 270 22:38 19.03.2020
901 Mist 24 1010 100 3000 1.5 270 22:20 19.03.2020
902 Mist 24 1010 94 5000 1.5 220 21:55 19.03.2020
903 Mist 24 1010 94 5000 1 0 21:37 19.03.2020
904 Mist 24 1010 94 5000 1 0 21:18 19.03.2020
905 Mist 24 1010 94 5000 1 150 20:42 19.03.2020
906 Mist 24 1010 94 5000 1 150 20:23 19.03.2020
907 Clouds 24 1011 94 6000 1 0 19:57 19.03.2020
908 Clouds 24 1011 94 5000 1.5 220 19:38 19.03.2020
909 Clouds 24 1011 94 5000 1.5 220 19:20 19.03.2020
910 Clouds 24 1011 94 5000 1.5 220 18:56 19.03.2020
911 Clouds 24 1011 94 5000 1.5 220 18:56 19.03.2020
912 Clouds 24 1012 94 5000 1 0 18:38 19.03.2020
913 Clouds 24 1012 94 5000 1 0 18:38 19.03.2020
914 Clouds 24 1012 94 6000 1.5 210 18:19 19.03.2020
915 Clouds 25 1013 88 6000 1.5 220 17:42 19.03.2020
916 Rain 25 1013 88 6000 2.1 140 17:19 19.03.2020
917 Rain 25 1013 88 6000 2.1 140 16:55 19.03.2020
918 Rain 25 1012 100 4000 2.1 120 16:37 19.03.2020
919 Rain 25 1012 100 4000 2.1 120 16:19 19.03.2020
920 Thunderstorm 24 1012 94 5000 1.5 130 15:40 19.03.2020
921 Thunderstorm 24 1012 94 5000 1.5 130 15:18 19.03.2020
922 Thunderstorm 25 1012 94 3000 1.5 120 14:43 19.03.2020
923 Thunderstorm 26 1012 94 3000 1.5 120 14:21 19.03.2020
924 Thunderstorm 26 1011 94 1500 5.1 180 13:42 19.03.2020
925 Thunderstorm 26 1011 94 1500 5.1 180 13:21 19.03.2020
926 Rain 27 1010 88 4000 5.1 180 12:58 19.03.2020
927 Clouds 27 1010 78 8000 3.6 210 12:40 19.03.2020
928 Clouds 28 1010 74 8000 2.6 200 12:21 19.03.2020
929 Clouds 29 1009 70 8000 2.6 0 11:43 19.03.2020
930 Rain 29 1008 74 6000 3.6 360 11:24 19.03.2020
931 Rain 29 1008 74 6000 3.6 360 10:58 19.03.2020
932 Clouds 30 1008 70 6000 2.6 360 10:38 19.03.2020
933 Clouds 30 1008 70 6000 2.6 360 10:19 19.03.2020
934 Clouds 30 1008 70 6000 4.1 360 09:55 19.03.2020
935 Clouds 30 1008 70 6000 2.1 360 09:37 19.03.2020
936 Clouds 31 1008 70 6000 2.1 360 09:18 19.03.2020
937 Clouds 31 1009 70 6000 2.6 360 08:41 19.03.2020
938 Clouds 31 1009 70 6000 2.6 360 08:20 19.03.2020
939 Rain 29 1010 79 5000 2.1 330 07:45 19.03.2020
940 Rain 28 1010 79 5000 2.1 330 07:25 19.03.2020
941 Rain 30 1010 74 6000 4.1 10 06:43 19.03.2020
942 Clouds 32 1011 62 8000 5.1 330 05:48 19.03.2020
943 Rain 31 1012 62 5000 2.6 30 04:57 19.03.2020
944 Rain 31 1012 66 5000 2.1 240 04:39 19.03.2020
945 Haze 28 1012 70 4000 2.1 300 02:49 19.03.2020
946 Mist 27 1011 100 2000 2.1 220 01:21 19.03.2020
947 Mist 25 1010 94 2500 1.5 0 00:28 19.03.2020
948 Haze 25 1009 94 3000 1.5 230 23:51 18.03.2020
949 Haze 25 1009 94 3000 1.5 230 23:30 18.03.2020
950 Haze 25 1009 94 3000 1.5 230 23:30 18.03.2020
951 Mist 25 1009 88 3900 1.5 240 22:56 18.03.2020
952 Clouds 25 1009 88 4000 1.5 240 22:38 18.03.2020
953 Clouds 25 1009 88 4000 1.5 240 22:20 18.03.2020
954 Mist 26 1010 88 4000 1.5 180 21:42 18.03.2020
955 Mist 26 1010 88 4000 1.5 180 21:21 18.03.2020
956 Mist 26 1010 88 4300 1 230 20:59 18.03.2020
957 Mist 26 1010 94 3700 0.5 190 20:40 18.03.2020
958 Mist 26 1010 94 3700 0.5 190 20:40 18.03.2020
959 Mist 26 1010 94 3700 0.5 190 20:20 18.03.2020
960 Mist 26 1010 88 3000 1.5 210 19:56 18.03.2020
961 Mist 26 1010 94 3000 1 160 19:38 18.03.2020
962 Mist 26 1010 94 3000 1 160 19:20 18.03.2020
963 Mist 26 1011 83 4000 1 180 18:41 18.03.2020
964 Mist 26 1011 83 4000 1 180 18:21 18.03.2020
965 Mist 26 1011 83 4000 1 180 18:21 18.03.2020
966 Mist 26 1011 88 4000 1.5 160 17:59 18.03.2020
967 Mist 26 1011 88 4000 1.5 160 17:40 18.03.2020
968 Mist 26 1012 88 4000 2.1 180 17:21 18.03.2020
969 Mist 26 1012 88 4000 2.1 180 16:58 18.03.2020
970 Mist 26 1011 88 4000 1 0 16:40 18.03.2020
971 Mist 26 1011 88 4000 1 0 16:20 18.03.2020
972 Mist 26 1011 88 4000 1 0 15:45 18.03.2020
973 Mist 26 1011 83 5000 1 0 15:23 18.03.2020
974 Clouds 26 1011 83 6000 1 0 14:56 18.03.2020
975 Clouds 26 1011 78 7000 1 0 14:38 18.03.2020
976 Clouds 27 1011 78 7000 1 0 14:19 18.03.2020
977 Clouds 27 1010 83 8000 1.5 0 13:38 18.03.2020
978 Clouds 27 1010 83 8000 1.5 0 13:19 18.03.2020
979 Clouds 27 1010 83 8000 2.1 130 12:42 18.03.2020
980 Clouds 27 1009 83 9000 1 100 12:20 18.03.2020
981 Clouds 28 1009 78 9000 1 0 11:41 18.03.2020
982 Clouds 28 1009 83 8000 2.1 0 11:21 18.03.2020
983 Clouds 28 1009 83 8000 2.1 0 10:58 18.03.2020
984 Clouds 28 1009 78 6000 1.5 250 10:39 18.03.2020
985 Clouds 28 1009 78 6000 1.5 250 10:20 18.03.2020
986 Clouds 28 1008 83 7000 2.1 0 09:59 18.03.2020
987 Clouds 28 1009 78 6000 2.1 280 09:39 18.03.2020
988 Clouds 28 1009 78 6000 2.1 280 09:21 18.03.2020
989 Rain 28 1009 83 5000 2.1 290 08:40 18.03.2020
990 Rain 27 1009 83 5000 2.1 290 08:21 18.03.2020
991 Haze 27 1010 88 5000 1.5 10 07:49 18.03.2020
992 Haze 27 1010 88 5000 1.5 10 07:31 18.03.2020
993 Rain 26 1010 88 8000 2.6 0 06:54 18.03.2020
994 Rain 26 1010 88 8000 2.6 0 06:35 18.03.2020
995 Thunderstorm 26 1011 88 6000 2.6 0 05:37 18.03.2020
996 Rain 28 1012 79 3000 2.6 90 04:32 18.03.2020
997 Rain 28 1011 78 3000 1.5 90 03:21 18.03.2020
998 Rain 27 1011 78 4000 2.54 329 02:35 18.03.2020
999 Haze 27 1011 88 3000 1.5 170 01:32 18.03.2020
1000 Haze 26 1010 88 5000 1.5 0 00:42 18.03.2020
1001 Rain 26 1010 88 4000 3.16 133 00:21 18.03.2020
1002 Rain 26 1010 88 5000 3.16 133 23:41 17.03.2020
1003 Haze 26 1009 88 5000 0.5 0 23:20 17.03.2020
1004 Thunderstorm 26 1009 88 5000 1 0 22:42 17.03.2020
1005 Thunderstorm 26 1009 88 5000 1 0 22:24 17.03.2020
1006 Thunderstorm 26 1009 88 5000 1 0 21:43 17.03.2020
1007 Thunderstorm 26 1009 88 5000 1 130 21:23 17.03.2020
1008 Thunderstorm 26 1009 94 5000 1 160 20:57 17.03.2020
1009 Thunderstorm 26 1010 88 5000 2.1 140 20:37 17.03.2020
1010 Thunderstorm 26 1010 88 5000 2.1 140 20:19 17.03.2020
1011 Mist 26 1010 94 5000 2.6 100 19:41 17.03.2020
1012 Clouds 26 1010 88 6000 1 0 19:19 17.03.2020
1013 Clouds 26 1010 88 6000 1 0 18:57 17.03.2020
1014 Thunderstorm 26 1011 88 5000 1.5 0 18:39 17.03.2020
1015 Thunderstorm 26 1011 88 5000 1.5 0 18:21 17.03.2020
1016 Mist 26 1011 88 5000 1.5 180 17:56 17.03.2020
1017 Mist 26 1011 88 5000 1.5 180 17:37 17.03.2020
1018 Thunderstorm 26 1012 88 2500 2.1 0 17:18 17.03.2020
1019 Rain 27 1012 83 5000 2.6 220 16:41 17.03.2020
1020 Rain 27 1012 83 5000 2.6 220 16:19 17.03.2020
1021 Clouds 27 1012 83 6000 2.6 230 15:45 17.03.2020
1022 Clouds 27 1011 83 6000 3.6 230 15:22 17.03.2020
1023 Thunderstorm 29 1011 74 8000 1 310 14:44 17.03.2020
1024 Clouds 29 1011 74 7000 1.5 310 14:25 17.03.2020
1025 Clouds 29 1010 74 7000 1.5 300 13:58 17.03.2020
1026 Rain 29 1010 74 5000 2.1 330 13:39 17.03.2020
1027 Rain 29 1010 74 5000 2.1 330 13:21 17.03.2020
1028 Clouds 29 1009 74 8000 2.6 360 12:44 17.03.2020
1029 Rain 30 1008 70 5000 4.6 10 12:24 17.03.2020
1030 Rain 30 1008 70 5000 4.6 10 11:55 17.03.2020
1031 Clouds 31 1008 70 10000 3.6 360 11:37 17.03.2020
1032 Clouds 31 1007 62 6000 4.6 20 11:19 17.03.2020
1033 Clouds 31 1007 62 6000 4.6 20 10:54 17.03.2020
1034 Clouds 31 1007 62 6000 3.1 350 10:36 17.03.2020
1035 Clouds 31 1007 62 6000 3.1 350 10:18 17.03.2020
1036 Clouds 32 1007 62 6000 6.2 10 09:44 17.03.2020
1037 Clouds 33 1007 62 6000 6.2 10 09:20 17.03.2020
1038 Clouds 32 1008 59 6000 5.1 30 08:51 17.03.2020
1039 Clouds 32 1009 59 6000 4.1 350 08:24 17.03.2020
1040 Clouds 33 1009 59 10000 5.1 350 07:58 17.03.2020
1041 Clouds 32 1009 62 6000 2.6 350 07:39 17.03.2020
1042 Clouds 32 1009 62 6000 2.6 350 07:19 17.03.2020
1043 Clouds 33 1010 59 10000 4.6 360 06:40 17.03.2020
1044 Clouds 33 1010 59 10000 3.6 20 06:19 17.03.2020
1045 Haze 31 1012 66 5000 2.1 60 04:40 17.03.2020
1046 Haze 31 1012 70 4000 1.5 90 03:19 17.03.2020
1047 Haze 28 1012 83 3000 1.5 140 01:49 17.03.2020
1048 Mist 27 1011 94 3000 1.9 95 01:29 17.03.2020
1049 Haze 25 1011 88 5000 1.5 130 00:50 17.03.2020
1050 Haze 25 1011 88 5000 1.5 160 23:51 16.03.2020
1051 Haze 25 1011 88 5000 1.5 160 23:33 16.03.2020
1052 Mist 25 1010 100 3000 1.5 210 22:55 16.03.2020
1053 Mist 25 1010 100 3000 1.5 170 22:36 16.03.2020
1054 Mist 25 1010 100 3000 1.5 170 22:18 16.03.2020
1055 Haze 25 1010 88 5000 1 170 21:41 16.03.2020
1056 Clouds 25 1011 88 6000 1 0 21:23 16.03.2020
1057 Clouds 25 1011 88 6000 1 110 20:58 16.03.2020
1058 Clouds 25 1011 88 7000 0.5 0 20:38 16.03.2020
1059 Clouds 25 1011 88 7000 0.5 0 20:20 16.03.2020
1060 Clouds 25 1011 88 6000 3.1 160 19:42 16.03.2020
1061 Clouds 25 1012 88 6000 1.5 150 19:23 16.03.2020
1062 Clouds 25 1012 88 6000 1.5 100 18:57 16.03.2020
1063 Clouds 25 1012 88 6000 1.5 100 18:37 16.03.2020
1064 Clouds 25 1012 88 6000 1 210 18:18 16.03.2020
1065 Clouds 25 1012 88 6000 1.5 160 17:43 16.03.2020
1066 Clouds 25 1012 88 6000 1.5 160 17:24 16.03.2020
1067 Clouds 25 1013 88 6000 1.5 170 16:47 16.03.2020
1068 Clouds 25 1012 88 6000 1.5 190 16:29 16.03.2020
1069 Clouds 25 1012 88 6000 1.5 0 15:57 16.03.2020
1070 Rain 25 1012 88 6000 2.1 0 15:39 16.03.2020
1071 Rain 25 1012 88 6000 2.1 0 15:19 16.03.2020
1072 Thunderstorm 25 1012 100 4000 2.1 180 14:43 16.03.2020
1073 Thunderstorm 25 1012 100 4000 2.1 180 14:19 16.03.2020
1074 Thunderstorm 25 1012 100 4000 2.6 150 13:42 16.03.2020
1075 Thunderstorm 25 1012 100 4000 1.5 160 13:24 16.03.2020
1076 Thunderstorm 25 1011 88 5000 3.1 190 12:46 16.03.2020
1077 Thunderstorm 25 1011 88 5000 3.1 190 12:27 16.03.2020
1078 Thunderstorm 25 1011 88 5000 1 0 11:59 16.03.2020
1079 Thunderstorm 25 1011 88 5000 5.1 180 11:41 16.03.2020
1080 Thunderstorm 26 1010 100 500 8.2 220 11:18 16.03.2020
1081 Rain 28 1009 88 1000 7.7 210 10:42 16.03.2020
1082 Rain 28 1009 88 1000 7.7 210 10:24 16.03.2020
1083 Rain 32 1007 59 6000 5.1 360 09:45 16.03.2020
1084 Rain 32 1007 59 6000 5.1 360 09:27 16.03.2020
1085 Rain 32 1008 59 6000 5.1 360 08:56 16.03.2020
1086 Rain 33 1008 59 6000 7.2 360 08:26 16.03.2020
1087 Clouds 33 1009 59 6000 6.2 360 07:50 16.03.2020
1088 Clouds 33 1010 59 6000 3.6 40 07:28 16.03.2020
1089 Clouds 33 1010 63 6000 3.1 360 06:54 16.03.2020
1090 Clouds 33 1010 63 6000 3.1 360 06:54 16.03.2020
1091 Clouds 32 1010 62 10000 5.1 20 06:26 16.03.2020
1092 Clouds 32 1011 66 10000 5.1 30 05:50 16.03.2020
1093 Clouds 28 1012 78 7000 1 0 02:45 16.03.2020
1094 Haze 27 1011 88 5000 1.5 0 01:20 16.03.2020
1095 Mist 26 1010 94 3000 2.18 147 00:40 16.03.2020
1096 Clouds 26 1010 88 7000 1 110 23:49 15.03.2020
1097 Clouds 26 1010 88 7000 1 0 23:21 15.03.2020
1098 Clouds 26 1010 88 7000 1.5 140 22:56 15.03.2020
1099 Clouds 26 1009 88 7000 1 0 22:37 15.03.2020
1100 Clouds 26 1009 88 7000 1 0 22:19 15.03.2020
1101 Clouds 26 1009 88 6000 1 210 21:39 15.03.2020
1102 Clouds 26 1009 88 6000 1 210 21:19 15.03.2020
1103 Clouds 26 1010 88 6000 1 0 20:43 15.03.2020
1104 Thunderstorm 26 1010 88 5000 1.5 220 20:22 15.03.2020
1105 Haze 26 1010 88 5000 1 0 19:58 15.03.2020
1106 Haze 26 1010 83 5000 0.5 0 19:40 15.03.2020
1107 Haze 26 1010 83 5000 0.5 0 19:22 15.03.2020
1108 Haze 26 1010 88 5000 1 140 18:56 15.03.2020
1109 Haze 26 1011 83 5000 1.5 220 18:38 15.03.2020
1110 Haze 26 1011 83 5000 1.5 220 18:20 15.03.2020
1111 Haze 26 1011 83 5000 2.1 160 17:41 15.03.2020
1112 Haze 26 1011 83 5000 1.5 120 17:22 15.03.2020
1113 Haze 26 1011 83 5000 1.5 120 16:59 15.03.2020
1114 Rain 26 1011 88 5000 1.5 0 16:40 15.03.2020
1115 Rain 26 1011 88 5000 1.5 0 16:22 15.03.2020
1116 Rain 26 1011 83 5000 2.1 150 15:56 15.03.2020
1117 Rain 26 1011 78 5000 2.6 0 15:38 15.03.2020
1118 Rain 26 1011 78 5000 2.6 0 15:19 15.03.2020
1119 Thunderstorm 26 1011 78 5000 3.6 160 14:40 15.03.2020
1120 Thunderstorm 26 1010 78 0 3.6 130 14:22 15.03.2020
1121 Thunderstorm 27 1010 74 6000 3.1 180 13:56 15.03.2020
1122 Thunderstorm 28 1009 74 6000 1.5 360 13:38 15.03.2020
1123 Thunderstorm 28 1009 74 6000 1.5 360 13:38 15.03.2020
1124 Thunderstorm 28 1009 74 6000 1.5 360 13:19 15.03.2020
1125 Clouds 29 1008 74 8000 3.6 10 12:41 15.03.2020
1126 Clouds 29 1008 74 8000 3.6 10 12:23 15.03.2020
1127 Clouds 30 1007 74 10000 3.6 360 11:45 15.03.2020
1128 Clouds 30 1007 74 10000 3.6 360 11:26 15.03.2020
1129 Clouds 30 1007 74 10000 4.1 360 10:59 15.03.2020
1130 Clouds 31 1007 70 10000 4.6 360 10:41 15.03.2020
1131 Clouds 31 1007 70 10000 4.6 360 10:22 15.03.2020
1132 Clouds 31 1007 70 10000 4.6 360 10:22 15.03.2020
1133 Clouds 31 1007 70 10000 5.1 360 09:59 15.03.2020
1134 Clouds 32 1007 66 10000 6.2 10 09:39 15.03.2020
1135 Clouds 32 1007 66 10000 6.2 10 09:20 15.03.2020
1136 Clouds 32 1007 66 10000 5.1 360 08:41 15.03.2020
1137 Clouds 33 1007 66 10000 5.1 10 08:20 15.03.2020
1138 Clouds 33 1008 62 10000 5.7 10 07:50 15.03.2020
1139 Clouds 33 1008 62 10000 5.1 20 07:23 15.03.2020
1140 Clouds 33 1009 66 10000 5.1 10 06:44 15.03.2020
1141 Clouds 32 1009 62 10000 4.1 30 05:49 15.03.2020
1142 Clouds 31 1010 66 10000 4.1 50 04:58 15.03.2020
1143 Haze 31 1011 66 5000 1.5 20 04:40 15.03.2020
1144 Haze 30 1011 66 5000 1.5 20 04:20 15.03.2020
1145 Clouds 29 1011 74 10000 1 0 03:24 15.03.2020
1146 Clouds 29 1010 74 6000 2.6 140 02:28 15.03.2020
1147 Haze 26 1010 83 5000 1 0 00:59 15.03.2020
1148 Haze 26 1010 83 5000 1 0 00:41 15.03.2020
1149 Haze 26 1010 83 5000 1 0 00:19 15.03.2020
1150 Haze 26 1009 83 5000 1 160 23:41 14.03.2020
1151 Haze 26 1009 83 5000 1 160 23:20 14.03.2020
1152 Haze 26 1009 83 5000 1.5 120 22:56 14.03.2020
1153 Haze 26 1009 83 5000 1 0 22:38 14.03.2020
1154 Haze 26 1009 83 5000 1 0 22:20 14.03.2020
1155 Haze 26 1009 83 5000 1.5 160 21:55 14.03.2020
1156 Haze 26 1009 83 5000 1 160 21:36 14.03.2020
1157 Haze 26 1009 83 5000 1 160 21:18 14.03.2020
1158 Clouds 26 1009 83 5000 1 160 20:58 14.03.2020
1159 Haze 26 1009 83 5000 1.5 160 20:39 14.03.2020
1160 Haze 26 1009 83 5000 1.5 160 20:18 14.03.2020
1161 Haze 26 1009 83 5000 1 0 19:42 14.03.2020
1162 Haze 26 1009 83 5000 1 0 19:24 14.03.2020
1163 Haze 26 1010 83 5000 2.6 140 18:41 14.03.2020
1164 Clouds 26 1010 83 6000 3.6 120 18:21 14.03.2020
1165 Clouds 26 1010 83 6000 3.1 130 17:43 14.03.2020
1166 Rain 26 1011 88 5000 2.6 170 17:24 14.03.2020
1167 Rain 26 1011 88 5000 2.6 170 16:59 14.03.2020
1168 Rain 26 1011 88 5000 2.6 150 16:40 14.03.2020
1169 Rain 26 1011 88 5000 2.6 150 16:21 14.03.2020
1170 Rain 26 1011 88 5000 2.6 150 16:21 14.03.2020
1171 Rain 26 1011 88 5000 2.1 160 15:51 14.03.2020
1172 Rain 26 1010 94 4000 3.1 150 15:25 14.03.2020
1173 Rain 27 1010 88 4000 3.1 170 14:45 14.03.2020
1174 Rain 27 1010 83 5000 2.1 200 14:23 14.03.2020
1175 Clouds 27 1010 78 7000 2.6 160 13:57 14.03.2020
1176 Clouds 28 1010 78 7000 2.6 160 13:39 14.03.2020
1177 Thunderstorm 28 1010 79 8000 1.5 0 13:20 14.03.2020
1178 Clouds 28 1010 83 8000 2.1 50 12:45 14.03.2020
1179 Clouds 29 1010 83 8000 2.1 50 12:26 14.03.2020
1180 Clouds 30 1009 74 10000 3.1 340 11:56 14.03.2020
1181 -273 0 0 0 0 0 11:38 14.03.2020
1182 Thunderstorm 30 1008 70 10000 3.6 360 11:19 14.03.2020
1183 Rain 31 1007 62 6000 3.1 360 10:41 14.03.2020
1184 Rain 32 1007 62 6000 3.1 360 10:23 14.03.2020
1185 Clouds 32 1007 59 6000 5.1 360 09:44 14.03.2020
1186 Clouds 32 1007 59 6000 5.1 360 09:24 14.03.2020
1187 Clouds 32 1007 59 6000 5.1 360 09:24 14.03.2020
1188 Clouds 32 1007 56 6000 3.1 360 08:48 14.03.2020
1189 Haze 32 1008 56 5000 2.6 360 08:29 14.03.2020
1190 Rain 32 1008 63 5000 2.1 270 07:55 14.03.2020
1191 Rain 33 1009 55 5000 2.1 360 07:37 14.03.2020
1192 Rain 32 1009 55 5000 2.1 360 07:19 14.03.2020
1193 Clouds 33 1010 62 8000 3.6 330 06:40 14.03.2020
1194 Clouds 33 1010 62 8000 3.6 330 06:40 14.03.2020
1195 Clouds 32 1010 62 8000 3.1 40 05:43 14.03.2020
1196 Clouds 30 1012 66 7000 0.5 0 03:49 14.03.2020
1197 Haze 29 1012 74 3000 1.5 180 03:24 14.03.2020
1198 Haze 29 1012 78 2500 1.5 140 02:23 14.03.2020
1199 Mist 26 1011 83 4000 1 170 00:49 14.03.2020
1200 Mist 26 1010 94 3000 1.87 124 23:50 13.03.2020
1201 Mist 26 1010 94 3000 1.87 124 23:30 13.03.2020
1202 Mist 26 1010 83 3000 1.5 170 22:52 13.03.2020
1203 Haze 26 1009 83 4000 1.5 170 22:26 13.03.2020
1204 Clouds 26 1009 88 6000 0.5 0 21:44 13.03.2020
1205 Clouds 26 1009 88 6000 1 110 21:22 13.03.2020
1206 Clouds 26 1010 83 6000 0.5 0 20:59 13.03.2020
1207 Clouds 27 1010 83 6000 1 120 20:41 13.03.2020
1208 Clouds 27 1010 83 6000 1 120 20:21 13.03.2020
1209 Clouds 27 1010 83 7000 1 0 19:48 13.03.2020
1210 Clouds 26 1010 83 7000 1 0 19:30 13.03.2020
1211 Haze 26 1011 78 5000 1 0 18:51 13.03.2020
1212 Haze 26 1011 78 5000 1 0 18:32 13.03.2020
1213 Haze 26 1012 78 5000 1 0 17:59 13.03.2020
1214 Haze 26 1012 83 5000 1 70 17:41 13.03.2020
1215 Clouds 26 1012 78 8000 1 0 17:20 13.03.2020
1216 Clouds 26 1012 74 8000 1 120 16:42 13.03.2020
1217 Clouds 27 1012 74 8000 1 120 16:24 13.03.2020
1218 Clouds 27 1012 74 8000 1 0 15:59 13.03.2020
1219 Clouds 27 1012 74 8000 1.5 0 15:39 13.03.2020
1220 Clouds 27 1012 74 8000 1.5 0 15:20 13.03.2020
1221 Clouds 27 1012 74 8000 1 0 14:44 13.03.2020
1222 Clouds 28 1011 74 8000 1.5 0 14:23 13.03.2020
1223 Clouds 28 1011 74 8000 1 0 13:58 13.03.2020
1224 Clouds 28 1010 66 6000 1.5 330 13:39 13.03.2020
1225 Clouds 28 1010 66 9000 2.1 0 13:20 13.03.2020
1226 Clouds 28 1010 66 9000 2.1 0 12:55 13.03.2020
1227 Clouds 28 1010 66 9000 2.1 0 12:55 13.03.2020
1228 Clouds 29 1010 66 9000 2.1 0 12:37 13.03.2020
1229 Clouds 28 1010 66 10000 1.5 0 12:18 13.03.2020
1230 Clouds 30 1010 66 10000 2.6 0 11:43 13.03.2020
1231 Clouds 31 1009 62 10000 3.6 320 11:25 13.03.2020
1232 Clouds 32 1009 62 10000 3.6 320 10:57 13.03.2020
1233 Clouds 32 1009 55 6000 2.6 340 10:39 13.03.2020
1234 Clouds 32 1009 55 6000 2.6 340 10:21 13.03.2020
1235 Clouds 32 1009 58 10000 5.7 300 09:44 13.03.2020
1236 Clouds 32 1010 62 6000 3.1 360 09:25 13.03.2020
1237 Clouds 32 1010 62 10000 4.1 310 08:47 13.03.2020
1238 Clouds 32 1010 55 6000 4.1 20 08:23 13.03.2020
1239 Clouds 32 1011 62 10000 5.7 300 07:58 13.03.2020
1240 Clouds 33 1011 62 10000 4.6 300 07:38 13.03.2020
1241 Clouds 32 1011 70 10000 4.6 300 07:19 13.03.2020
1242 Clouds 31 1011 70 10000 4.6 300 06:44 13.03.2020
1243 Clouds 31 1011 70 10000 4.6 300 06:44 13.03.2020
1244 Clouds 32 1012 62 10000 4.1 310 05:56 13.03.2020
1245 Clouds 32 1012 62 10000 4.1 310 05:37 13.03.2020
1246 Clouds 31 1013 66 6000 2.1 210 04:38 13.03.2020
1247 Clouds 30 1013 74 10000 2.6 240 03:46 13.03.2020
1248 Clouds 26 1013 83 6000 2.1 260 01:48 13.03.2020
1249 Haze 25 1013 94 5000 1.5 280 01:19 13.03.2020
1250 Clouds 25 1013 88 7000 2.1 0 00:56 13.03.2020
1251 Clouds 24 1013 88 7000 2.1 0 00:37 13.03.2020
1252 Clouds 24 1013 88 6000 2.1 210 00:18 13.03.2020
1253 Clouds 24 1012 88 6000 2.1 220 23:29 12.03.2020
1254 Rain 24 1013 94 4000 1.5 290 22:59 12.03.2020
1255 Rain 24 1012 94 4000 1.5 230 22:41 12.03.2020
1256 Rain 24 1012 94 4000 1.5 230 22:23 12.03.2020
1257 Rain 24 1013 94 5000 2.6 240 21:54 12.03.2020
1258 Rain 24 1012 88 5000 2.1 210 21:36 12.03.2020
1259 Rain 24 1012 88 5000 2.1 210 21:18 12.03.2020
1260 Rain 24 1013 88 5000 1 0 20:42 12.03.2020
1261 Rain 24 1013 88 5000 1 0 20:42 12.03.2020
1262 Rain 24 1013 88 5000 1 0 20:19 12.03.2020
1263 Clouds 25 1013 83 6000 1 0 19:42 12.03.2020
1264 Clouds 25 1013 83 6000 1 0 19:21 12.03.2020
1265 Clouds 25 1013 83 6000 1 0 19:21 12.03.2020
1266 Clouds 25 1013 83 6000 2.6 190 18:45 12.03.2020
1267 Clouds 25 1013 83 6000 2.6 190 18:25 12.03.2020
1268 Clouds 25 1014 88 6000 0.5 0 17:58 12.03.2020
1269 Clouds 25 1014 88 6000 0.5 0 17:40 12.03.2020
1270 Clouds 25 1013 88 6000 3.1 200 17:21 12.03.2020
1271 Clouds 25 1013 88 6000 3.1 200 16:58 12.03.2020
1272 Clouds 25 1013 88 6000 2.1 180 16:39 12.03.2020
1273 Clouds 25 1013 88 6000 2.1 180 16:20 12.03.2020
1274 Clouds 25 1013 88 6000 2.6 150 15:47 12.03.2020
1275 Clouds 25 1013 88 6000 2.6 150 15:27 12.03.2020
1276 Thunderstorm 25 1013 88 5000 3.1 160 14:54 12.03.2020
1277 Thunderstorm 26 1012 88 5000 1.5 170 14:36 12.03.2020
1278 Thunderstorm 26 1012 88 5000 1.5 170 14:18 12.03.2020
1279 Rain 26 1011 94 2000 1.5 100 13:38 12.03.2020
1280 Rain 25 1011 94 2000 1.5 100 13:20 12.03.2020
1281 Thunderstorm 26 1011 88 3000 2.6 0 12:43 12.03.2020
1282 Thunderstorm 27 1010 83 6000 1.5 0 12:23 12.03.2020
1283 Thunderstorm 27 1010 83 6000 1.5 0 11:59 12.03.2020
1284 Thunderstorm 27 1010 78 6000 1 0 11:39 12.03.2020
1285 Haze 29 1010 83 5000 2.1 150 11:21 12.03.2020
1286 Haze 28 1010 83 5000 2.1 150 10:59 12.03.2020
1287 Haze 28 1010 94 5000 1.5 180 10:41 12.03.2020
1288 Haze 28 1010 94 5000 1.5 180 10:22 12.03.2020
1289 Haze 28 1010 94 5000 1.5 180 10:22 12.03.2020
1290 Rain 27 1010 88 4000 3.4 355 09:49 12.03.2020
1291 Rain 27 1010 88 4000 1.5 330 09:29 12.03.2020
1292 Rain 27 1010 88 4000 2.1 10 08:55 12.03.2020
1293 Thunderstorm 27 1010 83 4000 3.6 360 08:37 12.03.2020
1294 Thunderstorm 27 1010 83 4000 3.6 360 08:18 12.03.2020
1295 Thunderstorm 28 1011 74 4000 6.2 340 07:46 12.03.2020
1296 Rain 30 1011 74 5000 2.6 340 07:21 12.03.2020
1297 Thunderstorm 31 1011 74 7000 3.1 340 05:59 12.03.2020
1298 Rain 31 1011 74 4000 4.27 337 05:27 12.03.2020
1299 Haze 28 1011 83 5000 2.6 0 02:47 12.03.2020
1300 Haze 26 1011 88 5000 1.5 0 01:43 12.03.2020
1301 Rain 26 1011 94 3000 2.1 110 01:21 12.03.2020
1302 Rain 26 1010 83 5000 0.5 0 00:41 12.03.2020
1303 Thunderstorm 25 1010 88 6000 1.5 80 23:57 11.03.2020
1304 Thunderstorm 26 1009 83 6000 1.5 0 23:28 11.03.2020
1305 Thunderstorm 25 1009 83 6000 1.5 0 22:58 11.03.2020
1306 Clouds 25 1009 88 6000 1 180 22:39 11.03.2020
1307 Clouds 25 1009 88 6000 1 180 22:21 11.03.2020
1308 Clouds 25 1009 88 6000 2.1 0 21:56 11.03.2020
1309 Haze 24 1009 88 5000 2.6 190 21:37 11.03.2020
1310 Haze 25 1009 88 5000 2.6 190 21:19 11.03.2020
1311 Haze 25 1009 88 5000 1 0 20:55 11.03.2020
1312 Haze 25 1009 88 5000 1 0 20:55 11.03.2020
1313 Haze 24 1009 88 5000 2.1 160 20:36 11.03.2020
1314 Haze 24 1009 88 5000 2.1 160 20:18 11.03.2020
1315 Haze 24 1010 88 5000 2.6 210 19:42 11.03.2020
1316 Haze 24 1010 88 5000 2.6 210 19:23 11.03.2020
1317 Haze 25 1010 88 5000 2.1 230 18:56 11.03.2020
1318 Clouds 25 1011 88 6000 2.1 220 18:36 11.03.2020
1319 Clouds 25 1011 88 6000 1.5 220 18:18 11.03.2020
1320 Clouds 25 1011 88 6000 1.5 220 17:40 11.03.2020
1321 Clouds 25 1011 88 6000 1.5 230 17:21 11.03.2020
1322 Clouds 25 1011 88 6000 1.5 230 16:56 11.03.2020
1323 Rain 25 1011 83 5000 2.6 0 16:38 11.03.2020
1324 Rain 25 1011 83 5000 2.6 0 16:19 11.03.2020
1325 Thunderstorm 25 1011 88 5000 4.6 340 15:42 11.03.2020
1326 Thunderstorm 25 1011 88 5000 4.6 340 15:23 11.03.2020
1327 Thunderstorm 29 1010 79 6000 2.1 10 14:46 11.03.2020
1328 Thunderstorm 28 1010 83 8000 3.1 60 14:24 11.03.2020
1329 Clouds 28 1010 79 8000 3.6 50 13:59 11.03.2020
1330 Clouds 28 1009 79 8000 2.6 70 13:40 11.03.2020
1331 Clouds 28 1009 79 8000 2.6 70 13:22 11.03.2020
1332 Clouds 28 1008 79 8000 2.6 60 12:55 11.03.2020
1333 Haze 29 1008 74 5000 2.1 10 12:37 11.03.2020
1334 Clouds 29 1007 74 9000 3.6 50 12:18 11.03.2020
1335 Haze 30 1007 66 5000 4.1 10 11:40 11.03.2020
1336 Clouds 30 1007 74 9000 3.1 30 11:20 11.03.2020
1337 Clouds 30 1007 74 9000 3.1 30 10:47 11.03.2020
1338 Haze 31 1007 66 5000 4.6 350 10:20 11.03.2020
1339 Clouds 31 1007 70 10000 3.1 10 09:55 11.03.2020
1340 Rain 31 1007 62 5000 3.6 350 09:36 11.03.2020
1341 Rain 31 1007 62 5000 3.6 350 09:18 11.03.2020
1342 Clouds 32 1008 70 10000 4.6 10 08:42 11.03.2020
1343 Clouds 32 1008 70 10000 4.6 10 08:42 11.03.2020
1344 Rain 33 1007 59 5000 4.1 340 08:23 11.03.2020
1345 Clouds 32 1008 66 10000 5.7 340 07:47 11.03.2020
1346 Clouds 33 1009 66 10000 3.6 350 07:20 11.03.2020
1347 Clouds 33 1009 66 10000 4.1 330 06:49 11.03.2020
1348 Rain 33 1009 59 5000 3.1 350 06:30 11.03.2020
1349 Clouds 33 1009 66 10000 3.1 320 05:32 11.03.2020
1350 Clouds 29 1010 83 6000 2.87 306 02:43 11.03.2020
1351 Clouds 27 1009 88 6000 1.5 190 01:51 11.03.2020
1352 Clouds 25 1008 88 6000 1.5 0 00:53 11.03.2020
1353 Haze 25 1008 94 5000 1.5 150 00:31 11.03.2020
1354 Rain 26 1008 94 4000 1.5 240 23:47 10.03.2020
1355 Rain 25 1008 94 4000 1.5 240 23:22 10.03.2020
1356 Clouds 25 1008 88 7000 2.1 0 22:55 10.03.2020
1357 Rain 25 1008 78 4000 2.6 240 22:36 10.03.2020
1358 Rain 25 1008 78 4000 2.6 240 22:18 10.03.2020
1359 Thunderstorm 25 1008 88 8000 2.6 210 21:55 10.03.2020
1360 Clouds 25 1008 88 8000 2.1 230 21:37 10.03.2020
1361 Clouds 25 1008 88 8000 2.1 230 21:18 10.03.2020
1362 Rain 26 1008 88 8000 2.1 220 20:42 10.03.2020
1363 Rain 26 1008 88 8000 2.1 220 20:42 10.03.2020
1364 Clouds 26 1009 83 8000 2.6 230 20:19 10.03.2020
1365 Clouds 26 1009 78 8000 2.1 230 19:58 10.03.2020
1366 Clouds 26 1009 78 9000 2.1 230 19:40 10.03.2020
1367 Clouds 26 1009 78 9000 2.1 230 19:22 10.03.2020
1368 Clouds 26 1009 78 9000 2.6 220 18:55 10.03.2020
1369 Clouds 26 1009 83 7000 2.6 240 18:37 10.03.2020
1370 Clouds 26 1009 83 7000 2.6 240 18:18 10.03.2020
1371 Thunderstorm 26 1010 74 7000 2.6 220 17:41 10.03.2020
1372 Clouds 27 1009 74 7000 2.6 220 17:22 10.03.2020
1373 Clouds 27 1009 74 7000 2.6 220 16:57 10.03.2020
1374 Clouds 27 1009 78 7000 2.6 210 16:37 10.03.2020
1375 Clouds 27 1009 78 7000 2.6 210 16:18 10.03.2020
1376 Clouds 27 1009 74 9000 2.6 280 15:41 10.03.2020
1377 Clouds 28 1009 74 9000 2.6 280 15:20 10.03.2020
1378 Clouds 28 1009 74 9000 2.1 310 14:58 10.03.2020
1379 Clouds 28 1009 74 9000 3.1 290 14:40 10.03.2020
1380 Clouds 28 1009 74 9000 3.1 290 14:19 10.03.2020
1381 Clouds 28 1009 74 10000 2.6 300 13:43 10.03.2020
1382 Haze 28 1008 94 5000 1.5 330 13:25 10.03.2020
1383 Rain 28 1008 88 5000 1.5 330 12:55 10.03.2020
1384 Rain 28 1007 88 5000 2.1 340 12:37 10.03.2020
1385 Rain 29 1007 62 6000 2.1 350 12:18 10.03.2020
1386 Rain 30 1006 59 6000 1.5 260 11:42 10.03.2020
1387 Rain 31 1006 59 6000 1.5 260 11:24 10.03.2020
1388 Rain 31 1006 59 6000 1.5 260 11:24 10.03.2020
1389 Rain 31 1006 59 5000 2.6 300 10:57 10.03.2020
1390 Rain 31 1006 59 5000 2.6 300 10:57 10.03.2020
1391 Rain 31 1006 55 5000 2.6 270 10:39 10.03.2020
1392 Rain 32 1006 55 5000 2.6 270 10:19 10.03.2020
1393 Clouds 32 1006 55 10000 6.2 310 09:45 10.03.2020
1394 Rain 33 1006 55 5000 3.1 250 09:20 10.03.2020
1395 Rain 33 1006 59 5000 3.1 330 08:58 10.03.2020
1396 Rain 33 1006 59 5000 2.6 330 08:40 10.03.2020
1397 Rain 33 1006 59 5000 2.6 330 08:20 10.03.2020
1398 Clouds 34 1007 49 6000 3.1 240 07:42 10.03.2020
1399 Clouds 34 1007 49 6000 3.1 240 07:23 10.03.2020
1400 Clouds 35 1008 49 6000 4.1 240 06:38 10.03.2020
1401 Clouds 34 1008 59 10000 5.7 320 05:55 10.03.2020
1402 Clouds 34 1008 59 10000 5.1 310 05:35 10.03.2020
1403 Clouds 32 1009 55 6000 4.1 240 04:31 10.03.2020
1404 Clouds 31 1009 58 6000 4.1 240 03:19 10.03.2020
1405 Clouds 27 1008 83 8000 2.6 270 01:36 10.03.2020
1406 Clouds 26 1008 88 7000 3.6 260 00:51 10.03.2020
1407 Clouds 26 1008 88 7000 3.6 260 00:29 10.03.2020
1408 Clouds 26 1008 83 6000 3.6 260 23:43 09.03.2020
1409 Clouds 26 1008 83 6000 3.6 260 23:23 09.03.2020
1410 Clouds 26 1008 83 7000 4.6 250 22:58 09.03.2020
1411 Clouds 26 1008 83 7000 4.1 260 22:38 09.03.2020
1412 Clouds 26 1008 83 7000 4.1 260 22:20 09.03.2020
1413 Clouds 26 1008 88 7000 4.6 270 21:45 09.03.2020
1414 Clouds 26 1008 88 7000 4.6 260 21:22 09.03.2020
1415 Clouds 26 1008 88 7000 4.6 260 20:59 09.03.2020
1416 Clouds 25 1008 88 6000 4.1 260 20:41 09.03.2020
1417 Clouds 25 1008 88 6000 4.1 260 20:22 09.03.2020
1418 Clouds 25 1008 83 6000 4.1 270 19:59 09.03.2020
1419 Clouds 26 1009 83 6000 4.1 270 19:41 09.03.2020
1420 Clouds 26 1009 83 6000 4.1 270 19:19 09.03.2020
1421 Clouds 26 1009 78 6000 4.6 260 18:56 09.03.2020
1422 Clouds 26 1009 78 6000 4.6 260 18:56 09.03.2020
1423 Clouds 26 1009 78 6000 4.6 260 18:38 09.03.2020
1424 Clouds 26 1009 78 6000 5.7 250 18:18 09.03.2020
1425 Clouds 26 1009 78 6000 5.7 250 17:55 09.03.2020
1426 Clouds 26 1009 78 6000 5.7 250 17:37 09.03.2020
1427 Clouds 26 1010 74 6000 6.2 270 17:19 09.03.2020
1428 Clouds 27 1010 74 6000 6.2 270 16:56 09.03.2020
1429 Clouds 26 1010 74 6000 7.2 270 16:37 09.03.2020
1430 Clouds 27 1010 74 6000 7.2 270 16:19 09.03.2020
1431 Clouds 27 1010 74 6000 7.2 270 15:55 09.03.2020
1432 Clouds 27 1010 69 7000 5.7 280 15:37 09.03.2020
1433 Clouds 27 1010 69 7000 5.7 280 15:18 09.03.2020
1434 Clouds 26 1009 74 8000 4.6 280 14:39 09.03.2020
1435 Clouds 27 1009 74 8000 4.6 280 14:20 09.03.2020
1436 Clouds 28 1009 74 8000 5.7 280 13:59 09.03.2020
1437 Clouds 28 1008 70 6000 3.1 230 13:39 09.03.2020
1438 Clouds 28 1008 70 6000 3.1 230 13:20 09.03.2020
1439 Clouds 28 1008 70 10000 5.1 260 12:58 09.03.2020
1440 Clouds 29 1007 58 6000 4.6 250 12:39 09.03.2020
1441 Clouds 29 1007 58 6000 4.6 250 12:19 09.03.2020
1442 Clouds 30 1006 62 10000 8.2 260 11:40 09.03.2020
1443 Clouds 30 1006 62 10000 8.2 260 11:20 09.03.2020
1444 Clouds 31 1006 59 10000 8.7 260 10:57 09.03.2020
1445 Clouds 31 1007 62 10000 8.7 260 10:39 09.03.2020
1446 Clouds 32 1007 62 10000 8.7 260 10:19 09.03.2020
1447 Clouds 33 1007 59 9000 8.2 250 09:42 09.03.2020
1448 Clouds 33 1007 59 9000 8.2 250 09:24 09.03.2020
1449 Clouds 32 1007 59 9000 8.2 250 08:47 09.03.2020
1450 Clouds 32 1007 55 7000 5.1 240 08:29 09.03.2020
1451 Clouds 33 1008 59 9000 5.1 250 07:58 09.03.2020
1452 Clouds 33 1008 62 7000 5.1 280 07:37 09.03.2020
1453 Clouds 33 1008 62 7000 5.1 280 07:18 09.03.2020
1454 Clouds 32 1009 62 7000 6.2 250 06:40 09.03.2020
1455 Clouds 32 1009 62 7000 6.2 250 06:21 09.03.2020
1456 Clouds 31 1010 66 9000 7.2 280 05:45 09.03.2020
1457 Clouds 32 1010 70 8000 6.7 270 04:59 09.03.2020
1458 Clouds 32 1011 70 8000 5.1 270 04:39 09.03.2020
1459 Clouds 30 1011 70 8000 5.1 270 04:20 09.03.2020
1460 Clouds 30 1011 70 8000 5.1 270 04:20 09.03.2020
1461 Clouds 31 1010 62 6000 7.7 230 02:53 09.03.2020
1462 Clouds 25 1009 74 6000 3.1 280 00:44 09.03.2020
1463 Clouds 25 1009 74 6000 3.1 280 00:25 09.03.2020
1464 Clouds 25 1009 78 6000 3.6 250 23:58 08.03.2020
1465 Clouds 24 1009 78 6000 4.1 270 23:38 08.03.2020
1466 Clouds 25 1009 78 6000 4.1 270 23:18 08.03.2020
1467 Clouds 24 1009 83 7000 4.1 260 22:41 08.03.2020
1468 Clouds 24 1009 83 7000 4.1 260 22:41 08.03.2020
1469 Clouds 24 1009 83 7000 4.1 260 22:22 08.03.2020
1470 Clouds 24 1009 83 7000 4.1 240 21:59 08.03.2020
1471 Clouds 24 1009 88 7000 4.6 250 21:40 08.03.2020
1472 Clouds 24 1009 88 7000 4.6 250 21:20 08.03.2020
1473 Clouds 24 1009 88 7000 5.1 250 20:57 08.03.2020
1474 Clouds 24 1009 88 7000 5.1 250 20:37 08.03.2020
1475 Clouds 25 1010 88 8000 6.2 260 20:19 08.03.2020
1476 Clouds 25 1010 83 8000 5.7 270 19:40 08.03.2020
1477 Clouds 25 1010 83 8000 5.7 270 19:19 08.03.2020
1478 Clouds 25 1011 83 8000 4.6 280 18:55 08.03.2020
1479 Clouds 25 1011 83 8000 4.6 280 18:37 08.03.2020
1480 Rain 25 1012 80 0 0.89 352 18:18 08.03.2020
1481 Clouds 25 1011 83 8000 3.6 270 17:40 08.03.2020
1482 Clouds 25 1011 83 8000 3.6 270 17:21 08.03.2020
1483 Clouds 25 1011 83 8000 3.6 270 16:58 08.03.2020
1484 Clouds 25 1011 83 8000 3.6 270 16:40 08.03.2020
1485 Clouds 26 1011 83 8000 3.6 270 16:21 08.03.2020
1486 Clouds 26 1011 83 8000 2.1 290 15:41 08.03.2020
1487 Clouds 26 1011 83 8000 2.1 290 15:41 08.03.2020
1488 Clouds 26 1011 83 8000 2.6 300 15:22 08.03.2020
1489 Clouds 26 1011 83 8000 3.1 280 14:57 08.03.2020
1490 Clouds 26 1011 83 8000 3.1 280 14:37 08.03.2020
1491 Rain 26 1010 74 5000 2.1 270 14:19 08.03.2020
1492 Rain 26 1010 83 6000 4.1 280 13:41 08.03.2020
1493 Haze 26 1009 74 5000 2.1 340 13:20 08.03.2020
1494 Clouds 27 1010 78 8000 3.6 260 12:49 08.03.2020
1495 Haze 27 1009 66 5000 2.1 280 12:30 08.03.2020
1496 Haze 28 1008 66 5000 2.6 270 11:59 08.03.2020
1497 Clouds 28 1008 70 10000 2.6 330 11:41 08.03.2020
1498 Clouds 29 1008 70 10000 2.6 330 11:21 08.03.2020
1499 Clouds 29 1008 70 10000 2.6 330 11:21 08.03.2020
1500 Clouds 29 1008 70 10000 2.6 330 10:42 08.03.2020
1501 Clouds 29 1008 70 10000 2.6 330 10:42 08.03.2020
1502 Haze 29 1008 66 5000 3.1 270 10:24 08.03.2020
1503 Rain 29 1008 70 5000 4.1 230 09:59 08.03.2020
1504 Rain 30 1008 70 5000 4.1 230 09:38 08.03.2020
1505 Rain 30 1008 70 5000 4.1 250 09:20 08.03.2020
1506 Rain 30 1008 66 5000 4.6 270 08:42 08.03.2020
1507 Rain 31 1008 66 5000 4.6 270 08:21 08.03.2020
1508 Rain 31 1009 66 5000 3.1 310 07:45 08.03.2020
1509 Rain 31 1009 66 5000 3.1 310 07:45 08.03.2020
1510 Rain 31 1009 66 5000 4.1 350 07:26 08.03.2020
1511 Clouds 32 1010 62 10000 4.6 330 06:43 08.03.2020
1512 Clouds 33 1010 62 10000 4.6 340 06:24 08.03.2020
1513 Haze 33 1011 59 5000 3.1 250 05:43 08.03.2020
1514 Haze 30 1012 62 5000 2.1 220 03:52 08.03.2020
1515 Clouds 29 1011 66 8000 1 0 02:40 08.03.2020
1516 Clouds 28 1011 69 6000 1.5 0 01:37 08.03.2020
1517 Clouds 27 1011 69 6000 1.5 0 01:18 08.03.2020
1518 Clouds 25 1010 74 6000 2.1 0 00:30 08.03.2020
1519 Clouds 26 1010 74 6000 2.1 0 23:49 07.03.2020
1520 Clouds 25 1010 74 6000 1.5 210 23:27 07.03.2020
1521 Clouds 25 1010 74 6000 1 230 22:58 07.03.2020
1522 Haze 24 1009 83 5000 1.5 200 22:37 07.03.2020
1523 Haze 25 1009 83 5000 1.5 200 22:19 07.03.2020
1524 Clouds 25 1010 78 6000 1 290 21:43 07.03.2020
1525 Clouds 25 1010 78 6000 1 290 21:43 07.03.2020
1526 Clouds 25 1010 78 6000 1 290 21:22 07.03.2020
1527 Clouds 25 1011 74 7000 1.5 280 20:41 07.03.2020
1528 Clouds 26 1011 74 7000 1.5 280 20:21 07.03.2020
1529 Clouds 26 1012 69 7000 1.5 240 19:42 07.03.2020
1530 Clouds 26 1012 69 7000 1.5 240 19:23 07.03.2020
1531 Clouds 26 1012 69 7000 2.6 250 18:59 07.03.2020
1532 Clouds 26 1012 69 10000 3.1 250 18:39 07.03.2020
1533 Clouds 26 1012 69 10000 3.1 250 18:20 07.03.2020
1534 Clouds 25 1012 69 10000 3.6 240 17:42 07.03.2020
1535 Clouds 26 1012 69 10000 3.6 240 17:20 07.03.2020
1536 Clouds 26 1012 69 7000 3.1 240 16:56 07.03.2020
1537 Clouds 26 1012 78 7000 3.1 250 16:38 07.03.2020
1538 Clouds 25 1012 78 7000 3.1 250 16:20 07.03.2020
1539 Clouds 26 1012 74 7000 3.1 270 15:55 07.03.2020
1540 Clouds 26 1012 74 7000 3.6 260 15:36 07.03.2020
1541 Clouds 26 1012 74 7000 3.6 260 15:18 07.03.2020
1542 Clouds 26 1011 74 8000 3.1 290 14:42 07.03.2020
1543 Clouds 27 1011 74 8000 3.1 290 14:23 07.03.2020
1544 Clouds 28 1010 69 8000 4.1 280 13:44 07.03.2020
1545 Clouds 28 1010 58 6000 4.1 260 13:22 07.03.2020
1546 Clouds 28 1010 69 8000 5.7 270 12:59 07.03.2020
1547 Clouds 29 1009 58 6000 4.1 260 12:39 07.03.2020
1548 Clouds 29 1009 58 6000 4.1 260 12:19 07.03.2020
1549 Clouds 30 1009 66 8000 4.6 310 11:55 07.03.2020
1550 Clouds 29 1008 62 8000 5.7 310 11:36 07.03.2020
1551 Clouds 29 1008 62 8000 5.7 310 11:36 07.03.2020
1552 Clouds 31 1008 62 8000 5.7 310 11:18 07.03.2020
1553 Clouds 32 1009 55 6000 5.1 240 10:39 07.03.2020
1554 Clouds 31 1009 55 6000 5.1 240 10:19 07.03.2020
1555 Clouds 32 1008 55 6000 3.1 240 09:41 07.03.2020
1556 Clouds 32 1008 55 6000 3.1 240 09:20 07.03.2020
1557 Clouds 32 1008 55 6000 3.1 240 09:20 07.03.2020
1558 Clouds 32 1009 62 10000 4.6 320 08:59 07.03.2020
1559 Clouds 32 1009 55 6000 4.1 240 08:41 07.03.2020
1560 Clouds 33 1009 55 6000 4.1 240 08:20 07.03.2020
1561 Clouds 33 1010 59 10000 5.7 290 07:47 07.03.2020
1562 Rain 34 1011 52 0 2.68 17 07:22 07.03.2020
1563 Rain 32 1012 54 0 3.13 19 06:52 07.03.2020
1564 Rain 32 1012 56 0 4.02 25 06:28 07.03.2020
1565 Clouds 31 1013 70 10000 6.7 300 05:45 07.03.2020
1566 Clouds 30 1013 62 6000 4.1 270 04:25 07.03.2020
1567 Clouds 28 1012 74 6000 5.7 260 02:46 07.03.2020
1568 Clouds 27 1012 74 6000 5.7 260 02:23 07.03.2020
1569 Clouds 26 1012 78 6000 4.1 260 01:23 07.03.2020
1570 Clouds 25 1011 78 6000 3.6 250 00:37 07.03.2020
1571 Clouds 25 1011 78 6000 3.6 250 00:19 07.03.2020
1572 Clouds 26 1011 78 6000 5.1 250 23:43 06.03.2020
1573 Clouds 26 1011 78 6000 5.1 250 23:24 06.03.2020
1574 Haze 25 1011 83 5000 3.6 250 22:47 06.03.2020
1575 Haze 25 1011 83 5000 3.6 250 22:47 06.03.2020
1576 Haze 25 1010 83 5000 1.5 300 22:21 06.03.2020
1577 Haze 25 1010 83 5000 3.1 280 21:50 06.03.2020
1578 Haze 25 1010 83 5000 2.1 280 21:21 06.03.2020
1579 Haze 25 1010 83 5000 2.6 270 20:56 06.03.2020
1580 Haze 25 1010 83 5000 2.6 260 20:36 06.03.2020
1581 Haze 25 1010 83 5000 2.6 260 20:18 06.03.2020
1582 Haze 25 1011 83 5000 3.6 260 19:43 06.03.2020
1583 Haze 25 1011 83 5000 3.6 260 19:24 06.03.2020
1584 Haze 26 1012 74 5000 2.6 290 18:43 06.03.2020
1585 Clouds 26 1012 74 6000 3.6 250 18:21 06.03.2020
1586 Clouds 26 1012 74 6000 3.6 250 17:57 06.03.2020
1587 Clouds 26 1013 69 6000 4.6 230 17:39 06.03.2020
1588 Clouds 26 1013 74 6000 5.1 220 17:21 06.03.2020
1589 Clouds 27 1013 74 6000 5.1 220 16:57 06.03.2020
1590 Clouds 27 1013 74 6000 5.1 220 16:39 06.03.2020
1591 Clouds 27 1013 70 6000 5.1 230 16:19 06.03.2020
1592 Clouds 27 1013 70 6000 5.1 230 15:44 06.03.2020
1593 Clouds 28 1012 70 6000 1.5 0 15:24 06.03.2020
1594 Clouds 28 1012 66 6000 2.1 230 14:43 06.03.2020
1595 Clouds 28 1012 66 6000 2.1 230 14:24 06.03.2020
1596 Clouds 28 1011 79 6000 2.1 300 13:59 06.03.2020
1597 Haze 29 1010 70 5000 1.5 280 13:40 06.03.2020
1598 Haze 29 1010 70 5000 1.5 280 13:20 06.03.2020
1599 Haze 29 1010 74 5000 1.5 260 12:55 06.03.2020
1600 Rain 29 1009 70 5000 1.5 10 12:36 06.03.2020
1601 Rain 30 1009 70 5000 1.5 10 12:18 06.03.2020
1602 Rain 30 1009 70 5000 1.5 10 12:18 06.03.2020
1603 Clouds 30 1009 70 6000 3.1 330 11:43 06.03.2020
1604 Clouds 31 1008 66 6000 2.6 330 11:21 06.03.2020
1605 Clouds 32 1007 62 6000 3.1 340 10:58 06.03.2020
1606 Clouds 32 1008 59 6000 3.1 310 10:37 06.03.2020
1607 Clouds 32 1008 59 6000 3.1 310 10:18 06.03.2020
1608 Clouds 32 1008 59 6000 3.1 310 10:18 06.03.2020
1609 Clouds 32 1008 62 6000 3.6 320 09:42 06.03.2020
1610 Clouds 32 1008 59 10000 5.1 340 09:24 06.03.2020
1611 Clouds 32 1008 62 6000 3.6 350 08:58 06.03.2020
1612 Clouds 32 1008 55 6000 4.1 350 08:39 06.03.2020
1613 Clouds 33 1008 55 6000 4.1 350 08:20 06.03.2020
1614 Clouds 32 1009 59 6000 3.1 340 07:47 06.03.2020
1615 Clouds 32 1010 59 6000 3.6 360 07:25 06.03.2020
1616 Clouds 32 1011 66 10000 5.1 340 06:51 06.03.2020
1617 Clouds 32 1011 62 10000 5.7 330 06:32 06.03.2020
1618 Clouds 31 1011 55 6000 3.1 280 05:39 06.03.2020
1619 Clouds 31 1011 55 6000 3.1 280 05:20 06.03.2020
1620 Clouds 30 1012 58 6000 4.6 270 04:41 06.03.2020
1621 Haze 26 1011 88 4500 2.6 270 01:45 06.03.2020
1622 Haze 25 1011 88 4500 2.6 270 01:26 06.03.2020
1623 Haze 25 1010 88 4000 2.6 280 00:59 06.03.2020
1624 Clouds 25 1010 94 6000 1.5 250 00:31 06.03.2020
1625 Haze 25 1010 88 4000 2.1 270 23:44 05.03.2020
1626 Clouds 25 1009 88 4700 2.1 270 23:25 05.03.2020
1627 Haze 25 1009 88 4600 2.1 270 22:56 05.03.2020
1628 Haze 25 1009 88 4600 2.1 270 22:37 05.03.2020
1629 Haze 25 1009 88 4600 2.1 270 22:18 05.03.2020
1630 Haze 25 1009 88 3500 2.1 270 21:56 05.03.2020
1631 Haze 25 1009 88 3500 2.1 270 21:56 05.03.2020
1632 Haze 25 1009 88 3600 1 290 21:37 05.03.2020
1633 Haze 25 1009 88 3600 1 290 21:19 05.03.2020
1634 Haze 25 1009 88 3300 1.5 310 20:55 05.03.2020
1635 Haze 25 1009 88 3700 1.5 330 20:36 05.03.2020
1636 Haze 25 1009 88 3700 1.5 330 20:18 05.03.2020
1637 Clouds 26 1010 83 6000 1 0 19:40 05.03.2020
1638 Clouds 26 1010 83 6000 1 0 19:22 05.03.2020
1639 Clouds 26 1010 83 6000 3.6 250 19:00 05.03.2020
1640 Clouds 26 1010 88 6000 2.1 280 18:38 05.03.2020
1641 Clouds 26 1010 88 6000 2.1 280 18:19 05.03.2020
1642 Clouds 26 1011 83 8000 2.1 290 17:58 05.03.2020
1643 Clouds 25 1011 83 8000 2.6 300 17:40 05.03.2020
1644 Clouds 26 1011 83 8000 2.6 300 17:21 05.03.2020
1645 Clouds 26 1011 83 8000 3.6 270 16:42 05.03.2020
1646 Clouds 27 1011 78 8000 3.6 270 16:42 05.03.2020
1647 Clouds 27 1011 78 8000 3.6 270 16:24 05.03.2020
1648 Clouds 27 1011 78 8000 4.6 260 15:59 05.03.2020
1649 Clouds 27 1011 78 8000 4.6 260 15:40 05.03.2020
1650 Clouds 27 1011 78 8000 4.6 260 15:21 05.03.2020
1651 Clouds 27 1011 78 7000 4.1 270 14:55 05.03.2020
1652 Clouds 26 1010 83 6000 2.6 290 14:36 05.03.2020
1653 Clouds 26 1010 83 6000 2.6 290 14:18 05.03.2020
1654 Clouds 27 1010 83 7000 2.1 310 13:43 05.03.2020
1655 Clouds 27 1009 70 6000 3.6 270 13:21 05.03.2020
1656 Clouds 27 1009 70 6000 3.6 270 13:21 05.03.2020
1657 Clouds 27 1009 83 6000 2.1 320 12:57 05.03.2020
1658 Clouds 27 1008 66 6000 2.6 260 12:38 05.03.2020
1659 Clouds 28 1008 66 6000 2.6 260 12:19 05.03.2020
1660 Clouds 28 1009 74 7000 2.1 330 11:56 05.03.2020
1661 Clouds 29 1008 58 6000 2.6 300 11:37 05.03.2020
1662 Clouds 29 1008 58 6000 2.6 300 11:18 05.03.2020
1663 Clouds 29 1008 66 10000 4.1 310 10:56 05.03.2020
1664 Clouds 29 1008 62 10000 4.1 300 10:38 05.03.2020
1665 Clouds 29 1008 62 10000 4.1 300 10:38 05.03.2020
1666 Clouds 30 1008 62 10000 4.1 300 10:20 05.03.2020
1667 Clouds 30 1008 55 6000 2.6 250 09:44 05.03.2020
1668 Clouds 30 1008 55 6000 2.6 250 09:26 05.03.2020
1669 Clouds 31 1009 55 9000 5.1 290 08:44 05.03.2020
1670 Rain 31 1008 55 6000 4.1 240 08:25 05.03.2020
1671 Clouds 31 1009 55 8000 6.7 270 07:48 05.03.2020
1672 Clouds 31 1009 62 6000 3.1 250 07:22 05.03.2020
1673 Clouds 32 1010 58 8000 3.6 250 06:49 05.03.2020
1674 Clouds 31 1010 70 6000 2.1 210 06:22 05.03.2020
1675 Clouds 30 1011 61 8000 5.1 260 05:57 05.03.2020
1676 Clouds 29 1012 83 6000 3.6 250 05:31 05.03.2020
1677 Rain 26 1013 88 4000 2.1 230 04:23 05.03.2020
1678 Rain 25 1013 88 5000 7.2 260 03:56 05.03.2020
1679 Rain 25 1012 94 4000 5.1 220 02:21 05.03.2020
1680 Rain 25 1012 88 5000 4.1 220 01:22 05.03.2020
1681 Rain 25 1011 94 5000 2.6 220 00:26 05.03.2020
1682 Rain 25 1011 94 5000 2.1 170 23:43 04.03.2020
1683 Haze 25 1010 94 5000 2.6 240 23:24 04.03.2020
1684 Haze 24 1010 94 5000 2.6 240 22:59 04.03.2020
1685 Rain 25 1009 88 5000 5.1 250 22:40 04.03.2020
1686 Rain 25 1009 88 5000 5.1 250 22:19 04.03.2020
1687 Haze 25 1009 88 5000 5.1 260 21:59 04.03.2020
1688 Haze 25 1009 88 5000 4.1 260 21:41 04.03.2020
1689 Haze 24 1009 88 5000 4.1 260 21:20 04.03.2020
1690 Haze 24 1009 88 5000 4.1 270 20:57 04.03.2020
1691 Rain 24 1010 94 5000 3.6 270 20:39 04.03.2020
1692 Rain 25 1010 94 5000 3.6 270 20:20 04.03.2020
1693 Rain 25 1010 88 6000 3.1 270 19:42 04.03.2020
1694 Rain 24 1010 88 7000 3.1 260 19:24 04.03.2020
1695 Rain 24 1011 88 7000 3.1 280 18:57 04.03.2020
1696 Rain 24 1011 88 7000 4.6 260 18:38 04.03.2020
1697 Rain 24 1011 88 7000 4.6 260 18:20 04.03.2020
1698 Rain 24 1011 88 7000 4.6 240 17:56 04.03.2020
1699 Rain 24 1011 88 6000 5.1 230 17:37 04.03.2020
1700 Rain 25 1011 88 6000 5.1 230 17:19 04.03.2020
1701 Rain 24 1012 88 6000 4.6 240 16:44 04.03.2020
1702 Rain 24 1011 88 6000 5.1 240 16:25 04.03.2020
1703 Rain 24 1011 88 6000 6.2 250 15:59 04.03.2020
1704 Rain 24 1011 88 6000 5.7 250 15:41 04.03.2020
1705 Rain 24 1011 88 6000 5.7 250 15:22 04.03.2020
1706 Clouds 24 1011 88 6000 5.7 260 14:55 04.03.2020
1707 Rain 24 1011 88 7000 6.7 260 14:37 04.03.2020
1708 Rain 24 1011 88 7000 6.7 260 14:18 04.03.2020
1709 Rain 24 1010 88 5000 3.1 240 13:56 04.03.2020
1710 Rain 24 1010 88 5000 3.6 240 13:37 04.03.2020
1711 Rain 26 1010 88 5000 3.6 240 13:19 04.03.2020
1712 Rain 25 1010 83 7000 7.7 270 12:44 04.03.2020
1713 Rain 25 1009 83 5000 3.1 250 12:25 04.03.2020
1714 Rain 25 1009 83 5000 4.1 240 11:56 04.03.2020
1715 Rain 26 1009 83 5000 5.1 240 11:38 04.03.2020
1716 Rain 26 1009 83 5000 5.1 240 11:19 04.03.2020
1717 Rain 26 1009 83 5000 5.1 240 11:19 04.03.2020
1718 Clouds 28 1009 83 10000 8.2 260 10:47 04.03.2020
1719 Clouds 27 1008 78 10000 7.7 270 10:26 04.03.2020
1720 Rain 28 1008 79 5000 2.6 270 09:58 04.03.2020
1721 Rain 28 1008 79 5000 2.6 270 09:58 04.03.2020
1722 Rain 28 1008 94 4000 1.5 330 09:40 04.03.2020
1723 Rain 29 1008 94 4000 1.5 330 09:20 04.03.2020
1724 Rain 29 1008 94 4000 2.6 350 08:44 04.03.2020
1725 Rain 29 1008 94 4000 2.6 350 08:26 04.03.2020
1726 Rain 29 1009 94 3000 3.1 360 07:54 04.03.2020
1727 Rain 29 1009 94 2000 3.1 330 07:35 04.03.2020
1728 Thunderstorm 30 1009 74 7000 7.2 280 06:58 04.03.2020
1729 Rain 30 1009 74 4000 2.6 340 06:40 04.03.2020
1730 Rain 30 1009 74 4000 2.6 340 06:20 04.03.2020
1731 Clouds 31 1010 74 7000 6.7 330 05:45 04.03.2020
1732 Haze 30 1011 66 4000 1.5 300 04:21 04.03.2020
1733 Haze 31 1011 70 3000 1.5 230 03:38 04.03.2020
1734 Haze 31 1011 79 5000 1 0 02:59 04.03.2020
1735 Haze 31 1010 79 3000 2.6 260 02:37 04.03.2020
1736 Haze 28 1010 79 3000 2.6 260 02:18 04.03.2020
1737 Haze 28 1010 83 3900 1.5 0 01:50 04.03.2020
1738 Mist 27 1009 88 2200 1 0 00:44 04.03.2020
1739 Mist 26 1009 94 2000 1.25 34 00:24 04.03.2020
1740 Haze 27 1009 88 3300 2.1 220 23:45 03.03.2020
1741 Haze 27 1009 88 3300 2.1 220 23:27 03.03.2020
1742 Haze 27 1009 88 4000 2.1 220 22:57 03.03.2020
1743 Clouds 27 1009 88 6000 2.6 200 22:39 03.03.2020
1744 Clouds 27 1009 88 6000 2.6 200 22:19 03.03.2020
1745 Clouds 27 1008 88 6000 1.5 200 21:56 03.03.2020
1746 Clouds 27 1009 88 6000 1.5 330 21:37 03.03.2020
1747 Clouds 27 1009 88 6000 1.5 330 21:18 03.03.2020
1748 Haze 26 1009 83 5000 1 290 20:41 03.03.2020
1749 Haze 26 1009 83 5000 1 290 20:21 03.03.2020
1750 Haze 26 1009 88 5000 1 290 19:59 03.03.2020
1751 Haze 26 1010 83 5000 1 0 19:37 03.03.2020
1752 Haze 27 1010 83 5000 1 0 19:19 03.03.2020
1753 Haze 27 1010 83 5000 1 0 19:19 03.03.2020
1754 Haze 26 1010 88 5000 1 0 18:58 03.03.2020
1755 Haze 26 1010 88 4500 1 0 18:40 03.03.2020
1756 Haze 26 1010 88 4500 1 0 18:21 03.03.2020
1757 Haze 27 1011 83 4500 1 350 17:57 03.03.2020
1758 Haze 27 1011 83 4500 1 350 17:57 03.03.2020
1759 Haze 27 1011 83 5000 1 320 17:39 03.03.2020
1760 Haze 27 1011 83 5000 1 320 17:21 03.03.2020
1761 Haze 27 1011 83 4500 1 330 16:57 03.03.2020
1762 Haze 27 1011 83 3000 1 350 16:37 03.03.2020
1763 Haze 27 1011 83 3000 1 350 16:19 03.03.2020
1764 Haze 28 1011 79 5000 1.5 40 15:44 03.03.2020
1765 Haze 28 1011 83 3500 1.5 50 15:22 03.03.2020
1766 Haze 28 1010 83 5000 1.5 50 14:57 03.03.2020
1767 Haze 28 1010 79 3000 1.5 50 14:38 03.03.2020
1768 Haze 28 1010 79 3000 1.5 50 14:19 03.03.2020
1769 Haze 28 1010 79 5000 1.5 40 13:56 03.03.2020
1770 Clouds 28 1009 74 5000 1.5 20 13:38 03.03.2020
1771 Clouds 28 1009 74 5000 1.5 20 13:19 03.03.2020
1772 Clouds 28 1009 74 9000 2.1 40 12:43 03.03.2020
1773 Clouds 29 1008 74 6000 3.1 20 12:24 03.03.2020
1774 Clouds 30 1008 70 10000 3.1 360 11:56 03.03.2020
1775 Clouds 30 1007 66 5000 2.1 320 11:37 03.03.2020
1776 Clouds 31 1007 66 5000 2.1 320 11:18 03.03.2020
1777 Clouds 31 1007 66 10000 4.1 360 10:55 03.03.2020
1778 Clouds 30 1007 66 6000 4.6 360 10:37 03.03.2020
1779 Clouds 30 1007 66 6000 4.6 360 10:18 03.03.2020
1780 Clouds 30 1007 66 6000 4.6 360 10:18 03.03.2020
1781 Clouds 31 1008 66 10000 6.2 350 09:43 03.03.2020
1782 Clouds 31 1008 66 10000 6.2 350 09:21 03.03.2020
1783 Clouds 32 1008 62 10000 6.2 340 08:43 03.03.2020
1784 Rain 32 1008 59 6000 4.1 300 08:24 03.03.2020
1785 Clouds 33 1009 66 10000 5.7 330 07:58 03.03.2020
1786 Rain 32 1008 59 6000 4.1 340 07:39 03.03.2020
1787 Rain 32 1008 59 6000 4.1 340 07:19 03.03.2020
1788 Rain 31 1010 66 5000 2.1 290 06:40 03.03.2020
1789 Rain 32 1010 66 5000 2.1 290 06:21 03.03.2020
1790 Clouds 32 1010 66 10000 4.6 330 05:46 03.03.2020
1791 Clouds 30 1011 70 8000 5.1 350 04:57 03.03.2020
1792 Clouds 31 1011 74 10000 2.6 0 03:32 03.03.2020
1793 Haze 26 1010 88 3000 1.5 230 01:39 03.03.2020
1794 Haze 26 1010 83 3000 2.1 200 00:47 03.03.2020
1795 Mist 26 1010 94 2000 1.67 14 00:26 03.03.2020
1796 Haze 26 1009 88 3000 2.1 230 23:51 02.03.2020
1797 Mist 26 1009 100 3000 1.67 14 23:23 02.03.2020
1798 Mist 26 1009 100 2000 1.5 81 22:58 02.03.2020
1799 Mist 26 1009 100 2000 1.5 81 22:58 02.03.2020
1800 Haze 26 1008 88 4000 2.1 160 22:39 02.03.2020
1801 Haze 26 1008 88 4000 2.1 160 22:20 02.03.2020
1802 Haze 27 1009 83 4000 1 180 21:58 02.03.2020
1803 Haze 27 1009 88 4000 1 0 21:39 02.03.2020
1804 Haze 27 1009 88 4000 1 0 21:39 02.03.2020
1805 Haze 27 1009 88 4000 1 0 21:20 02.03.2020
1806 Haze 27 1009 88 4000 1 290 20:57 02.03.2020
1807 Haze 27 1009 88 4000 1 290 20:57 02.03.2020
1808 Haze 27 1009 88 5000 1 280 20:38 02.03.2020
1809 Haze 27 1009 88 5000 1 280 20:19 02.03.2020
1810 Haze 27 1009 83 5000 1 310 19:54 02.03.2020
1811 Haze 27 1009 83 5000 1 0 19:36 02.03.2020
1812 Haze 28 1009 83 5000 1 0 19:18 02.03.2020
1813 Haze 28 1009 83 5000 0.5 0 18:44 02.03.2020
1814 Haze 27 1009 83 5000 0.5 0 18:19 02.03.2020
1815 Haze 26 1010 88 5000 0.5 0 17:58 02.03.2020
1816 Haze 26 1010 83 5000 1.5 40 17:39 02.03.2020
1817 Haze 26 1010 83 5000 1.5 40 17:21 02.03.2020
1818 Clouds 27 1010 83 6000 0.5 0 16:55 02.03.2020
1819 Clouds 27 1010 83 6000 1 340 16:36 02.03.2020
1820 Clouds 27 1010 83 6000 1 340 16:18 02.03.2020
1821 Clouds 27 1010 83 6000 1 340 16:18 02.03.2020
1822 Clouds 27 1010 83 6000 1 20 15:42 02.03.2020
1823 Clouds 27 1010 78 7000 1.5 40 15:19 02.03.2020
1824 Clouds 27 1009 74 7000 2.1 50 14:41 02.03.2020
1825 Clouds 28 1009 74 7000 2.1 50 14:20 02.03.2020
1826 Clouds 28 1009 78 8000 2.1 60 13:59 02.03.2020
1827 Clouds 28 1008 70 6000 1.5 330 13:38 02.03.2020
1828 Clouds 28 1008 70 6000 1.5 330 13:18 02.03.2020
1829 Clouds 29 1007 66 6000 2.1 350 12:43 02.03.2020
1830 Clouds 30 1007 66 6000 2.1 350 12:19 02.03.2020
1831 Clouds 31 1007 70 10000 2.6 30 11:55 02.03.2020
1832 Clouds 31 1007 59 6000 3.1 20 11:36 02.03.2020
1833 Clouds 31 1007 59 6000 3.1 20 11:18 02.03.2020
1834 Clouds 31 1007 59 6000 2.6 360 10:42 02.03.2020
1835 Clouds 31 1007 62 6000 3.6 340 10:20 02.03.2020
1836 Clouds 31 1007 62 10000 4.1 20 09:58 02.03.2020
1837 Clouds 32 1007 59 6000 3.6 360 09:39 02.03.2020
1838 Clouds 32 1007 59 6000 3.6 360 09:20 02.03.2020
1839 Clouds 31 1008 66 10000 4.6 330 08:41 02.03.2020
1840 Clouds 31 1008 66 10000 4.6 330 08:19 02.03.2020
1841 Clouds 33 1008 62 6000 4.1 310 07:42 02.03.2020
1842 Clouds 31 1009 66 9000 4.1 350 06:57 02.03.2020
1843 Haze 31 1009 70 5000 3.1 340 06:37 02.03.2020
1844 Haze 32 1009 74 5000 3.6 350 05:53 02.03.2020
1845 Rain 30 1010 79 5000 3.1 300 04:23 02.03.2020
1846 Rain 29 1010 89 3000 3.1 330 03:20 02.03.2020
1847 Mist 28 1009 100 2500 5.98 311 02:37 02.03.2020
1848 Haze 26 1010 83 5000 1 0 01:47 02.03.2020
1849 Rain 27 1009 100 3000 1.2 355 01:28 02.03.2020
1850 Rain 26 1009 100 2000 1.5 360 00:23 02.03.2020
1851 Haze 26 1008 88 5000 1.5 0 23:56 01.03.2020
1852 Haze 26 1008 88 3500 2.6 50 23:38 01.03.2020
1853 Haze 26 1008 88 3500 2.6 50 23:19 01.03.2020
1854 Thunderstorm 25 1008 94 6000 1 0 22:43 01.03.2020
1855 Thunderstorm 25 1008 94 6000 2.1 0 22:20 01.03.2020
1856 Thunderstorm 25 1007 94 6000 2.1 0 21:55 01.03.2020
1857 Thunderstorm 25 1007 94 6000 3.1 200 21:37 01.03.2020
1858 Thunderstorm 25 1007 94 6000 3.1 200 21:18 01.03.2020
1859 Clouds 25 1008 94 6000 3.1 190 20:43 01.03.2020
1860 Clouds 25 1008 94 6000 3.1 190 20:25 01.03.2020
1861 Clouds 25 1008 94 6000 2.6 200 19:55 01.03.2020
1862 Clouds 25 1009 94 6000 2.6 200 19:36 01.03.2020
1863 Clouds 25 1009 94 6000 2.6 200 19:18 01.03.2020
1864 Clouds 25 1009 94 6000 2.1 0 18:40 01.03.2020
1865 Clouds 25 1009 94 6000 2.1 0 18:20 01.03.2020
1866 Clouds 25 1010 88 6000 2.1 0 17:58 01.03.2020
1867 Clouds 25 1010 88 6000 2.6 210 17:40 01.03.2020
1868 Clouds 25 1010 88 6000 2.6 210 17:21 01.03.2020
1869 Clouds 25 1010 83 6000 2.6 0 16:57 01.03.2020
1870 Clouds 25 1010 88 5000 2.1 0 16:38 01.03.2020
1871 Clouds 25 1010 88 5000 2.1 0 16:18 01.03.2020
1872 Thunderstorm 25 1010 83 4000 1 0 15:57 01.03.2020
1873 Thunderstorm 26 1010 88 2200 1 0 15:38 01.03.2020
1874 Thunderstorm 26 1010 88 2200 1 0 15:20 01.03.2020
1875 Thunderstorm 27 1010 83 2200 4.1 330 14:57 01.03.2020
1876 Thunderstorm 27 1010 88 2000 3.6 230 14:38 01.03.2020
1877 Thunderstorm 27 1010 88 2000 3.6 230 14:20 01.03.2020
1878 Thunderstorm 27 1009 83 7000 1.5 20 13:56 01.03.2020
1879 Thunderstorm 27 1009 88 4000 1.5 220 13:37 01.03.2020
1880 Thunderstorm 28 1009 88 4000 1.5 220 13:19 01.03.2020
1881 Thunderstorm 29 1008 79 8000 3.1 20 12:43 01.03.2020
1882 Thunderstorm 29 1008 79 8000 3.1 20 12:21 01.03.2020
1883 Thunderstorm 29 1007 79 8000 4.6 30 11:58 01.03.2020
1884 Rain 28 1007 79 5000 3.1 340 11:39 01.03.2020
1885 Rain 28 1007 79 5000 3.1 340 11:18 01.03.2020
1886 Clouds 29 1007 74 9000 4.1 10 10:55 01.03.2020
1887 Clouds 29 1007 74 9000 4.1 360 10:36 01.03.2020
1888 Clouds 29 1007 74 9000 4.1 360 10:18 01.03.2020
1889 Haze 29 1007 74 5000 2.6 360 09:41 01.03.2020
1890 Haze 29 1007 74 5000 2.6 360 09:22 01.03.2020
1891 Clouds 29 1007 79 9000 4.6 350 08:45 01.03.2020
1892 Rain 29 1008 74 5000 2.1 360 08:26 01.03.2020
1893 Clouds 31 1008 79 9000 5.1 350 07:45 01.03.2020
1894 Rain 31 1008 70 5000 3.6 350 07:27 01.03.2020
1895 Clouds 30 1008 79 8000 5.1 330 06:58 01.03.2020
1896 Rain 30 1009 74 5000 1.5 340 06:40 01.03.2020
1897 Clouds 29 1010 88 8000 4.1 340 04:47 01.03.2020
1898 Haze 28 1009 100 3000 1.5 270 02:58 01.03.2020
1899 Haze 27 1010 100 3000 5.55 313 02:18 01.03.2020
1900 Rain 26 1009 100 2000 5.55 313 01:36 01.03.2020
1901 Mist 26 1009 94 5000 1 0 00:49 01.03.2020
1902 Mist 26 1008 100 2000 5.29 312 00:25 01.03.2020
1903 Mist 26 1008 100 3000 1.5 190 23:58 29.02.2020
1904 Mist 26 1008 100 3000 5.29 312 23:40 29.02.2020
1905 Mist 26 1008 100 3000 5.29 312 23:21 29.02.2020
1906 Mist 26 1008 94 4000 1 0 22:37 29.02.2020
1907 Mist 26 1008 94 4000 1 0 22:19 29.02.2020
1908 Thunderstorm 26 1008 94 4000 1 0 21:39 29.02.2020
1909 Thunderstorm 26 1008 94 4000 1 0 21:19 29.02.2020
1910 Thunderstorm 26 1008 94 4000 1.5 290 20:41 29.02.2020
1911 Thunderstorm 26 1008 94 4000 1.5 290 20:20 29.02.2020
1912 Clouds 26 1008 94 6000 1 0 19:55 29.02.2020
1913 Rain 26 1009 88 6000 1 0 19:36 29.02.2020
1914 Rain 26 1009 88 6000 1 0 19:18 29.02.2020
1915 Thunderstorm 25 1009 94 6000 1.5 0 18:42 29.02.2020
1916 Thunderstorm 25 1009 94 6000 1.5 0 18:22 29.02.2020
1917 Clouds 25 1009 94 6000 4.1 260 17:56 29.02.2020
1918 Thunderstorm 25 1009 94 5000 2.6 260 17:37 29.02.2020
1919 Thunderstorm 26 1009 94 5000 2.6 260 17:19 29.02.2020
1920 Thunderstorm 25 1010 94 2200 6.2 270 16:44 29.02.2020
1921 Thunderstorm 27 1009 88 7000 1 0 16:19 29.02.2020
1922 Thunderstorm 28 1009 83 7000 1.5 10 15:56 29.02.2020
1923 Thunderstorm 27 1009 88 0 0.5 0 15:36 29.02.2020
1924 Thunderstorm 28 1009 88 0 0.5 0 15:18 29.02.2020
1925 Thunderstorm 28 1009 88 7000 0.5 0 14:39 29.02.2020
1926 Thunderstorm 27 1009 88 7000 0.5 0 14:21 29.02.2020
1927 Rain 28 1008 94 4000 4.28 357 13:45 29.02.2020
1928 Rain 28 1008 94 4000 4.28 357 13:45 29.02.2020
1929 Rain 28 1008 94 4000 3.94 348 13:27 29.02.2020
1930 Clouds 28 1007 83 7000 1.5 20 12:57 29.02.2020
1931 Clouds 28 1007 83 7000 2.1 50 12:38 29.02.2020
1932 Clouds 26 1007 83 7000 2.1 50 12:20 29.02.2020
1933 Rain 26 1007 94 5000 1.5 350 11:45 29.02.2020
1934 Rain 27 1006 94 5000 1.5 10 11:26 29.02.2020
1935 Rain 28 1006 88 4000 2.1 340 10:51 29.02.2020
1936 Rain 28 1006 83 5000 3.6 330 10:31 29.02.2020
1937 Rain 28 1006 83 5000 3.6 330 10:31 29.02.2020
1938 Clouds 28 1006 83 7000 2.6 360 09:56 29.02.2020
1939 Rain 28 1006 83 5000 3.1 20 09:38 29.02.2020
1940 Rain 29 1006 83 5000 3.1 20 09:18 29.02.2020
1941 Rain 28 1006 83 5000 3.1 300 08:40 29.02.2020
1942 Rain 28 1006 83 5000 3.1 300 08:21 29.02.2020
1943 Clouds 28 1007 83 7000 4.1 350 07:52 29.02.2020
1944 Haze 27 1007 83 5000 2.1 340 07:25 29.02.2020
1945 Rain 27 1008 88 6000 3.1 330 06:55 29.02.2020
1946 Rain 27 1008 83 5000 2.6 320 06:29 29.02.2020
1947 Rain 28 1008 83 5000 3.1 280 05:52 29.02.2020
1948 Rain 28 1009 83 5000 2.6 350 05:32 29.02.2020
1949 Rain 28 1009 79 5000 2.1 270 03:59 29.02.2020
1950 Haze 29 1009 79 5000 3.1 220 03:24 29.02.2020
1951 Thunderstorm 27 1009 94 4200 5.1 320 02:59 29.02.2020
1952 Haze 26 1008 83 5000 1 0 01:59 29.02.2020
1953 Thunderstorm 26 1008 83 5000 1 0 00:52 29.02.2020
1954 Mist 26 1008 100 2000 1.5 250 00:28 29.02.2020
1955 Haze 26 1008 88 5000 2.6 210 23:41 28.02.2020
1956 Haze 26 1008 88 5000 2.6 210 23:23 28.02.2020
1957 Rain 26 1007 100 5000 5.45 300 22:43 28.02.2020
1958 Rain 26 1007 100 5000 5.45 300 22:23 28.02.2020
1959 Haze 26 1007 88 5000 1 250 21:56 28.02.2020
1960 Haze 26 1007 83 5000 1 0 21:38 28.02.2020
1961 Haze 26 1007 83 5000 1 0 21:19 28.02.2020
1962 Thunderstorm 26 1008 83 6000 1.5 280 20:39 28.02.2020
1963 Thunderstorm 26 1008 83 6000 1.5 280 20:21 28.02.2020
1964 Thunderstorm 26 1008 83 6000 1 0 19:57 28.02.2020
1965 Thunderstorm 26 1008 83 6000 3.1 200 19:39 28.02.2020
1966 Thunderstorm 26 1008 83 6000 3.1 200 19:39 28.02.2020
1967 Thunderstorm 26 1008 83 6000 3.1 200 19:39 28.02.2020
1968 Thunderstorm 26 1008 83 6000 3.1 200 19:20 28.02.2020
1969 Thunderstorm 26 1009 83 6000 2.6 170 18:47 28.02.2020
1970 Clouds 26 1009 78 6000 2.6 200 18:29 28.02.2020
1971 Clouds 27 1009 83 6000 1.5 200 17:59 28.02.2020
1972 Thunderstorm 27 1009 78 6000 1 0 17:40 28.02.2020
1973 Thunderstorm 27 1009 78 6000 1 0 17:21 28.02.2020
1974 Haze 27 1010 83 5000 2.1 0 16:44 28.02.2020
1975 Haze 27 1010 83 5000 2.1 0 16:20 28.02.2020
1976 Clouds 27 1009 83 6000 2.1 0 15:58 28.02.2020
1977 Clouds 27 1009 78 8000 1.5 0 15:39 28.02.2020
1978 Clouds 27 1009 78 8000 1.5 0 15:19 28.02.2020
1979 Clouds 27 1009 78 8000 2.1 0 14:57 28.02.2020
1980 Clouds 27 1009 78 7000 3.1 190 14:38 28.02.2020
1981 Clouds 26 1009 78 7000 3.1 190 14:18 28.02.2020
1982 Rain 27 1008 88 2000 1.5 180 13:41 28.02.2020
1983 Rain 27 1008 88 2000 1.5 180 13:20 28.02.2020
1984 Clouds 28 1008 74 8000 1.5 0 12:58 28.02.2020
1985 Thunderstorm 29 1007 89 5000 4.1 240 12:39 28.02.2020
1986 Thunderstorm 29 1007 89 5000 4.1 240 12:21 28.02.2020
1987 Rain 29 1007 83 5000 1.5 330 11:41 28.02.2020
1988 Rain 30 1007 83 5000 1.5 330 11:22 28.02.2020
1989 Thunderstorm 30 1006 70 8000 2.6 10 10:55 28.02.2020
1990 Haze 30 1006 83 5000 2.1 350 10:36 28.02.2020
1991 Haze 30 1006 83 5000 2.1 350 10:18 28.02.2020
1992 Clouds 30 1006 70 10000 4.1 10 09:42 28.02.2020
1993 Clouds 30 1006 70 10000 4.1 10 09:20 28.02.2020
1994 Thunderstorm 29 1007 94 3000 2.1 330 08:42 28.02.2020
1995 Thunderstorm 30 1007 94 3000 2.1 330 08:21 28.02.2020
1996 Clouds 30 1008 70 10000 5.7 340 07:47 28.02.2020
1997 Thunderstorm 30 1008 94 2000 2.6 10 07:27 28.02.2020
1998 Thunderstorm 30 1008 79 1000 4.1 280 06:59 28.02.2020
1999 Rain 31 1009 70 5000 3.6 270 06:38 28.02.2020
2000 Rain 31 1009 74 5000 2.6 350 05:31 28.02.2020
2001 Rain 29 1010 79 5000 1.5 300 04:32 28.02.2020
2002 Haze 28 1010 88 4000 1.5 270 03:22 28.02.2020
2003 Rain 27 1010 100 4000 1.5 220 02:41 28.02.2020
2004 Rain 25 1009 100 4000 0.7 323 01:48 28.02.2020
2005 Rain 25 1009 100 4000 2.08 305 00:33 28.02.2020
2006 Rain 25 1009 100 4000 2.08 305 23:47 27.02.2020
2007 Rain 25 1009 100 4000 0.93 75 23:23 27.02.2020
2008 Rain 25 1008 100 4000 0.93 75 22:59 27.02.2020
2009 Thunderstorm 25 1008 100 4000 0.93 75 22:40 27.02.2020
2010 Thunderstorm 25 1008 100 4000 0.93 75 22:21 27.02.2020
2011 Thunderstorm 25 1008 88 6000 1.5 0 21:42 27.02.2020
2012 Thunderstorm 25 1008 88 6000 1.5 0 21:24 27.02.2020
2013 Thunderstorm 24 1009 83 6000 2.1 0 20:59 27.02.2020
2014 Thunderstorm 24 1009 83 6000 4.1 10 20:41 27.02.2020
2015 Thunderstorm 26 1009 83 6000 4.1 10 20:23 27.02.2020
2016 Thunderstorm 27 1009 88 6000 2.1 90 19:57 27.02.2020
2017 Thunderstorm 27 1009 83 6000 2.6 50 19:39 27.02.2020
2018 Thunderstorm 26 1009 83 6000 2.6 50 19:21 27.02.2020
2019 Thunderstorm 26 1010 83 5000 2.6 0 18:57 27.02.2020
2020 Thunderstorm 26 1010 83 5000 2.6 40 18:39 27.02.2020
2021 Thunderstorm 27 1010 83 5000 2.6 40 18:19 27.02.2020
2022 Clouds 27 1010 79 6000 2.1 40 17:55 27.02.2020
2023 Clouds 27 1010 79 6000 2.1 40 17:36 27.02.2020
2024 Clouds 27 1010 79 6000 2.1 40 17:18 27.02.2020
2025 Haze 29 1010 79 5000 2.6 40 16:41 27.02.2020
2026 Haze 28 1010 79 5000 2.6 40 16:20 27.02.2020
2027 Clouds 27 1010 83 6000 2.6 60 15:59 27.02.2020
2028 Haze 27 1010 83 5000 2.6 50 15:38 27.02.2020
2029 Haze 27 1010 83 5000 2.6 50 15:20 27.02.2020
2030 Clouds 27 1009 79 6000 2.1 80 14:59 27.02.2020
2031 Clouds 27 1009 83 7000 1.5 0 14:38 27.02.2020
2032 Clouds 29 1009 83 7000 1.5 0 14:20 27.02.2020
2033 Clouds 28 1009 79 8000 2.1 50 13:42 27.02.2020
2034 Haze 28 1008 89 5000 2.1 10 13:22 27.02.2020
2035 Clouds 28 1008 74 9000 2.1 50 12:56 27.02.2020
2036 Clouds 28 1008 84 6000 2.1 20 12:38 27.02.2020
2037 Clouds 29 1008 84 6000 2.1 20 12:18 27.02.2020
2038 Clouds 30 1007 79 10000 2.1 0 11:42 27.02.2020
2039 Clouds 31 1007 79 10000 2.1 0 11:22 27.02.2020
2040 Clouds 31 1007 79 10000 2.1 0 11:22 27.02.2020
2041 Clouds 31 1007 84 6000 3.1 340 10:44 27.02.2020
2042 Clouds 31 1007 84 6000 3.1 340 10:24 27.02.2020
2043 Clouds 31 1007 79 6000 3.6 350 09:50 27.02.2020
2044 Clouds 31 1007 74 6000 3.6 330 09:30 27.02.2020
2045 Clouds 31 1008 74 10000 4.6 340 08:59 27.02.2020
2046 Haze 31 1008 79 5000 3.6 300 08:41 27.02.2020
2047 Haze 31 1008 79 5000 3.6 300 08:22 27.02.2020
2048 Rain 31 1008 79 5000 4.1 320 07:45 27.02.2020
2049 Haze 31 1009 79 5000 2.6 330 07:25 27.02.2020
2050 Haze 31 1009 79 5000 1.5 280 06:48 27.02.2020
2051 Rain 29 1010 89 5000 1.5 300 05:48 27.02.2020
2052 Rain 27 1011 100 3000 3.6 260 04:21 27.02.2020
2053 Rain 25 1011 100 4000 1.5 360 02:33 27.02.2020
2054 Rain 25 1009 100 4000 1.5 170 00:46 27.02.2020
2055 Rain 26 1009 100 4000 1.5 170 00:26 27.02.2020
2056 Rain 26 1009 100 4000 2.1 170 23:40 26.02.2020
2057 Rain 26 1009 100 4000 2.1 170 23:19 26.02.2020
2058 Rain 26 1008 94 5000 2.6 160 22:58 26.02.2020
2059 Clouds 26 1008 94 6000 1 150 22:39 26.02.2020
2060 Clouds 26 1008 94 6000 1 150 22:21 26.02.2020
2061 Rain 26 1009 82 6000 1 140 21:56 26.02.2020
2062 Rain 26 1009 94 6000 1 180 21:38 26.02.2020
2063 Rain 26 1009 94 6000 1 180 21:18 26.02.2020
2064 Rain 26 1009 94 5000 2.1 170 20:55 26.02.2020
2065 Rain 26 1009 88 5000 1 0 20:37 26.02.2020
2066 Rain 26 1009 88 5000 1 0 20:18 26.02.2020
2067 Thunderstorm 26 1010 94 5000 1 10 19:46 26.02.2020
2068 Thunderstorm 27 1010 83 5000 3.6 360 19:21 26.02.2020
2069 Haze 27 1011 83 5000 1 0 18:59 26.02.2020
2070 Haze 28 1011 83 5000 1 0 18:41 26.02.2020
2071 Haze 28 1011 83 5000 1 0 18:22 26.02.2020
2072 Haze 28 1011 83 5000 2.21 16 17:56 26.02.2020
2073 Haze 28 1011 83 5000 1 90 17:37 26.02.2020
2074 Haze 28 1011 83 5000 1 90 17:18 26.02.2020
2075 Haze 28 1011 83 5000 1.5 60 16:43 26.02.2020
2076 Haze 28 1011 83 5000 1.5 60 16:22 26.02.2020
2077 Haze 28 1011 83 5000 1.5 80 15:56 26.02.2020
2078 Haze 28 1011 88 5000 2.96 7 15:38 26.02.2020
2079 Haze 28 1011 88 5000 2.96 7 15:19 26.02.2020
2080 Clouds 28 1010 83 6000 2.96 7 14:42 26.02.2020
2081 Clouds 28 1010 83 6000 2.96 7 14:23 26.02.2020
2082 Clouds 29 1009 83 6000 2.6 60 13:43 26.02.2020
2083 Rain 29 1009 74 6000 1.5 10 13:23 26.02.2020
2084 Clouds 29 1009 79 7000 2.6 30 12:58 26.02.2020
2085 Clouds 29 1009 74 6000 3.1 30 12:37 26.02.2020
2086 Clouds 29 1009 74 6000 3.1 30 12:18 26.02.2020
2087 Rain 31 1008 70 5000 5.1 360 11:42 26.02.2020
2088 Rain 31 1008 70 5000 5.1 360 11:22 26.02.2020
2089 Clouds 31 1008 70 10000 4.6 360 10:58 26.02.2020
2090 Rain 31 1008 66 6000 2.6 350 10:39 26.02.2020
2091 Rain 31 1008 66 6000 2.6 350 10:20 26.02.2020
2092 Rain 31 1007 74 5000 2.6 10 09:43 26.02.2020
2093 Rain 30 1007 74 5000 2.6 10 09:22 26.02.2020
2094 Clouds 29 1008 70 8000 6.2 10 08:56 26.02.2020
2095 Rain 29 1009 79 5000 2.1 340 08:36 26.02.2020
2096 Rain 30 1009 79 5000 2.1 340 08:18 26.02.2020
2097 Thunderstorm 30 1009 74 5000 2.1 350 07:42 26.02.2020
2098 Thunderstorm 30 1009 74 5000 2.1 350 07:23 26.02.2020
2099 Clouds 30 1009 70 9000 4.1 340 06:50 26.02.2020
2100 Rain 30 1010 70 5000 2.1 350 06:31 26.02.2020
2101 Rain 30 1010 79 7000 5.7 340 05:49 26.02.2020
2102 Rain 30 1010 66 5000 3.1 10 05:23 26.02.2020
2103 Haze 31 1011 70 5000 2.6 340 04:19 26.02.2020
2104 Haze 28 1010 88 4000 2.6 220 02:21 26.02.2020
2105 Haze 26 1010 94 4000 1.5 220 01:40 26.02.2020
2106 Clouds 26 1009 83 7000 1.5 210 00:48 26.02.2020
2107 Haze 26 1009 94 5000 3.38 307 00:22 26.02.2020
2108 Haze 25 1009 94 5000 3.38 307 23:45 25.02.2020
2109 Haze 25 1009 94 5000 3.38 307 23:26 25.02.2020
2110 Haze 25 1009 94 5000 3.22 309 22:59 25.02.2020
2111 Haze 25 1009 88 3600 1 270 22:41 25.02.2020
2112 Haze 25 1009 88 3600 1 270 22:19 25.02.2020
2113 Haze 25 1009 88 3600 1 270 22:19 25.02.2020
2114 Haze 26 1009 83 3900 1 290 21:39 25.02.2020
2115 Haze 26 1009 83 3900 1 290 21:21 25.02.2020
2116 Haze 25 1009 88 4500 1 270 20:59 25.02.2020
2117 Haze 26 1009 83 5000 1 0 20:40 25.02.2020
2118 Haze 26 1009 83 5000 1 0 20:21 25.02.2020
2119 Clouds 26 1009 83 5000 1.5 280 19:59 25.02.2020
2120 Clouds 26 1010 83 6000 2.6 270 19:40 25.02.2020
2121 Clouds 26 1010 83 6000 2.6 270 19:19 25.02.2020
2122 Clouds 26 1011 83 6000 1 0 18:42 25.02.2020
2123 Clouds 26 1011 83 6000 1 0 18:21 25.02.2020
2124 Clouds 26 1011 83 6000 1 0 18:21 25.02.2020
2125 Clouds 26 1011 83 6000 1 220 17:58 25.02.2020
2126 Clouds 26 1011 83 7000 2.1 270 17:38 25.02.2020
2127 Clouds 26 1011 83 7000 2.1 270 17:19 25.02.2020
2128 Clouds 26 1011 83 7000 2.6 270 16:58 25.02.2020
2129 Clouds 26 1011 83 7000 3.1 260 16:40 25.02.2020
2130 Clouds 26 1011 83 7000 3.1 260 16:22 25.02.2020
2131 Clouds 25 1011 83 7000 3.1 240 15:56 25.02.2020
2132 Clouds 25 1011 83 7000 3.1 240 15:56 25.02.2020
2133 Clouds 25 1011 83 7000 3.1 240 15:56 25.02.2020
2134 Clouds 25 1011 83 7000 3.1 290 15:38 25.02.2020
2135 Clouds 26 1011 83 7000 3.1 290 15:18 25.02.2020
2136 Clouds 26 1010 83 7000 3.6 290 14:56 25.02.2020
2137 Clouds 26 1010 83 6000 2.1 290 14:37 25.02.2020
2138 Clouds 26 1010 83 6000 2.1 290 14:37 25.02.2020
2139 Clouds 28 1010 83 6000 2.1 290 14:18 25.02.2020
2140 Clouds 28 1010 83 6000 2.1 290 14:18 25.02.2020
2141 Clouds 28 1010 83 7000 2.1 310 13:55 25.02.2020
2142 Haze 28 1009 83 5000 2.1 150 13:37 25.02.2020
2143 Haze 28 1009 83 5000 2.1 150 13:18 25.02.2020
2144 Clouds 28 1009 74 6000 1.5 280 12:41 25.02.2020
2145 Clouds 28 1009 74 6000 1.5 280 12:21 25.02.2020
2146 Clouds 29 1008 74 8000 2.1 320 11:56 25.02.2020
2147 Clouds 29 1008 74 6000 1.5 270 11:38 25.02.2020
2148 Clouds 29 1008 74 6000 1.5 270 11:19 25.02.2020
2149 Clouds 29 1008 74 6000 1.5 270 11:19 25.02.2020
2150 Clouds 29 1008 74 6000 1.5 320 10:57 25.02.2020
2151 Clouds 29 1008 74 6000 1.5 320 10:57 25.02.2020
2152 Rain 30 1008 74 6000 1.5 300 10:39 25.02.2020
2153 Rain 29 1008 74 6000 1.5 300 10:20 25.02.2020
2154 Clouds 29 1009 74 8000 3.1 340 09:41 25.02.2020
2155 Clouds 30 1009 74 8000 3.1 340 09:20 25.02.2020
2156 Rain 30 1009 70 5000 2.1 280 08:45 25.02.2020
2157 Rain 30 1009 70 5000 2.1 280 08:26 25.02.2020
2158 Rain 30 1009 70 5000 3.1 20 07:51 25.02.2020
2159 Rain 30 1010 79 5000 3.1 240 07:28 25.02.2020
2160 Rain 29 1010 83 4000 2.6 270 06:59 25.02.2020
2161 Rain 29 1011 88 4000 3.1 250 06:26 25.02.2020
2162 Rain 28 1012 88 4000 1.5 300 05:24 25.02.2020
2163 Rain 25 1011 94 5000 2.1 300 02:47 25.02.2020
2164 Rain 26 1011 100 3000 1.5 270 01:30 25.02.2020
2165 Rain 25 1011 100 2000 1.5 280 00:34 25.02.2020
2166 Rain 26 1010 94 4000 2.1 270 23:59 24.02.2020
2167 Thunderstorm 25 1010 100 2000 2.1 360 23:40 24.02.2020
2168 Thunderstorm 25 1010 100 2000 2.1 360 23:19 24.02.2020
2169 Rain 25 1010 100 2000 3.6 130 22:38 24.02.2020
2170 Rain 25 1010 100 2000 3.6 130 22:19 24.02.2020
2171 Rain 25 1009 94 3500 3.1 250 21:57 24.02.2020
2172 Rain 25 1009 94 4000 2.6 260 21:39 24.02.2020
2173 Rain 25 1009 94 4000 2.6 260 21:19 24.02.2020
2174 Clouds 25 1009 94 4000 2.6 0 20:57 24.02.2020
2175 Rain 25 1010 94 4000 4.1 210 20:38 24.02.2020
2176 Rain 25 1010 94 4000 4.1 210 20:19 24.02.2020
2177 Thunderstorm 25 1010 94 3000 1 0 19:56 24.02.2020
2178 Thunderstorm 25 1010 94 1000 4.1 340 19:37 24.02.2020
2179 Thunderstorm 25 1010 94 1000 4.1 340 19:19 24.02.2020
2180 Thunderstorm 25 1011 88 2000 2.6 0 18:42 24.02.2020
2181 Thunderstorm 25 1011 88 2000 2.6 0 18:24 24.02.2020
2182 Thunderstorm 25 1011 94 2000 3.6 320 17:57 24.02.2020
2183 Thunderstorm 25 1011 88 4000 3.6 210 17:38 24.02.2020
2184 Thunderstorm 25 1011 88 4000 3.6 210 17:19 24.02.2020
2185 Thunderstorm 26 1011 83 5000 4.6 240 16:55 24.02.2020
2186 Thunderstorm 26 1011 83 5000 4.6 240 16:55 24.02.2020
2187 Thunderstorm 27 1011 79 7000 2.1 0 16:37 24.02.2020
2188 Thunderstorm 29 1011 79 7000 2.1 0 16:18 24.02.2020
2189 Thunderstorm 29 1010 79 7000 2.1 50 15:56 24.02.2020
2190 Thunderstorm 27 1010 79 7000 3.1 30 15:38 24.02.2020
2191 Thunderstorm 27 1010 79 7000 3.1 30 15:19 24.02.2020
2192 Clouds 27 1010 79 7000 2.1 20 14:42 24.02.2020
2193 Clouds 29 1010 79 7000 2.1 20 14:23 24.02.2020
2194 Clouds 29 1009 79 8000 2.1 30 13:59 24.02.2020
2195 Haze 29 1009 89 5000 2.6 330 13:41 24.02.2020
2196 Haze 29 1009 89 5000 2.6 330 13:23 24.02.2020
2197 Clouds 29 1009 79 8000 3.1 30 12:58 24.02.2020
2198 Rain 28 1008 83 5000 3.1 360 12:40 24.02.2020
2199 Rain 28 1008 83 5000 3.1 360 12:22 24.02.2020
2200 Clouds 29 1008 70 10000 4.1 30 11:48 24.02.2020
2201 Rain 29 1008 79 5000 2.6 340 11:29 24.02.2020
2202 Clouds 31 1008 66 10000 3.6 10 10:51 24.02.2020
2203 Rain 31 1008 79 5000 2.6 330 10:31 24.02.2020
2204 Clouds 31 1008 66 10000 4.1 360 09:56 24.02.2020
2205 Haze 32 1008 74 5000 3.6 330 09:38 24.02.2020
2206 Haze 31 1008 74 5000 3.6 330 09:19 24.02.2020
2207 Clouds 32 1008 66 10000 5.7 340 08:48 24.02.2020
2208 Haze 31 1008 74 5000 3.1 340 08:28 24.02.2020
2209 Clouds 30 1009 66 10000 7.7 340 07:52 24.02.2020
2210 Rain 30 1009 89 5000 3.6 350 07:32 24.02.2020
2211 Clouds 30 1010 66 9000 7.7 350 06:49 24.02.2020
2212 Rain 30 1010 89 5000 4.1 360 06:22 24.02.2020
2213 Rain 30 1011 89 5000 2.1 360 05:41 24.02.2020
2214 Rain 31 1011 89 5000 2.1 360 05:23 24.02.2020
2215 Clouds 27 1011 78 7000 5.7 330 02:57 24.02.2020
2216 Rain 26 1011 100 2500 3.6 330 01:53 24.02.2020
2217 Rain 26 1010 94 4000 2.6 270 01:28 24.02.2020
2218 Rain 26 1010 94 4000 2.6 270 01:28 24.02.2020
2219 Rain 27 1009 94 4000 2.6 260 00:38 24.02.2020
2220 Rain 27 1009 94 4000 2.6 260 00:19 24.02.2020
2221 Rain 27 1009 88 5000 3.1 310 23:42 23.02.2020
2222 Rain 27 1009 88 5000 3.1 310 23:23 23.02.2020
2223 Rain 27 1008 88 4000 1.5 290 22:58 23.02.2020
2224 Haze 27 1008 88 4000 2.1 300 22:40 23.02.2020
2225 Haze 27 1008 88 4000 2.1 300 22:21 23.02.2020
2226 Clouds 28 1008 78 5000 5.7 330 21:46 23.02.2020
2227 Clouds 28 1009 78 5000 6.2 340 21:21 23.02.2020
2228 Clouds 28 1008 78 5000 5.1 340 20:58 23.02.2020
2229 Clouds 28 1009 78 6000 5.1 340 20:40 23.02.2020
2230 Clouds 28 1009 78 6000 5.1 340 20:22 23.02.2020
2231 Thunderstorm 28 1009 78 6000 5.1 350 19:59 23.02.2020
2232 Clouds 27 1009 83 7000 5.7 340 19:40 23.02.2020
2233 Clouds 26 1009 83 7000 5.7 340 19:19 23.02.2020
2234 Clouds 26 1010 83 7000 3.6 20 18:59 23.02.2020
2235 Clouds 26 1010 88 6000 5.1 20 18:37 23.02.2020
2236 Clouds 26 1010 88 6000 5.1 20 18:19 23.02.2020
2237 Rain 26 1010 94 5000 4.1 10 17:58 23.02.2020
2238 Rain 25 1011 83 5000 3.1 20 17:39 23.02.2020
2239 Rain 27 1011 83 5000 3.1 20 17:21 23.02.2020
2240 Clouds 27 1011 83 7000 3.6 20 16:56 23.02.2020
2241 Clouds 27 1011 88 7000 2.1 20 16:36 23.02.2020
2242 Clouds 27 1011 88 7000 2.1 20 16:18 23.02.2020
2243 Clouds 27 1011 83 7000 2.6 20 15:40 23.02.2020
2244 Clouds 27 1011 83 7000 2.6 20 15:21 23.02.2020
2245 Clouds 27 1011 83 8000 2.6 30 14:59 23.02.2020
2246 Clouds 28 1010 79 8000 2.6 30 14:40 23.02.2020
2247 Clouds 28 1010 79 8000 2.6 30 14:22 23.02.2020
2248 Clouds 28 1010 79 8000 2.6 30 14:22 23.02.2020
2249 Clouds 28 1010 79 9000 2.1 30 13:57 23.02.2020
2250 Clouds 28 1010 78 6000 1.5 360 13:39 23.02.2020
2251 Clouds 28 1010 78 6000 1.5 360 13:21 23.02.2020
2252 Clouds 28 1009 74 6000 2.1 320 12:43 23.02.2020
2253 Clouds 28 1009 74 6000 2.6 350 12:23 23.02.2020
2254 Clouds 29 1008 74 10000 3.6 30 11:59 23.02.2020
2255 Clouds 30 1008 66 6000 4.1 360 11:37 23.02.2020
2256 Clouds 30 1008 66 6000 4.1 360 11:19 23.02.2020
2257 Clouds 32 1008 70 10000 4.1 20 10:56 23.02.2020
2258 Clouds 32 1008 70 10000 4.1 20 10:56 23.02.2020
2259 Clouds 32 1008 66 6000 2.6 10 10:37 23.02.2020
2260 Clouds 32 1008 66 6000 2.6 10 10:19 23.02.2020
2261 Clouds 32 1008 66 10000 5.1 340 09:40 23.02.2020
2262 Clouds 32 1008 66 10000 5.1 340 09:21 23.02.2020
2263 Clouds 32 1009 66 10000 4.1 340 08:59 23.02.2020
2264 Clouds 32 1009 66 6000 3.6 340 08:41 23.02.2020
2265 Clouds 32 1009 66 6000 3.6 340 08:21 23.02.2020
2266 Rain 32 1010 66 6000 2.6 360 07:40 23.02.2020
2267 Rain 32 1010 66 6000 2.6 360 07:18 23.02.2020
2268 Rain 30 1012 83 4000 2.1 290 05:54 23.02.2020
2269 Rain 30 1012 83 4000 2.1 280 04:48 23.02.2020
2270 Rain 28 1012 94 4000 2.6 240 03:35 23.02.2020
2271 Rain 27 1012 94 4000 3.1 240 02:37 23.02.2020
2272 Rain 25 1011 100 4000 2.1 260 01:26 23.02.2020
2273 Clouds 26 1011 83 6000 5.1 310 00:49 23.02.2020
2274 Rain 26 1010 100 4000 2.1 210 00:28 23.02.2020
2275 Haze 26 1010 83 5000 3.6 320 23:59 22.02.2020
2276 Haze 26 1010 83 5000 4.6 310 23:40 22.02.2020
2277 Haze 26 1010 83 5000 4.6 310 23:19 22.02.2020
2278 Rain 26 1010 100 2000 2.6 190 22:41 22.02.2020
2279 Rain 26 1010 100 2000 2.6 190 22:19 22.02.2020
2280 Thunderstorm 26 1010 88 5000 3.6 310 21:43 22.02.2020
2281 Thunderstorm 26 1010 88 5000 3.6 310 21:24 22.02.2020
2282 Thunderstorm 26 1010 88 5000 3.6 310 21:24 22.02.2020
2283 Thunderstorm 26 1010 88 4000 3.6 300 20:49 22.02.2020
2284 Thunderstorm 26 1010 88 3000 7.7 320 20:26 22.02.2020
2285 Thunderstorm 26 1011 88 2000 7.7 330 19:59 22.02.2020
2286 Thunderstorm 25 1011 83 5000 3.6 360 19:41 22.02.2020
2287 Thunderstorm 27 1011 83 5000 3.6 360 19:21 22.02.2020
2288 Clouds 26 1012 88 6000 3.6 20 18:41 22.02.2020
2289 Clouds 26 1012 88 6000 3.6 20 18:22 22.02.2020
2290 Clouds 26 1012 83 6000 2.1 20 17:58 22.02.2020
2291 Clouds 26 1012 83 6000 2.1 20 17:58 22.02.2020
2292 Clouds 26 1012 83 6000 2.1 10 17:40 22.02.2020
2293 Clouds 27 1012 83 6000 2.1 10 17:22 22.02.2020
2294 Clouds 27 1012 79 6000 2.1 360 16:58 22.02.2020
2295 Clouds 27 1013 79 6000 2.1 30 16:39 22.02.2020
2296 Clouds 27 1013 79 6000 2.1 30 16:20 22.02.2020
2297 Haze 27 1012 79 5000 2.1 40 15:45 22.02.2020
2298 Clouds 27 1012 79 8000 2.1 30 15:27 22.02.2020
2299 Clouds 27 1012 79 8000 1.5 20 14:57 22.02.2020
2300 Clouds 27 1011 79 7000 1.5 30 14:39 22.02.2020
2301 Clouds 28 1011 79 7000 1.5 30 14:19 22.02.2020
2302 Clouds 28 1011 79 6000 2.6 340 13:41 22.02.2020
2303 Clouds 28 1011 79 6000 2.6 340 13:20 22.02.2020
2304 Clouds 28 1010 79 9000 2.6 30 12:48 22.02.2020
2305 Clouds 29 1009 70 10000 2.6 10 12:26 22.02.2020
2306 Clouds 29 1009 79 9000 3.6 360 11:56 22.02.2020
2307 Clouds 30 1009 74 10000 3.6 360 11:38 22.02.2020
2308 Clouds 30 1009 74 10000 3.6 360 11:20 22.02.2020
2309 Clouds 31 1009 74 9000 4.6 360 10:42 22.02.2020
2310 Clouds 31 1009 74 9000 4.6 360 10:42 22.02.2020
2311 Clouds 32 1009 74 9000 4.6 360 10:21 22.02.2020
2312 Clouds 31 1009 74 9000 4.6 360 09:59 22.02.2020
2313 Clouds 32 1010 74 9000 5.7 360 09:40 22.02.2020
2314 Clouds 31 1010 74 9000 5.7 360 09:21 22.02.2020
2315 Clouds 31 1010 70 10000 4.6 360 08:51 22.02.2020
2316 Clouds 31 1010 62 6000 4.1 10 08:28 22.02.2020
2317 Clouds 31 1011 74 10000 5.7 330 07:54 22.02.2020
2318 Clouds 31 1011 66 6000 5.7 360 07:20 22.02.2020
2319 Clouds 32 1012 70 10000 5.7 350 06:53 22.02.2020
2320 Clouds 32 1012 62 6000 4.6 10 06:34 22.02.2020
2321 Rain 30 1014 79 5000 2.6 300 04:42 22.02.2020
2322 Clouds 29 1014 79 8000 5.1 340 03:45 22.02.2020
2323 Haze 28 1013 94 5000 2.6 250 02:33 22.02.2020
2324 Clouds 26 1013 94 6000 1.5 200 01:47 22.02.2020
2325 Rain 25 1013 100 4000 2.6 230 01:27 22.02.2020
2326 Rain 26 1012 100 4000 1.5 270 00:46 22.02.2020
2327 Rain 25 1012 100 4000 1.5 270 00:28 22.02.2020
2328 Rain 25 1012 100 4000 2.1 200 23:52 21.02.2020
2329 Thunderstorm 25 1011 100 4000 2.1 170 23:24 21.02.2020
2330 Rain 25 1011 94 4000 2.1 0 22:57 21.02.2020
2331 Thunderstorm 25 1011 100 4000 2.1 130 22:39 21.02.2020
2332 Thunderstorm 25 1011 100 4000 2.1 130 22:21 21.02.2020
2333 Clouds 25 1011 94 6000 2.1 180 21:42 21.02.2020
2334 Clouds 25 1011 94 6000 3.6 160 21:24 21.02.2020
2335 Thunderstorm 25 1012 94 5000 2.1 0 20:56 21.02.2020
2336 Thunderstorm 25 1012 94 3500 3.1 210 20:38 21.02.2020
2337 Thunderstorm 25 1012 94 3500 3.1 210 20:19 21.02.2020
2338 Thunderstorm 26 1013 88 2000 6.7 330 19:39 21.02.2020
2339 Thunderstorm 26 1013 88 2000 6.7 330 19:19 21.02.2020
2340 Haze 27 1013 88 5000 2.1 90 18:40 21.02.2020
2341 Haze 27 1013 88 5000 2.1 90 18:22 21.02.2020
2342 Haze 27 1013 88 5000 2.1 90 18:22 21.02.2020
2343 Haze 27 1013 88 5000 2.1 80 17:55 21.02.2020
2344 Haze 28 1013 88 5000 2.1 80 17:36 21.02.2020
2345 Haze 28 1013 88 5000 2.1 80 17:18 21.02.2020
2346 Haze 28 1013 83 5000 1.5 40 16:41 21.02.2020
2347 Haze 28 1013 83 5000 1.5 40 16:21 21.02.2020
2348 Clouds 28 1013 83 6000 2.1 60 15:57 21.02.2020
2349 Clouds 27 1012 78 6000 2.6 70 15:38 21.02.2020
2350 Clouds 27 1012 78 6000 2.6 70 15:18 21.02.2020
2351 Haze 27 1011 78 5000 2.6 70 14:42 21.02.2020
2352 Haze 28 1011 78 5000 2.6 70 14:21 21.02.2020
2353 Clouds 28 1010 79 6000 1.5 360 13:45 21.02.2020
2354 Clouds 28 1010 79 6000 1.5 360 13:24 21.02.2020
2355 Clouds 29 1010 66 9000 1.5 30 12:59 21.02.2020
2356 Clouds 29 1010 70 6000 1.5 340 12:40 21.02.2020
2357 Clouds 29 1010 70 6000 1.5 340 12:22 21.02.2020
2358 Clouds 30 1009 70 6000 1.5 300 11:44 21.02.2020
2359 Clouds 31 1009 66 6000 2.6 350 11:23 21.02.2020
2360 Clouds 31 1009 66 6000 1.5 300 10:59 21.02.2020
2361 Clouds 31 1009 70 10000 3.1 360 10:41 21.02.2020
2362 Clouds 30 1009 70 10000 3.1 360 10:19 21.02.2020
2363 Clouds 31 1009 66 10000 3.6 360 09:58 21.02.2020
2364 Clouds 32 1010 62 10000 4.6 360 09:38 21.02.2020
2365 Clouds 31 1010 62 10000 4.6 360 09:38 21.02.2020
2366 Clouds 32 1010 62 10000 4.6 360 09:20 21.02.2020
2367 Clouds 31 1010 66 6000 2.6 320 08:45 21.02.2020
2368 Clouds 31 1010 66 6000 2.6 320 08:22 21.02.2020
2369 Clouds 31 1011 70 6000 3.6 300 07:59 21.02.2020
2370 Rain 31 1012 89 5000 3.1 300 07:41 21.02.2020
2371 Rain 31 1012 89 5000 3.1 300 07:20 21.02.2020
2372 Clouds 31 1012 66 9000 6.2 340 06:55 21.02.2020
2373 Clouds 30 1013 70 9000 6.2 330 06:31 21.02.2020
2374 Haze 30 1013 83 5000 2.6 280 05:52 21.02.2020
2375 Rain 29 1013 100 2000 1.5 250 04:39 21.02.2020
2376 Rain 28 1013 100 2000 1.5 250 04:20 21.02.2020
2377 Haze 28 1013 100 5000 1.5 270 03:42 21.02.2020
2378 Rain 28 1013 83 5000 1.5 240 02:58 21.02.2020
2379 Rain 24 1012 100 3000 2.6 230 01:25 21.02.2020
2380 Mist 25 1012 94 4000 1 270 00:46 21.02.2020
2381 Rain 25 1012 94 4000 1.5 260 00:24 21.02.2020
2382 Rain 25 1012 94 4000 1.5 260 00:24 21.02.2020
2383 Clouds 25 1011 94 6000 1.5 260 23:46 20.02.2020
2384 Clouds 25 1011 94 6000 1.5 230 23:26 20.02.2020
2385 Clouds 25 1010 88 6000 1.5 230 22:59 20.02.2020
2386 Clouds 25 1010 88 6000 1 0 22:39 20.02.2020
2387 Clouds 25 1010 88 6000 1 0 22:20 20.02.2020
2388 Clouds 24 1010 94 6000 1.5 210 21:56 20.02.2020
2389 Clouds 24 1010 94 6000 2.1 210 21:37 20.02.2020
2390 Clouds 24 1010 94 6000 2.1 210 21:19 20.02.2020
2391 Clouds 24 1010 94 6000 2.1 210 21:19 20.02.2020
2392 Clouds 24 1011 94 6000 2.1 190 20:55 20.02.2020
2393 Rain 24 1011 94 5000 1.5 210 20:37 20.02.2020
2394 Rain 24 1011 94 5000 1.5 210 20:18 20.02.2020
2395 Rain 24 1011 94 5000 1.5 180 19:58 20.02.2020
2396 Rain 24 1012 88 5000 1.5 200 19:39 20.02.2020
2397 Rain 24 1012 88 5000 1.5 200 19:39 20.02.2020
2398 Rain 24 1012 88 5000 1.5 200 19:21 20.02.2020
2399 Rain 24 1012 94 5000 2.1 220 18:39 20.02.2020
2400 Rain 24 1012 94 5000 2.1 220 18:39 20.02.2020
2401 Rain 24 1012 94 5000 2.1 220 18:20 20.02.2020
2402 Rain 24 1013 94 5000 1 0 17:55 20.02.2020
2403 Rain 24 1013 94 5000 1 0 17:36 20.02.2020
2404 Thunderstorm 24 1013 94 5000 3.1 280 17:18 20.02.2020
2405 Thunderstorm 24 1013 94 5000 3.1 280 16:55 20.02.2020
2406 Thunderstorm 25 1012 88 4000 5.7 260 16:37 20.02.2020
2407 Thunderstorm 25 1012 88 4000 5.7 260 16:18 20.02.2020
2408 Clouds 25 1011 88 5000 1 0 15:41 20.02.2020
2409 Clouds 25 1011 88 5000 1 0 15:21 20.02.2020
2410 Clouds 25 1011 83 6000 1 250 14:57 20.02.2020
2411 Clouds 26 1010 83 7000 1 360 14:39 20.02.2020
2412 Clouds 28 1010 83 7000 1 360 14:20 20.02.2020
2413 Clouds 28 1010 78 8000 1 0 13:45 20.02.2020
2414 Clouds 29 1010 83 6000 3.29 339 13:20 20.02.2020
2415 Clouds 29 1010 74 9000 1 350 12:59 20.02.2020
2416 Clouds 27 1009 74 6000 2.1 310 12:40 20.02.2020
2417 Clouds 28 1009 74 6000 2.1 310 12:19 20.02.2020
2418 Clouds 28 1009 74 9000 2.6 10 11:56 20.02.2020
2419 Rain 28 1009 74 6000 2.1 360 11:37 20.02.2020
2420 Rain 30 1009 74 6000 2.1 360 11:19 20.02.2020
2421 Haze 29 1008 70 5000 3.1 290 10:42 20.02.2020
2422 Haze 30 1008 70 5000 3.1 290 10:22 20.02.2020
2423 Clouds 30 1008 70 10000 3.6 360 09:55 20.02.2020
2424 Rain 31 1009 70 5000 2.6 300 09:37 20.02.2020
2425 Rain 30 1009 70 5000 2.6 300 09:19 20.02.2020
2426 Haze 30 1009 70 5000 2.1 300 08:40 20.02.2020
2427 Haze 31 1009 70 5000 2.1 300 08:22 20.02.2020
2428 Clouds 30 1010 70 9000 6.2 330 07:47 20.02.2020
2429 Haze 29 1010 78 5000 1.5 300 07:26 20.02.2020
2430 Clouds 29 1011 74 9000 5.7 320 06:56 20.02.2020
2431 Rain 29 1011 88 4000 1.5 340 06:30 20.02.2020
2432 Rain 27 1012 94 4000 1.5 340 05:47 20.02.2020
2433 Rain 27 1012 94 4000 1.5 340 05:19 20.02.2020
2434 Haze 27 1012 94 5000 1.5 250 04:29 20.02.2020
2435 Rain 26 1013 94 2000 2.6 230 03:40 20.02.2020
2436 Rain 25 1012 94 3000 4.6 320 02:45 20.02.2020
2437 Rain 25 1011 100 4000 1.5 270 01:21 20.02.2020
2438 Rain 25 1011 100 3000 2.1 210 00:35 20.02.2020
2439 Rain 25 1010 100 3000 2.6 220 23:55 19.02.2020
2440 Rain 24 1010 100 3000 2.1 190 23:24 19.02.2020
2441 Rain 24 1010 100 3000 1.5 250 22:59 19.02.2020
2442 Rain 25 1010 100 3000 1.5 250 22:41 19.02.2020
2443 Rain 25 1010 100 3000 1.5 250 22:21 19.02.2020
2444 Rain 25 1010 88 4300 2.1 240 21:57 19.02.2020
2445 Thunderstorm 25 1010 88 5000 2.1 220 21:38 19.02.2020
2446 Thunderstorm 25 1010 88 5000 2.1 220 21:18 19.02.2020
2447 Thunderstorm 25 1010 88 5000 2.1 280 20:56 19.02.2020
2448 Rain 25 1010 88 5000 3.6 310 20:37 19.02.2020
2449 Rain 25 1010 88 5000 3.6 310 20:18 19.02.2020
2450 Rain 25 1011 88 4000 7.2 320 19:56 19.02.2020
2451 Rain 25 1011 94 4000 7.7 320 19:37 19.02.2020
2452 Rain 25 1011 94 4000 7.7 320 19:18 19.02.2020
2453 Rain 25 1011 88 4000 7.2 330 18:56 19.02.2020
2454 Rain 25 1011 88 4000 7.2 330 18:56 19.02.2020
2455 Thunderstorm 25 1012 94 4000 7.2 320 18:38 19.02.2020
2456 Thunderstorm 25 1012 94 4000 7.2 320 18:20 19.02.2020
2457 Thunderstorm 25 1012 94 3000 6.7 330 17:43 19.02.2020
2458 Thunderstorm 25 1012 94 3000 6.7 330 17:20 19.02.2020
2459 Thunderstorm 25 1011 88 3000 5.1 330 16:45 19.02.2020
2460 Thunderstorm 25 1011 88 3000 5.1 330 16:20 19.02.2020
2461 Thunderstorm 26 1011 88 5000 1.5 50 15:59 19.02.2020
2462 Thunderstorm 26 1011 88 5000 2.1 0 15:41 19.02.2020
2463 Thunderstorm 26 1011 88 5000 2.1 0 15:23 19.02.2020
2464 Thunderstorm 25 1010 88 4000 0.5 0 14:55 19.02.2020
2465 Thunderstorm 25 1010 88 4000 2.1 0 14:37 19.02.2020
2466 Thunderstorm 25 1010 88 4000 2.1 0 14:18 19.02.2020
2467 Rain 26 1009 94 5000 2.6 180 13:41 19.02.2020
2468 Rain 26 1009 94 5000 2.6 180 13:21 19.02.2020
2469 Rain 28 1008 79 5000 2.1 300 12:42 19.02.2020
2470 Rain 27 1008 79 5000 2.1 300 12:19 19.02.2020
2471 Rain 27 1008 74 5000 2.6 310 11:59 19.02.2020
2472 Rain 28 1008 74 5000 2.6 330 11:37 19.02.2020
2473 Rain 29 1008 74 5000 2.6 330 11:19 19.02.2020
2474 Rain 30 1008 74 6000 2.6 300 10:57 19.02.2020
2475 Rain 30 1008 74 6000 3.6 330 10:38 19.02.2020
2476 Clouds 30 1008 70 10000 6.2 340 10:19 19.02.2020
2477 Clouds 30 1008 70 10000 6.2 340 09:58 19.02.2020
2478 Clouds 29 1009 74 10000 6.7 320 09:37 19.02.2020
2479 Clouds 29 1009 74 10000 6.7 320 09:18 19.02.2020
2480 Clouds 29 1009 79 6000 4.1 330 08:45 19.02.2020
2481 Clouds 29 1009 79 6000 2.6 320 08:24 19.02.2020
2482 Clouds 29 1010 74 9000 6.2 320 07:43 19.02.2020
2483 Clouds 29 1010 83 6000 2.6 280 07:25 19.02.2020
2484 Clouds 29 1011 74 9000 4.6 310 06:53 19.02.2020
2485 Clouds 30 1011 83 6000 2.1 280 06:27 19.02.2020
2486 Rain 28 1013 88 5000 1.5 290 04:24 19.02.2020
2487 Rain 26 1013 94 4000 2.6 280 02:58 19.02.2020
2488 Rain 26 1013 94 4000 2.6 280 02:31 19.02.2020
2489 Clouds 26 1012 88 6000 2.6 320 01:24 19.02.2020
2490 Haze 25 1011 88 5000 3.1 270 00:51 19.02.2020
2491 Haze 25 1011 88 5000 3.1 270 00:51 19.02.2020
2492 Haze 25 1011 88 5000 2.1 270 00:32 19.02.2020
2493 Haze 25 1011 88 5000 3.1 270 23:56 18.02.2020
2494 Thunderstorm 25 1010 88 5000 2.1 290 23:37 18.02.2020
2495 Thunderstorm 25 1010 88 5000 2.1 290 23:19 18.02.2020
2496 Haze 25 1011 100 5000 2.1 280 22:43 18.02.2020
2497 Haze 25 1011 100 5000 2.1 280 22:20 18.02.2020
2498 Haze 25 1011 88 5000 2.6 270 21:58 18.02.2020
2499 Clouds 25 1011 88 7000 2.1 260 21:38 18.02.2020
2500 Clouds 25 1011 88 7000 2.1 260 21:38 18.02.2020
2501 Clouds 25 1011 88 7000 2.1 260 21:19 18.02.2020
2502 Clouds 24 1011 94 7000 2.1 270 20:58 18.02.2020
2503 Clouds 24 1010 94 6000 3.1 260 20:38 18.02.2020
2504 Clouds 24 1010 94 6000 3.1 260 20:20 18.02.2020
2505 Clouds 24 1010 94 6000 2.6 270 19:56 18.02.2020
2506 Clouds 25 1011 88 6000 2.6 270 19:37 18.02.2020
2507 Clouds 25 1011 88 6000 2.6 270 19:18 18.02.2020
2508 Haze 25 1012 88 4000 2.6 230 18:41 18.02.2020
2509 Haze 25 1012 88 4000 2.6 230 18:21 18.02.2020
2510 Rain 25 1012 88 4000 3.1 250 17:57 18.02.2020
2511 Rain 26 1012 88 4000 3.1 270 17:38 18.02.2020
2512 Rain 26 1012 88 4000 3.1 270 17:19 18.02.2020
2513 Rain 26 1013 88 4000 1.5 280 16:40 18.02.2020
2514 Rain 26 1013 88 4000 1.5 280 16:40 18.02.2020
2515 Rain 26 1013 88 4000 1.5 280 16:20 18.02.2020
2516 Thunderstorm 26 1012 83 6000 1 0 15:42 18.02.2020
2517 Thunderstorm 26 1012 83 6000 1 0 15:21 18.02.2020
2518 Thunderstorm 27 1012 83 5000 3.6 360 14:58 18.02.2020
2519 Thunderstorm 27 1012 83 5000 3.6 360 14:58 18.02.2020
2520 Thunderstorm 27 1012 83 6000 2.6 180 14:40 18.02.2020
2521 Thunderstorm 27 1012 83 6000 2.6 180 14:21 18.02.2020
2522 Thunderstorm 27 1011 78 8000 2.1 0 13:59 18.02.2020
2523 Rain 27 1011 94 3000 4.69 329 13:40 18.02.2020
2524 Rain 27 1011 94 3000 5.11 319 13:21 18.02.2020
2525 Rain 26 1010 88 2000 1.5 350 12:44 18.02.2020
2526 Rain 26 1010 88 2000 1.5 350 12:25 18.02.2020
2527 Clouds 26 1009 74 8000 2.6 340 11:56 18.02.2020
2528 Rain 28 1009 83 4000 4.1 180 11:38 18.02.2020
2529 Rain 28 1009 83 4000 4.1 180 11:19 18.02.2020
2530 Rain 29 1009 83 5000 3.6 70 10:44 18.02.2020
2531 Rain 29 1009 83 5000 3.6 70 10:23 18.02.2020
2532 Clouds 31 1009 66 10000 4.6 360 09:56 18.02.2020
2533 Rain 31 1009 62 5000 4.1 20 09:38 18.02.2020
2534 Rain 31 1009 62 5000 4.1 20 09:19 18.02.2020
2535 Thunderstorm 31 1009 70 10000 7.2 340 08:55 18.02.2020
2536 Clouds 31 1009 66 10000 6.2 340 08:37 18.02.2020
2537 Clouds 31 1009 66 10000 6.2 340 08:19 18.02.2020
2538 Clouds 31 1010 70 9000 5.7 350 07:46 18.02.2020
2539 Clouds 31 1010 70 6000 4.1 350 07:25 18.02.2020
2540 Clouds 31 1011 70 8000 5.1 340 06:51 18.02.2020
2541 Haze 31 1011 66 5000 4.6 350 06:28 18.02.2020
2542 Clouds 31 1012 70 8000 4.6 340 05:48 18.02.2020
2543 Clouds 31 1012 70 5000 2.6 270 05:20 18.02.2020
2544 Clouds 29 1012 83 7000 2.1 0 03:49 18.02.2020
2545 Haze 27 1012 88 4300 2.1 0 02:58 18.02.2020
2546 Rain 25 1012 94 5000 5.25 286 01:25 18.02.2020
2547 Rain 25 1012 94 5000 4.74 299 00:43 18.02.2020
2548 Rain 25 1012 94 5000 4.74 299 00:18 18.02.2020
2549 Rain 24 1011 94 5000 4.74 299 23:39 17.02.2020
2550 Rain 24 1011 94 5000 2.26 270 23:20 17.02.2020
2551 Haze 25 1011 94 5000 3.1 290 22:58 17.02.2020
2552 Rain 25 1011 94 5000 1.5 270 22:39 17.02.2020
2553 Rain 24 1011 94 5000 1.5 270 22:18 17.02.2020
2554 Haze 25 1011 88 5000 2.6 280 21:39 17.02.2020
2555 Haze 25 1011 88 5000 2.6 280 21:19 17.02.2020
2556 Haze 25 1011 88 5000 4.6 300 20:55 17.02.2020
2557 Haze 25 1011 88 5000 4.6 300 20:55 17.02.2020
2558 Haze 25 1012 88 5000 4.1 320 20:37 17.02.2020
2559 Haze 25 1012 88 5000 4.1 320 20:37 17.02.2020
2560 Haze 25 1012 88 5000 4.1 320 20:19 17.02.2020
2561 Rain 25 1012 88 5000 3.1 290 19:43 17.02.2020
2562 Rain 25 1012 88 5000 3.1 290 19:43 17.02.2020
2563 Rain 25 1012 88 5000 2.1 260 19:21 17.02.2020
2564 Mist 26 1012 88 5000 4.1 260 18:57 17.02.2020
2565 Mist 26 1013 88 3500 2.6 250 18:36 17.02.2020
2566 Mist 26 1013 88 3500 2.6 250 18:36 17.02.2020
2567 Mist 26 1013 88 3500 2.6 250 18:18 17.02.2020
2568 Mist 26 1013 88 3500 1.5 310 17:38 17.02.2020
2569 Mist 26 1013 88 3500 1.5 310 17:38 17.02.2020
2570 Mist 26 1013 88 3500 1.5 310 17:20 17.02.2020
2571 Mist 26 1013 88 4500 1 280 16:59 17.02.2020
2572 Mist 26 1013 88 5000 1.5 0 16:41 17.02.2020
2573 Mist 26 1013 88 5000 1.5 0 16:22 17.02.2020
2574 Mist 25 1013 83 5000 1 0 15:48 17.02.2020
2575 Mist 25 1013 88 3500 1 320 15:29 17.02.2020
2576 Mist 25 1013 88 3500 1 320 15:29 17.02.2020
2577 Mist 24 1012 88 3000 2.34 90 15:00 17.02.2020
2578 Mist 25 1012 88 5000 1 0 14:41 17.02.2020
2579 Mist 26 1012 88 5000 1 0 14:22 17.02.2020
2580 Mist 26 1012 88 5000 1 180 13:58 17.02.2020
2581 Rain 26 1011 94 4000 1.5 80 13:38 17.02.2020
2582 Rain 26 1011 94 4000 1.5 80 13:19 17.02.2020
2583 Rain 26 1010 88 5000 1.5 340 12:43 17.02.2020
2584 Rain 26 1010 88 5000 1.5 340 12:25 17.02.2020
2585 Rain 27 1010 83 6000 1.5 330 11:58 17.02.2020
2586 Rain 26 1010 83 5000 1.5 310 11:39 17.02.2020
2587 Rain 26 1010 83 5000 1.5 310 11:20 17.02.2020
2588 Rain 26 1009 88 5000 3.1 270 10:55 17.02.2020
2589 Rain 26 1009 78 5000 3.6 220 10:37 17.02.2020
2590 Rain 27 1009 78 5000 3.6 220 10:18 17.02.2020
2591 Rain 27 1009 78 5000 3.6 220 10:18 17.02.2020
2592 Rain 26 1010 74 5000 3.6 250 09:41 17.02.2020
2593 Rain 27 1010 74 5000 3.6 250 09:21 17.02.2020
2594 Rain 27 1010 74 6000 4.1 280 08:58 17.02.2020
2595 Rain 28 1010 66 6000 6.2 250 08:40 17.02.2020
2596 Rain 29 1010 66 6000 6.2 250 08:20 17.02.2020
2597 Clouds 30 1010 62 10000 4.1 310 07:47 17.02.2020
2598 Clouds 32 1011 62 6000 2.6 180 07:24 17.02.2020
2599 Clouds 33 1012 66 9000 5.1 280 06:52 17.02.2020
2600 Haze 32 1012 70 5000 2.1 120 06:33 17.02.2020
2601 Haze 32 1013 66 5000 1.5 130 05:58 17.02.2020
2602 Haze 31 1013 74 5000 1.5 110 05:38 17.02.2020
2603 Clouds 28 1013 83 6000 1.5 130 03:22 17.02.2020
2604 Clouds 26 1012 88 7000 2.6 280 01:58 17.02.2020
2605 Clouds 26 1011 88 7000 2.6 280 00:48 17.02.2020
2606 Clouds 25 1011 94 6000 2.6 270 00:22 17.02.2020
2607 Clouds 25 1011 88 6000 2.1 290 23:54 16.02.2020
2608 Clouds 25 1011 88 6000 2.6 280 23:32 16.02.2020
2609 Clouds 25 1010 88 6000 3.6 290 22:58 16.02.2020
2610 Haze 25 1010 100 4000 6.44 246 22:39 16.02.2020
2611 Haze 25 1010 100 4000 6.44 246 22:39 16.02.2020
2612 Haze 25 1010 100 4000 6.44 246 22:21 16.02.2020
2613 Clouds 25 1010 88 6000 3.6 290 21:58 16.02.2020
2614 Clouds 25 1010 88 6000 3.1 290 21:40 16.02.2020
2615 Clouds 25 1010 88 6000 3.1 290 21:22 16.02.2020
2616 Clouds 25 1010 88 6000 3.1 290 20:58 16.02.2020
2617 Haze 25 1010 88 5000 1.5 260 20:39 16.02.2020
2618 Haze 25 1010 88 5000 1.5 260 20:21 16.02.2020
2619 Haze 25 1011 88 5000 2.6 240 19:58 16.02.2020
2620 Clouds 25 1011 88 6000 2.1 250 19:38 16.02.2020
2621 Clouds 25 1011 88 6000 2.1 250 19:38 16.02.2020
2622 Clouds 25 1011 88 6000 2.1 250 19:19 16.02.2020
2623 Clouds 25 1011 88 6000 2.1 250 19:19 16.02.2020
2624 Clouds 25 1012 88 6000 3.1 260 18:44 16.02.2020
2625 Clouds 25 1012 88 6000 3.1 260 18:25 16.02.2020
2626 Clouds 25 1013 88 6000 3.6 240 17:57 16.02.2020
2627 Clouds 25 1013 88 6000 3.6 240 17:39 16.02.2020
2628 Clouds 25 1013 88 6000 3.6 240 17:19 16.02.2020
2629 Clouds 25 1013 88 6000 3.6 230 16:55 16.02.2020
2630 Rain 25 1013 88 5000 4.1 250 16:36 16.02.2020
2631 Rain 25 1013 88 5000 4.1 250 16:18 16.02.2020
2632 Rain 25 1012 88 5000 4.6 240 15:41 16.02.2020
2633 Rain 25 1012 88 5000 4.6 240 15:22 16.02.2020
2634 Rain 25 1012 88 5000 4.6 230 14:45 16.02.2020
2635 Rain 25 1012 88 5000 3.6 240 14:24 16.02.2020
2636 Rain 25 1012 94 5000 4.1 230 13:59 16.02.2020
2637 Rain 25 1011 100 5000 4.1 250 13:41 16.02.2020
2638 Rain 25 1011 100 5000 4.1 250 13:23 16.02.2020
2639 Rain 26 1011 88 5000 3.1 250 12:40 16.02.2020
2640 Rain 26 1011 88 5000 3.1 250 12:20 16.02.2020
2641 Rain 25 1011 94 5000 2.6 230 11:54 16.02.2020
2642 Rain 25 1011 100 4000 4.1 250 11:36 16.02.2020
2643 Rain 25 1011 100 4000 4.1 250 11:18 16.02.2020
2644 Rain 25 1010 94 5000 2.6 250 10:55 16.02.2020
2645 Rain 25 1010 100 3000 4.6 230 10:37 16.02.2020
2646 Rain 26 1010 100 3000 4.6 230 10:18 16.02.2020
2647 Thunderstorm 26 1010 88 5000 3.6 270 09:39 16.02.2020
2648 Thunderstorm 26 1010 88 5000 3.6 270 09:20 16.02.2020
2649 Thunderstorm 24 1011 94 5000 4.1 260 08:57 16.02.2020
2650 Thunderstorm 24 1011 94 5000 4.1 260 08:57 16.02.2020
2651 Thunderstorm 25 1011 88 4000 4.1 250 08:39 16.02.2020
2652 Thunderstorm 25 1011 88 4000 4.1 250 08:19 16.02.2020
2653 Thunderstorm 26 1011 94 1000 7.7 230 07:42 16.02.2020
2654 Thunderstorm 28 1011 83 1000 7.7 250 07:23 16.02.2020
2655 Rain 30 1011 79 5000 3.1 320 06:32 16.02.2020
2656 Haze 31 1013 79 5000 3.6 250 04:37 16.02.2020
2657 Haze 30 1013 88 5000 3.1 330 03:23 16.02.2020
2658 Haze 28 1013 94 4000 0.92 98 02:24 16.02.2020
2659 Haze 27 1012 100 4000 1.5 170 01:40 16.02.2020
2660 Haze 27 1012 100 4000 1.5 170 01:21 16.02.2020
2661 Mist 26 1012 100 3000 2.1 200 00:51 16.02.2020
2662 Mist 25 1012 100 3000 1.51 130 00:28 16.02.2020
2663 Mist 25 1010 100 3000 1.51 130 23:44 15.02.2020
2664 Mist 25 1010 100 3000 1.51 130 23:25 15.02.2020
2665 Mist 25 1010 100 3000 1.5 140 22:59 15.02.2020
2666 Haze 25 1010 88 3000 1 0 22:40 15.02.2020
2667 Haze 25 1010 88 3000 1 0 22:21 15.02.2020
2668 Haze 26 1010 83 3000 1 50 21:56 15.02.2020
2669 Haze 26 1010 83 3000 0.5 340 21:37 15.02.2020
2670 Haze 26 1010 83 3000 0.5 340 21:19 15.02.2020
2671 Haze 26 1011 83 4500 1 0 20:39 15.02.2020
2672 Haze 26 1011 83 4500 1 0 20:39 15.02.2020
2673 Haze 26 1011 83 4500 1 0 20:21 15.02.2020
2674 Haze 26 1011 83 4500 1 0 20:21 15.02.2020
2675 Haze 26 1011 83 3500 1 0 19:44 15.02.2020
2676 Haze 26 1011 83 5000 1 190 19:22 15.02.2020
2677 Haze 25 1012 88 5000 2.1 220 18:44 15.02.2020
2678 Haze 25 1012 88 5000 2.6 220 18:23 15.02.2020
2679 Haze 26 1012 83 4000 2.1 260 17:58 15.02.2020
2680 Haze 26 1012 83 4000 2.1 260 17:58 15.02.2020
2681 Haze 26 1012 83 5000 1 0 17:39 15.02.2020
2682 Haze 26 1012 83 5000 1 0 17:21 15.02.2020
2683 Haze 27 1012 78 5000 2.6 0 16:43 15.02.2020
2684 Haze 27 1012 78 5000 2.6 0 16:25 15.02.2020
2685 Clouds 27 1012 78 6000 1.5 0 15:59 15.02.2020
2686 Clouds 27 1011 78 6000 1 0 15:41 15.02.2020
2687 Clouds 27 1011 78 6000 1 0 15:22 15.02.2020
2688 Clouds 26 1011 83 6000 1.5 200 14:45 15.02.2020
2689 Clouds 26 1011 78 6000 2.1 0 14:19 15.02.2020
2690 Clouds 26 1011 78 6000 3.6 170 13:56 15.02.2020
2691 Clouds 26 1011 78 6000 3.6 170 13:56 15.02.2020
2692 Rain 26 1011 100 4000 2.6 140 13:38 15.02.2020
2693 Rain 26 1011 100 4000 2.6 140 13:20 15.02.2020
2694 Rain 25 1011 100 4000 1.5 170 12:42 15.02.2020
2695 Rain 25 1011 100 4000 1.5 170 12:23 15.02.2020
2696 Clouds 25 1010 78 6000 3.1 210 11:52 15.02.2020
2697 Haze 25 1010 100 4000 2.6 230 11:33 15.02.2020
2698 Clouds 28 1009 74 7000 3.1 290 10:57 15.02.2020
2699 Rain 29 1009 88 4000 6.2 190 10:38 15.02.2020
2700 Rain 29 1009 88 4000 6.2 190 10:20 15.02.2020
2701 Rain 31 1008 74 4000 2.6 340 09:44 15.02.2020
2702 Rain 31 1008 74 4000 2.6 340 09:25 15.02.2020
2703 Rain 31 1008 66 5000 3.6 360 08:45 15.02.2020
2704 Rain 32 1008 66 5000 3.6 360 08:26 15.02.2020
2705 Clouds 33 1010 66 9000 5.7 10 07:59 15.02.2020
2706 Haze 33 1010 63 5000 2.1 360 07:39 15.02.2020
2707 Haze 33 1010 63 5000 2.1 360 07:18 15.02.2020
2708 Haze 33 1011 59 5000 3.6 360 06:37 15.02.2020
2709 Clouds 32 1011 66 7000 3.1 330 05:55 15.02.2020
2710 Clouds 30 1012 70 7000 2.1 0 04:48 15.02.2020
2711 Clouds 29 1012 74 6000 2.1 0 03:58 15.02.2020
2712 Clouds 31 1012 78 6000 1 0 02:58 15.02.2020
2713 Haze 30 1011 94 2000 1.5 210 02:24 15.02.2020
2714 Mist 28 1011 94 2000 0.61 17 01:43 15.02.2020
2715 Haze 25 1011 88 3400 1.5 190 00:58 15.02.2020
2716 Mist 25 1011 100 2000 1.26 100 00:27 15.02.2020
2717 Mist 26 1011 94 2000 2.1 190 23:44 14.02.2020
2718 Mist 26 1011 74 4000 0.38 62 23:21 14.02.2020
2719 Mist 26 1011 88 2000 0.38 62 22:54 14.02.2020
2720 Mist 25 1011 94 2000 1.5 180 22:36 14.02.2020
2721 Mist 25 1011 94 2000 1.5 180 22:36 14.02.2020
2722 Mist 25 1011 94 2000 1.5 180 22:18 14.02.2020
2723 Haze 25 1011 94 2100 1.5 220 21:40 14.02.2020
2724 Haze 25 1011 94 2100 1.5 220 21:21 14.02.2020
2725 Haze 25 1010 94 2100 1.5 230 20:44 14.02.2020
2726 Haze 26 1010 94 2100 0.5 0 20:20 14.02.2020
2727 Haze 26 1010 88 1800 1.5 310 19:57 14.02.2020
2728 Haze 26 1011 88 1800 0.5 350 19:38 14.02.2020
2729 Haze 26 1011 88 1800 0.5 350 19:19 14.02.2020
2730 Haze 26 1011 88 2100 1 350 18:56 14.02.2020
2731 Haze 26 1011 88 2200 1.5 330 18:38 14.02.2020
2732 Haze 26 1011 88 2200 1.5 330 18:18 14.02.2020
2733 Haze 27 1011 83 4200 1.5 0 17:42 14.02.2020
2734 Haze 27 1011 83 4200 1.5 0 17:21 14.02.2020
2735 Haze 26 1011 88 5000 1 0 16:57 14.02.2020
2736 Haze 26 1011 83 5000 1 0 16:39 14.02.2020
2737 Haze 27 1011 83 5000 1 0 16:21 14.02.2020
2738 Haze 27 1011 83 5000 1 230 15:56 14.02.2020
2739 Haze 27 1011 83 5000 1 0 15:37 14.02.2020
2740 Haze 27 1011 83 5000 1 0 15:37 14.02.2020
2741 Haze 27 1011 83 5000 1 0 15:37 14.02.2020
2742 Haze 27 1011 83 5000 1 0 15:37 14.02.2020
2743 Haze 27 1011 83 5000 1 0 15:19 14.02.2020
2744 Haze 27 1010 88 5000 1.5 190 14:57 14.02.2020
2745 Haze 27 1010 83 4500 0.5 0 14:38 14.02.2020
2746 Haze 27 1010 83 4500 0.5 0 14:20 14.02.2020
2747 Haze 27 1010 94 5000 2.68 38 13:40 14.02.2020
2748 Haze 27 1010 94 5000 1.88 352 13:21 14.02.2020
2749 Clouds 28 1010 78 8000 2.1 20 12:58 14.02.2020
2750 Haze 27 1009 88 5000 2.1 170 12:40 14.02.2020
2751 Haze 27 1009 88 5000 2.1 170 12:21 14.02.2020
2752 Clouds 28 1008 74 8000 1.5 0 11:58 14.02.2020
2753 Haze 28 1008 94 5000 2.1 180 11:40 14.02.2020
2754 Haze 29 1008 94 5000 2.1 180 11:20 14.02.2020
2755 Clouds 30 1008 74 8000 1 0 10:56 14.02.2020
2756 Clouds 30 1008 74 8000 2.6 0 10:37 14.02.2020
2757 Clouds 30 1008 74 8000 2.6 0 10:19 14.02.2020
2758 Rain 29 1008 83 5000 1.5 340 09:42 14.02.2020
2759 Rain 28 1008 83 5000 1.5 340 09:21 14.02.2020
2760 Rain 27 1009 94 5000 2.1 290 08:44 14.02.2020
2761 Rain 28 1009 94 5000 2.1 290 08:25 14.02.2020
2762 Rain 27 1009 88 6000 2.6 0 07:57 14.02.2020
2763 Rain 27 1010 94 4000 1.5 350 07:38 14.02.2020
2764 Rain 27 1010 94 4000 1.5 350 07:19 14.02.2020
2765 Thunderstorm 27 1011 94 3000 2.1 340 06:30 14.02.2020
2766 Thunderstorm 28 1011 88 6000 3.1 10 05:47 14.02.2020
2767 Thunderstorm 28 1011 83 6000 3.6 300 04:47 14.02.2020
2768 Haze 30 1011 79 4000 1.5 20 03:29 14.02.2020
2769 Haze 30 1011 88 3000 1.5 250 02:32 14.02.2020
2770 Haze 27 1010 94 3000 1.5 220 01:28 14.02.2020
2771 Mist 26 1010 100 3000 1.5 180 00:43 14.02.2020
2772 Mist 26 1010 100 3000 1.5 180 00:43 14.02.2020
2773 Mist 26 1010 100 3000 1.5 200 00:23 14.02.2020
2774 Haze 26 1010 100 4000 1.71 123 23:46 13.02.2020
2775 Haze 26 1010 100 4000 1.71 123 23:23 13.02.2020
2776 Haze 26 1010 100 4000 1.93 109 22:56 13.02.2020
2777 Mist 26 1009 94 4500 1.5 200 22:37 13.02.2020
2778 Mist 26 1009 94 4500 1.5 200 22:18 13.02.2020
2779 Haze 26 1009 88 4000 1 250 21:41 13.02.2020
2780 Haze 26 1009 88 4000 1 250 21:23 13.02.2020
2781 Haze 26 1009 88 4000 1 300 20:58 13.02.2020
2782 Haze 26 1010 88 4000 1 320 20:39 13.02.2020
2783 Haze 26 1010 88 4000 1 320 20:21 13.02.2020
2784 Haze 25 1010 88 4000 1 0 19:56 13.02.2020
2785 Haze 25 1010 88 5000 1 120 19:37 13.02.2020
2786 Haze 25 1010 88 5000 1 120 19:19 13.02.2020
2787 Haze 26 1011 83 5000 1 0 18:44 13.02.2020
2788 Haze 26 1011 83 5000 1 0 18:44 13.02.2020
2789 Haze 26 1011 83 5000 1 0 18:24 13.02.2020
2790 Haze 26 1011 83 5000 1 0 18:24 13.02.2020
2791 Haze 26 1012 88 5000 1 0 17:59 13.02.2020
2792 Haze 26 1012 88 5000 1 10 17:40 13.02.2020
2793 Haze 26 1012 88 5000 1 10 17:21 13.02.2020
2794 Haze 26 1012 88 5000 1 10 17:21 13.02.2020
2795 Haze 26 1012 88 5000 1 320 16:58 13.02.2020
2796 Clouds 26 1011 83 6000 1 0 16:40 13.02.2020
2797 Clouds 26 1011 83 6000 1 0 16:20 13.02.2020
2798 Clouds 26 1011 83 6000 1.5 0 15:56 13.02.2020
2799 Clouds 26 1011 83 6000 1 0 15:38 13.02.2020
2800 Clouds 26 1011 83 6000 1 0 15:19 13.02.2020
2801 -273 0 0 0 0 0 14:57 13.02.2020
2802 Clouds 26 1011 83 6000 1 0 14:39 13.02.2020
2803 Clouds 26 1011 83 6000 1 0 14:20 13.02.2020
2804 Rain 27 1011 94 5000 4.1 200 13:48 13.02.2020
2805 Rain 27 1010 88 5000 2.6 150 13:19 13.02.2020
2806 Clouds 27 1010 83 7000 2.1 340 12:56 13.02.2020
2807 Clouds 27 1010 83 7000 2.1 340 12:56 13.02.2020
2808 Rain 27 1009 83 5000 2.6 330 12:38 13.02.2020
2809 Rain 27 1009 83 5000 2.6 330 12:38 13.02.2020
2810 Rain 28 1009 83 5000 2.6 330 12:19 13.02.2020
2811 Rain 29 1009 74 5000 2.6 20 11:45 13.02.2020
2812 Rain 29 1009 74 5000 2.6 20 11:20 13.02.2020
2813 Rain 29 1008 79 5000 3.6 360 10:55 13.02.2020
2814 Rain 29 1009 74 5000 3.1 270 10:37 13.02.2020
2815 Rain 29 1009 74 5000 3.1 270 10:19 13.02.2020
2816 Haze 29 1009 79 5000 4.6 320 09:41 13.02.2020
2817 Haze 29 1009 79 5000 4.6 320 09:22 13.02.2020
2818 Haze 30 1009 70 5000 6.2 10 08:42 13.02.2020
2819 Haze 30 1009 70 5000 6.2 10 08:19 13.02.2020
2820 Haze 30 1010 66 5000 5.1 30 07:41 13.02.2020
2821 Haze 30 1010 66 5000 5.1 30 07:22 13.02.2020
2822 Haze 30 1010 66 5000 5.1 30 07:22 13.02.2020
2823 Thunderstorm 31 1011 79 8000 4.1 30 06:49 13.02.2020
2824 Haze 31 1011 66 5000 4.1 70 06:29 13.02.2020
2825 Haze 32 1011 70 5000 4.1 10 05:37 13.02.2020
2826 Haze 30 1011 74 5000 4.1 60 04:28 13.02.2020
2827 Haze 30 1011 79 4000 3.1 70 03:52 13.02.2020
2828 Haze 30 1012 83 4000 3.1 110 03:29 13.02.2020
2829 Haze 29 1012 88 4000 3.1 100 02:55 13.02.2020
2830 Haze 29 1012 88 4000 2.6 120 02:19 13.02.2020
2831 Haze 27 1012 100 4000 2.96 118 01:36 13.02.2020
2832 Haze 26 1011 100 3000 2.43 113 00:43 13.02.2020
2833 Haze 26 1011 100 3000 2.43 113 00:22 13.02.2020
2834 Haze 26 1010 100 4000 1.5 180 23:41 12.02.2020
2835 Haze 27 1010 100 4000 1.5 180 23:22 12.02.2020
2836 Haze 27 1010 78 5000 1 210 22:54 12.02.2020
2837 Haze 27 1010 100 4000 1.5 150 22:36 12.02.2020
2838 Haze 27 1010 100 4000 1.5 150 22:18 12.02.2020
2839 Clouds 27 1010 78 6000 1.5 170 21:40 12.02.2020
2840 Clouds 27 1010 78 6000 1.5 170 21:20 12.02.2020
2841 Clouds 27 1010 78 6000 1.5 150 20:59 12.02.2020
2842 Clouds 27 1010 78 6000 1 160 20:41 12.02.2020
2843 Clouds 27 1010 78 6000 1 160 20:41 12.02.2020
2844 Clouds 25 1010 78 6000 1 160 20:22 12.02.2020
2845 Clouds 25 1010 78 7000 2.1 170 19:56 12.02.2020
2846 Clouds 25 1010 78 7000 3.1 170 19:37 12.02.2020
2847 Clouds 26 1010 78 7000 3.1 170 19:19 12.02.2020
2848 Clouds 26 1011 83 7000 2.6 170 18:47 12.02.2020
2849 Clouds 27 1011 78 7000 3.1 160 18:19 12.02.2020
2850 Clouds 27 1012 78 7000 3.6 160 17:56 12.02.2020
2851 Clouds 27 1012 78 7000 3.1 160 17:37 12.02.2020
2852 Clouds 27 1012 78 7000 3.1 160 17:19 12.02.2020
2853 Clouds 27 1012 78 7000 2.6 90 16:40 12.02.2020
2854 Clouds 27 1012 78 7000 2.6 90 16:20 12.02.2020
2855 Clouds 27 1012 78 7000 2.6 80 15:58 12.02.2020
2856 Clouds 27 1012 78 6000 2.1 90 15:37 12.02.2020
2857 Clouds 27 1012 78 6000 2.1 90 15:18 12.02.2020
2858 Clouds 26 1011 78 6000 1.5 70 14:42 12.02.2020
2859 Clouds 28 1011 78 6000 1.5 70 14:21 12.02.2020
2860 Clouds 28 1011 74 6000 2.1 70 13:58 12.02.2020
2861 Rain 28 1010 74 5000 1.5 20 13:40 12.02.2020
2862 Rain 28 1010 74 5000 1.5 20 13:21 12.02.2020
2863 Clouds 28 1010 74 6000 2.1 30 12:58 12.02.2020
2864 Rain 28 1009 74 5000 2.1 360 12:38 12.02.2020
2865 Rain 28 1009 74 5000 2.1 360 12:19 12.02.2020
2866 Clouds 28 1009 74 8000 3.6 30 11:58 12.02.2020
2867 Rain 29 1009 74 5000 3.6 360 11:40 12.02.2020
2868 Rain 30 1009 74 5000 3.6 360 11:20 12.02.2020
2869 Clouds 29 1009 70 9000 4.6 20 10:56 12.02.2020
2870 Clouds 29 1009 70 10000 4.1 20 10:38 12.02.2020
2871 Clouds 30 1009 70 10000 4.1 20 10:20 12.02.2020
2872 Clouds 30 1009 70 10000 4.1 20 10:20 12.02.2020
2873 Clouds 31 1009 62 10000 5.7 30 09:42 12.02.2020
2874 Clouds 31 1009 62 6000 5.7 30 09:24 12.02.2020
2875 Clouds 31 1009 62 6000 5.7 30 09:24 12.02.2020
2876 Clouds 31 1010 66 10000 6.7 30 08:58 12.02.2020
2877 Clouds 32 1010 59 6000 4.6 30 08:38 12.02.2020
2878 Clouds 32 1010 59 6000 4.6 30 08:20 12.02.2020
2879 Clouds 33 1010 62 10000 5.7 40 07:47 12.02.2020
2880 Clouds 33 1010 56 6000 3.6 350 07:24 12.02.2020
2881 Clouds 32 1011 62 10000 5.7 40 06:59 12.02.2020
2882 Haze 33 1011 62 5000 4.1 80 06:25 12.02.2020
2883 Haze 32 1012 62 5000 2.1 160 05:44 12.02.2020
2884 Haze 32 1012 62 5000 2.1 160 05:21 12.02.2020
2885 Haze 32 1012 66 4000 1.5 100 04:41 12.02.2020
2886 Clouds 31 1013 66 8000 1.5 0 03:57 12.02.2020
2887 Clouds 31 1013 74 5000 2.1 90 03:28 12.02.2020
2888 Clouds 28 1013 88 6000 1.5 110 02:41 12.02.2020
2889 Clouds 28 1013 88 6000 1.5 110 02:21 12.02.2020
2890 Clouds 27 1012 88 6000 1.22 92 01:27 12.02.2020
2891 Haze 26 1012 94 5000 1.5 280 00:40 12.02.2020
2892 Haze 26 1012 94 5000 1.5 280 00:21 12.02.2020
2893 Haze 26 1012 94 5000 1.5 230 23:47 11.02.2020
2894 Haze 25 1012 94 5000 2.1 240 23:29 11.02.2020
2895 Clouds 25 1011 83 6000 3.1 280 22:56 11.02.2020
2896 Clouds 25 1011 83 6000 3.6 270 22:38 11.02.2020
2897 Clouds 25 1011 83 6000 3.6 270 22:20 11.02.2020
2898 Clouds 25 1011 88 6000 3.6 270 21:56 11.02.2020
2899 Clouds 25 1011 83 6000 3.1 280 21:38 11.02.2020
2900 Clouds 24 1011 83 6000 3.1 280 21:18 11.02.2020
2901 Haze 24 1011 83 5000 2.6 290 20:57 11.02.2020
2902 Haze 24 1011 83 5000 1 290 20:38 11.02.2020
2903 Haze 24 1011 83 5000 1 290 20:19 11.02.2020
2904 Haze 24 1011 83 5000 1 290 20:19 11.02.2020
2905 Clouds 24 1011 83 6000 2.1 270 19:54 11.02.2020
2906 Clouds 24 1012 78 6000 2.6 280 19:36 11.02.2020
2907 Clouds 25 1012 78 6000 2.6 280 19:18 11.02.2020
2908 Clouds 26 1012 74 6000 3.1 240 18:43 11.02.2020
2909 Clouds 25 1012 74 6000 3.1 240 18:25 11.02.2020
2910 Clouds 26 1013 74 7000 2.6 220 17:56 11.02.2020
2911 Clouds 26 1013 74 7000 2.6 220 17:56 11.02.2020
2912 Clouds 26 1013 74 7000 2.6 0 17:38 11.02.2020
2913 Clouds 26 1013 74 7000 2.6 0 17:18 11.02.2020
2914 Clouds 26 1013 69 7000 3.1 220 16:58 11.02.2020
2915 Clouds 27 1013 69 7000 4.6 250 16:38 11.02.2020
2916 Clouds 27 1013 69 7000 4.6 250 16:20 11.02.2020
2917 Clouds 26 1012 78 7000 4.1 250 15:48 11.02.2020
2918 Clouds 26 1012 74 7000 4.6 250 15:29 11.02.2020
2919 Clouds 27 1012 74 7000 3.6 250 14:59 11.02.2020
2920 Clouds 27 1011 74 8000 3.6 270 14:41 11.02.2020
2921 Clouds 29 1011 74 8000 3.6 270 14:19 11.02.2020
2922 Haze 28 1010 79 4000 2.1 150 13:42 11.02.2020
2923 Haze 28 1010 79 4000 2.1 150 13:23 11.02.2020
2924 Rain 28 1010 83 4000 2.1 150 12:59 11.02.2020
2925 Rain 29 1009 79 4000 2.6 130 12:41 11.02.2020
2926 Rain 29 1009 79 4000 2.6 130 12:21 11.02.2020
2927 Clouds 30 1009 66 10000 5.1 270 11:57 11.02.2020
2928 Rain 31 1009 66 5000 2.6 140 11:39 11.02.2020
2929 Rain 31 1009 66 5000 2.6 140 11:19 11.02.2020
2930 Rain 32 1009 55 6000 2.6 170 10:40 11.02.2020
2931 Rain 32 1009 55 6000 2.6 170 10:21 11.02.2020
2932 Rain 32 1008 52 6000 3.1 160 09:58 11.02.2020
2933 Clouds 33 1009 55 6000 3.1 170 09:40 11.02.2020
2934 Clouds 33 1009 55 6000 3.1 170 09:21 11.02.2020
2935 Clouds 33 1009 55 10000 7.2 290 08:49 11.02.2020
2936 Clouds 33 1009 52 10000 4.1 290 08:25 11.02.2020
2937 Clouds 34 1009 52 10000 4.1 290 08:25 11.02.2020
2938 Clouds 33 1009 55 10000 5.7 290 07:55 11.02.2020
2939 Clouds 34 1010 59 6000 4.6 190 07:34 11.02.2020
2940 Clouds 34 1010 55 10000 3.1 270 06:58 11.02.2020
2941 Clouds 34 1010 55 10000 3.1 270 06:58 11.02.2020
2942 Clouds 32 1011 55 6000 3.6 200 06:38 11.02.2020
2943 Clouds 32 1011 55 6000 3.6 200 06:20 11.02.2020
2944 Clouds 33 1012 62 6000 5.1 240 05:44 11.02.2020
2945 Clouds 32 1012 62 6000 5.1 240 05:20 11.02.2020
2946 Haze 32 1012 70 5000 2.1 260 04:18 11.02.2020
2947 Haze 30 1012 83 3000 1.5 120 02:38 11.02.2020
2948 Haze 28 1012 78 5000 3.6 230 01:59 11.02.2020
2949 Mist 28 1011 100 2500 2.57 116 01:31 11.02.2020
2950 Mist 26 1011 100 2500 3.11 249 00:26 11.02.2020
2951 Haze 26 1011 88 5000 2.6 240 23:50 10.02.2020
2952 Haze 26 1010 100 4000 3.11 249 23:30 10.02.2020
2953 Haze 24 1010 88 4000 1.5 300 22:58 10.02.2020
2954 Haze 24 1010 88 4000 2.1 290 22:37 10.02.2020
2955 Haze 25 1010 88 4000 2.1 290 22:19 10.02.2020
2956 Haze 25 1010 83 4000 1.5 280 21:41 10.02.2020
2957 Haze 25 1010 83 4000 1.5 280 21:23 10.02.2020
2958 Haze 25 1010 83 4000 1.5 290 20:57 10.02.2020
2959 Haze 25 1010 83 5000 1 310 20:38 10.02.2020
2960 Haze 25 1010 83 5000 1 310 20:20 10.02.2020
2961 Clouds 25 1011 83 6000 2.6 260 19:58 10.02.2020
2962 Clouds 26 1011 83 6000 2.6 260 19:38 10.02.2020
2963 Clouds 26 1011 83 6000 2.6 260 19:19 10.02.2020
2964 Clouds 26 1011 78 7000 2.1 280 18:58 10.02.2020
2965 Clouds 26 1012 78 8000 2.1 280 18:39 10.02.2020
2966 Clouds 26 1012 78 8000 2.1 280 18:20 10.02.2020
2967 Clouds 27 1012 78 8000 2.6 270 17:57 10.02.2020
2968 Clouds 27 1012 78 8000 3.6 260 17:37 10.02.2020
2969 Clouds 27 1012 78 8000 3.6 260 17:37 10.02.2020
2970 Clouds 27 1012 78 8000 3.6 260 17:19 10.02.2020
2971 Clouds 27 1012 78 8000 3.6 260 17:19 10.02.2020
2972 Clouds 26 1012 78 8000 3.6 270 16:58 10.02.2020
2973 Clouds 26 1012 74 8000 3.6 270 16:39 10.02.2020
2974 Clouds 27 1012 74 8000 3.6 270 16:19 10.02.2020
2975 Clouds 27 1011 74 8000 4.6 250 15:56 10.02.2020
2976 Clouds 27 1011 74 8000 4.6 250 15:38 10.02.2020
2977 Clouds 27 1011 74 8000 4.6 250 15:20 10.02.2020
2978 Clouds 27 1011 74 8000 4.1 270 14:55 10.02.2020
2979 Clouds 27 1011 74 8000 4.6 260 14:36 10.02.2020
2980 Clouds 28 1011 74 8000 4.6 260 14:18 10.02.2020
2981 Rain 28 1010 94 5000 3.6 230 13:42 10.02.2020
2982 Rain 29 1010 94 5000 3.6 230 13:23 10.02.2020
2983 Rain 28 1009 83 5000 3.6 150 12:50 10.02.2020
2984 Rain 28 1009 83 5000 3.6 150 12:26 10.02.2020
2985 Clouds 29 1008 62 10000 6.2 280 11:56 10.02.2020
2986 Rain 30 1008 79 5000 3.6 40 11:38 10.02.2020
2987 Rain 31 1008 79 5000 3.6 40 11:19 10.02.2020
2988 Clouds 32 1008 52 10000 6.7 280 10:46 10.02.2020
2989 Rain 32 1008 74 5000 2.1 120 10:27 10.02.2020
2990 Clouds 33 1008 55 10000 6.7 310 09:48 10.02.2020
2991 Rain 33 1008 66 5000 3.6 110 09:26 10.02.2020
2992 Clouds 33 1008 55 10000 7.2 280 08:57 10.02.2020
2993 Rain 33 1009 55 5000 4.18 326 08:37 10.02.2020
2994 Rain 32 1009 55 5000 3.7 329 08:19 10.02.2020
2995 Clouds 33 1009 55 10000 7.7 270 07:50 10.02.2020
2996 Haze 34 1009 52 5000 2.6 300 07:27 10.02.2020
2997 Clouds 32 1010 52 6000 3.6 220 06:23 10.02.2020
2998 Clouds 31 1011 66 10000 2.1 0 04:46 10.02.2020
2999 Clouds 32 1011 66 10000 2.6 0 03:45 10.02.2020
3000 Haze 31 1011 74 5000 3.6 210 02:55 10.02.2020
3001 Haze 27 1011 83 5000 3.1 230 01:59 10.02.2020
3002 Haze 25 1011 94 5000 2.6 270 00:55 10.02.2020
3003 Haze 26 1011 94 4000 1.5 270 00:36 10.02.2020
3004 Haze 25 1011 94 4000 2.1 250 23:58 09.02.2020
3005 Haze 25 1011 94 4000 2.1 250 23:39 09.02.2020
3006 Haze 25 1011 94 4000 2.1 250 23:21 09.02.2020
3007 Clouds 24 1010 83 8000 6.7 270 22:41 09.02.2020
3008 Clouds 24 1010 83 8000 6.7 270 22:21 09.02.2020
3009 Clouds 25 1010 83 8000 6.7 270 21:45 09.02.2020
3010 Clouds 25 1010 88 8000 5.7 270 21:25 09.02.2020
3011 Clouds 25 1010 88 8000 3.1 270 20:59 09.02.2020
3012 Clouds 25 1010 83 8000 3.1 240 20:41 09.02.2020
3013 Clouds 24 1010 83 8000 3.1 240 20:19 09.02.2020
3014 Clouds 24 1011 83 8000 2.1 240 19:40 09.02.2020
3015 Clouds 24 1011 83 8000 2.1 240 19:40 09.02.2020
3016 Clouds 24 1011 83 8000 2.1 240 19:21 09.02.2020
3017 Clouds 25 1011 78 8000 3.1 230 18:59 09.02.2020
3018 Clouds 25 1011 78 8000 3.1 220 18:40 09.02.2020
3019 Clouds 25 1011 78 8000 3.1 220 18:22 09.02.2020
3020 Clouds 25 1012 78 8000 3.6 250 17:43 09.02.2020
3021 Clouds 25 1012 78 8000 3.6 250 17:43 09.02.2020
3022 Clouds 25 1012 78 8000 3.6 250 17:23 09.02.2020
3023 Clouds 25 1012 74 8000 4.1 250 16:57 09.02.2020
3024 Clouds 25 1012 74 8000 4.6 240 16:38 09.02.2020
3025 Clouds 26 1012 74 8000 4.6 240 16:20 09.02.2020
3026 Clouds 25 1012 78 8000 3.6 260 15:56 09.02.2020
3027 Clouds 25 1012 78 8000 4.1 260 15:38 09.02.2020
3028 Clouds 25 1012 78 8000 4.1 260 15:20 09.02.2020
3029 Clouds 26 1011 83 8000 4.1 250 14:42 09.02.2020
3030 Clouds 26 1011 83 8000 4.1 250 14:23 09.02.2020
3031 Rain 26 1011 88 5000 3.6 240 13:55 09.02.2020
3032 Rain 26 1010 83 5000 4.1 250 13:36 09.02.2020
3033 Rain 26 1010 83 5000 4.1 250 13:18 09.02.2020
3034 Rain 27 1009 83 5000 3.1 240 12:42 09.02.2020
3035 Rain 27 1009 83 5000 3.1 240 12:20 09.02.2020
3036 Rain 27 1009 83 5000 3.1 240 12:20 09.02.2020
3037 Rain 27 1009 88 5000 4.1 250 11:57 09.02.2020
3038 Rain 26 1009 100 4000 2.1 250 11:38 09.02.2020
3039 Rain 27 1009 100 4000 2.1 250 11:18 09.02.2020
3040 Rain 27 1009 100 4000 2.1 250 11:18 09.02.2020
3041 Rain 27 1009 100 4000 2.6 290 10:42 09.02.2020
3042 Rain 27 1009 100 4000 2.6 290 10:42 09.02.2020
3043 Rain 27 1009 100 4000 2.6 290 10:23 09.02.2020
3044 Rain 27 1009 100 4000 1.5 320 09:57 09.02.2020
3045 Rain 28 1009 100 4000 3.1 270 09:38 09.02.2020
3046 Rain 27 1009 100 4000 3.1 270 09:19 09.02.2020
3047 Rain 26 1010 100 5000 3.1 300 08:39 09.02.2020
3048 Rain 26 1010 100 5000 3.1 300 08:20 09.02.2020
3049 Rain 27 1011 94 5000 4.1 270 07:51 09.02.2020
3050 Rain 28 1010 70 5000 3.6 260 07:26 09.02.2020
3051 Rain 29 1011 70 6000 4.1 270 06:37 09.02.2020
3052 Clouds 30 1012 66 6000 3.1 270 05:52 09.02.2020
3053 Clouds 30 1012 66 6000 3.6 280 05:32 09.02.2020
3054 Clouds 30 1012 66 10000 5.1 290 04:43 09.02.2020
3055 Haze 30 1012 83 5000 2.1 240 02:58 09.02.2020
3056 Haze 30 1012 88 5000 2.6 240 02:36 09.02.2020
3057 Haze 26 1012 94 4000 1.5 240 01:39 09.02.2020
3058 Haze 25 1012 94 4000 6.64 273 00:56 09.02.2020
3059 Haze 25 1011 94 4000 6.64 273 00:30 09.02.2020
3060 Haze 25 1011 83 5000 3.1 240 23:50 08.02.2020
3061 Haze 24 1011 88 5000 2.6 240 23:25 08.02.2020
3062 Haze 24 1011 88 5000 2.6 240 22:58 08.02.2020
3063 Haze 24 1011 88 5000 2.6 240 22:40 08.02.2020
3064 Haze 24 1011 88 5000 2.6 240 22:20 08.02.2020
3065 Haze 24 1011 88 4000 2.1 190 21:46 08.02.2020
3066 Haze 24 1011 88 4000 2.1 190 21:27 08.02.2020
3067 Haze 24 1012 88 4000 2.1 200 20:59 08.02.2020
3068 Haze 24 1012 88 4000 2.6 230 20:40 08.02.2020
3069 Haze 24 1012 88 4000 2.6 230 20:20 08.02.2020
3070 Haze 24 1012 88 4000 2.6 250 19:58 08.02.2020
3071 Haze 24 1012 88 4000 1.5 0 19:39 08.02.2020
3072 Haze 24 1012 88 4000 1.5 0 19:20 08.02.2020
3073 Rain 24 1013 88 4000 1.5 0 18:57 08.02.2020
3074 Thunderstorm 24 1013 88 4000 3.1 280 18:39 08.02.2020
3075 Thunderstorm 25 1013 88 4000 3.1 280 18:19 08.02.2020
3076 Clouds 25 1013 83 6000 1 320 17:42 08.02.2020
3077 Clouds 26 1013 83 6000 1 320 17:20 08.02.2020
3078 Clouds 26 1013 83 6000 1 300 16:42 08.02.2020
3079 Clouds 27 1013 83 6000 1 300 16:23 08.02.2020
3080 Clouds 27 1013 78 6000 1 0 15:59 08.02.2020
3081 Clouds 27 1012 88 6000 3.83 339 15:40 08.02.2020
3082 Clouds 27 1012 88 6000 3.83 339 15:18 08.02.2020
3083 Clouds 26 1012 83 7000 1 40 14:45 08.02.2020
3084 Clouds 27 1012 83 6000 4.2 333 14:24 08.02.2020
3085 Clouds 26 1012 88 6000 4.2 333 13:59 08.02.2020
3086 Clouds 26 1011 78 6000 1.5 350 13:40 08.02.2020
3087 Clouds 26 1011 78 6000 1.5 350 13:22 08.02.2020
3088 Clouds 27 1011 74 9000 1 40 12:49 08.02.2020
3089 Clouds 27 1010 70 6000 2.6 350 12:23 08.02.2020
3090 Clouds 27 1010 70 6000 2.6 350 12:23 08.02.2020
3091 Clouds 28 1010 70 6000 3.1 10 11:58 08.02.2020
3092 Clouds 29 1010 70 6000 3.6 360 11:40 08.02.2020
3093 Clouds 30 1010 70 6000 3.6 360 11:20 08.02.2020
3094 Clouds 30 1010 70 6000 4.6 350 10:42 08.02.2020
3095 Clouds 31 1010 70 6000 4.6 350 10:22 08.02.2020
3096 Clouds 31 1010 70 6000 4.6 350 10:22 08.02.2020
3097 Clouds 31 1010 70 6000 4.6 350 10:22 08.02.2020
3098 Clouds 30 1010 70 6000 4.6 350 10:22 08.02.2020
3099 Clouds 31 1010 70 6000 4.6 350 10:22 08.02.2020
3100 Clouds 31 1010 66 10000 3.6 360 09:53 08.02.2020
3101 Clouds 30 1010 66 6000 6.2 330 09:29 08.02.2020
3102 Clouds 31 1010 62 6000 6.2 330 08:56 08.02.2020
3103 Clouds 31 1011 62 6000 4.6 330 08:38 08.02.2020
3104 Clouds 31 1011 62 6000 4.6 330 08:20 08.02.2020
3105 Clouds 31 1011 70 6000 6.2 330 07:45 08.02.2020
3106 Clouds 31 1011 62 6000 4.6 360 07:23 08.02.2020
3107 Haze 31 1012 83 5000 2.1 340 06:30 08.02.2020
3108 Haze 31 1012 83 5000 2.1 340 06:30 08.02.2020
3109 Haze 30 1012 83 5000 2.1 232 05:48 08.02.2020
3110 Haze 30 1013 88 5000 2.1 230 05:30 08.02.2020
3111 Haze 29 1013 94 4000 2.1 220 04:49 08.02.2020
3112 Clouds 27 1013 88 5000 2.1 0 03:52 08.02.2020
3113 Clouds 25 1013 94 6000 1.5 0 02:52 08.02.2020
3114 Thunderstorm 25 1013 100 1500 2.1 340 01:55 08.02.2020
3115 Thunderstorm 24 1012 100 1000 3.6 320 01:26 08.02.2020
3116 Rain 25 1012 100 2000 2.1 340 00:45 08.02.2020
3117 Thunderstorm 25 1011 100 2000 3.1 350 00:22 08.02.2020
3118 Thunderstorm 25 1011 94 5000 2.6 0 23:55 07.02.2020
3119 Thunderstorm 25 1011 100 0 4.6 330 23:37 07.02.2020
3120 Thunderstorm 25 1011 100 0 4.6 330 23:18 07.02.2020
3121 Rain 25 1010 94 4000 2.1 240 22:40 07.02.2020
3122 Rain 25 1010 94 4000 2.1 240 22:19 07.02.2020
3123 Rain 25 1010 94 3500 2.1 240 21:44 07.02.2020
3124 Rain 24 1010 94 3500 2.1 240 21:23 07.02.2020
3125 Rain 24 1010 94 3000 1.5 280 20:58 07.02.2020
3126 Thunderstorm 24 1011 94 4000 2.6 260 20:38 07.02.2020
3127 Thunderstorm 25 1011 94 4000 2.6 260 20:18 07.02.2020
3128 Thunderstorm 25 1011 94 4000 2.6 260 20:18 07.02.2020
3129 Rain 26 1011 88 2000 1.5 0 19:42 07.02.2020
3130 Rain 26 1011 88 2000 1.5 0 19:22 07.02.2020
3131 Haze 26 1012 88 4000 2.1 270 18:58 07.02.2020
3132 Haze 26 1012 88 5000 1.5 300 18:40 07.02.2020
3133 Haze 26 1012 88 5000 1.5 300 18:21 07.02.2020
3134 Rain 26 1013 88 5000 1 270 17:43 07.02.2020
3135 Rain 26 1013 88 5000 1 270 17:22 07.02.2020
3136 Rain 26 1012 88 5000 2.1 360 16:57 07.02.2020
3137 Rain 26 1012 88 5000 1.5 0 16:39 07.02.2020
3138 Rain 26 1012 88 5000 1.5 0 16:20 07.02.2020
3139 Clouds 26 1012 88 6000 1 60 15:48 07.02.2020
3140 Clouds 26 1012 88 6000 1.5 290 15:27 07.02.2020
3141 Thunderstorm 26 1012 88 6000 1 350 14:46 07.02.2020
3142 Rain 26 1011 100 4000 2.1 150 14:27 07.02.2020
3143 Thunderstorm 26 1011 94 3000 1 0 13:59 07.02.2020
3144 Rain 26 1011 100 3000 2.6 50 13:40 07.02.2020
3145 Rain 26 1011 100 3000 2.6 50 13:21 07.02.2020
3146 Rain 27 1010 100 4000 2.6 70 12:57 07.02.2020
3147 Rain 26 1010 100 4000 2.1 50 12:39 07.02.2020
3148 Rain 27 1010 100 4000 2.1 50 12:21 07.02.2020
3149 Rain 26 1009 100 3000 3.6 30 11:42 07.02.2020
3150 Rain 27 1009 100 3000 3.6 30 11:22 07.02.2020
3151 Rain 27 1009 94 5000 3.6 20 10:42 07.02.2020
3152 Rain 27 1009 94 5000 3.6 20 10:24 07.02.2020
3153 Rain 27 1009 94 5000 3.6 20 10:24 07.02.2020
3154 Rain 27 1009 94 5000 3.6 20 10:24 07.02.2020
3155 Haze 27 1009 88 5000 4.1 70 09:58 07.02.2020
3156 Rain 27 1009 88 5000 4.1 10 09:39 07.02.2020
3157 Rain 27 1009 88 5000 4.1 10 09:21 07.02.2020
3158 Rain 28 1010 94 5000 3.6 330 08:43 07.02.2020
3159 Rain 28 1010 94 5000 3.6 330 08:21 07.02.2020
3160 Rain 27 1010 94 5000 3.1 20 07:49 07.02.2020
3161 Rain 27 1010 88 5000 3.1 320 07:30 07.02.2020
3162 Thunderstorm 29 1011 83 5000 3.1 60 06:47 07.02.2020
3163 Haze 29 1011 83 5000 5.1 330 06:26 07.02.2020
3164 Thunderstorm 30 1011 83 5000 3.6 20 05:57 07.02.2020
3165 Haze 30 1011 70 5000 4.1 350 05:35 07.02.2020
3166 Clouds 31 1012 83 6000 3.6 270 03:19 07.02.2020
3167 Haze 27 1011 94 4000 3.1 250 01:51 07.02.2020
3168 Mist 26 1010 100 3000 1.5 270 00:49 07.02.2020
3169 Mist 25 1010 100 3000 1.5 270 00:21 07.02.2020
3170 Haze 25 1009 100 3000 1.5 230 23:38 06.02.2020
3171 Haze 25 1009 100 3000 1.5 230 23:19 06.02.2020
3172 Haze 25 1009 100 3000 1.5 330 22:45 06.02.2020
3173 Haze 25 1009 100 4000 1.5 250 22:25 06.02.2020
3174 Mist 24 1009 94 2000 1.5 300 21:55 06.02.2020
3175 Mist 24 1009 94 2000 0.5 330 21:36 06.02.2020
3176 Mist 24 1009 94 2000 0.5 330 21:18 06.02.2020
3177 Mist 24 1009 94 3500 1 0 20:54 06.02.2020
3178 Mist 24 1010 94 3500 1 290 20:36 06.02.2020
3179 Mist 25 1010 94 3500 1 290 20:18 06.02.2020
3180 Mist 25 1010 94 3500 1.5 280 19:55 06.02.2020
3181 Mist 25 1010 94 3500 1.5 230 19:36 06.02.2020
3182 Mist 25 1010 94 3500 1.5 230 19:18 06.02.2020
3183 Haze 24 1011 94 4000 2.6 240 18:40 06.02.2020
3184 Haze 24 1011 94 4000 2.6 240 18:22 06.02.2020
3185 Clouds 24 1011 94 4000 2.1 270 17:55 06.02.2020
3186 Haze 24 1011 94 4000 1.5 260 17:37 06.02.2020
3187 Haze 25 1011 94 4000 1.5 260 17:18 06.02.2020
3188 Haze 26 1011 88 5000 1 280 16:41 06.02.2020
3189 Haze 26 1011 88 5000 1 280 16:23 06.02.2020
3190 Clouds 25 1010 88 6000 1 0 15:43 06.02.2020
3191 Clouds 25 1010 88 6000 1 0 15:43 06.02.2020
3192 Clouds 25 1010 88 6000 1 0 15:22 06.02.2020
3193 Clouds 24 1010 94 5000 2.1 240 14:51 06.02.2020
3194 Rain 26 1010 94 5000 1.5 280 14:29 06.02.2020
3195 Rain 26 1010 94 5000 2.6 300 13:59 06.02.2020
3196 Haze 26 1009 94 5000 1.5 270 13:41 06.02.2020
3197 Haze 26 1009 94 5000 1.5 270 13:20 06.02.2020
3198 Rain 26 1009 94 5000 1.5 290 12:44 06.02.2020
3199 Rain 26 1009 94 5000 1.5 280 12:19 06.02.2020
3200 Rain 26 1009 94 5000 1.5 280 12:19 06.02.2020
3201 Rain 27 1009 88 5000 2.1 270 11:57 06.02.2020
3202 Haze 27 1009 88 5000 2.1 310 11:39 06.02.2020
3203 Haze 27 1009 88 5000 2.1 310 11:19 06.02.2020
3204 Haze 27 1008 88 5000 2.1 330 10:56 06.02.2020
3205 Haze 28 1008 88 5000 1.5 350 10:38 06.02.2020
3206 Haze 28 1008 88 5000 1.5 350 10:20 06.02.2020
3207 Haze 28 1009 88 5000 1.5 330 09:56 06.02.2020
3208 Haze 29 1009 88 5000 1.5 330 09:36 06.02.2020
3209 Haze 29 1009 88 5000 1.5 330 09:18 06.02.2020
3210 Rain 29 1009 94 4000 1.5 270 08:41 06.02.2020
3211 Rain 29 1009 94 4000 1.5 270 08:22 06.02.2020
3212 Rain 28 1010 100 4000 1.5 310 07:47 06.02.2020
3213 Rain 28 1010 94 4000 2.1 300 07:25 06.02.2020
3214 Rain 28 1011 100 3000 1.5 260 06:22 06.02.2020
3215 Rain 28 1011 100 3000 1.5 260 06:22 06.02.2020
3216 Rain 27 1011 94 4000 3.1 310 05:56 06.02.2020
3217 Rain 27 1012 94 3000 2.1 300 04:24 06.02.2020
3218 Rain 27 1012 100 3000 1.5 260 03:20 06.02.2020
3219 Haze 27 1011 100 3000 2.1 230 02:29 06.02.2020
3220 Rain 26 1011 94 2500 1.5 280 01:35 06.02.2020
3221 Rain 25 1010 94 2300 1.5 280 00:58 06.02.2020
3222 Haze 25 1010 94 3000 2.6 200 00:26 06.02.2020
3223 Clouds 25 1010 94 3000 1.5 0 23:47 05.02.2020
3224 Mist 25 1010 94 3200 1 270 23:29 05.02.2020
3225 Mist 24 1010 94 0 4.82 290 22:58 05.02.2020
3226 Haze 24 1010 94 3000 0.5 0 22:40 05.02.2020
3227 Haze 24 1010 94 3000 0.5 0 22:22 05.02.2020
3228 Haze 24 1010 94 3000 0.5 0 22:22 05.02.2020
3229 Haze 25 1010 94 3000 1 20 21:54 05.02.2020
3230 Haze 24 1009 94 3000 1.5 360 21:36 05.02.2020
3231 Haze 24 1009 94 3000 1.5 360 21:18 05.02.2020
3232 Haze 24 1010 88 4000 1 0 20:39 05.02.2020
3233 Haze 24 1010 88 4000 1 0 20:39 05.02.2020
3234 Haze 25 1010 88 4000 1 0 20:19 05.02.2020
3235 Haze 25 1010 94 4000 1 160 19:57 05.02.2020
3236 Haze 25 1010 94 4000 2.6 0 19:38 05.02.2020
3237 Haze 25 1010 94 4000 2.6 0 19:19 05.02.2020
3238 Haze 25 1010 94 4000 2.6 0 19:19 05.02.2020
3239 Haze 24 1011 88 5000 2.1 0 18:46 05.02.2020
3240 Haze 24 1011 88 5000 2.1 0 18:22 05.02.2020
3241 Thunderstorm 24 1011 88 5000 2.6 0 17:59 05.02.2020
3242 Haze 26 1011 88 5000 1.5 0 17:38 05.02.2020
3243 Haze 26 1011 88 5000 1.5 0 17:18 05.02.2020
3244 Haze 26 1011 88 5000 1.5 0 17:18 05.02.2020
3245 Haze 26 1011 88 5000 1.5 0 16:57 05.02.2020
3246 Haze 26 1011 88 5000 4.1 220 16:38 05.02.2020
3247 Haze 26 1011 88 5000 4.1 220 16:19 05.02.2020
3248 Clouds 26 1011 88 7000 3.1 250 15:42 05.02.2020
3249 Clouds 26 1011 88 7000 3.1 250 15:19 05.02.2020
3250 Clouds 26 1011 83 7000 3.1 240 14:57 05.02.2020
3251 Clouds 26 1010 88 8000 3.6 260 14:38 05.02.2020
3252 Clouds 26 1010 88 8000 3.6 260 14:20 05.02.2020
3253 Thunderstorm 26 1010 94 4000 3.1 200 13:42 05.02.2020
3254 Thunderstorm 26 1010 94 4000 3.1 200 13:22 05.02.2020
3255 Clouds 26 1009 83 6000 3.6 240 12:55 05.02.2020
3256 Rain 27 1009 94 5000 4.6 250 12:36 05.02.2020
3257 Rain 26 1009 94 5000 4.6 250 12:18 05.02.2020
3258 Rain 27 1008 83 5000 2.1 350 11:41 05.02.2020
3259 Rain 27 1008 83 5000 2.1 350 11:22 05.02.2020
3260 Rain 28 1007 88 5000 2.6 350 10:44 05.02.2020
3261 Rain 29 1007 88 5000 2.6 350 10:26 05.02.2020
3262 Clouds 30 1007 74 10000 5.1 350 09:59 05.02.2020
3263 Thunderstorm 30 1007 79 5000 2.6 330 09:39 05.02.2020
3264 Thunderstorm 30 1007 79 5000 2.6 330 09:39 05.02.2020
3265 Thunderstorm 29 1007 79 5000 2.6 330 09:21 05.02.2020
3266 Clouds 31 1008 74 9000 5.1 350 08:48 05.02.2020
3267 Rain 31 1008 74 5000 4.6 360 08:25 05.02.2020
3268 Clouds 31 1008 70 10000 4.6 350 07:57 05.02.2020
3269 Haze 31 1009 79 5000 2.6 330 07:39 05.02.2020
3270 Haze 31 1009 79 5000 2.6 330 07:18 05.02.2020
3271 Rain 30 1010 83 5000 2.1 360 06:39 05.02.2020
3272 Rain 29 1010 83 5000 2.1 360 06:20 05.02.2020
3273 Rain 29 1010 88 5000 3.1 340 05:20 05.02.2020
3274 Clouds 30 1011 83 7000 2.6 330 04:54 05.02.2020
3275 Rain 29 1011 83 5000 2.6 270 04:22 05.02.2020
3276 Haze 28 1011 88 4000 2.1 250 02:42 05.02.2020
3277 Haze 28 1011 88 4000 2.1 250 02:20 05.02.2020
3278 Haze 27 1010 94 3000 5.41 302 01:28 05.02.2020
3279 Mist 26 1009 100 3000 4.38 310 00:22 05.02.2020
3280 Mist 26 1009 100 3000 4.38 310 23:40 04.02.2020
3281 Mist 26 1009 100 3000 2.93 355 23:20 04.02.2020
3282 Mist 26 1009 88 3600 2.6 190 22:57 04.02.2020
3283 Rain 26 1009 100 3000 2.93 355 22:39 04.02.2020
3284 Rain 26 1009 100 3000 2.93 355 22:20 04.02.2020
3285 Mist 26 1009 94 2800 2.6 190 21:55 04.02.2020
3286 Mist 26 1009 94 2500 1 0 21:37 04.02.2020
3287 Mist 26 1009 94 2500 1 0 21:18 04.02.2020
3288 Mist 26 1009 94 4000 1 0 20:54 04.02.2020
3289 Mist 26 1009 94 4000 1 0 20:36 04.02.2020
3290 Mist 25 1009 94 4000 1 0 20:18 04.02.2020
3291 Haze 25 1010 94 4000 1 330 19:42 04.02.2020
3292 Haze 25 1010 94 4000 1 330 19:24 04.02.2020
3293 Haze 25 1010 94 5000 1 330 18:59 04.02.2020
3294 Haze 25 1010 94 5000 1 330 18:59 04.02.2020
3295 Haze 25 1011 83 5000 1 10 18:39 04.02.2020
3296 Haze 26 1011 83 5000 1 10 18:20 04.02.2020
3297 Haze 26 1011 88 5000 1 40 17:54 04.02.2020
3298 Haze 25 1011 88 5000 1 40 17:36 04.02.2020
3299 Clouds 26 1011 83 6000 1 60 17:18 04.02.2020
3300 Clouds 26 1011 83 6000 1 70 16:38 04.02.2020
3301 Clouds 26 1011 83 6000 1 70 16:20 04.02.2020
3302 Clouds 26 1011 83 6000 1 90 15:56 04.02.2020
3303 Clouds 26 1011 83 6000 1 90 15:56 04.02.2020
3304 Clouds 26 1011 83 6000 1 90 15:56 04.02.2020
3305 Clouds 26 1011 83 6000 1 60 15:38 04.02.2020
3306 Clouds 26 1011 83 6000 1 60 15:20 04.02.2020
3307 Clouds 25 1010 88 6000 1 90 14:45 04.02.2020
3308 Clouds 27 1010 88 6000 1 60 14:26 04.02.2020
3309 Clouds 26 1010 83 6000 2.1 60 13:59 04.02.2020
3310 Clouds 26 1010 88 6000 1.5 350 13:40 04.02.2020
3311 Clouds 27 1010 88 6000 1.5 350 13:22 04.02.2020
3312 Clouds 27 1009 78 8000 1.5 30 12:55 04.02.2020
3313 Clouds 28 1009 79 6000 2.1 260 12:37 04.02.2020
3314 Clouds 28 1009 79 6000 2.1 260 12:18 04.02.2020
3315 Clouds 29 1009 79 6000 2.1 270 11:54 04.02.2020
3316 Clouds 29 1008 74 10000 2.6 0 11:36 04.02.2020
3317 Clouds 30 1008 74 10000 2.6 0 11:18 04.02.2020
3318 Clouds 30 1008 74 6000 3.6 300 10:42 04.02.2020
3319 Clouds 30 1008 74 6000 3.6 300 10:22 04.02.2020
3320 Clouds 30 1009 83 6000 3.1 280 09:42 04.02.2020
3321 Clouds 30 1009 83 6000 3.1 280 09:24 04.02.2020
3322 Clouds 30 1009 74 10000 4.1 320 08:59 04.02.2020
3323 Haze 30 1009 88 5000 2.1 270 08:41 04.02.2020
3324 Haze 30 1009 88 5000 2.1 270 08:22 04.02.2020
3325 Clouds 29 1010 83 9000 3.1 320 07:46 04.02.2020
3326 Rain 28 1010 100 5000 2.6 260 07:23 04.02.2020
3327 Rain 28 1012 100 1500 6.2 270 06:44 04.02.2020
3328 Rain 28 1012 100 1500 6.2 270 06:44 04.02.2020
3329 Rain 27 1012 100 1500 6.2 270 06:18 04.02.2020
3330 Rain 27 1012 83 5000 4.1 360 05:29 04.02.2020
3331 Rain 28 1013 94 5000 2.1 310 03:53 04.02.2020
3332 Rain 27 1012 100 5000 2.1 340 03:34 04.02.2020
3333 Clouds 27 1012 88 7000 2.6 10 02:59 04.02.2020
3334 Rain 26 1012 94 5000 1.5 20 02:32 04.02.2020
3335 Rain 25 1012 100 4000 1.5 330 01:54 04.02.2020
3336 Haze 25 1011 100 4000 1.5 340 01:35 04.02.2020
3337 Haze 25 1011 100 4000 1.5 340 01:35 04.02.2020
3338 Haze 26 1011 100 4000 1.5 280 00:45 04.02.2020
3339 Rain 25 1011 100 4000 3.67 303 00:22 04.02.2020
3340 Rain 25 1010 100 4000 3.67 303 23:41 03.02.2020
3341 Rain 25 1010 100 4000 3.62 293 23:22 03.02.2020
3342 Rain 25 1010 100 3000 1.5 220 22:40 03.02.2020
3343 Rain 25 1010 100 3000 1.5 220 22:21 03.02.2020
3344 Clouds 25 1010 88 6000 1 0 21:59 03.02.2020
3345 Clouds 25 1010 94 6000 2.1 200 21:39 03.02.2020
3346 Clouds 25 1010 94 6000 2.1 200 21:19 03.02.2020
3347 Rain 25 1011 94 5000 2.1 0 20:42 03.02.2020
3348 Rain 25 1011 94 5000 2.1 0 20:20 03.02.2020
3349 Rain 25 1011 94 5000 2.1 0 19:58 03.02.2020
3350 Rain 25 1012 94 5000 1 0 19:40 03.02.2020
3351 Rain 25 1012 94 5000 1 0 19:21 03.02.2020
3352 Rain 26 1012 94 3500 4.1 320 18:57 03.02.2020
3353 Rain 26 1012 88 5000 1.5 0 18:38 03.02.2020
3354 Rain 26 1012 88 5000 1.5 0 18:20 03.02.2020
3355 Clouds 26 1012 88 6000 2.6 0 17:54 03.02.2020
3356 Clouds 26 1012 88 6000 2.6 0 17:36 03.02.2020
3357 Clouds 26 1012 88 6000 2.6 0 17:18 03.02.2020
3358 Haze 26 1013 94 4000 2.83 331 16:39 03.02.2020
3359 Haze 26 1013 94 4000 2.83 331 16:21 03.02.2020
3360 Clouds 27 1012 83 6000 1.5 0 15:56 03.02.2020
3361 Clouds 25 1012 94 6000 2.6 110 15:37 03.02.2020
3362 Clouds 25 1012 94 6000 2.6 110 15:19 03.02.2020
3363 Clouds 25 1011 88 6000 2.1 90 14:43 03.02.2020
3364 Clouds 26 1011 88 6000 2.1 90 14:25 03.02.2020
3365 Clouds 27 1011 83 8000 1.5 70 13:58 03.02.2020
3366 Haze 27 1011 94 5000 4.64 344 13:40 03.02.2020
3367 Haze 27 1011 94 5000 4.64 344 13:19 03.02.2020
3368 Haze 27 1011 94 5000 1.5 330 12:56 03.02.2020
3369 Haze 27 1010 94 5000 1.5 270 12:37 03.02.2020
3370 Haze 27 1010 94 5000 1.5 270 12:37 03.02.2020
3371 Haze 27 1010 94 5000 1.5 270 12:19 03.02.2020
3372 Haze 28 1010 100 5000 2.1 340 11:39 03.02.2020
3373 Haze 28 1010 100 5000 2.1 340 11:19 03.02.2020
3374 Haze 28 1010 100 5000 2.1 340 11:19 03.02.2020
3375 Rain 28 1010 100 4000 1.5 270 10:58 03.02.2020
3376 Rain 28 1010 100 4000 1.5 270 10:39 03.02.2020
3377 Rain 28 1010 100 4000 1.5 270 10:20 03.02.2020
3378 Haze 28 1009 79 5000 3.1 300 09:41 03.02.2020
3379 Haze 29 1009 79 5000 3.1 300 09:20 03.02.2020
3380 Haze 29 1010 83 5000 3.1 290 08:41 03.02.2020
3381 Haze 29 1010 83 5000 3.1 290 08:23 03.02.2020
3382 Haze 29 1011 83 4000 2.6 300 07:58 03.02.2020
3383 Haze 29 1012 88 4000 2.1 300 07:39 03.02.2020
3384 Haze 28 1012 88 4000 2.1 300 07:20 03.02.2020
3385 Haze 28 1012 88 4000 2.1 300 07:20 03.02.2020
3386 Haze 28 1012 88 4000 2.1 300 07:20 03.02.2020
3387 Haze 27 1012 88 4000 2.1 240 06:47 03.02.2020
3388 Rain 26 1013 100 4000 2.1 270 06:27 03.02.2020
3389 Rain 26 1013 100 3000 1.5 270 05:36 03.02.2020
3390 Rain 25 1013 100 1500 1.5 360 04:56 03.02.2020
3391 Haze 27 1013 100 3000 1.5 150 02:58 03.02.2020
3392 Rain 28 1013 100 3000 1.5 150 02:34 03.02.2020
3393 Rain 26 1012 94 4000 1.5 120 01:30 03.02.2020
3394 Haze 25 1012 94 4000 2.6 0 00:46 03.02.2020
3395 Rain 25 1011 100 4000 1.5 40 00:22 03.02.2020
3396 Haze 25 1011 94 5000 2.1 200 23:38 02.02.2020
3397 Haze 25 1011 94 5000 2.1 200 23:20 02.02.2020
3398 Haze 25 1011 88 5000 1.5 190 22:57 02.02.2020
3399 Haze 25 1011 88 5000 2.1 0 22:38 02.02.2020
3400 Haze 25 1011 88 5000 2.1 0 22:19 02.02.2020
3401 Rain 25 1011 88 5000 1 0 21:54 02.02.2020
3402 Rain 25 1011 88 5000 4.6 40 21:36 02.02.2020
3403 Rain 25 1011 88 5000 4.6 40 21:18 02.02.2020
3404 Haze 25 1011 88 5000 2.6 0 20:55 02.02.2020
3405 Thunderstorm 25 1011 88 5000 4.1 190 20:36 02.02.2020
3406 Thunderstorm 25 1011 88 5000 4.1 190 20:18 02.02.2020
3407 Clouds 25 1011 83 6000 2.6 180 19:42 02.02.2020
3408 Clouds 25 1011 83 6000 2.6 180 19:23 02.02.2020
3409 Clouds 25 1012 83 6000 3.1 180 18:59 02.02.2020
3410 Clouds 26 1012 83 7000 2.1 0 18:39 02.02.2020
3411 Clouds 26 1012 83 7000 2.1 0 18:20 02.02.2020
3412 Clouds 24 1012 78 8000 2.1 0 17:58 02.02.2020
3413 Clouds 24 1012 83 8000 2.6 190 17:38 02.02.2020
3414 Clouds 26 1012 83 8000 2.6 190 17:19 02.02.2020
3415 Clouds 26 1012 78 8000 2.6 0 16:58 02.02.2020
3416 Clouds 26 1012 78 8000 2.1 0 16:39 02.02.2020
3417 Clouds 26 1012 78 8000 2.1 0 16:39 02.02.2020
3418 Clouds 25 1012 78 8000 2.1 0 16:19 02.02.2020
3419 Clouds 25 1012 78 8000 2.1 0 15:57 02.02.2020
3420 Clouds 25 1012 78 8000 2.1 0 15:39 02.02.2020
3421 Clouds 25 1012 78 8000 2.1 0 15:19 02.02.2020
3422 Clouds 25 1012 78 8000 2.1 0 14:54 02.02.2020
3423 Clouds 25 1011 83 8000 1.5 0 14:36 02.02.2020
3424 Clouds 27 1011 83 8000 1.5 0 14:18 02.02.2020
3425 Clouds 27 1011 83 8000 1.5 0 13:54 02.02.2020
3426 Haze 27 1011 94 5000 1.5 180 13:36 02.02.2020
3427 Haze 27 1011 94 5000 1.5 180 13:36 02.02.2020
3428 Haze 27 1011 94 5000 1.5 180 13:18 02.02.2020
3429 Rain 27 1010 83 6000 3.1 200 12:40 02.02.2020
3430 Rain 27 1010 83 6000 3.1 200 12:22 02.02.2020
3431 Clouds 29 1009 74 8000 2.6 330 11:54 02.02.2020
3432 Clouds 28 1009 83 6000 3.1 200 11:36 02.02.2020
3433 Clouds 29 1009 83 6000 3.1 200 11:18 02.02.2020
3434 Clouds 29 1009 79 8000 2.6 0 10:54 02.02.2020
3435 Rain 28 1009 88 6000 1.5 230 10:36 02.02.2020
3436 Rain 28 1009 88 6000 1.5 230 10:18 02.02.2020
3437 Rain 28 1010 88 5000 4.1 230 09:40 02.02.2020
3438 Rain 28 1010 88 5000 4.1 230 09:21 02.02.2020
3439 Clouds 28 1010 74 7000 1.5 0 08:56 02.02.2020
3440 Rain 27 1010 88 5000 2.1 170 08:37 02.02.2020
3441 Rain 27 1010 88 5000 2.1 170 08:37 02.02.2020
3442 Rain 27 1010 88 5000 2.1 170 08:18 02.02.2020
3443 Rain 28 1011 94 5000 1.5 160 07:42 02.02.2020
3444 Rain 28 1011 94 5000 1.5 160 07:42 02.02.2020
3445 Rain 28 1011 94 5000 1.5 160 07:24 02.02.2020
3446 Rain 28 1012 94 5000 1.5 170 06:38 02.02.2020
3447 Rain 29 1012 94 5000 1.5 170 06:18 02.02.2020
3448 Rain 27 1013 100 4000 1.5 160 05:23 02.02.2020
3449 Rain 27 1013 100 1000 2.6 40 04:30 02.02.2020
3450 Rain 26 1013 94 6000 2.1 0 03:24 02.02.2020
3451 Rain 25 1013 100 2000 1.5 250 02:22 02.02.2020
3452 Rain 25 1013 88 5000 2.1 0 01:51 02.02.2020
3453 Rain 25 1012 88 5000 2.6 350 00:56 02.02.2020
3454 Rain 25 1012 100 2500 2.1 10 00:37 02.02.2020
3455 Rain 25 1012 100 2500 2.1 10 00:18 02.02.2020
3456 Rain 25 1011 100 3000 2.6 50 23:41 01.02.2020
3457 Rain 25 1011 100 3000 2.6 50 23:21 01.02.2020
3458 Rain 25 1011 94 3000 2.1 20 22:45 01.02.2020
3459 Haze 25 1011 94 5000 1.5 60 22:19 01.02.2020
3460 Thunderstorm 25 1010 88 4000 2.1 0 21:42 01.02.2020
3461 Thunderstorm 25 1010 88 4000 2.1 0 21:19 01.02.2020
3462 Haze 25 1010 88 5000 2.1 110 20:56 01.02.2020
3463 Thunderstorm 25 1010 88 6000 1 120 20:38 01.02.2020
3464 Thunderstorm 25 1010 88 6000 1 120 20:19 01.02.2020
3465 Clouds 25 1010 88 6000 2.1 120 19:56 01.02.2020
3466 Clouds 25 1010 88 7000 1.5 0 19:37 01.02.2020
3467 Clouds 25 1010 88 7000 1.5 0 19:18 01.02.2020
3468 Clouds 26 1011 88 7000 1 0 18:55 01.02.2020
3469 Clouds 24 1011 88 7000 2.1 0 18:37 01.02.2020
3470 Clouds 25 1011 88 7000 2.1 0 18:19 01.02.2020
3471 Clouds 26 1011 88 7000 2.1 0 17:55 01.02.2020
3472 Clouds 26 1012 88 7000 2.6 130 17:36 01.02.2020
3473 Clouds 26 1012 88 7000 2.6 130 17:18 01.02.2020
3474 Haze 26 1012 88 5000 2.1 0 16:41 01.02.2020
3475 Haze 26 1012 88 5000 2.1 0 16:21 01.02.2020
3476 Haze 27 1011 83 4000 2.1 0 15:47 01.02.2020
3477 Haze 27 1011 83 4000 2.1 0 15:29 01.02.2020
3478 Haze 27 1011 83 5000 2.1 130 14:59 01.02.2020
3479 Clouds 26 1011 83 8000 1 0 14:40 01.02.2020
3480 Clouds 27 1011 83 8000 1 0 14:20 01.02.2020
3481 Clouds 27 1011 83 8000 2.1 140 13:45 01.02.2020
3482 Haze 27 1011 100 5000 2.1 120 13:22 01.02.2020
3483 Haze 27 1010 100 5000 2.6 100 12:48 01.02.2020
3484 Haze 28 1010 94 5000 3.6 150 12:30 01.02.2020
3485 Haze 28 1010 94 5000 2.1 110 11:59 01.02.2020
3486 Clouds 28 1009 74 9000 2.1 330 11:39 01.02.2020
3487 Clouds 28 1009 74 9000 2.1 330 11:20 01.02.2020
3488 Clouds 28 1009 74 9000 2.1 330 11:20 01.02.2020
3489 Clouds 28 1009 74 10000 3.1 340 10:57 01.02.2020
3490 Rain 28 1009 100 3000 4.1 30 10:38 01.02.2020
3491 Rain 28 1009 100 3000 4.1 30 10:20 01.02.2020
3492 Clouds 28 1009 74 9000 3.6 340 09:58 01.02.2020
3493 Rain 28 1009 100 3000 5.1 10 09:39 01.02.2020
3494 Clouds 29 1009 79 9000 4.1 330 09:20 01.02.2020
3495 Clouds 28 1009 83 8000 2.6 0 08:46 01.02.2020
3496 Rain 27 1009 100 3000 3.6 320 07:50 01.02.2020
3497 Rain 27 1010 100 2500 2.1 70 07:27 01.02.2020
3498 Clouds 27 1010 94 6000 2.6 350 06:56 01.02.2020
3499 Clouds 27 1010 94 6000 2.6 350 06:56 01.02.2020
3500 Rain 27 1010 88 5000 4.1 210 06:33 01.02.2020
3501 Rain 28 1011 88 5000 1.5 290 05:52 01.02.2020
3502 Rain 26 1012 94 2500 2.1 230 03:56 01.02.2020
3503 Rain 26 1012 100 3000 2.1 150 03:21 01.02.2020
3504 Rain 25 1012 100 2000 2.1 160 02:46 01.02.2020
3505 Rain 25 1012 100 1000 4.19 6 02:27 01.02.2020
3506 Rain 24 1011 100 1500 1.5 160 01:55 01.02.2020
3507 Rain 24 1011 100 1000 2.6 240 01:33 01.02.2020
3508 Rain 24 1010 100 4000 1.5 190 00:30 01.02.2020
3509 Rain 24 1010 100 4000 2.1 180 23:59 31.01.2020
3510 Rain 24 1010 100 4000 1.5 140 23:37 31.01.2020
3511 Rain 24 1010 100 4000 1.5 140 23:18 31.01.2020
3512 Rain 24 1010 100 4000 2.1 140 22:41 31.01.2020
3513 Rain 24 1010 100 4000 2.1 140 22:41 31.01.2020
3514 Rain 24 1010 100 4000 2.1 140 22:22 31.01.2020
3515 Rain 24 1010 94 5000 2.6 170 21:59 31.01.2020
3516 Rain 24 1010 94 5000 2.1 210 21:39 31.01.2020
3517 Rain 24 1010 94 5000 2.1 210 21:20 31.01.2020
3518 Thunderstorm 25 1010 94 5000 3.1 200 20:57 31.01.2020
3519 Thunderstorm 25 1010 94 5000 3.1 200 20:57 31.01.2020
3520 Thunderstorm 25 1010 94 5000 3.1 200 20:39 31.01.2020
3521 Thunderstorm 25 1010 94 3000 2.6 0 20:20 31.01.2020
3522 Thunderstorm 25 1010 94 3000 2.6 0 19:56 31.01.2020
3523 Thunderstorm 26 1011 88 1000 7.2 330 19:38 31.01.2020
3524 Thunderstorm 26 1011 88 1000 7.2 330 19:19 31.01.2020
3525 Thunderstorm 27 1010 83 4000 3.1 180 18:43 31.01.2020
3526 Thunderstorm 27 1010 83 4000 3.1 180 18:25 31.01.2020
3527 Thunderstorm 27 1011 88 5000 2.1 110 17:56 31.01.2020
3528 Thunderstorm 28 1011 83 5000 2.1 80 17:37 31.01.2020
3529 Thunderstorm 28 1011 83 5000 2.1 80 17:19 31.01.2020
3530 Thunderstorm 27 1011 88 5000 1.5 80 16:56 31.01.2020
3531 Thunderstorm 27 1011 88 5000 1 80 16:37 31.01.2020
3532 Thunderstorm 27 1011 88 5000 1 80 16:18 31.01.2020
3533 Haze 26 1011 83 5000 1.5 70 15:41 31.01.2020
3534 Haze 26 1011 83 5000 1.5 70 15:21 31.01.2020
3535 Haze 26 1011 83 5000 1.5 70 14:58 31.01.2020
3536 Haze 26 1010 78 5000 2.1 50 14:40 31.01.2020
3537 Haze 28 1010 78 5000 2.1 50 14:20 31.01.2020
3538 Clouds 28 1010 83 6000 2.1 350 13:44 31.01.2020
3539 Clouds 28 1010 83 6000 2.1 350 13:25 31.01.2020
3540 Clouds 28 1010 79 6000 1.5 360 12:46 31.01.2020
3541 Clouds 29 1009 79 6000 2.1 330 12:26 31.01.2020
3542 Clouds 29 1009 74 6000 2.1 330 11:59 31.01.2020
3543 Clouds 29 1009 79 6000 1.5 350 11:40 31.01.2020
3544 Clouds 29 1009 79 6000 1.5 350 11:22 31.01.2020
3545 Rain 29 1008 79 6000 2.1 340 10:57 31.01.2020
3546 Rain 28 1009 79 5000 1.5 330 10:37 31.01.2020
3547 Rain 28 1009 79 5000 1.5 330 10:19 31.01.2020
3548 Clouds 28 1009 74 9000 5.1 340 09:42 31.01.2020
3549 Clouds 30 1009 74 9000 5.1 340 09:22 31.01.2020
3550 Clouds 30 1009 74 9000 5.1 350 08:57 31.01.2020
3551 Haze 30 1009 79 5000 1.5 300 08:39 31.01.2020
3552 Haze 30 1009 79 5000 1.5 300 08:20 31.01.2020
3553 Rain 29 1009 83 5000 1.5 330 07:49 31.01.2020
3554 Rain 29 1010 83 5000 2.6 320 07:19 31.01.2020
3555 Rain 30 1010 83 5000 2.1 330 06:37 31.01.2020
3556 Haze 30 1010 79 4000 3.1 310 05:56 31.01.2020
3557 Rain 30 1010 88 4000 2.6 300 05:26 31.01.2020
3558 Rain 29 1011 88 3000 2.6 260 04:36 31.01.2020
3559 Rain 29 1011 100 3000 1.5 270 02:50 31.01.2020
3560 Thunderstorm 27 1010 100 3000 1.5 250 01:31 31.01.2020
3561 Rain 27 1009 100 4000 3.11 322 00:40 31.01.2020
3562 Rain 27 1009 100 4000 3.11 322 00:22 31.01.2020
3563 Haze 26 1009 83 5000 2.1 190 23:42 30.01.2020
3564 Haze 27 1009 83 5000 2.1 190 23:23 30.01.2020
3565 Haze 26 1008 100 5000 2.56 301 22:39 30.01.2020
3566 Haze 26 1008 100 5000 2.56 301 22:21 30.01.2020
3567 Haze 25 1008 88 5000 1.5 0 21:59 30.01.2020
3568 Haze 25 1009 83 5000 1.5 260 21:40 30.01.2020
3569 Haze 26 1009 83 5000 1.5 260 21:19 30.01.2020
3570 Haze 26 1009 83 5000 1 240 20:57 30.01.2020
3571 Haze 26 1009 83 5000 1 230 20:38 30.01.2020
3572 Haze 27 1009 83 5000 1 200 20:20 30.01.2020
3573 Haze 27 1009 78 5000 1 0 19:44 30.01.2020
3574 Haze 26 1009 78 5000 1 0 19:19 30.01.2020
3575 Haze 26 1010 83 5000 1 130 18:59 30.01.2020
3576 Haze 26 1010 83 5000 1 0 18:37 30.01.2020
3577 Haze 26 1010 83 5000 1 0 18:18 30.01.2020
3578 Clouds 27 1011 78 6000 1 40 17:54 30.01.2020
3579 Clouds 27 1011 78 6000 1 0 17:36 30.01.2020
3580 Clouds 27 1011 78 6000 1 0 17:18 30.01.2020
3581 Clouds 27 1012 78 6000 1 0 16:40 30.01.2020
3582 Clouds 27 1012 78 6000 1 0 16:21 30.01.2020
3583 Clouds 27 1011 78 7000 1 0 15:45 30.01.2020
3584 Clouds 27 1011 83 7000 1 0 15:22 30.01.2020
3585 Clouds 27 1011 83 7000 1 0 15:22 30.01.2020
3586 Clouds 27 1011 78 7000 1 0 14:58 30.01.2020
3587 Clouds 27 1010 78 7000 1.5 30 14:40 30.01.2020
3588 Clouds 28 1010 78 7000 1.5 30 14:22 30.01.2020
3589 Clouds 27 1010 83 6000 1.5 320 13:42 30.01.2020
3590 Clouds 27 1010 83 6000 1.5 320 13:24 30.01.2020
3591 Clouds 27 1009 78 8000 3.1 30 12:57 30.01.2020
3592 Clouds 28 1009 74 6000 2.1 350 12:38 30.01.2020
3593 Clouds 28 1009 74 6000 2.1 350 12:38 30.01.2020
3594 Clouds 28 1009 74 6000 2.1 350 12:20 30.01.2020
3595 Clouds 28 1008 74 10000 3.1 20 11:41 30.01.2020
3596 Clouds 28 1008 74 10000 3.1 20 11:41 30.01.2020
3597 Clouds 29 1008 74 10000 3.1 20 11:23 30.01.2020
3598 Clouds 30 1008 70 10000 3.1 20 10:59 30.01.2020
3599 Clouds 30 1008 74 6000 2.6 350 10:40 30.01.2020
3600 Clouds 30 1008 74 6000 2.6 350 10:21 30.01.2020
3601 Clouds 30 1008 74 10000 3.6 20 09:46 30.01.2020
3602 Clouds 30 1009 74 6000 4.1 360 09:27 30.01.2020
3603 Clouds 31 1009 70 10000 4.1 10 08:55 30.01.2020
3604 Clouds 31 1009 66 6000 2.1 330 08:36 30.01.2020
3605 Clouds 31 1009 66 6000 2.1 330 08:18 30.01.2020
3606 Clouds 31 1010 70 9000 4.6 350 07:44 30.01.2020
3607 Clouds 31 1010 62 6000 2.1 270 07:20 30.01.2020
3608 Clouds 31 1010 66 7000 4.6 350 06:46 30.01.2020
3609 Clouds 31 1011 62 6000 2.1 270 06:26 30.01.2020
3610 Clouds 31 1011 62 6000 2.1 270 06:26 30.01.2020
3611 Clouds 31 1011 70 7000 4.1 310 05:43 30.01.2020
3612 Clouds 29 1011 70 7000 4.1 350 05:19 30.01.2020
3613 Clouds 29 1011 78 7000 2.1 320 03:48 30.01.2020
3614 Clouds 29 1011 74 6000 1.5 270 03:26 30.01.2020
3615 Clouds 25 1010 88 8000 1.5 0 01:41 30.01.2020
3616 Clouds 25 1009 100 6000 2.1 270 00:37 30.01.2020
3617 Clouds 24 1009 100 6000 2.1 270 00:19 30.01.2020
3618 Clouds 24 1009 100 6000 2.1 270 00:19 30.01.2020
3619 Clouds 24 1009 88 6000 2.6 190 23:44 29.01.2020
3620 Clouds 24 1009 88 6000 3.1 200 23:20 29.01.2020
3621 Clouds 24 1009 88 6000 3.6 220 22:56 29.01.2020
3622 Clouds 24 1009 88 6000 3.1 230 22:38 29.01.2020
3623 Clouds 24 1009 88 6000 3.1 230 22:19 29.01.2020
3624 Clouds 24 1010 88 6000 3.6 220 21:56 29.01.2020
3625 Rain 24 1010 88 5000 4.1 240 21:37 29.01.2020
3626 Rain 24 1010 88 5000 4.1 240 21:37 29.01.2020
3627 Rain 24 1010 88 5000 4.1 240 21:18 29.01.2020
3628 Rain 24 1010 94 5000 3.6 240 20:57 29.01.2020
3629 Rain 24 1011 94 4500 3.1 260 20:37 29.01.2020
3630 Rain 24 1011 94 4500 3.1 260 20:18 29.01.2020
3631 Rain 24 1011 94 4500 3.1 260 20:18 29.01.2020
3632 Rain 24 1011 94 4000 2.1 0 19:55 29.01.2020
3633 Rain 24 1011 88 5000 4.1 240 19:36 29.01.2020
3634 Rain 24 1011 88 5000 4.1 240 19:18 29.01.2020
3635 Rain 24 1012 94 3000 7.7 300 18:40 29.01.2020
3636 Rain 24 1012 94 3000 7.7 300 18:19 29.01.2020
3637 Rain 26 1012 88 5000 5.7 340 17:41 29.01.2020
3638 Rain 26 1012 88 5000 5.7 340 17:23 29.01.2020
3639 Clouds 26 1012 88 6000 3.1 240 16:59 29.01.2020
3640 Clouds 26 1012 88 6000 4.1 260 16:40 29.01.2020
3641 Clouds 26 1012 88 6000 4.1 260 16:19 29.01.2020
3642 Clouds 26 1011 88 6000 4.6 270 15:40 29.01.2020
3643 Clouds 26 1011 88 6000 4.6 270 15:22 29.01.2020
3644 Rain 26 1011 88 5000 5.1 270 14:57 29.01.2020
3645 Clouds 27 1011 83 6000 6.7 250 14:39 29.01.2020
3646 Clouds 27 1011 83 6000 6.7 250 14:18 29.01.2020
3647 Clouds 28 1009 79 6000 1.5 340 13:40 29.01.2020
3648 Clouds 29 1009 79 6000 1.5 340 13:22 29.01.2020
3649 Clouds 29 1009 79 6000 1.5 340 13:22 29.01.2020
3650 Clouds 29 1009 70 8000 2.1 320 12:56 29.01.2020
3651 Clouds 29 1008 74 6000 2.1 250 12:38 29.01.2020
3652 Clouds 29 1008 74 6000 2.1 250 12:20 29.01.2020
3653 Clouds 30 1008 70 8000 2.1 360 11:56 29.01.2020
3654 Clouds 30 1008 70 6000 2.1 270 11:37 29.01.2020
3655 Clouds 31 1008 70 6000 2.1 270 11:19 29.01.2020
3656 Clouds 30 1009 63 0 1.79 46 10:45 29.01.2020
3657 Clouds 31 1008 66 6000 4.6 310 10:22 29.01.2020
3658 Clouds 31 1008 66 6000 4.6 310 09:40 29.01.2020
3659 Clouds 33 1008 66 6000 4.6 310 09:22 29.01.2020
3660 Clouds 32 1009 70 10000 5.1 330 08:58 29.01.2020
3661 Clouds 32 1009 70 10000 5.7 330 08:39 29.01.2020
3662 Clouds 32 1009 70 10000 5.7 330 08:20 29.01.2020
3663 Clouds 32 1010 63 6000 5.7 20 07:45 29.01.2020
3664 Clouds 32 1010 63 6000 5.7 20 07:25 29.01.2020
3665 Haze 33 1010 59 5000 5.1 350 06:55 29.01.2020
3666 Haze 33 1010 59 5000 4.6 10 06:37 29.01.2020
3667 Haze 32 1010 59 5000 4.6 10 06:18 29.01.2020
3668 Clouds 32 1011 66 10000 4.6 340 05:45 29.01.2020
3669 Haze 32 1011 66 4000 2.1 20 05:26 29.01.2020
3670 Haze 32 1011 79 4000 1.5 140 04:38 29.01.2020
3671 Haze 32 1011 79 4000 1.5 300 03:49 29.01.2020
3672 Haze 30 1011 94 3000 1.5 250 02:33 29.01.2020
3673 Mist 26 1010 100 3000 1.5 210 00:44 29.01.2020
3674 Mist 26 1010 100 3000 1.5 210 00:25 29.01.2020
3675 Mist 26 1010 100 3000 1.5 160 23:58 28.01.2020
3676 Mist 26 1010 100 3000 1.5 130 23:37 28.01.2020
3677 Mist 26 1010 100 3000 1.5 130 23:18 28.01.2020
3678 Mist 26 1010 100 4000 1.5 230 22:41 28.01.2020
3679 Mist 27 1010 100 4000 1.5 230 22:21 28.01.2020
3680 Haze 25 1010 83 5000 0.69 112 21:54 28.01.2020
3681 Haze 25 1010 83 5000 0.5 0 21:36 28.01.2020
3682 Haze 25 1010 83 5000 0.5 0 21:18 28.01.2020
3683 Clouds 26 1010 88 6000 1 330 20:42 28.01.2020
3684 Clouds 26 1010 88 6000 1 330 20:42 28.01.2020
3685 Clouds 26 1010 88 6000 1 330 20:23 28.01.2020
3686 Clouds 27 1010 88 6000 1 0 19:55 28.01.2020
3687 Clouds 27 1010 83 6000 1 300 19:36 28.01.2020
3688 Clouds 28 1010 83 6000 1 300 19:18 28.01.2020
3689 Clouds 26 1010 88 6000 1 280 18:41 28.01.2020
3690 Clouds 26 1010 88 6000 1 280 18:22 28.01.2020
3691 Clouds 26 1010 83 6000 1 310 17:59 28.01.2020
3692 Clouds 27 1011 83 6000 1 310 17:38 28.01.2020
3693 Clouds 27 1011 83 6000 1 310 17:19 28.01.2020
3694 Clouds 27 1011 83 6000 1.5 350 16:56 28.01.2020
3695 Clouds 27 1011 83 6000 1 40 16:37 28.01.2020
3696 Clouds 27 1011 83 6000 1 40 16:19 28.01.2020
3697 Clouds 28 1011 79 7000 1 0 15:44 28.01.2020
3698 Clouds 28 1011 79 7000 1 0 15:19 28.01.2020
3699 Clouds 28 1011 79 7000 1 0 14:57 28.01.2020
3700 Clouds 28 1010 83 8000 1.5 300 14:38 28.01.2020
3701 Clouds 29 1010 83 8000 1.5 300 14:18 28.01.2020
3702 Clouds 30 1009 74 6000 2.1 350 13:39 28.01.2020
3703 Clouds 30 1009 74 6000 2.1 350 13:21 28.01.2020
3704 Clouds 29 1008 74 10000 2.1 10 12:42 28.01.2020
3705 Clouds 31 1008 74 10000 2.1 10 12:24 28.01.2020
3706 Clouds 31 1008 70 10000 3.1 10 11:55 28.01.2020
3707 Clouds 32 1007 62 6000 1.5 20 11:37 28.01.2020
3708 Clouds 31 1007 62 6000 1.5 20 11:19 28.01.2020
3709 Clouds 32 1007 59 6000 2.1 340 10:41 28.01.2020
3710 Clouds 31 1007 59 6000 2.1 340 10:22 28.01.2020
3711 Clouds 31 1008 66 10000 3.1 20 09:56 28.01.2020
3712 Clouds 31 1008 66 10000 5.7 10 09:37 28.01.2020
3713 Clouds 32 1008 66 10000 5.7 10 09:19 28.01.2020
3714 Clouds 31 1009 66 9000 3.1 360 08:41 28.01.2020
3715 Clouds 31 1009 66 9000 3.1 360 08:20 28.01.2020
3716 Clouds 32 1009 70 9000 3.6 340 07:38 28.01.2020
3717 Clouds 31 1010 74 9000 3.6 340 06:51 28.01.2020
3718 Clouds 31 1011 79 9000 3.1 350 06:29 28.01.2020
3719 Clouds 31 1011 78 9000 2.6 340 05:56 28.01.2020
3720 Clouds 32 1011 74 8000 3.1 330 05:34 28.01.2020
3721 Rain 30 1011 79 4000 2.1 230 04:39 28.01.2020
3722 Haze 31 1011 83 2000 1.5 150 03:36 28.01.2020
3723 Haze 28 1011 94 2000 2.1 160 02:32 28.01.2020
3724 Haze 28 1011 83 5000 2.6 0 01:58 28.01.2020
3725 Mist 27 1010 100 2000 1.05 85 01:40 28.01.2020
3726 Haze 26 1010 88 5000 2.1 0 00:51 28.01.2020
3727 Mist 26 1010 100 2000 0.95 341 00:30 28.01.2020
3728 Mist 26 1009 88 4000 1.5 220 23:53 27.01.2020
3729 Mist 26 1009 100 3000 0.95 341 23:30 27.01.2020
3730 Mist 26 1009 88 3000 2.1 190 22:59 27.01.2020
3731 Mist 26 1009 88 4000 1 0 22:41 27.01.2020
3732 Mist 26 1009 88 4000 1 0 22:20 27.01.2020
3733 Haze 26 1009 88 4000 1.5 190 21:57 27.01.2020
3734 Haze 26 1009 88 4000 2.1 170 21:38 27.01.2020
3735 Haze 25 1009 88 4000 2.1 170 21:18 27.01.2020
3736 Haze 25 1009 88 4000 0.5 270 20:55 27.01.2020
3737 Haze 25 1009 83 4000 1 310 20:37 27.01.2020
3738 Haze 27 1009 83 4000 1 310 20:18 27.01.2020
3739 Haze 27 1010 83 5000 1 0 19:41 27.01.2020
3740 Haze 27 1010 83 5000 1 0 19:23 27.01.2020
3741 Haze 26 1010 83 5000 1 0 18:56 27.01.2020
3742 Haze 25 1010 83 5000 1 0 18:38 27.01.2020
3743 Haze 26 1010 83 5000 1 0 18:20 27.01.2020
3744 Haze 27 1011 78 5000 1 350 17:40 27.01.2020
3745 Haze 27 1011 78 5000 1 350 17:21 27.01.2020
3746 Haze 27 1011 78 5000 1 350 16:59 27.01.2020
3747 Clouds 28 1011 78 6000 1 0 16:41 27.01.2020
3748 Clouds 28 1011 78 6000 1 0 16:41 27.01.2020
3749 Clouds 28 1011 78 6000 1 0 16:23 27.01.2020
3750 Clouds 26 1011 78 7000 1 0 15:55 27.01.2020
3751 Clouds 26 1010 78 7000 1.5 90 15:37 27.01.2020
3752 Clouds 26 1010 78 7000 1.5 90 15:19 27.01.2020
3753 Clouds 27 1010 78 7000 1 40 14:54 27.01.2020
3754 Clouds 27 1010 78 9000 1.5 50 14:36 27.01.2020
3755 Clouds 28 1010 78 9000 1.5 50 14:18 27.01.2020
3756 Clouds 29 1009 74 6000 1.5 130 13:41 27.01.2020
3757 Clouds 29 1009 74 6000 1.5 130 13:20 27.01.2020
3758 Clouds 29 1009 70 8000 2.6 40 12:55 27.01.2020
3759 Clouds 29 1008 70 6000 1.5 40 12:37 27.01.2020
3760 Clouds 30 1008 70 6000 1.5 40 12:18 27.01.2020
3761 Rain 31 1008 70 6000 3.1 40 11:41 27.01.2020
3762 Rain 31 1008 70 6000 3.1 40 11:21 27.01.2020
3763 Rain 31 1008 74 6000 2.6 10 10:43 27.01.2020
3764 Rain 31 1008 74 6000 2.6 10 10:25 27.01.2020
3765 Clouds 31 1007 66 10000 3.6 10 09:56 27.01.2020
3766 Rain 30 1008 74 5000 2.6 330 09:38 27.01.2020
3767 Rain 31 1008 74 5000 2.6 330 09:18 27.01.2020
3768 Clouds 31 1008 70 10000 3.1 350 08:42 27.01.2020
3769 Rain 31 1008 74 5000 3.1 30 08:20 27.01.2020
3770 Clouds 31 1009 70 10000 4.1 350 07:54 27.01.2020
3771 Rain 31 1009 70 5000 2.6 360 07:34 27.01.2020
3772 Clouds 32 1010 70 10000 5.7 330 06:53 27.01.2020
3773 Rain 32 1010 66 5000 3.1 360 06:25 27.01.2020
3774 Rain 31 1010 70 5000 2.6 20 05:24 27.01.2020
3775 Clouds 30 1011 78 8000 2.1 0 03:58 27.01.2020
3776 Haze 27 1011 94 4000 1.5 310 02:42 27.01.2020
3777 Haze 27 1010 100 3000 1.5 180 01:29 27.01.2020
3778 Haze 25 1009 100 3000 2.03 113 00:58 27.01.2020
3779 Haze 26 1009 100 4000 2.03 113 00:37 27.01.2020
3780 Haze 25 1009 100 4000 2.03 113 00:18 27.01.2020
3781 Haze 25 1008 100 4000 2.03 113 23:41 26.01.2020
3782 Haze 25 1008 100 4000 1.3 115 23:19 26.01.2020
3783 Clouds 25 1008 88 6000 0.5 0 22:55 26.01.2020
3784 Clouds 25 1008 88 6000 1.5 110 22:37 26.01.2020
3785 Clouds 25 1008 88 6000 1.5 110 22:18 26.01.2020
3786 Clouds 25 1008 83 6000 0.5 0 21:56 26.01.2020
3787 Clouds 25 1008 88 0 0.5 0 21:38 26.01.2020
3788 Clouds 25 1008 88 0 0.5 0 21:19 26.01.2020
3789 Rain 25 1009 88 5000 1 0 20:55 26.01.2020
3790 Rain 25 1009 88 5000 2.6 130 20:37 26.01.2020
3791 Rain 25 1009 88 5000 2.6 130 20:18 26.01.2020
3792 Rain 26 1009 88 5000 1.5 130 19:56 26.01.2020
3793 Rain 26 1009 83 5000 2.6 0 19:37 26.01.2020
3794 Rain 26 1009 83 5000 2.6 0 19:37 26.01.2020
3795 Rain 26 1009 83 5000 2.6 0 19:18 26.01.2020
3796 Clouds 26 1010 88 7000 2.1 0 18:41 26.01.2020
3797 Clouds 26 1010 88 7000 2.1 0 18:22 26.01.2020
3798 Clouds 26 1010 88 7000 2.1 0 17:58 26.01.2020
3799 Clouds 26 1010 88 7000 2.1 0 17:58 26.01.2020
3800 Clouds 26 1010 88 7000 2.1 160 17:39 26.01.2020
3801 Clouds 26 1010 88 7000 2.1 160 17:20 26.01.2020
3802 Clouds 26 1010 83 7000 1.5 200 16:58 26.01.2020
3803 Clouds 26 1010 83 7000 1.5 200 16:58 26.01.2020
3804 Clouds 26 1010 83 7000 1.5 200 16:39 26.01.2020
3805 Clouds 26 1010 83 7000 1.5 200 16:39 26.01.2020
3806 Clouds 26 1010 83 7000 1.5 200 16:21 26.01.2020
3807 Clouds 27 1011 86 0 1.34 224 15:58 26.01.2020
3808 Clouds 27 1011 85 0 0.89 228 15:39 26.01.2020
3809 Clouds 27 1011 83 0 0.45 224 15:18 26.01.2020
3810 Clouds 27 1009 78 0 2.17 32 14:41 26.01.2020
3811 Clouds 27 1011 80 0 1.92 9 14:21 26.01.2020
3812 Clouds 28 1011 73 0 0.45 334 13:57 26.01.2020
3813 Clouds 28 1010 73 0 1.79 82 13:37 26.01.2020
3814 Rain 28 1010 73 0 1.34 112 13:18 26.01.2020
3815 Rain 26 1009 73 0 1.79 104 12:42 26.01.2020
3816 Rain 27 1009 72 0 2.24 90 12:24 26.01.2020
3817 Rain 27 1009 72 0 1.79 90 12:24 26.01.2020
3818 Rain 27 1009 71 0 2.24 100 11:58 26.01.2020
3819 Rain 28 1008 70 0 0.89 79 11:39 26.01.2020
3820 Rain 30 1007 70 6000 4.1 350 11:19 26.01.2020
3821 Rain 30 1007 70 6000 4.1 350 10:58 26.01.2020
3822 Rain 31 1007 70 6000 4.1 350 10:38 26.01.2020
3823 Rain 31 1007 70 6000 4.1 350 10:38 26.01.2020
3824 Rain 31 1007 70 6000 4.1 350 10:20 26.01.2020
3825 Clouds 31 1007 74 10000 5.7 310 09:57 26.01.2020
3826 Clouds 32 1007 62 6000 6.2 20 09:39 26.01.2020
3827 Clouds 32 1007 62 6000 6.2 20 09:39 26.01.2020
3828 Clouds 32 1007 62 6000 6.2 20 09:21 26.01.2020
3829 Clouds 29 1007 66 6000 4.1 30 08:43 26.01.2020
3830 Clouds 32 1007 66 6000 4.1 30 08:23 26.01.2020
3831 Clouds 29 1008 62 10000 5.1 360 07:57 26.01.2020
3832 Clouds 30 1009 62 10000 4.1 350 07:39 26.01.2020
3833 Clouds 30 1009 62 10000 4.1 350 07:21 26.01.2020
3834 Clouds 32 1009 66 10000 3.1 20 06:31 26.01.2020
3835 Haze 31 1010 74 4000 3.6 80 05:32 26.01.2020
3836 Clouds 31 1011 74 10000 1 0 04:45 26.01.2020
3837 Clouds 30 1011 78 8000 1 0 02:54 26.01.2020
3838 Haze 27 1010 83 5000 2.1 0 01:49 26.01.2020
3839 Mist 26 1009 100 2000 1.5 180 01:25 26.01.2020
3840 Mist 26 1009 94 2000 1.5 180 00:53 26.01.2020
3841 Mist 25 1009 100 2000 3 245 00:31 26.01.2020
3842 Rain 25 1010 97 0 3 245 23:41 25.01.2020
3843 Rain 25 1010 97 0 4.51 236 23:23 25.01.2020
3844 Rain 25 1010 97 0 4.51 236 22:59 25.01.2020
3845 Rain 25 1010 97 0 4.51 236 22:40 25.01.2020
3846 Rain 25 1010 97 0 4.51 236 22:19 25.01.2020
3847 Rain 25 1010 97 0 0.45 233 21:57 25.01.2020
3848 Rain 25 1010 96 0 0.45 225 21:38 25.01.2020
3849 Rain 28 1008 75 0 4.51 236 21:20 25.01.2020
3850 Rain 24 1010 96 0 4.51 236 20:44 25.01.2020
3851 Rain 24 1010 96 0 4.51 236 20:44 25.01.2020
3852 Rain 24 1010 95 0 4.51 236 20:25 25.01.2020
3853 Rain 24 1010 95 0 4.51 236 20:25 25.01.2020
3854 Clouds 26 1010 95 0 2.69 287 19:55 25.01.2020
3855 Rain 26 1012 93 0 5.85 277 19:37 25.01.2020
3856 Clouds 26 1011 94 0 0.89 253 19:18 25.01.2020
3857 Rain 26 1012 93 0 5.85 277 18:42 25.01.2020
3858 Clouds 26 1011 93 0 2.69 287 18:22 25.01.2020
3859 Rain 26 1012 93 0 5.85 277 17:58 25.01.2020
3860 Rain 25 1012 92 0 5.85 277 17:38 25.01.2020
3861 Rain 26 1012 92 0 6.26 268 17:19 25.01.2020
3862 Rain 26 1012 91 0 6.26 268 16:43 25.01.2020
3863 Rain 26 1012 91 0 6.26 268 16:23 25.01.2020
3864 Rain 27 1012 90 0 6.26 268 15:58 25.01.2020
3865 Rain 27 1012 90 0 6.26 268 15:58 25.01.2020
3866 Rain 25 1012 90 0 6.26 268 15:39 25.01.2020
3867 Rain 25 1012 89 0 0.45 315 15:21 25.01.2020
3868 Rain 25 1012 88 0 6.26 268 14:43 25.01.2020
3869 Rain 27 1012 87 0 4.75 321 14:19 25.01.2020
3870 Rain 27 1011 86 0 4.75 321 13:54 25.01.2020
3871 Rain 27 1011 86 0 0.45 23 13:36 25.01.2020
3872 Rain 28 1011 81 0 6.39 296 13:18 25.01.2020
3873 Rain 28 1011 81 0 6.39 296 13:18 25.01.2020
3874 Clouds 26 1009 83 7000 1.5 0 12:41 25.01.2020
3875 Clouds 27 1009 83 7000 1.5 0 12:20 25.01.2020
3876 Rain 26 1009 94 4000 1.5 330 11:40 25.01.2020
3877 Rain 27 1009 94 4000 1.5 330 11:20 25.01.2020
3878 Clouds 28 1008 83 7000 2.1 0 10:56 25.01.2020
3879 Rain 27 1008 94 4000 1.5 280 10:38 25.01.2020
3880 Rain 27 1008 94 4000 1.5 280 10:38 25.01.2020
3881 Rain 27 1008 94 4000 1.5 280 10:18 25.01.2020
3882 Rain 28 1008 94 4000 1.5 270 09:40 25.01.2020
3883 Rain 28 1008 94 4000 1.5 270 09:20 25.01.2020
3884 Clouds 28 1009 78 8000 3.1 320 08:43 25.01.2020
3885 Clouds 29 1009 74 8000 6.2 310 08:00 25.01.2020
3886 Clouds 28 1010 74 8000 4.6 330 07:40 25.01.2020
3887 Clouds 29 1010 78 8000 4.6 310 06:44 25.01.2020
3888 Haze 29 1011 83 5000 1.5 340 06:24 25.01.2020
3889 Rain 30 1012 88 4000 1.5 320 05:44 25.01.2020
3890 Rain 28 1012 88 4000 2.1 280 04:24 25.01.2020
3891 Clouds 28 1012 83 7000 5.7 300 03:50 25.01.2020
3892 Rain 27 1012 100 3000 6.09 296 02:38 25.01.2020
3893 Rain 26 1012 100 3000 2.1 300 01:58 25.01.2020
3894 Rain 26 1011 100 3000 1.5 280 01:23 25.01.2020
3895 Mist 25 1010 100 3000 1.5 210 00:41 25.01.2020
3896 Mist 25 1010 100 3000 1.5 210 00:41 25.01.2020
3897 Mist 25 1010 100 3000 1.5 210 00:22 25.01.2020
3898 Mist 25 1009 100 3000 5.29 287 23:42 24.01.2020
3899 Mist 25 1009 100 3000 5.29 287 23:24 24.01.2020
3900 Mist 25 1009 100 3000 5.49 310 22:47 24.01.2020
3901 Mist 24 1009 100 4000 5.49 310 22:29 24.01.2020
3902 Clouds 24 1009 94 5000 1.5 230 21:59 24.01.2020
3903 Rain 24 1010 94 5000 1 250 21:41 24.01.2020
3904 Rain 24 1010 94 5000 1 250 21:41 24.01.2020
3905 Rain 24 1010 94 5000 1 250 21:19 24.01.2020
3906 Rain 24 1010 94 5000 2.6 270 20:44 24.01.2020
3907 Rain 24 1010 94 5000 2.1 280 20:23 24.01.2020
3908 Rain 24 1010 94 5000 2.6 300 19:59 24.01.2020
3909 Rain 24 1011 94 5000 3.1 300 19:41 24.01.2020
3910 Rain 24 1011 94 5000 3.1 300 19:22 24.01.2020
3911 Rain 24 1011 94 5000 3.1 330 18:58 24.01.2020
3912 Thunderstorm 25 1012 94 6000 4.6 320 18:40 24.01.2020
3913 Thunderstorm 24 1012 94 6000 4.6 320 18:21 24.01.2020
3914 Rain 25 1012 88 4000 3.6 340 17:44 24.01.2020
3915 Rain 26 1012 88 4000 3.6 340 17:22 24.01.2020
3916 Clouds 26 1012 88 5000 2.6 0 16:57 24.01.2020
3917 Clouds 26 1012 88 5000 1 0 16:38 24.01.2020
3918 Clouds 26 1012 88 5000 1 0 16:18 24.01.2020
3919 Haze 26 1011 88 5000 2.1 0 15:41 24.01.2020
3920 Haze 26 1011 88 5000 2.1 0 15:21 24.01.2020
3921 Clouds 26 1011 88 5000 2.1 0 14:42 24.01.2020
3922 Rain 26 1011 94 5000 2.6 0 14:24 24.01.2020
3923 Rain 26 1010 88 6000 2.6 0 13:59 24.01.2020
3924 Haze 26 1010 94 5000 2.6 220 13:40 24.01.2020
3925 Haze 26 1010 94 5000 2.6 220 13:21 24.01.2020
3926 Haze 26 1010 94 4000 2.1 250 12:42 24.01.2020
3927 Haze 26 1009 100 4000 2.6 230 12:20 24.01.2020
3928 Haze 26 1009 94 4000 2.1 250 11:44 24.01.2020
3929 Haze 26 1009 94 4000 2.1 250 11:19 24.01.2020
3930 Rain 26 1008 94 4000 1.5 270 10:56 24.01.2020
3931 Rain 27 1008 100 4000 1.5 280 10:38 24.01.2020
3932 Rain 26 1008 100 4000 1.5 280 10:18 24.01.2020
3933 Rain 27 1009 100 4000 3.1 250 09:41 24.01.2020
3934 Rain 27 1009 100 4000 3.1 250 09:23 24.01.2020
3935 Rain 28 1009 88 5000 1 0 08:41 24.01.2020
3936 Rain 28 1009 88 5000 1 0 08:21 24.01.2020
3937 Rain 27 1010 94 5000 1.5 0 07:58 24.01.2020
3938 Rain 27 1010 94 5000 2.1 300 07:37 24.01.2020
3939 Rain 26 1011 100 5000 1.5 270 06:53 24.01.2020
3940 Rain 26 1011 100 4000 1.5 10 06:33 24.01.2020
3941 Thunderstorm 26 1012 100 4000 1.5 360 05:59 24.01.2020
3942 Thunderstorm 26 1012 100 2000 2.1 330 05:18 24.01.2020
3943 Rain 27 1011 100 4000 3.6 40 02:54 24.01.2020
3944 Rain 27 1011 100 3000 1.5 100 02:27 24.01.2020
3945 Rain 26 1011 100 3000 2.1 120 01:56 24.01.2020
3946 Rain 27 1010 100 3000 1.5 70 01:35 24.01.2020
3947 Rain 27 1009 94 3000 1.5 350 00:33 24.01.2020
3948 Rain 26 1009 100 3000 1.5 310 23:58 23.01.2020
3949 Mist 26 1009 100 3000 1.5 160 23:40 23.01.2020
3950 Mist 26 1009 100 3000 1.5 160 23:20 23.01.2020
3951 Rain 26 1009 100 3000 1.5 80 22:55 23.01.2020
3952 Rain 26 1009 100 3000 1.5 80 22:55 23.01.2020
3953 Rain 26 1009 88 4000 2.1 300 22:36 23.01.2020
3954 Rain 26 1009 88 4000 2.1 300 22:18 23.01.2020
3955 Rain 26 1009 94 4000 2.1 0 21:54 23.01.2020
3956 Thunderstorm 26 1009 88 4000 2.6 290 21:36 23.01.2020
3957 Thunderstorm 27 1009 88 4000 2.6 290 21:18 23.01.2020
3958 Haze 27 1009 83 5000 2.1 280 20:40 23.01.2020
3959 Haze 27 1009 83 5000 2.1 280 20:22 23.01.2020
3960 Haze 27 1009 83 5000 1 300 19:57 23.01.2020
3961 Haze 27 1009 88 5000 1.5 300 19:38 23.01.2020
3962 Haze 27 1009 88 5000 1.5 300 19:38 23.01.2020
3963 Haze 27 1009 88 5000 1.5 300 19:20 23.01.2020
3964 Clouds 27 1010 83 5000 1.5 330 18:56 23.01.2020
3965 Clouds 27 1010 83 5000 1.5 330 18:56 23.01.2020
3966 Clouds 27 1010 83 7000 3.2 352 18:37 23.01.2020
3967 Clouds 26 1010 83 7000 3.2 352 18:19 23.01.2020
3968 Clouds 27 1011 78 8000 2.1 0 17:43 23.01.2020
3969 Clouds 28 1011 78 8000 2.1 0 17:20 23.01.2020
3970 Clouds 28 1012 83 7000 2.1 0 16:58 23.01.2020
3971 Clouds 28 1011 79 7000 2.1 0 16:38 23.01.2020
3972 Clouds 29 1011 79 7000 2.1 0 16:19 23.01.2020
3973 Clouds 28 1011 83 6000 1 0 15:57 23.01.2020
3974 Haze 27 1010 83 5000 1 0 15:38 23.01.2020
3975 Haze 27 1010 83 5000 1 0 15:18 23.01.2020
3976 Haze 27 1010 83 5000 1 0 15:18 23.01.2020
3977 Haze 27 1010 83 3000 1.5 50 14:56 23.01.2020
3978 Haze 27 1010 83 3000 1.5 50 14:56 23.01.2020
3979 Haze 27 1010 79 4000 1.5 50 14:38 23.01.2020
3980 Haze 29 1010 79 4000 1.5 50 14:20 23.01.2020
3981 Thunderstorm 29 1010 83 4600 1.5 0 13:45 23.01.2020
3982 Clouds 30 1009 79 6000 1.5 10 13:21 23.01.2020
3983 Thunderstorm 30 1009 79 7000 1.5 350 12:55 23.01.2020
3984 Clouds 30 1008 74 6000 1.5 310 12:36 23.01.2020
3985 Clouds 30 1008 74 6000 1.5 310 12:18 23.01.2020
3986 Clouds 31 1007 70 6000 3.6 350 11:43 23.01.2020
3987 Clouds 32 1007 70 6000 3.6 350 11:24 23.01.2020
3988 Clouds 32 1007 70 9000 3.6 350 10:58 23.01.2020
3989 Clouds 31 1007 70 6000 3.1 360 10:40 23.01.2020
3990 Clouds 31 1007 70 6000 3.1 360 10:18 23.01.2020
3991 Clouds 33 1008 62 10000 5.1 330 09:41 23.01.2020
3992 Clouds 33 1008 62 10000 5.1 330 09:41 23.01.2020
3993 Clouds 32 1008 62 10000 5.1 330 09:21 23.01.2020
3994 Clouds 31 1008 70 10000 5.1 340 08:56 23.01.2020
3995 Clouds 31 1009 66 10000 4.6 340 08:37 23.01.2020
3996 Clouds 30 1009 66 10000 4.6 340 08:18 23.01.2020
3997 Rain 30 1010 100 4000 2.1 10 07:37 23.01.2020
3998 Rain 30 1010 100 4000 2.1 10 07:18 23.01.2020
3999 Clouds 32 1010 70 9000 6.2 350 06:44 23.01.2020
4000 Rain 30 1011 88 3000 1.5 340 06:18 23.01.2020
4001 Rain 29 1012 88 5000 1.5 350 04:25 23.01.2020
4002 Rain 28 1012 83 5000 1.5 270 03:36 23.01.2020
4003 Rain 26 1011 83 4000 1.5 290 01:55 23.01.2020
4004 Rain 26 1010 94 4000 1.5 160 00:44 23.01.2020
4005 Rain 27 1010 94 4000 1.5 160 00:24 23.01.2020
4006 Rain 26 1010 94 4000 1.5 100 23:46 22.01.2020
4007 Rain 27 1010 88 4000 2.1 20 23:28 22.01.2020
4008 Rain 27 1009 100 4000 2.43 325 22:43 22.01.2020
4009 Rain 27 1009 100 4000 2.43 325 22:25 22.01.2020
4010 Haze 26 1010 100 4000 1.5 230 21:59 22.01.2020
4011 Haze 26 1010 88 5000 1 250 21:38 22.01.2020
4012 Haze 26 1010 88 5000 1 250 21:19 22.01.2020
4013 Haze 26 1010 83 4000 1.5 0 20:42 22.01.2020
4014 Haze 26 1010 83 4000 1.5 0 20:42 22.01.2020
4015 Haze 26 1010 83 4000 1.5 0 20:23 22.01.2020
4016 Haze 26 1011 83 4000 0.5 0 19:59 22.01.2020
4017 Haze 26 1011 83 4000 1 330 19:41 22.01.2020
4018 Haze 26 1011 83 4000 1 330 19:21 22.01.2020
4019 Haze 26 1011 88 4000 1 300 18:59 22.01.2020
4020 Haze 26 1012 88 4000 1 310 18:40 22.01.2020
4021 Haze 26 1012 88 4000 1 310 18:21 22.01.2020
4022 Haze 26 1012 88 3000 1.5 320 17:59 22.01.2020
4023 Haze 26 1012 83 4000 1 0 17:39 22.01.2020
4024 Haze 28 1012 83 4000 1 0 17:20 22.01.2020
4025 Haze 28 1012 83 5000 1.5 0 16:56 22.01.2020
4026 Haze 28 1012 83 5000 1.5 80 16:37 22.01.2020
4027 Haze 28 1012 83 5000 1.5 80 16:37 22.01.2020
4028 Haze 28 1012 83 5000 1.5 80 16:18 22.01.2020
4029 Haze 27 1012 78 4000 1 40 15:43 22.01.2020
4030 Haze 27 1012 78 4000 1 40 15:24 22.01.2020
4031 Haze 27 1012 78 4000 1.5 50 14:59 22.01.2020
4032 Clouds 28 1011 74 6000 1.5 30 14:38 22.01.2020
4033 Clouds 29 1011 74 6000 1.5 30 14:20 22.01.2020
4034 Clouds 29 1011 74 6000 1.5 40 13:57 22.01.2020
4035 Clouds 29 1010 83 6000 1.5 260 13:37 22.01.2020
4036 Clouds 29 1010 83 6000 1.5 260 13:19 22.01.2020
4037 Clouds 29 1010 79 6000 3.33 347 12:57 22.01.2020
4038 Rain 30 1009 74 5000 1.5 330 12:38 22.01.2020
4039 Rain 30 1009 74 5000 1.5 330 12:19 22.01.2020
4040 Rain 29 1009 74 5000 3.1 360 11:56 22.01.2020
4041 Rain 30 1009 70 5000 3.1 360 11:38 22.01.2020
4042 Rain 31 1009 70 5000 3.1 360 11:19 22.01.2020
4043 Rain 31 1009 70 5000 3.1 360 11:19 22.01.2020
4044 Clouds 31 1009 70 6000 2.1 350 10:45 22.01.2020
4045 Clouds 32 1008 66 6000 1.5 320 10:21 22.01.2020
4046 Clouds 31 1008 70 6000 3.6 360 09:58 22.01.2020
4047 Clouds 32 1009 70 6000 2.1 330 09:40 22.01.2020
4048 Clouds 31 1009 70 6000 2.1 330 09:21 22.01.2020
4049 Clouds 31 1009 70 6000 3.1 330 08:55 22.01.2020
4050 Haze 31 1010 74 5000 2.1 330 08:36 22.01.2020
4051 Haze 32 1010 74 5000 2.1 330 08:18 22.01.2020
4052 Rain 31 1011 83 5000 2.6 310 07:44 22.01.2020
4053 Rain 31 1011 83 5000 2.6 310 07:26 22.01.2020
4054 Rain 30 1012 88 5000 1.5 300 06:34 22.01.2020
4055 Rain 30 1012 88 5000 1.5 290 05:54 22.01.2020
4056 Haze 30 1013 83 4000 1.5 230 04:25 22.01.2020
4057 Haze 30 1013 83 4000 1.5 290 03:26 22.01.2020
4058 Haze 29 1013 94 4000 1.5 210 02:42 22.01.2020
4059 Clouds 27 1012 83 4000 1 0 00:47 22.01.2020
4060 Rain 27 1011 83 3000 2.1 0 00:27 22.01.2020
4061 Rain 26 1011 88 3000 3.6 20 23:57 21.01.2020
4062 Haze 26 1011 88 3000 2.6 170 23:37 21.01.2020
4063 Haze 25 1011 88 3000 2.6 170 23:19 21.01.2020
4064 Haze 25 1011 88 3000 2.6 170 22:40 21.01.2020
4065 Haze 25 1011 88 3000 2.6 170 22:21 21.01.2020
4066 Haze 25 1011 88 4000 2.1 170 21:58 21.01.2020
4067 Thunderstorm 25 1011 88 5000 2.6 170 21:38 21.01.2020
4068 Thunderstorm 25 1011 88 5000 2.6 170 21:20 21.01.2020
4069 Haze 25 1011 88 5000 2.1 180 20:57 21.01.2020
4070 Haze 25 1012 88 5000 1.5 140 20:38 21.01.2020
4071 Haze 27 1012 88 5000 1.5 140 20:20 21.01.2020
4072 Haze 27 1012 88 2700 0.5 0 19:57 21.01.2020
4073 Haze 26 1012 88 3000 1 70 19:39 21.01.2020
4074 Haze 26 1012 88 3000 1 70 19:20 21.01.2020
4075 Haze 26 1013 88 5000 1.5 120 18:55 21.01.2020
4076 Haze 26 1013 88 5000 1 130 18:37 21.01.2020
4077 Haze 26 1013 88 5000 1 130 18:19 21.01.2020
4078 Haze 26 1013 83 5000 1 70 17:45 21.01.2020
4079 Haze 27 1013 83 5000 1 80 17:20 21.01.2020
4080 Haze 26 1013 88 5000 0.5 0 16:59 21.01.2020
4081 Haze 27 1013 83 5000 1.5 70 16:37 21.01.2020
4082 Haze 27 1013 83 5000 1.5 70 16:19 21.01.2020
4083 Haze 27 1013 83 5000 2.1 90 15:56 21.01.2020
4084 Haze 28 1013 83 5000 1 60 15:36 21.01.2020
4085 Haze 28 1013 83 5000 1 60 15:18 21.01.2020
4086 Haze 28 1012 83 5000 1.5 70 14:38 21.01.2020
4087 Haze 28 1012 83 5000 1.5 70 14:20 21.01.2020
4088 Haze 28 1011 79 5000 2.6 40 13:40 21.01.2020
4089 Haze 28 1011 79 5000 2.6 40 13:19 21.01.2020
4090 Clouds 28 1011 79 8000 3.1 50 12:56 21.01.2020
4091 Clouds 28 1010 79 8000 3.6 60 12:37 21.01.2020
4092 Clouds 28 1010 79 8000 3.6 60 12:19 21.01.2020
4093 Clouds 30 1010 74 9000 4.1 40 11:40 21.01.2020
4094 Clouds 31 1010 74 9000 4.1 40 11:21 21.01.2020
4095 Clouds 31 1009 70 10000 4.1 30 10:57 21.01.2020
4096 Clouds 31 1009 70 10000 4.1 30 10:57 21.01.2020
4097 Clouds 31 1009 66 10000 4.1 20 10:39 21.01.2020
4098 Clouds 32 1009 66 10000 4.1 20 10:20 21.01.2020
4099 Clouds 31 1009 70 10000 4.6 10 09:42 21.01.2020
4100 Clouds 32 1009 70 10000 4.6 10 09:22 21.01.2020
4101 Clouds 31 1010 70 8000 4.1 340 08:50 21.01.2020
4102 Clouds 31 1010 74 8000 4.1 330 08:32 21.01.2020
4103 Clouds 31 1011 79 8000 4.1 330 07:59 21.01.2020
4104 Clouds 31 1012 79 7000 3.1 330 07:40 21.01.2020
4105 Clouds 30 1012 79 7000 3.1 330 07:22 21.01.2020
4106 Clouds 30 1012 83 7000 3.6 330 06:49 21.01.2020
4107 Clouds 30 1012 88 7000 2.6 340 06:29 21.01.2020
4108 Clouds 30 1012 88 7000 2.6 340 06:29 21.01.2020
4109 Clouds 30 1012 88 7000 2.6 340 06:29 21.01.2020
4110 Haze 29 1013 94 5000 1.5 350 05:42 21.01.2020
4111 Rain 28 1014 83 5000 3.1 360 04:40 21.01.2020
4112 Thunderstorm 29 1014 83 5000 4.6 290 02:57 21.01.2020
4113 Haze 28 1013 83 5000 1.5 0 01:55 21.01.2020
4114 Haze 26 1013 100 3000 2.27 336 01:26 21.01.2020
4115 Mist 27 1012 88 5000 2.1 0 00:37 21.01.2020
4116 Clouds 26 1012 94 6000 3.1 250 23:59 20.01.2020
4117 Rain 26 1011 100 4000 1.5 300 23:41 20.01.2020
4118 Rain 26 1011 100 4000 1.5 300 23:19 20.01.2020
4119 Clouds 25 1011 94 5000 2.6 250 22:56 20.01.2020
4120 Clouds 25 1011 94 5000 2.6 260 22:38 20.01.2020
4121 Clouds 25 1011 94 5000 2.6 260 22:20 20.01.2020
4122 Thunderstorm 25 1011 88 6000 2.6 300 21:57 20.01.2020
4123 Clouds 25 1011 88 6000 2.1 310 21:37 20.01.2020
4124 Clouds 25 1011 88 6000 2.1 310 21:19 20.01.2020
4125 Rain 25 1011 88 5000 2.6 0 20:56 20.01.2020
4126 Rain 25 1011 88 5000 2.6 0 20:56 20.01.2020
4127 Rain 25 1011 94 5000 2.6 310 20:38 20.01.2020
4128 Rain 25 1011 94 5000 2.6 310 20:18 20.01.2020
4129 Thunderstorm 25 1012 88 5000 4.1 280 19:56 20.01.2020
4130 Thunderstorm 26 1012 88 4000 3.6 260 19:37 20.01.2020
4131 Thunderstorm 26 1012 88 4000 3.6 260 19:37 20.01.2020
4132 Thunderstorm 26 1012 88 4000 3.6 260 19:18 20.01.2020
4133 Thunderstorm 27 1013 83 5000 2.1 30 18:43 20.01.2020
4134 Thunderstorm 27 1013 83 5000 2.1 30 18:43 20.01.2020
4135 Thunderstorm 27 1013 83 5000 2.1 30 18:22 20.01.2020
4136 Mist 27 1013 79 5000 1 0 17:41 20.01.2020
4137 Mist 28 1013 79 5000 1 0 17:20 20.01.2020
4138 Mist 28 1013 79 5000 1 0 17:20 20.01.2020
4139 Mist 28 1013 83 3500 1 0 16:59 20.01.2020
4140 Mist 28 1013 79 4000 1.5 50 16:37 20.01.2020
4141 Mist 29 1013 79 4000 1.5 50 16:18 20.01.2020
4142 Mist 29 1013 79 4000 1.5 50 16:18 20.01.2020
4143 Mist 29 1013 79 4000 1.5 50 16:18 20.01.2020
4144 Clouds 27 1012 83 7000 1.5 80 15:54 20.01.2020
4145 Clouds 27 1012 79 8000 1 0 15:36 20.01.2020
4146 Clouds 27 1012 79 8000 1 0 15:18 20.01.2020
4147 Clouds 27 1011 79 8000 1.5 20 14:41 20.01.2020
4148 Clouds 27 1011 79 8000 1.5 20 14:41 20.01.2020
4149 Clouds 29 1011 79 8000 1.5 20 14:22 20.01.2020
4150 Clouds 29 1011 79 8000 1 360 13:58 20.01.2020
4151 Clouds 29 1011 79 8000 1.5 60 13:40 20.01.2020
4152 Clouds 29 1011 79 8000 1.5 60 13:21 20.01.2020
4153 Rain 29 1010 83 5000 1.5 360 12:46 20.01.2020
4154 Clouds 30 1010 70 8000 2.6 10 12:27 20.01.2020
4155 Clouds 30 1009 70 9000 3.1 20 11:57 20.01.2020
4156 Rain 30 1009 74 5000 1.5 340 11:38 20.01.2020
4157 Rain 30 1009 74 5000 1.5 340 11:19 20.01.2020
4158 Thunderstorm 31 1009 62 9000 3.1 340 10:47 20.01.2020
4159 Thunderstorm 32 1009 66 10000 3.1 10 10:21 20.01.2020
4160 Clouds 30 1008 70 10000 4.1 360 09:54 20.01.2020
4161 Clouds 30 1009 66 10000 4.1 360 09:36 20.01.2020
4162 Clouds 30 1009 66 10000 4.1 360 09:18 20.01.2020
4163 Clouds 31 1009 66 8000 4.6 360 08:42 20.01.2020
4164 Haze 31 1010 74 5000 3.1 320 08:24 20.01.2020
4165 Clouds 32 1010 70 8000 5.1 360 07:42 20.01.2020
4166 Haze 31 1011 79 4000 2.6 350 07:23 20.01.2020
4167 Clouds 31 1012 74 8000 4.1 340 06:45 20.01.2020
4168 Clouds 31 1012 74 8000 4.1 340 06:25 20.01.2020
4169 Haze 30 1012 83 4000 2.1 350 05:41 20.01.2020
4170 Haze 30 1012 83 4000 2.1 350 05:21 20.01.2020
4171 Thunderstorm 31 1012 94 3000 1.5 320 04:33 20.01.2020
4172 Haze 29 1012 88 4000 1.5 130 02:55 20.01.2020
4173 Haze 29 1012 88 4000 1.5 130 02:55 20.01.2020
4174 Haze 27 1011 94 4000 2.5 297 01:42 20.01.2020
4175 Haze 28 1011 94 4000 2.5 297 01:23 20.01.2020
4176 Haze 27 1011 94 4000 2.39 305 00:43 20.01.2020
4177 Haze 27 1010 94 4000 2.39 305 00:22 20.01.2020
4178 Haze 27 1010 94 4000 2.39 305 23:39 19.01.2020
4179 Haze 27 1010 94 4000 1.87 305 23:19 19.01.2020
4180 Haze 27 1010 94 5000 1.87 305 22:56 19.01.2020
4181 Haze 27 1010 94 5000 1.87 305 22:38 19.01.2020
4182 Haze 27 1010 94 5000 1.87 305 22:38 19.01.2020
4183 Haze 26 1010 94 5000 1.87 305 22:19 19.01.2020
4184 Haze 26 1010 83 5000 1.5 220 21:56 19.01.2020
4185 Haze 26 1010 83 5000 1.5 220 21:56 19.01.2020
4186 Haze 26 1010 83 5000 2.1 210 21:38 19.01.2020
4187 Haze 26 1010 83 5000 2.1 210 21:19 19.01.2020
4188 Haze 26 1010 83 5000 2.6 200 20:57 19.01.2020
4189 Haze 26 1010 83 5000 2.6 200 20:38 19.01.2020
4190 Haze 26 1010 83 5000 2.6 200 20:20 19.01.2020
4191 Haze 26 1010 83 5000 2.6 0 19:56 19.01.2020
4192 Haze 26 1011 83 5000 1 320 19:37 19.01.2020
4193 Haze 26 1011 83 5000 1 320 19:19 19.01.2020
4194 Haze 26 1011 83 5000 1.5 310 18:55 19.01.2020
4195 Haze 26 1011 83 5000 1.5 310 18:37 19.01.2020
4196 Haze 26 1011 83 5000 1.5 310 18:19 19.01.2020
4197 Clouds 26 1011 83 6000 1 260 17:58 19.01.2020
4198 Clouds 26 1012 83 6000 1 300 17:39 19.01.2020
4199 Clouds 28 1012 83 6000 1 300 17:20 19.01.2020
4200 Clouds 28 1012 83 6000 1.5 320 16:57 19.01.2020
4201 Clouds 28 1012 78 7000 1 300 16:38 19.01.2020
4202 Clouds 28 1012 78 7000 1 300 16:19 19.01.2020
4203 Clouds 28 1012 78 7000 1 0 15:57 19.01.2020
4204 Clouds 27 1011 83 7000 2.6 280 15:37 19.01.2020
4205 Clouds 27 1011 83 7000 2.6 280 15:37 19.01.2020
4206 Clouds 27 1011 83 7000 2.6 280 15:19 19.01.2020
4207 Clouds 29 1011 83 7000 1 280 14:57 19.01.2020
4208 Clouds 27 1011 78 7000 1.5 320 14:38 19.01.2020
4209 Clouds 29 1011 78 7000 1.5 320 14:18 19.01.2020
4210 Clouds 29 1010 78 8000 1.5 320 13:55 19.01.2020
4211 Clouds 29 1010 79 6000 2.6 320 13:37 19.01.2020
4212 Clouds 28 1010 79 6000 2.6 320 13:18 19.01.2020
4213 Clouds 28 1009 79 6000 3.6 330 12:54 19.01.2020
4214 Clouds 28 1009 79 6000 3.1 350 12:36 19.01.2020
4215 Clouds 30 1009 79 6000 3.1 350 12:18 19.01.2020
4216 Clouds 30 1008 74 6000 3.6 320 11:39 19.01.2020
4217 Clouds 31 1008 74 6000 3.6 320 11:20 19.01.2020
4218 Clouds 30 1008 70 6000 4.1 340 10:55 19.01.2020
4219 Clouds 31 1008 66 6000 5.1 10 10:37 19.01.2020
4220 Clouds 31 1008 66 6000 5.1 10 10:37 19.01.2020
4221 Clouds 31 1008 66 6000 5.1 10 10:18 19.01.2020
4222 Clouds 31 1008 66 6000 5.1 10 10:18 19.01.2020
4223 Clouds 31 1008 70 6000 5.1 30 09:44 19.01.2020
4224 Clouds 31 1008 70 6000 5.1 30 09:25 19.01.2020
4225 Clouds 32 1009 66 6000 4.6 10 08:58 19.01.2020
4226 Haze 32 1009 66 5000 6.2 20 08:39 19.01.2020
4227 Haze 33 1009 66 5000 6.2 20 08:20 19.01.2020
4228 Rain 32 1010 70 4000 5.1 360 07:42 19.01.2020
4229 Rain 32 1010 70 4000 5.1 360 07:21 19.01.2020
4230 Rain 33 1010 62 4000 2.6 10 06:50 19.01.2020
4231 Haze 32 1011 66 3000 3.1 20 05:21 19.01.2020
4232 Haze 30 1012 83 3000 2.1 30 02:43 19.01.2020
4233 Mist 29 1012 88 2000 1.5 300 02:21 19.01.2020
4234 Mist 27 1011 100 2000 1.5 170 01:24 19.01.2020
4235 Mist 26 1011 83 2000 1 0 00:45 19.01.2020
4236 Mist 26 1010 88 2500 1 0 00:27 19.01.2020
4237 Mist 25 1010 88 2500 1 0 23:56 18.01.2020
4238 Mist 25 1010 88 2500 1 170 23:38 18.01.2020
4239 Mist 25 1010 88 2500 1 170 23:18 18.01.2020
4240 Mist 25 1010 88 2500 1.5 210 22:55 18.01.2020
4241 Mist 25 1010 88 2500 2.1 250 22:36 18.01.2020
4242 Mist 25 1010 88 2500 2.1 250 22:18 18.01.2020
4243 Mist 25 1010 88 2500 2.1 280 21:56 18.01.2020
4244 Mist 25 1010 88 3000 1.5 220 21:37 18.01.2020
4245 Mist 25 1010 88 3000 1.5 220 21:18 18.01.2020
4246 Haze 24 1010 83 4000 1 0 20:42 18.01.2020
4247 Haze 26 1010 83 4000 1 0 20:21 18.01.2020
4248 Haze 26 1010 83 4000 1 200 19:55 18.01.2020
4249 Haze 26 1010 88 4000 1 340 19:37 18.01.2020
4250 Haze 26 1010 88 4000 1 340 19:37 18.01.2020
4251 Haze 26 1010 88 4000 1 340 19:19 18.01.2020
4252 Haze 25 1011 88 4000 1 0 18:42 18.01.2020
4253 Haze 25 1011 88 4000 1 0 18:21 18.01.2020
4254 Haze 25 1011 88 4000 1.54 43 17:54 18.01.2020
4255 Haze 25 1011 83 5000 1 330 17:36 18.01.2020
4256 Haze 26 1011 83 5000 1 330 17:18 18.01.2020
4257 Haze 26 1011 78 5000 1.5 10 16:41 18.01.2020
4258 Haze 26 1011 78 5000 1.5 10 16:23 18.01.2020
4259 Haze 26 1011 78 5000 1 70 15:59 18.01.2020
4260 Haze 26 1011 78 5000 1 70 15:40 18.01.2020
4261 Haze 26 1011 78 5000 1 70 15:22 18.01.2020
4262 Clouds 27 1010 78 6000 1 350 14:44 18.01.2020
4263 Clouds 27 1010 78 6000 1 350 14:24 18.01.2020
4264 Clouds 27 1010 74 6000 0.5 0 13:59 18.01.2020
4265 Clouds 27 1009 74 6000 1 320 13:41 18.01.2020
4266 Clouds 29 1009 74 6000 1 320 13:21 18.01.2020
4267 Clouds 29 1009 74 7000 2.1 330 12:55 18.01.2020
4268 Clouds 29 1009 74 7000 2.1 330 12:55 18.01.2020
4269 Clouds 29 1009 66 6000 1.5 10 12:37 18.01.2020
4270 Clouds 29 1009 66 6000 1.5 10 12:19 18.01.2020
4271 Clouds 30 1008 55 6000 1.5 340 11:44 18.01.2020
4272 Clouds 31 1008 55 6000 1.5 340 11:21 18.01.2020
4273 Clouds 31 1008 66 10000 2.6 340 10:54 18.01.2020
4274 Clouds 31 1008 58 6000 1.5 320 10:36 18.01.2020
4275 Clouds 30 1008 58 6000 1.5 320 10:18 18.01.2020
4276 Haze 31 1009 70 5000 2.1 270 09:42 18.01.2020
4277 Haze 31 1009 70 5000 2.1 270 09:20 18.01.2020
4278 Clouds 31 1009 62 9000 4.1 360 08:55 18.01.2020
4279 Rain 31 1010 74 4000 2.1 320 08:36 18.01.2020
4280 Rain 31 1010 74 4000 2.1 320 08:18 18.01.2020
4281 Rain 31 1010 70 4000 1.5 290 07:40 18.01.2020
4282 Rain 31 1010 70 4000 1.5 290 07:20 18.01.2020
4283 Clouds 31 1011 70 7000 4.1 340 06:45 18.01.2020
4284 Clouds 31 1011 70 7000 4.1 340 06:45 18.01.2020
4285 Clouds 28 1012 74 8000 2.1 0 05:53 18.01.2020
4286 Rain 27 1013 94 4000 1.5 270 04:28 18.01.2020
4287 Rain 26 1013 100 4000 2.1 160 02:49 18.01.2020
4288 Thunderstorm 25 1012 100 4000 0.91 347 01:47 18.01.2020
4289 Thunderstorm 25 1011 100 1000 1.5 270 00:40 18.01.2020
4290 Thunderstorm 25 1011 100 1000 1.5 270 00:21 18.01.2020
4291 Thunderstorm 25 1011 88 5000 5.1 320 23:59 17.01.2020
4292 Rain 26 1010 100 3000 1.5 360 23:40 17.01.2020
4293 Rain 26 1010 100 3000 1.5 360 23:18 17.01.2020
4294 Thunderstorm 26 1010 88 5000 1 0 22:42 17.01.2020
4295 Thunderstorm 26 1010 88 5000 1 0 22:20 17.01.2020
4296 Rain 26 1009 94 5000 3.1 280 21:57 17.01.2020
4297 Thunderstorm 26 1009 94 4000 1.5 0 21:38 17.01.2020
4298 Thunderstorm 26 1009 94 4000 1.5 0 21:20 17.01.2020
4299 Thunderstorm 26 1010 94 4000 2.1 350 20:55 17.01.2020
4300 Thunderstorm 26 1010 94 5000 1.5 0 20:36 17.01.2020
4301 Thunderstorm 26 1010 94 5000 1.5 0 20:18 17.01.2020
4302 Thunderstorm 26 1010 94 4000 1.5 0 19:54 17.01.2020
4303 Thunderstorm 26 1010 88 2500 2.1 0 19:36 17.01.2020
4304 Thunderstorm 26 1010 88 2500 2.1 0 19:18 17.01.2020
4305 Thunderstorm 26 1011 88 3000 4.1 170 18:44 17.01.2020
4306 Thunderstorm 26 1011 88 3000 4.1 170 18:26 17.01.2020
4307 Thunderstorm 27 1011 88 2500 4.6 140 17:56 17.01.2020
4308 Rain 27 1011 83 5000 2.1 0 17:38 17.01.2020
4309 Rain 27 1011 83 5000 2.1 0 17:19 17.01.2020
4310 Clouds 27 1011 78 8000 2.1 0 16:41 17.01.2020
4311 Clouds 27 1011 78 8000 2.1 0 16:20 17.01.2020
4312 Clouds 27 1011 78 7000 1.5 0 15:48 17.01.2020
4313 Clouds 28 1012 78 7000 1 250 15:27 17.01.2020
4314 Clouds 29 1012 74 7000 1 0 14:56 17.01.2020
4315 Clouds 29 1011 74 6000 1 0 14:37 17.01.2020
4316 Clouds 29 1011 74 6000 1 0 14:19 17.01.2020
4317 Haze 29 1010 79 5000 4.1 340 13:39 17.01.2020
4318 Haze 29 1010 79 5000 4.1 340 13:20 17.01.2020
4319 Clouds 27 1010 74 7000 2.6 10 12:45 17.01.2020
4320 Haze 30 1009 79 5000 3.1 350 12:23 17.01.2020
4321 Haze 29 1008 74 5000 3.6 350 11:41 17.01.2020
4322 Haze 30 1008 74 5000 3.6 350 11:19 17.01.2020
4323 Haze 30 1008 70 5000 4.1 360 10:54 17.01.2020
4324 Haze 30 1008 70 5000 4.1 360 10:54 17.01.2020
4325 Haze 30 1008 70 5000 4.1 360 10:54 17.01.2020
4326 Haze 30 1008 70 5000 4.6 350 10:36 17.01.2020
4327 Haze 30 1008 70 5000 4.6 350 10:18 17.01.2020
4328 Clouds 31 1008 66 10000 5.1 10 09:41 17.01.2020
4329 Clouds 31 1008 66 10000 5.1 10 09:20 17.01.2020
4330 Clouds 32 1009 66 10000 5.7 10 08:55 17.01.2020
4331 Haze 32 1009 66 5000 3.1 360 08:37 17.01.2020
4332 Haze 32 1009 66 5000 3.1 360 08:18 17.01.2020
4333 Haze 32 1009 70 4000 3.1 350 07:43 17.01.2020
4334 Haze 32 1009 70 4000 3.1 350 07:24 17.01.2020
4335 Clouds 33 1010 66 10000 4.6 330 06:47 17.01.2020
4336 Clouds 33 1010 70 7000 4.6 340 06:29 17.01.2020
4337 Rain 33 1012 60 0 0.89 138 04:26 17.01.2020
4338 Rain 32 1005 72 0 4.23 315 02:56 17.01.2020
4339 Rain 32 1013 70 0 0.45 331 02:32 17.01.2020
4340 Rain 28 1012 77 0 0.45 335 01:33 17.01.2020
4341 Rain 26 1012 80 0 2.91 312 00:59 17.01.2020
4342 Rain 26 1012 80 0 2.91 312 00:59 17.01.2020
4343 Rain 27 1012 86 0 2.91 312 00:35 17.01.2020
4344 Mist 26 1010 100 2500 2.91 312 23:59 16.01.2020
4345 Mist 26 1010 100 2500 2.91 312 23:41 16.01.2020
4346 Mist 26 1010 100 2500 5.74 290 23:22 16.01.2020
4347 Mist 26 1010 100 3000 5.74 290 22:41 16.01.2020
4348 Mist 26 1010 100 3000 5.74 290 22:21 16.01.2020
4349 Clouds 26 1010 83 6000 1 200 21:57 16.01.2020
4350 Haze 25 1010 83 5000 1 200 21:38 16.01.2020
4351 Haze 25 1010 83 5000 1 200 21:19 16.01.2020
4352 Clouds 25 1010 83 5000 1 210 20:56 16.01.2020
4353 Thunderstorm 25 1010 83 5000 1 0 20:38 16.01.2020
4354 Thunderstorm 26 1010 83 5000 1 0 20:19 16.01.2020
4355 Haze 26 1010 83 5000 1.5 200 19:56 16.01.2020
4356 Haze 26 1011 83 5000 0.5 340 19:37 16.01.2020
4357 Haze 27 1011 83 5000 0.5 340 19:19 16.01.2020
4358 Haze 25 1011 78 5000 1 0 18:55 16.01.2020
4359 Haze 25 1011 78 5000 1 0 18:36 16.01.2020
4360 Haze 26 1011 78 5000 1 0 18:18 16.01.2020
4361 Haze 25 1012 78 5000 1 0 17:41 16.01.2020
4362 Haze 27 1012 78 5000 1 0 17:23 16.01.2020
4363 Haze 27 1012 78 5000 1.5 180 16:57 16.01.2020
4364 Haze 27 1012 78 5000 3.1 190 16:38 16.01.2020
4365 Haze 27 1012 78 5000 3.1 190 16:19 16.01.2020
4366 Haze 27 1012 78 5000 3.1 190 16:19 16.01.2020
4367 Thunderstorm 26 1011 78 5000 1 310 15:44 16.01.2020
4368 Thunderstorm 26 1011 78 9000 1.5 0 15:23 16.01.2020
4369 Clouds 26 1011 78 5000 3.6 180 14:57 16.01.2020
4370 Haze 26 1011 78 5000 3.1 190 14:39 16.01.2020
4371 Haze 27 1011 78 5000 3.1 190 14:20 16.01.2020
4372 Haze 27 1010 78 5000 2.1 0 13:45 16.01.2020
4373 Haze 26 1010 94 3000 2.1 150 13:26 16.01.2020
4374 Haze 26 1010 94 3000 2.1 170 12:47 16.01.2020
4375 Haze 26 1010 94 3000 2.1 170 12:47 16.01.2020
4376 Rain 26 1010 94 4000 2.1 150 12:28 16.01.2020
4377 Thunderstorm 25 1009 100 3000 3.1 260 11:59 16.01.2020
4378 Thunderstorm 26 1009 94 800 8.7 240 11:40 16.01.2020
4379 Thunderstorm 27 1009 94 800 8.7 240 11:22 16.01.2020
4380 Rain 29 1008 66 5000 5.7 10 10:40 16.01.2020
4381 Rain 30 1008 66 5000 5.7 10 10:22 16.01.2020
4382 Clouds 31 1008 66 6000 5.1 350 09:59 16.01.2020
4383 Clouds 32 1008 66 6000 5.1 40 09:41 16.01.2020
4384 Clouds 31 1008 66 6000 5.1 40 09:23 16.01.2020
4385 Clouds 32 1008 66 6000 6.2 30 08:55 16.01.2020
4386 Clouds 32 1009 70 6000 6.2 20 08:36 16.01.2020
4387 Clouds 32 1009 70 6000 6.2 10 07:59 16.01.2020
4388 Haze 32 1010 74 5000 3.6 330 07:41 16.01.2020
4389 Haze 32 1010 74 5000 3.6 330 07:23 16.01.2020
4390 Haze 33 1010 70 4000 4.1 30 06:46 16.01.2020
4391 Haze 31 1010 79 4000 5.1 20 06:28 16.01.2020
4392 Rain 32 1011 79 3000 5.1 30 05:46 16.01.2020
4393 Haze 30 1011 70 4000 2.1 120 04:46 16.01.2020
4394 Haze 30 1011 74 3000 1.5 270 03:29 16.01.2020
4395 Haze 30 1011 88 3000 2.6 160 02:44 16.01.2020
4396 Haze 27 1011 94 3000 2.6 220 01:24 16.01.2020
4397 Mist 26 1010 94 3000 1.5 240 00:41 16.01.2020
4398 Mist 26 1010 94 3000 1.5 240 00:19 16.01.2020
4399 Mist 26 1010 94 3000 2.1 180 23:40 15.01.2020
4400 Mist 26 1010 94 3000 2.1 180 23:20 15.01.2020
4401 Mist 26 1010 94 3000 2.1 180 23:19 15.01.2020
4402 Mist 26 1009 88 3500 1 280 22:56 15.01.2020
4403 Haze 26 1009 83 5000 1 0 22:36 15.01.2020
4404 Haze 27 1009 83 5000 1 0 22:18 15.01.2020
4405 Clouds 26 1009 88 5000 0.5 0 21:55 15.01.2020
4406 Haze 26 1009 88 5000 1 270 21:36 15.01.2020
4407 Haze 26 1009 88 5000 1 270 21:18 15.01.2020
4408 Haze 27 1009 88 5000 1.5 280 20:54 15.01.2020
4409 Haze 27 1010 88 5000 1 290 20:36 15.01.2020
4410 Haze 26 1010 88 5000 1 290 20:18 15.01.2020
4411 Haze 26 1010 88 5000 1 270 19:54 15.01.2020
4412 Haze 27 1010 83 5000 1 300 19:36 15.01.2020
4413 Haze 27 1010 83 5000 1 300 19:36 15.01.2020
4414 Haze 27 1010 83 5000 1 300 19:18 15.01.2020
4415 Haze 27 1010 83 5000 1 300 18:55 15.01.2020
4416 Haze 27 1010 83 5000 1 300 18:55 15.01.2020
4417 Haze 25 1011 88 5000 1 290 18:36 15.01.2020
4418 Haze 26 1011 88 5000 1 290 18:18 15.01.2020
4419 Haze 26 1011 83 5000 1 310 17:40 15.01.2020
4420 Haze 27 1011 83 5000 1 310 17:22 15.01.2020
4421 Clouds 27 1011 83 6000 1 340 16:57 15.01.2020
4422 Clouds 27 1011 83 6000 1.5 360 16:38 15.01.2020
4423 Clouds 27 1011 83 6000 1.5 360 16:20 15.01.2020
4424 Clouds 27 1011 83 6000 1.5 360 16:20 15.01.2020
4425 Clouds 27 1010 83 6000 1 0 15:43 15.01.2020
4426 Clouds 26 1010 83 6000 1 0 15:21 15.01.2020
4427 Clouds 27 1010 78 6000 1 50 14:56 15.01.2020
4428 Clouds 27 1010 83 6000 1 50 14:37 15.01.2020
4429 Clouds 28 1010 83 6000 1 50 14:18 15.01.2020
4430 Clouds 29 1009 83 6000 1.5 360 13:44 15.01.2020
4431 Clouds 29 1009 83 6000 1.5 360 13:23 15.01.2020
4432 Clouds 29 1009 74 9000 2.1 40 12:55 15.01.2020
4433 Clouds 29 1008 74 6000 2.1 350 12:37 15.01.2020
4434 Clouds 30 1008 74 6000 2.1 350 12:18 15.01.2020
4435 Clouds 29 1008 74 10000 2.6 40 11:54 15.01.2020
4436 Clouds 30 1008 66 6000 2.6 320 11:36 15.01.2020
4437 Clouds 30 1008 66 6000 2.6 320 11:18 15.01.2020
4438 Clouds 29 1008 70 10000 3.1 20 10:41 15.01.2020
4439 Clouds 31 1008 70 10000 3.1 20 10:21 15.01.2020
4440 Clouds 32 1008 66 10000 3.1 360 09:41 15.01.2020
4441 -273 0 0 0 0 0 09:22 15.01.2020
4442 Clouds 32 1008 66 10000 3.1 360 08:45 15.01.2020
4443 Rain 30 1009 70 5000 2.1 320 08:27 15.01.2020
4444 Clouds 31 1009 70 9000 3.6 340 07:56 15.01.2020
4445 Rain 30 1009 74 5000 2.1 340 07:35 15.01.2020
4446 Clouds 31 1010 70 9000 3.6 340 06:57 15.01.2020
4447 Clouds 31 1010 70 9000 3.6 340 06:57 15.01.2020
4448 Rain 30 1010 74 4000 2.1 310 06:38 15.01.2020
4449 Clouds 30 1011 74 8000 3.1 340 05:43 15.01.2020
4450 Haze 29 1011 88 5000 2.6 260 03:44 15.01.2020
4451 Haze 26 1011 94 4000 2.6 240 01:50 15.01.2020
4452 Haze 25 1010 94 4000 5.1 240 01:22 15.01.2020
4453 Haze 25 1010 94 4000 5.1 220 00:44 15.01.2020
4454 Haze 25 1010 94 4000 5.1 220 00:25 15.01.2020
4455 Haze 25 1010 94 5000 4.1 230 23:47 14.01.2020
4456 Haze 26 1009 94 5000 2.1 240 23:29 14.01.2020
4457 Haze 26 1009 94 5000 2.1 290 22:58 14.01.2020
4458 Rain 24 1009 94 5000 5.1 270 22:40 14.01.2020
4459 Rain 24 1009 94 5000 5.1 270 22:19 14.01.2020
4460 Clouds 24 1009 94 6000 2.6 280 21:58 14.01.2020
4461 Clouds 24 1009 94 6000 2.6 270 21:39 14.01.2020
4462 Clouds 24 1009 94 6000 2.6 270 21:20 14.01.2020
4463 Clouds 25 1009 88 7000 2.1 280 20:56 14.01.2020
4464 Clouds 25 1009 94 6000 2.1 0 20:38 14.01.2020
4465 Clouds 24 1009 94 6000 2.1 0 20:19 14.01.2020
4466 Clouds 24 1009 94 6000 2.1 0 19:55 14.01.2020
4467 Rain 25 1010 88 5000 2.1 250 19:37 14.01.2020
4468 Rain 25 1010 88 5000 2.1 250 19:18 14.01.2020
4469 Rain 25 1010 88 3000 3.6 280 18:41 14.01.2020
4470 Rain 25 1010 88 3000 3.6 280 18:20 14.01.2020
4471 Rain 25 1010 88 3000 3.6 280 17:58 14.01.2020
4472 Clouds 25 1010 83 6000 3.6 280 17:37 14.01.2020
4473 Clouds 26 1010 83 6000 3.6 280 17:18 14.01.2020
4474 Thunderstorm 26 1010 78 6000 3.1 330 16:54 14.01.2020
4475 Thunderstorm 26 1010 78 6000 3.1 340 16:36 14.01.2020
4476 Thunderstorm 26 1010 78 6000 3.1 340 16:18 14.01.2020
4477 Clouds 26 1010 78 7000 3.1 30 15:42 14.01.2020
4478 Clouds 26 1010 78 7000 3.1 30 15:19 14.01.2020
4479 Clouds 27 1009 83 8000 3.1 30 14:46 14.01.2020
4480 Clouds 27 1009 78 9000 3.6 30 14:22 14.01.2020
4481 Clouds 28 1009 78 9000 4.6 30 13:58 14.01.2020
4482 Clouds 28 1008 79 6000 3.1 350 13:39 14.01.2020
4483 Clouds 28 1008 79 6000 3.1 350 13:19 14.01.2020
4484 Clouds 28 1008 70 6000 3.6 350 12:42 14.01.2020
4485 Clouds 29 1008 70 6000 3.6 350 12:22 14.01.2020
4486 Clouds 29 1008 74 10000 3.1 20 11:56 14.01.2020
4487 Clouds 29 1007 62 6000 2.6 340 11:37 14.01.2020
4488 Clouds 29 1007 62 6000 2.6 340 11:37 14.01.2020
4489 Clouds 30 1007 62 6000 2.6 340 11:19 14.01.2020
4490 Clouds 31 1007 58 6000 4.6 350 10:41 14.01.2020
4491 Clouds 31 1007 58 6000 4.6 350 10:20 14.01.2020
4492 Clouds 31 1007 66 10000 4.1 350 09:59 14.01.2020
4493 Clouds 31 1007 59 6000 7.7 360 09:40 14.01.2020
4494 Clouds 32 1007 59 6000 7.7 360 09:21 14.01.2020
4495 Clouds 31 1007 62 6000 4.1 330 08:56 14.01.2020
4496 Clouds 30 1008 62 10000 5.7 340 08:38 14.01.2020
4497 Clouds 31 1008 62 10000 5.7 340 08:19 14.01.2020
4498 Clouds 30 1008 62 6000 2.6 330 07:37 14.01.2020
4499 Clouds 31 1009 70 6000 2.1 270 06:59 14.01.2020
4500 Clouds 32 1009 70 6000 3.1 330 06:40 14.01.2020
4501 Clouds 31 1009 74 6000 1.5 320 05:33 14.01.2020
4502 Clouds 30 1010 70 6000 3.6 230 04:23 14.01.2020
4503 Clouds 31 1010 74 10000 3.6 340 03:43 14.01.2020
4504 Clouds 28 1010 83 6000 2.6 300 02:26 14.01.2020
4505 Clouds 27 1009 94 6000 2.1 240 01:18 14.01.2020
4506 Clouds 26 1009 94 6000 5.46 295 00:39 14.01.2020
4507 Clouds 26 1009 94 6000 5.46 295 00:21 14.01.2020
4508 Clouds 26 1009 88 6000 5.46 295 23:38 13.01.2020
4509 Clouds 26 1009 88 6000 5.34 270 23:18 13.01.2020
4510 Clouds 25 1008 88 6000 5.34 270 22:54 13.01.2020
4511 Clouds 26 1008 88 6000 5.34 270 22:36 13.01.2020
4512 Clouds 26 1008 88 6000 5.34 270 22:18 13.01.2020
4513 Clouds 26 1008 88 7000 1.5 330 21:54 13.01.2020
4514 Clouds 26 1008 88 7000 1.5 330 21:54 13.01.2020
4515 Clouds 26 1008 88 7000 1.5 330 21:54 13.01.2020
4516 Clouds 26 1009 88 7000 1.5 330 21:36 13.01.2020
4517 Clouds 26 1009 88 7000 1.5 330 21:18 13.01.2020
4518 Clouds 26 1009 88 7000 2.1 310 20:41 13.01.2020
4519 Clouds 26 1009 88 7000 2.1 310 20:22 13.01.2020
4520 Clouds 26 1008 88 7000 2.1 320 19:59 13.01.2020
4521 Clouds 26 1009 88 6000 1.5 280 19:40 13.01.2020
4522 Clouds 26 1009 88 6000 1.5 280 19:20 13.01.2020
4523 Rain 26 1009 94 6000 2.1 280 18:58 13.01.2020
4524 Clouds 26 1009 88 6000 2.1 320 18:37 13.01.2020
4525 Clouds 26 1009 88 6000 2.1 320 18:19 13.01.2020
4526 Clouds 27 1009 94 6000 2.6 290 17:55 13.01.2020
4527 Clouds 27 1009 78 6000 3.1 280 17:36 13.01.2020
4528 Clouds 27 1009 78 6000 3.1 280 17:18 13.01.2020
4529 Clouds 27 1011 72 0 0.89 36 16:40 13.01.2020
4530 Clouds 28 1011 71 0 0.89 17 16:21 13.01.2020
4531 Clouds 27 1011 71 0 0.89 314 15:55 13.01.2020
4532 Clouds 27 1011 70 0 1.34 327 15:36 13.01.2020
4533 Clouds 28 1003 69 0 5.57 264 15:18 13.01.2020
4534 Clouds 27 1011 70 0 0.89 1 14:42 13.01.2020
4535 Rain 27 1010 70 0 0.45 298 14:23 13.01.2020
4536 Rain 28 1010 70 0 0.89 359 13:57 13.01.2020
4537 Rain 28 1010 71 0 0.89 2 13:39 13.01.2020
4538 Rain 28 1010 72 0 0.89 43 13:21 13.01.2020
4539 Clouds 28 1006 74 6000 3.1 300 12:55 13.01.2020
4540 Clouds 28 1006 74 6000 3.1 300 12:36 13.01.2020
4541 Clouds 29 1006 74 6000 3.1 300 12:18 13.01.2020
4542 Clouds 30 1006 70 6000 2.6 340 11:39 13.01.2020
4543 Clouds 30 1006 70 6000 2.6 340 11:20 13.01.2020
4544 Clouds 31 1006 70 6000 3.1 320 10:57 13.01.2020
4545 Clouds 30 1006 74 6000 4.1 280 10:39 13.01.2020
4546 Clouds 31 1006 74 6000 4.1 280 10:20 13.01.2020
4547 Clouds 31 1006 74 6000 4.1 280 10:20 13.01.2020
4548 Rain 30 1006 79 6000 4.6 310 09:56 13.01.2020
4549 Rain 30 1006 70 6000 4.6 330 09:38 13.01.2020
4550 Rain 30 1006 70 6000 4.6 330 09:19 13.01.2020
4551 Clouds 31 1007 74 6000 4.1 20 08:39 13.01.2020
4552 Clouds 31 1007 74 6000 4.1 20 08:20 13.01.2020
4553 Clouds 30 1007 74 6000 4.1 340 07:46 13.01.2020
4554 Clouds 30 1007 66 6000 5.1 250 07:27 13.01.2020
4555 Clouds 29 1008 74 6000 4.6 270 06:42 13.01.2020
4556 Clouds 29 1008 74 6000 4.6 270 06:20 13.01.2020
4557 Rain 30 1008 74 5000 5.7 250 05:22 13.01.2020
4558 Rain 29 1009 78 6000 2.6 0 03:52 13.01.2020
4559 Rain 29 1009 83 5000 4.1 270 03:22 13.01.2020
4560 Haze 28 1009 88 5000 3.1 250 02:44 13.01.2020
4561 Haze 28 1009 88 5000 3.1 250 02:24 13.01.2020
4562 Rain 26 1008 94 5000 2.1 320 01:18 13.01.2020
4563 Mist 26 1013 94 2000 6.11 260 00:41 13.01.2020
4564 Mist 26 1013 94 2000 6.11 260 00:22 13.01.2020
4565 Mist 25 1013 94 2000 6.11 260 23:42 12.01.2020
4566 Mist 25 1013 94 2000 6.69 259 23:23 12.01.2020
4567 Clouds 25 1007 88 7000 1 280 22:58 12.01.2020
4568 Clouds 26 1008 83 7000 2.1 300 22:39 12.01.2020
4569 Clouds 26 1008 83 7000 2.1 300 22:21 12.01.2020
4570 Clouds 25 1007 88 7000 3.1 280 21:55 12.01.2020
4571 Clouds 25 1007 88 7000 3.1 280 21:55 12.01.2020
4572 Clouds 26 1007 83 7000 2.6 290 21:37 12.01.2020
4573 Clouds 26 1007 83 7000 2.6 290 21:19 12.01.2020
4574 Clouds 26 1007 83 7000 3.1 280 20:56 12.01.2020
4575 Clouds 26 1008 83 7000 3.1 300 20:37 12.01.2020
4576 Clouds 26 1008 83 7000 3.1 300 20:19 12.01.2020
4577 Clouds 26 1008 83 7000 3.1 280 19:55 12.01.2020
4578 Clouds 26 1008 83 7000 3.6 260 19:37 12.01.2020
4579 Clouds 26 1008 83 7000 3.6 260 19:18 12.01.2020
4580 Clouds 26 1008 83 7000 3.6 260 19:18 12.01.2020
4581 Clouds 26 1008 83 7000 2.1 280 18:57 12.01.2020
4582 Clouds 26 1009 83 7000 3.1 300 18:38 12.01.2020
4583 Clouds 26 1009 83 7000 3.1 300 18:20 12.01.2020
4584 Clouds 26 1009 83 7000 3.1 270 17:42 12.01.2020
4585 Clouds 26 1009 83 7000 3.1 270 17:23 12.01.2020
4586 Clouds 27 1009 83 7000 3.1 270 16:59 12.01.2020
4587 Clouds 26 1009 78 7000 3.1 260 16:39 12.01.2020
4588 Clouds 27 1009 78 7000 3.1 260 16:20 12.01.2020
4589 Clouds 27 1009 78 8000 3.1 250 15:57 12.01.2020
4590 Clouds 27 1009 78 8000 4.1 250 15:38 12.01.2020
4591 Clouds 27 1009 78 8000 4.1 250 15:20 12.01.2020
4592 Clouds 27 1008 78 8000 3.1 290 14:43 12.01.2020
4593 Clouds 28 1008 78 8000 3.1 290 14:24 12.01.2020
4594 Clouds 28 1008 83 8000 1.5 0 13:57 12.01.2020
4595 Clouds 28 1008 83 8000 1.5 0 13:57 12.01.2020
4596 Clouds 28 1008 78 8000 2.6 320 13:39 12.01.2020
4597 Clouds 29 1008 78 8000 2.6 320 13:20 12.01.2020
4598 Clouds 29 1008 78 8000 2.6 320 13:20 12.01.2020
4599 Clouds 29 1007 74 8000 3.6 340 12:57 12.01.2020
4600 Clouds 29 1006 70 6000 2.6 290 12:37 12.01.2020
4601 Clouds 30 1007 70 10000 3.6 330 12:19 12.01.2020
4602 Clouds 30 1006 74 6000 3.1 320 11:42 12.01.2020
4603 Clouds 31 1006 74 6000 3.1 320 11:22 12.01.2020
4604 Clouds 30 1006 70 10000 4.1 340 10:57 12.01.2020
4605 Clouds 30 1006 74 6000 4.1 360 10:39 12.01.2020
4606 Clouds 30 1006 74 6000 4.1 360 10:39 12.01.2020
4607 Clouds 31 1006 74 6000 4.1 360 10:20 12.01.2020
4608 Clouds 31 1006 66 10000 5.1 330 09:42 12.01.2020
4609 Clouds 32 1006 66 10000 5.1 330 09:23 12.01.2020
4610 Clouds 33 1006 62 10000 5.7 340 08:48 12.01.2020
4611 Clouds 32 1007 62 10000 5.1 330 08:24 12.01.2020
4612 Clouds 31 1007 66 10000 7.2 330 07:56 12.01.2020
4613 Rain 31 1008 79 6000 2.6 300 07:37 12.01.2020
4614 Rain 31 1008 79 6000 2.6 300 07:19 12.01.2020
4615 Clouds 32 1009 66 10000 5.7 330 06:38 12.01.2020
4616 Clouds 32 1009 70 10000 6.2 340 05:58 12.01.2020
4617 Clouds 31 1009 70 10000 6.2 310 04:56 12.01.2020
4618 Clouds 32 1010 70 10000 5.1 280 03:44 12.01.2020
4619 Clouds 31 1010 70 9000 5.1 280 02:52 12.01.2020
4620 Clouds 29 1010 74 6000 4.1 240 02:27 12.01.2020
4621 Clouds 27 1009 88 6000 3.1 210 01:35 12.01.2020
4622 Clouds 26 1009 88 6000 1.5 240 00:57 12.01.2020
4623 Clouds 26 1009 88 6000 2.1 240 00:37 12.01.2020
4624 Clouds 25 1009 88 6000 2.1 240 00:18 12.01.2020
4625 Haze 25 1008 88 5000 2.1 230 23:41 11.01.2020
4626 Haze 25 1008 88 5000 2.1 230 23:19 11.01.2020
4627 Clouds 25 1008 83 7000 3.6 240 22:56 11.01.2020
4628 Clouds 25 1008 88 7000 3.6 230 22:38 11.01.2020
4629 Clouds 25 1008 88 7000 3.6 230 22:20 11.01.2020
4630 Clouds 25 1008 83 7000 3.6 240 21:54 11.01.2020
4631 Clouds 25 1008 83 7000 3.6 240 21:36 11.01.2020
4632 Clouds 25 1008 83 7000 3.6 240 21:18 11.01.2020
4633 Clouds 25 1009 88 7000 4.1 250 20:39 11.01.2020
4634 Clouds 26 1009 88 7000 4.1 250 20:20 11.01.2020
4635 Clouds 26 1009 88 7000 4.1 250 19:58 11.01.2020
4636 Clouds 26 1009 83 7000 4.6 250 19:38 11.01.2020
4637 Clouds 26 1009 83 7000 4.6 250 19:20 11.01.2020
4638 Clouds 26 1010 83 7000 4.1 260 18:56 11.01.2020
4639 Clouds 26 1010 83 7000 5.1 240 18:37 11.01.2020
4640 Clouds 26 1010 83 7000 5.1 240 18:19 11.01.2020
4641 Clouds 26 1010 83 7000 5.1 240 18:19 11.01.2020
4642 Clouds 26 1010 83 7000 4.6 240 17:57 11.01.2020
4643 Clouds 26 1010 83 7000 2.6 280 17:39 11.01.2020
4644 Clouds 27 1010 83 7000 2.6 280 17:18 11.01.2020
4645 Clouds 26 1010 83 7000 3.6 270 16:44 11.01.2020
4646 Clouds 26 1010 83 7000 3.6 270 16:25 11.01.2020
4647 Clouds 27 1010 78 7000 4.1 250 15:57 11.01.2020
4648 Clouds 27 1010 78 7000 5.1 240 15:39 11.01.2020
4649 Clouds 27 1010 78 7000 5.1 240 15:20 11.01.2020
4650 Clouds 27 1009 78 7000 6.2 240 14:47 11.01.2020
4651 Clouds 27 1009 78 7000 6.2 250 14:26 11.01.2020
4652 Clouds 27 1009 78 8000 5.7 250 13:59 11.01.2020
4653 Clouds 27 1009 78 6000 3.6 260 13:38 11.01.2020
4654 Clouds 27 1009 78 6000 3.6 260 13:20 11.01.2020
4655 Clouds 27 1009 78 9000 5.7 260 12:56 11.01.2020
4656 Clouds 28 1008 78 6000 3.1 260 12:38 11.01.2020
4657 Clouds 28 1008 78 6000 3.1 260 12:20 11.01.2020
4658 Clouds 28 1008 69 10000 6.7 270 11:45 11.01.2020
4659 Clouds 29 1008 74 6000 3.6 270 11:24 11.01.2020
4660 Clouds 29 1008 69 10000 6.7 260 10:50 11.01.2020
4661 Clouds 30 1007 70 6000 5.1 270 10:30 11.01.2020
4662 Clouds 30 1008 62 10000 7.2 260 09:44 11.01.2020
4663 Clouds 30 1007 74 6000 5.1 240 09:21 11.01.2020
4664 Clouds 30 1007 74 6000 5.1 240 09:21 11.01.2020
4665 Clouds 30 1007 74 6000 5.1 240 09:21 11.01.2020
4666 Clouds 30 1007 74 6000 5.1 240 09:21 11.01.2020
4667 Clouds 31 1008 58 10000 8.2 280 08:59 11.01.2020
4668 Clouds 31 1008 58 10000 8.7 290 08:41 11.01.2020
4669 Clouds 31 1008 58 10000 8.7 290 08:20 11.01.2020
4670 Rain 32 1009 70 5000 8.2 260 07:43 11.01.2020
4671 Rain 31 1009 70 5000 8.2 260 07:24 11.01.2020
4672 Rain 28 1010 83 5000 6.2 250 06:45 11.01.2020
4673 Haze 29 1010 74 5000 3.6 270 05:31 11.01.2020
4674 Haze 30 1010 79 5000 4.1 270 04:43 11.01.2020
4675 Haze 30 1010 79 5000 4.1 270 04:25 11.01.2020
4676 Haze 28 1010 88 5000 3.1 250 02:48 11.01.2020
4677 Haze 27 1010 94 5000 1.5 270 01:48 11.01.2020
4678 Haze 26 1010 94 4000 2.6 260 01:30 11.01.2020
4679 Haze 25 1009 94 5000 5.31 258 00:58 11.01.2020
4680 Haze 25 1009 94 5000 5.31 258 00:58 11.01.2020
4681 Haze 25 1009 100 5000 5.31 258 00:29 11.01.2020
4682 Mist 24 1009 100 4000 5.31 258 23:59 10.01.2020
4683 Mist 24 1009 100 4000 5.31 258 23:39 10.01.2020
4684 Mist 24 1009 100 4000 5.31 258 23:39 10.01.2020
4685 Mist 24 1009 100 4000 5.54 270 23:21 10.01.2020
4686 Mist 24 1009 100 4000 5.54 270 22:55 10.01.2020
4687 Mist 24 1009 100 4000 5.54 270 22:37 10.01.2020
4688 Mist 24 1009 100 4000 5.54 270 22:18 10.01.2020
4689 Mist 24 1009 94 3500 2.6 260 21:54 10.01.2020
4690 Mist 24 1009 94 3000 1.5 270 21:36 10.01.2020
4691 Mist 24 1009 94 3000 1.5 270 21:18 10.01.2020
4692 Mist 24 1009 94 4000 1.5 300 20:42 10.01.2020
4693 Mist 24 1009 94 4000 1.5 300 20:24 10.01.2020
4694 Mist 24 1009 94 4000 1.5 300 20:24 10.01.2020
4695 Mist 24 1009 94 4000 1.5 310 19:55 10.01.2020
4696 Mist 24 1009 94 4000 1.5 260 19:37 10.01.2020
4697 Mist 24 1009 94 4000 1.5 260 19:19 10.01.2020
4698 Rain 24 1010 94 4000 1.5 290 18:41 10.01.2020
4699 Rain 24 1010 94 4000 1.5 290 18:19 10.01.2020
4700 Mist 24 1010 94 4000 1 310 17:57 10.01.2020
4701 Rain 25 1011 88 4000 1.5 270 17:39 10.01.2020
4702 Rain 25 1011 88 4000 1.5 270 17:20 10.01.2020
4703 Rain 25 1011 88 4000 1.5 270 17:20 10.01.2020
4704 Rain 25 1010 88 4000 2.1 0 16:55 10.01.2020
4705 Rain 25 1010 94 4000 2.1 240 16:37 10.01.2020
4706 Rain 25 1010 94 4000 2.1 240 16:19 10.01.2020
4707 Rain 25 1010 94 4000 1.5 240 15:55 10.01.2020
4708 Rain 25 1010 94 4000 1 260 15:36 10.01.2020
4709 Rain 25 1010 94 4000 1 260 15:18 10.01.2020
4710 Rain 25 1010 94 4000 1 360 14:54 10.01.2020
4711 Rain 25 1010 88 4000 1.5 0 14:36 10.01.2020
4712 Rain 25 1010 88 4000 1.5 0 14:18 10.01.2020
4713 Haze 25 1009 94 4000 2.6 250 13:41 10.01.2020
4714 Haze 25 1009 94 4000 2.6 250 13:23 10.01.2020
4715 Haze 27 1009 94 4000 6.15 257 12:58 10.01.2020
4716 Haze 27 1008 94 5000 6.15 257 12:38 10.01.2020
4717 Haze 27 1008 94 5000 6.15 257 12:19 10.01.2020
4718 Rain 27 1008 94 5000 1.5 310 11:55 10.01.2020
4719 Rain 27 1008 94 5000 1.5 280 11:37 10.01.2020
4720 Rain 27 1008 94 5000 1.5 280 11:18 10.01.2020
4721 Rain 27 1008 94 2500 1.5 270 10:43 10.01.2020
4722 Rain 27 1008 94 2500 1.5 270 10:24 10.01.2020
4723 Rain 27 1008 94 4000 2.1 280 09:56 10.01.2020
4724 Rain 27 1008 94 5000 2.6 250 09:38 10.01.2020
4725 Rain 27 1008 94 5000 2.6 250 09:20 10.01.2020
4726 Rain 27 1008 88 5000 2.6 240 08:43 10.01.2020
4727 Rain 28 1008 88 5000 2.6 240 08:23 10.01.2020
4728 Rain 28 1008 83 7000 3.1 280 07:46 10.01.2020
4729 Rain 28 1009 83 10000 4.1 290 07:28 10.01.2020
4730 Rain 28 1009 88 6000 5.1 240 06:50 10.01.2020
4731 Rain 28 1010 83 6000 3.6 280 06:26 10.01.2020
4732 Rain 28 1010 83 7000 4.6 290 05:51 10.01.2020
4733 Rain 27 1010 94 5000 4.1 250 03:46 10.01.2020
4734 Rain 27 1010 94 5000 4.1 250 03:46 10.01.2020
4735 Rain 27 1010 94 5000 1.5 270 03:27 10.01.2020
4736 Rain 26 1010 94 5000 3.1 300 02:50 10.01.2020
4737 Rain 25 1010 94 6000 2.6 270 01:49 10.01.2020
4738 Rain 25 1009 100 5000 2.1 260 01:28 10.01.2020
4739 Clouds 24 1009 94 6000 3.1 270 00:44 10.01.2020
4740 Rain 24 1009 100 5000 2.6 260 00:19 10.01.2020
4741 Rain 24 1008 100 4000 4.1 280 23:39 09.01.2020
4742 Rain 24 1008 100 4000 4.1 280 23:39 09.01.2020
4743 Rain 24 1008 100 4000 4.1 280 23:39 09.01.2020
4744 Rain 24 1008 100 4000 4.1 280 23:20 09.01.2020
4745 Rain 24 1008 88 5000 5.1 250 22:58 09.01.2020
4746 Rain 24 1008 88 5000 5.1 250 22:58 09.01.2020
4747 Rain 24 1008 88 6000 5.1 250 22:39 09.01.2020
4748 Rain 24 1008 88 6000 5.1 250 22:19 09.01.2020
4749 Rain 24 1008 94 6000 5.1 260 21:57 09.01.2020
4750 Rain 24 1008 88 5000 6.2 260 21:38 09.01.2020
4751 Rain 24 1008 88 5000 6.2 260 21:20 09.01.2020
4752 Rain 24 1008 94 3000 6.7 270 20:58 09.01.2020
4753 Rain 24 1008 94 3000 6.7 270 20:39 09.01.2020
4754 Rain 24 1009 94 3000 7.7 260 20:20 09.01.2020
4755 Rain 24 1009 94 4000 4.6 260 19:58 09.01.2020
4756 Rain 25 1009 94 4000 5.1 250 19:39 09.01.2020
4757 Rain 25 1009 94 4000 5.1 250 19:20 09.01.2020
4758 Rain 25 1009 94 4000 6.2 270 18:56 09.01.2020
4759 Rain 25 1009 88 4000 7.2 270 18:37 09.01.2020
4760 Rain 25 1009 88 4000 7.2 270 18:19 09.01.2020
4761 Thunderstorm 26 1009 83 6000 7.2 250 17:41 09.01.2020
4762 Thunderstorm 26 1009 83 6000 7.2 250 17:19 09.01.2020
4763 Thunderstorm 26 1009 83 6000 7.2 240 16:56 09.01.2020
4764 Thunderstorm 26 1009 83 6000 6.7 260 16:37 09.01.2020
4765 Thunderstorm 26 1009 83 6000 6.7 260 16:19 09.01.2020
4766 Thunderstorm 26 1009 83 6000 6.7 260 15:42 09.01.2020
4767 Thunderstorm 27 1008 78 6000 4.1 240 15:21 09.01.2020
4768 Clouds 27 1008 83 6000 3.6 240 14:55 09.01.2020
4769 Clouds 27 1008 83 6000 4.1 240 14:37 09.01.2020
4770 Clouds 27 1008 83 6000 4.1 240 14:18 09.01.2020
4771 Clouds 28 1008 78 7000 4.1 230 13:55 09.01.2020
4772 Clouds 28 1008 78 8000 1 300 13:37 09.01.2020
4773 Clouds 28 1008 78 8000 1 300 13:18 09.01.2020
4774 Clouds 28 1007 74 8000 1.5 330 12:42 09.01.2020
4775 Clouds 28 1007 74 8000 1.5 330 12:42 09.01.2020
4776 Clouds 28 1007 74 8000 1.5 330 12:23 09.01.2020
4777 Clouds 29 1007 74 9000 1.5 330 11:59 09.01.2020
4778 Rain 29 1006 88 5000 2.1 170 11:41 09.01.2020
4779 Rain 29 1006 88 5000 2.1 170 11:23 09.01.2020
4780 Clouds 29 1006 74 9000 3.1 310 10:56 09.01.2020
4781 Rain 30 1006 88 5000 2.6 200 10:37 09.01.2020
4782 Rain 30 1006 88 5000 2.6 200 10:19 09.01.2020
4783 Rain 30 1006 88 5000 2.6 200 10:19 09.01.2020
4784 Clouds 30 1006 74 9000 3.1 310 09:41 09.01.2020
4785 Rain 30 1006 83 5000 2.6 240 09:22 09.01.2020
4786 Clouds 30 1007 74 8000 4.6 320 08:56 09.01.2020
4787 Rain 30 1007 79 5000 2.1 290 08:37 09.01.2020
4788 Rain 30 1007 79 5000 2.1 290 08:19 09.01.2020
4789 Clouds 29 1008 74 8000 5.1 340 07:44 09.01.2020
4790 Rain 29 1008 83 5000 2.6 300 07:24 09.01.2020
4791 Rain 29 1009 83 4000 3.6 310 06:39 09.01.2020
4792 Rain 29 1009 83 4000 3.6 310 06:21 09.01.2020
4793 Rain 29 1009 78 6000 4.6 320 05:50 09.01.2020
4794 Clouds 28 1009 78 6000 5.7 330 04:45 09.01.2020
4795 Clouds 29 1009 78 6000 6.2 320 03:54 09.01.2020
4796 Rain 28 1009 83 5000 5.7 320 03:26 09.01.2020
4797 Rain 27 1009 100 3000 3.1 270 02:30 09.01.2020
4798 Rain 27 1009 100 2000 2.1 220 01:40 09.01.2020
4799 Rain 26 1008 100 2500 1.5 230 00:44 09.01.2020
4800 Mist 26 1008 88 5000 4.1 310 00:22 09.01.2020
4801 Mist 26 1007 94 5000 3.6 330 23:56 08.01.2020
4802 Rain 26 1007 100 3000 1.5 280 23:37 08.01.2020
4803 Rain 26 1007 100 3000 1.5 280 23:19 08.01.2020
4804 Thunderstorm 26 1007 100 3000 2.1 240 22:40 08.01.2020
4805 Clouds 26 1007 88 6000 3.1 260 22:21 08.01.2020
4806 Mist 26 1007 94 5000 3.1 260 21:58 08.01.2020
4807 Thunderstorm 26 1007 94 5000 1.5 260 21:39 08.01.2020
4808 Thunderstorm 25 1007 94 5000 1.5 260 21:20 08.01.2020
4809 Rain 26 1007 88 5000 3.6 310 20:58 08.01.2020
4810 Rain 26 1007 94 5000 4.1 310 20:40 08.01.2020
4811 Rain 26 1007 94 5000 4.1 310 20:20 08.01.2020
4812 Rain 26 1007 94 5000 4.1 310 20:20 08.01.2020
4813 Rain 26 1007 94 4000 6.7 320 19:57 08.01.2020
4814 Rain 26 1008 94 3000 2.6 330 19:37 08.01.2020
4815 Rain 26 1008 94 3000 2.6 330 19:19 08.01.2020
4816 Haze 27 1008 83 2500 2.1 0 18:56 08.01.2020
4817 Haze 27 1008 88 2000 1 0 18:37 08.01.2020
4818 Haze 27 1008 88 2000 1 0 18:18 08.01.2020
4819 Haze 27 1009 83 3000 0.5 120 17:56 08.01.2020
4820 Haze 27 1009 83 3500 1 0 17:37 08.01.2020
4821 Haze 27 1009 83 3500 1 0 17:18 08.01.2020
4822 Haze 28 1009 78 3500 2.1 0 16:54 08.01.2020
4823 Haze 27 1009 83 2500 1.5 130 16:36 08.01.2020
4824 Haze 27 1009 83 2500 1.5 130 16:18 08.01.2020
4825 Haze 28 1008 78 3000 1.5 0 15:41 08.01.2020
4826 Haze 28 1009 78 2500 1.5 0 15:21 08.01.2020
4827 Haze 28 1009 83 2500 1.5 0 14:57 08.01.2020
4828 Haze 27 1008 83 3500 1.5 0 14:39 08.01.2020
4829 Haze 27 1008 83 3500 1.5 0 14:20 08.01.2020
4830 Haze 28 1008 83 5000 2.1 0 13:40 08.01.2020
4831 Haze 28 1008 78 5000 2.1 0 13:40 08.01.2020
4832 Haze 27 1008 83 5000 2.1 0 13:19 08.01.2020
4833 Haze 28 1007 78 5000 2.1 0 12:42 08.01.2020
4834 Haze 28 1007 83 2500 1.5 200 12:20 08.01.2020
4835 Clouds 28 1006 83 6000 2.6 0 11:59 08.01.2020
4836 Clouds 28 1006 83 6000 2.6 0 11:40 08.01.2020
4837 Haze 28 1006 83 3000 2.6 210 11:19 08.01.2020
4838 Haze 28 1006 88 3000 2.6 210 10:55 08.01.2020
4839 Haze 28 1006 94 3000 2.6 230 10:37 08.01.2020
4840 Haze 28 1006 94 3000 2.6 230 10:37 08.01.2020
4841 Haze 28 1006 94 3000 2.6 230 10:19 08.01.2020
4842 Haze 29 1006 88 3000 3.6 230 09:42 08.01.2020
4843 Clouds 28 1006 74 7000 2.6 310 09:19 08.01.2020
4844 Clouds 29 1006 78 7000 3.1 300 08:57 08.01.2020
4845 Haze 29 1007 88 4000 3.1 240 08:37 08.01.2020
4846 Haze 28 1007 88 4000 3.1 240 08:19 08.01.2020
4847 Clouds 28 1007 74 7000 4.6 330 07:49 08.01.2020
4848 Rain 29 1008 94 4000 2.1 290 07:30 08.01.2020
4849 Clouds 29 1008 74 7000 4.1 330 06:48 08.01.2020
4850 Thunderstorm 29 1009 74 7000 6.2 330 06:24 08.01.2020
4851 Clouds 29 1009 74 7000 5.7 330 05:53 08.01.2020
4852 Clouds 30 1009 74 7000 4.1 330 04:57 08.01.2020
4853 Rain 30 1009 83 6000 5.1 340 04:26 08.01.2020
4854 Clouds 30 1010 74 6000 2.6 0 02:45 08.01.2020
4855 Haze 29 1010 83 5000 2.1 230 02:22 08.01.2020
4856 Haze 28 1009 83 5000 1.5 220 01:50 08.01.2020
4857 Haze 27 1009 94 5000 1.5 250 01:23 08.01.2020
4858 Haze 26 1008 94 5000 1.5 270 00:38 08.01.2020
4859 Haze 26 1008 94 5000 1.5 270 00:20 08.01.2020
4860 Haze 26 1008 88 5000 5.48 283 23:43 07.01.2020
4861 Haze 26 1008 88 5000 1.5 220 23:20 07.01.2020
4862 Haze 26 1008 88 5000 1.5 220 23:20 07.01.2020
4863 Haze 26 1008 100 5000 2.1 270 22:40 07.01.2020
4864 Haze 26 1008 100 5000 2.1 270 22:20 07.01.2020
4865 Clouds 26 1008 88 6000 1.5 270 21:57 07.01.2020
4866 Clouds 26 1008 83 6000 1.5 270 21:38 07.01.2020
4867 Clouds 26 1008 83 6000 1.5 270 21:38 07.01.2020
4868 Clouds 26 1008 83 6000 1.5 270 21:20 07.01.2020
4869 Clouds 26 1008 83 6000 1.5 280 20:56 07.01.2020
4870 Clouds 26 1008 83 6000 2.1 270 20:38 07.01.2020
4871 Clouds 26 1008 83 6000 2.1 270 20:19 07.01.2020
4872 Clouds 26 1009 83 6000 1 310 19:38 07.01.2020
4873 Clouds 27 1009 83 6000 1 310 19:20 07.01.2020
4874 Clouds 26 1009 88 6000 2.1 260 18:58 07.01.2020
4875 Clouds 26 1009 83 7000 3.6 310 18:40 07.01.2020
4876 Clouds 27 1009 83 7000 3.6 310 18:19 07.01.2020
4877 Clouds 27 1010 83 7000 3.6 310 18:00 07.01.2020
4878 Clouds 27 1010 83 7000 3.6 290 17:39 07.01.2020
4879 Clouds 27 1010 83 7000 3.6 290 17:21 07.01.2020
4880 Clouds 27 1010 83 6000 3.6 280 16:57 07.01.2020
4881 Haze 27 1009 83 5000 4.1 250 16:38 07.01.2020
4882 Haze 27 1009 83 5000 4.1 250 16:19 07.01.2020
4883 Haze 27 1009 88 5000 4.6 250 15:58 07.01.2020
4884 Haze 27 1009 88 5000 4.1 260 15:40 07.01.2020
4885 Haze 27 1009 88 5000 4.1 260 15:22 07.01.2020
4886 Haze 27 1009 88 5000 4.1 260 15:22 07.01.2020
4887 Clouds 27 1009 83 6000 2.6 280 14:55 07.01.2020
4888 Haze 27 1009 88 5000 1.5 300 14:37 07.01.2020
4889 Haze 27 1009 88 5000 1.5 300 14:18 07.01.2020
4890 Rain 27 1008 88 5000 2.1 340 13:39 07.01.2020
4891 Rain 27 1008 88 5000 2.1 340 13:19 07.01.2020
4892 Haze 28 1008 79 5000 2.1 350 12:41 07.01.2020
4893 Haze 29 1008 79 5000 2.1 350 12:20 07.01.2020
4894 Haze 28 1007 79 5000 2.1 290 11:57 07.01.2020
4895 Haze 28 1007 79 5000 2.6 310 11:38 07.01.2020
4896 Haze 29 1007 79 5000 2.6 310 11:20 07.01.2020
4897 Haze 30 1007 79 5000 3.6 270 10:42 07.01.2020
4898 Haze 28 1006 83 5000 3.1 300 10:24 07.01.2020
4899 Haze 28 1006 83 5000 3.1 280 09:58 07.01.2020
4900 Rain 28 1006 94 4000 2.6 290 09:38 07.01.2020
4901 Rain 28 1006 94 4000 2.6 290 09:20 07.01.2020
4902 Thunderstorm 29 1007 100 4000 3.1 300 08:43 07.01.2020
4903 Thunderstorm 29 1007 83 3000 3.1 320 08:25 07.01.2020
4904 Thunderstorm 30 1008 83 5000 3.6 320 07:54 07.01.2020
4905 Rain 30 1008 88 5000 4.1 330 07:28 07.01.2020
4906 Rain 30 1008 88 5000 4.1 330 07:28 07.01.2020
4907 Rain 30 1008 70 5000 4.1 320 06:53 07.01.2020
4908 Rain 30 1008 70 6000 4.6 250 06:34 07.01.2020
4909 Rain 30 1009 70 6000 5.7 240 05:55 07.01.2020
4910 Clouds 29 1010 70 6000 4.6 300 04:41 07.01.2020
4911 Clouds 29 1010 70 6000 4.6 300 04:41 07.01.2020
4912 Clouds 28 1010 79 6000 6.2 260 03:29 07.01.2020
4913 Haze 26 1010 100 5000 5.69 293 02:22 07.01.2020
4914 Clouds 26 1010 88 6000 3.6 250 01:54 07.01.2020
4915 Haze 26 1010 100 5000 5.67 278 01:30 07.01.2020
4916 Rain 25 1010 94 4000 6.13 284 00:37 07.01.2020
4917 Rain 25 1010 94 4000 6.13 284 00:18 07.01.2020
4918 Thunderstorm 25 1009 94 5000 2.6 0 23:55 06.01.2020
4919 Thunderstorm 25 1009 88 3500 5.1 230 23:36 06.01.2020
4920 Thunderstorm 24 1009 88 3500 5.1 230 23:18 06.01.2020
4921 Clouds 24 1008 88 6000 4.6 230 22:42 06.01.2020
4922 Clouds 24 1008 88 6000 3.1 240 22:22 06.01.2020
4923 Clouds 24 1008 88 6000 4.6 220 21:56 06.01.2020
4924 Clouds 24 1008 94 6000 4.1 230 21:38 06.01.2020
4925 Clouds 24 1008 94 6000 4.1 230 21:19 06.01.2020
4926 Haze 25 1009 88 5000 4.1 240 20:56 06.01.2020
4927 Haze 25 1009 88 5000 2.6 250 20:37 06.01.2020
4928 Haze 25 1009 88 5000 2.6 250 20:19 06.01.2020
4929 Haze 25 1009 88 5000 2.1 230 19:55 06.01.2020
4930 Haze 25 1009 88 5000 3.1 250 19:37 06.01.2020
4931 Haze 25 1009 88 5000 3.1 250 19:19 06.01.2020
4932 Haze 26 1010 83 5000 2.1 0 18:45 06.01.2020
4933 Haze 26 1010 83 5000 2.1 0 18:21 06.01.2020
4934 Haze 26 1011 83 5000 1 320 17:56 06.01.2020
4935 Haze 26 1010 83 5000 2.1 0 17:37 06.01.2020
4936 Haze 26 1010 83 5000 2.1 0 17:18 06.01.2020
4937 Rain 26 1011 83 6000 3.1 280 16:42 06.01.2020
4938 Rain 26 1011 83 6000 3.1 280 16:42 06.01.2020
4939 Rain 26 1011 83 6000 3.1 280 16:23 06.01.2020
4940 Clouds 26 1011 83 6000 1 350 15:59 06.01.2020
4941 Clouds 26 1011 83 6000 1.5 20 15:38 06.01.2020
4942 Clouds 26 1011 83 6000 1.5 20 15:18 06.01.2020
4943 Thunderstorm 26 1011 88 5000 1.5 20 14:42 06.01.2020
4944 Thunderstorm 27 1010 83 5000 1.5 0 14:23 06.01.2020
4945 Thunderstorm 27 1010 83 5000 1.5 0 14:23 06.01.2020
4946 Thunderstorm 27 1009 78 5000 2.1 0 13:59 06.01.2020
4947 Thunderstorm 27 1009 88 5000 1 0 13:40 06.01.2020
4948 Thunderstorm 27 1009 88 5000 1 0 13:22 06.01.2020
4949 Haze 27 1009 78 5000 0.5 0 12:59 06.01.2020
4950 Thunderstorm 27 1009 94 5000 1.5 280 12:41 06.01.2020
4951 Thunderstorm 27 1009 94 5000 1.5 280 12:20 06.01.2020
4952 Haze 27 1008 83 5000 2.6 0 11:55 06.01.2020
4953 Rain 28 1008 79 6000 1.5 350 11:37 06.01.2020
4954 Rain 28 1008 79 6000 1.5 350 11:18 06.01.2020
4955 Rain 29 1007 79 5000 1 0 10:42 06.01.2020
4956 Rain 29 1007 79 5000 2.6 330 10:21 06.01.2020
4957 Rain 30 1008 83 3000 2.1 0 09:42 06.01.2020
4958 Rain 30 1008 79 5000 1.5 280 09:24 06.01.2020
4959 Clouds 30 1008 70 9000 6.7 340 08:58 06.01.2020
4960 Clouds 30 1008 70 9000 5.7 350 08:39 06.01.2020
4961 Clouds 31 1008 70 9000 5.7 350 08:21 06.01.2020
4962 Clouds 30 1009 70 8000 4.6 330 07:45 06.01.2020
4963 Clouds 30 1009 70 8000 6.7 330 06:55 06.01.2020
4964 Rain 30 1009 79 4000 3.1 250 06:35 06.01.2020
4965 Clouds 29 1010 74 8000 7.2 330 05:48 06.01.2020
4966 Rain 29 1010 83 1800 2.6 330 05:28 06.01.2020
4967 Rain 28 1011 94 4000 2.1 230 04:24 06.01.2020
4968 Rain 27 1011 94 4000 1.5 220 03:51 06.01.2020
4969 Rain 26 1011 100 5000 1.5 240 02:29 06.01.2020
4970 Rain 26 1011 100 4000 1.5 280 01:54 06.01.2020
4971 Rain 25 1010 100 4000 1.5 260 01:31 06.01.2020
4972 Thunderstorm 25 1009 88 5000 1.5 250 00:46 06.01.2020
4973 Thunderstorm 25 1010 100 2000 3.1 220 00:28 06.01.2020
4974 Thunderstorm 25 1010 94 4000 4.1 290 23:58 05.01.2020
4975 Thunderstorm 25 1009 100 2000 4.6 250 23:39 05.01.2020
4976 Thunderstorm 25 1009 100 2000 4.6 250 23:21 05.01.2020
4977 Haze 26 1009 94 3000 2.1 230 22:40 05.01.2020
4978 Haze 26 1008 94 3000 2.1 240 22:21 05.01.2020
4979 Thunderstorm 26 1008 88 4000 3.6 270 21:58 05.01.2020
4980 Haze 26 1008 94 4000 3.1 280 21:40 05.01.2020
4981 Haze 26 1008 94 4000 3.1 280 21:20 05.01.2020
4982 Haze 26 1008 94 4000 3.1 270 20:58 05.01.2020
4983 Haze 26 1008 94 5000 2.6 270 20:39 05.01.2020
4984 Haze 26 1008 94 5000 2.6 270 20:19 05.01.2020
4985 Haze 26 1009 94 5000 2.1 280 19:58 05.01.2020
4986 Haze 26 1009 94 5000 1.5 290 19:39 05.01.2020
4987 Haze 26 1009 94 5000 1.5 290 19:39 05.01.2020
4988 Haze 26 1009 94 5000 1.5 290 19:20 05.01.2020
4989 Haze 26 1009 94 5000 1.5 290 18:56 05.01.2020
4990 Haze 26 1010 94 5000 1.5 280 18:37 05.01.2020
4991 Haze 26 1010 94 5000 1.5 280 18:19 05.01.2020
4992 Haze 27 1010 88 5000 1.5 330 17:58 05.01.2020
4993 Haze 27 1010 94 5000 2.1 320 17:39 05.01.2020
4994 Haze 27 1010 94 5000 2.1 320 17:20 05.01.2020
4995 Haze 27 1010 94 5000 1.5 300 16:56 05.01.2020
4996 Haze 27 1011 88 5000 1.5 330 16:38 05.01.2020
4997 Haze 27 1011 88 5000 1.5 330 16:19 05.01.2020
4998 Clouds 27 1010 94 6000 2.1 280 15:39 05.01.2020
4999 Clouds 27 1010 94 6000 2.1 280 15:39 05.01.2020
5000 Clouds 27 1010 94 6000 2.1 280 15:20 05.01.2020
5001 Clouds 27 1010 88 6000 1.5 20 14:56 05.01.2020
5002 Thunderstorm 27 1010 88 6000 1.5 0 14:38 05.01.2020
5003 Thunderstorm 27 1010 88 6000 1.5 0 14:20 05.01.2020
5004 Thunderstorm 27 1009 88 5000 2.6 0 13:56 05.01.2020
5005 Rain 27 1009 88 4000 1.5 210 13:38 05.01.2020
5006 Rain 27 1009 88 4000 1.5 210 13:19 05.01.2020
5007 Thunderstorm 28 1009 88 4000 1.5 0 12:56 05.01.2020
5008 Haze 28 1008 83 5000 2.6 210 12:37 05.01.2020
5009 Haze 28 1008 83 5000 2.6 210 12:19 05.01.2020
5010 Clouds 29 1008 79 7000 2.6 290 11:44 05.01.2020
5011 Clouds 29 1008 79 7000 2.6 290 11:44 05.01.2020
5012 Haze 29 1008 88 5000 2.6 210 11:20 05.01.2020
5013 Haze 29 1008 88 5000 2.6 210 11:20 05.01.2020
5014 Clouds 29 1008 79 9000 1.5 0 10:59 05.01.2020
5015 Haze 29 1008 79 5000 1.5 260 10:40 05.01.2020
5016 Haze 29 1008 79 5000 1.5 260 10:19 05.01.2020
5017 Haze 30 1008 79 5000 2.6 290 09:42 05.01.2020
5018 Haze 30 1008 79 5000 2.6 280 09:22 05.01.2020
5019 Clouds 30 1008 74 8000 4.6 310 08:52 05.01.2020
5020 Clouds 30 1008 74 8000 3.6 320 08:32 05.01.2020
5021 Rain 29 1009 83 3000 2.1 250 07:59 05.01.2020
5022 Rain 29 1009 83 3000 2.1 260 07:39 05.01.2020
5023 Rain 29 1009 83 3000 2.1 260 07:20 05.01.2020
5024 Clouds 28 1009 78 8000 3.6 320 06:44 05.01.2020
5025 Rain 28 1010 94 3000 2.6 280 05:38 05.01.2020
5026 Rain 27 1010 88 5000 4.1 300 04:55 05.01.2020
5027 Rain 27 1011 94 3000 2.6 270 04:18 05.01.2020
5028 Rain 27 1011 94 3000 2.6 270 04:18 05.01.2020
5029 Thunderstorm 26 1011 100 3000 3.6 300 03:26 05.01.2020
5030 Clouds 26 1011 94 1000 2.6 330 02:32 05.01.2020
5031 Thunderstorm 26 1010 88 2000 7.2 340 01:49 05.01.2020
5032 Clouds 27 1010 88 6000 2.1 270 01:20 05.01.2020
5033 Thunderstorm 27 1009 94 5000 4.6 310 00:57 05.01.2020
5034 Haze 27 1008 88 5000 2.6 280 00:39 05.01.2020
5035 Haze 26 1008 88 5000 2.6 280 00:19 05.01.2020
5036 Thunderstorm 26 1008 88 7000 3.1 310 23:41 04.01.2020
5037 Thunderstorm 26 1008 88 7000 3.1 310 23:20 04.01.2020
5038 Clouds 26 1008 88 7000 1.5 330 22:55 04.01.2020
5039 Clouds 26 1007 88 7000 2.1 280 22:37 04.01.2020
5040 Clouds 26 1007 88 7000 2.1 280 22:19 04.01.2020
5041 Clouds 26 1007 94 7000 2.6 270 21:55 04.01.2020
5042 Clouds 26 1007 88 7000 3.1 280 21:36 04.01.2020
5043 Clouds 26 1007 88 7000 3.1 280 21:18 04.01.2020
5044 Clouds 26 1008 88 7000 2.1 320 20:41 04.01.2020
5045 Clouds 26 1008 88 7000 2.1 320 20:22 04.01.2020
5046 Clouds 27 1009 88 6000 2.1 10 19:57 04.01.2020
5047 Thunderstorm 27 1009 83 6000 3.6 360 19:39 04.01.2020
5048 Thunderstorm 27 1009 83 6000 3.6 360 19:20 04.01.2020
5049 Thunderstorm 27 1010 88 6000 3.6 350 18:56 04.01.2020
5050 Thunderstorm 28 1010 78 6000 2.6 10 18:38 04.01.2020
5051 Thunderstorm 28 1010 78 6000 2.6 10 18:19 04.01.2020
5052 Clouds 27 1010 83 6000 3.1 280 17:42 04.01.2020
5053 Clouds 27 1010 83 6000 3.1 280 17:24 04.01.2020
5054 Thunderstorm 27 1010 83 6000 3.6 270 16:59 04.01.2020
5055 Clouds 28 1010 74 7000 3.6 280 16:40 04.01.2020
5056 Clouds 28 1010 74 7000 3.6 280 16:22 04.01.2020
5057 Clouds 28 1010 74 7000 4.6 250 15:56 04.01.2020
5058 Clouds 28 1010 70 7000 4.6 240 15:38 04.01.2020
5059 Clouds 28 1010 70 7000 4.6 240 15:19 04.01.2020
5060 Clouds 28 1009 74 7000 3.1 220 14:54 04.01.2020
5061 Clouds 28 1009 78 6000 1 210 14:36 04.01.2020
5062 Clouds 28 1009 78 6000 1 210 14:18 04.01.2020
5063 Haze 28 1008 94 5000 1.5 280 13:39 04.01.2020
5064 Haze 28 1008 94 5000 1.5 280 13:39 04.01.2020
5065 Haze 29 1008 94 5000 1.5 280 13:20 04.01.2020
5066 Clouds 29 1007 74 7000 3.1 290 12:59 04.01.2020
5067 Rain 29 1007 88 4000 2.1 260 12:41 04.01.2020
5068 Rain 29 1007 88 4000 2.1 260 12:19 04.01.2020
5069 Clouds 30 1007 70 8000 3.6 290 11:57 04.01.2020
5070 Clouds 30 1007 74 6000 3.1 340 11:38 04.01.2020
5071 Clouds 30 1007 74 6000 3.1 340 11:19 04.01.2020
5072 Clouds 30 1006 70 6000 4.1 300 10:42 04.01.2020
5073 Clouds 31 1006 70 6000 4.1 300 10:23 04.01.2020
5074 Clouds 31 1006 70 9000 4.6 300 09:57 04.01.2020
5075 Clouds 31 1007 70 6000 4.1 270 09:39 04.01.2020
5076 Clouds 31 1007 70 6000 4.1 270 09:20 04.01.2020
5077 Clouds 31 1007 70 9000 6.2 290 08:40 04.01.2020
5078 Clouds 30 1007 74 8000 4.6 300 08:20 04.01.2020
5079 Rain 30 1009 79 5000 3.6 330 07:42 04.01.2020
5080 Rain 30 1009 79 5000 3.6 330 07:19 04.01.2020
5081 Haze 29 1009 79 5000 4.6 270 06:33 04.01.2020
5082 Rain 30 1010 83 5000 5.1 320 05:19 04.01.2020
5083 Rain 29 1010 88 4000 3.1 300 04:34 04.01.2020
5084 Clouds 29 1010 78 8000 5.1 330 03:43 04.01.2020
5085 Clouds 29 1010 78 8000 4.1 330 03:18 04.01.2020
5086 Haze 27 1010 88 5000 2.1 230 02:21 04.01.2020
5087 Haze 27 1010 88 5000 2.1 230 02:21 04.01.2020
5088 Haze 27 1010 88 5000 2.6 280 01:55 04.01.2020
5089 Haze 27 1010 88 5000 2.1 290 01:31 04.01.2020
5090 Haze 26 1009 88 5000 1.5 270 00:44 04.01.2020
5091 Haze 26 1009 94 5000 1.5 260 00:23 04.01.2020
5092 Haze 26 1009 94 5000 1.5 310 23:46 03.01.2020
5093 Clouds 26 1009 94 6000 1.5 300 23:25 03.01.2020
5094 Clouds 26 1009 94 6000 1.5 310 22:41 03.01.2020
5095 Clouds 26 1009 94 6000 1.5 290 22:20 03.01.2020
5096 Thunderstorm 26 1008 88 5000 1.5 330 21:59 03.01.2020
5097 Thunderstorm 26 1008 88 5000 1.5 0 21:39 03.01.2020
5098 Thunderstorm 26 1008 88 5000 1.5 0 21:19 03.01.2020
5099 Thunderstorm 26 1008 88 4000 2.1 290 20:59 03.01.2020
5100 Thunderstorm 26 1009 88 3700 3.1 290 20:41 03.01.2020
5101 Thunderstorm 26 1009 88 3700 3.1 290 20:19 03.01.2020
5102 Thunderstorm 26 1009 88 3500 1.5 290 19:57 03.01.2020
5103 Thunderstorm 27 1009 88 2900 1.5 300 19:39 03.01.2020
5104 Thunderstorm 27 1009 88 2900 1.5 300 19:21 03.01.2020
5105 Thunderstorm 27 1010 88 5000 2.6 300 18:44 03.01.2020
5106 Thunderstorm 27 1010 88 5000 2.6 300 18:44 03.01.2020
5107 Thunderstorm 27 1010 83 7000 3.1 280 18:26 03.01.2020
5108 Thunderstorm 27 1011 83 7000 2.1 290 17:56 03.01.2020
5109 Thunderstorm 27 1011 83 7000 3.1 270 17:38 03.01.2020
5110 Thunderstorm 28 1011 83 7000 3.1 270 17:19 03.01.2020
5111 Thunderstorm 28 1011 83 7000 3.1 280 16:42 03.01.2020
5112 Thunderstorm 28 1011 83 7000 3.6 280 16:24 03.01.2020
5113 Clouds 28 1011 83 8000 3.6 260 15:58 03.01.2020
5114 Clouds 28 1010 78 9000 3.6 250 15:40 03.01.2020
5115 Clouds 28 1010 78 9000 3.6 250 15:18 03.01.2020
5116 Clouds 28 1010 83 8000 2.6 280 14:39 03.01.2020
5117 Clouds 28 1010 83 8000 2.6 280 14:19 03.01.2020
5118 Clouds 28 1010 83 8000 2.1 310 13:56 03.01.2020
5119 Haze 28 1009 88 5000 1.5 300 13:37 03.01.2020
5120 Haze 29 1009 88 5000 1.5 300 13:19 03.01.2020
5121 Haze 29 1008 83 5000 2.6 350 12:39 03.01.2020
5122 Haze 29 1008 83 5000 2.6 350 12:21 03.01.2020
5123 Haze 29 1008 79 5000 3.1 350 11:48 03.01.2020
5124 Clouds 30 1007 70 6000 2.1 290 11:29 03.01.2020
5125 Clouds 31 1007 70 6000 3.1 250 10:47 03.01.2020
5126 Clouds 31 1008 66 6000 4.6 290 10:27 03.01.2020
5127 Clouds 31 1008 66 6000 3.6 290 09:59 03.01.2020
5128 Clouds 31 1008 70 6000 3.6 280 09:41 03.01.2020
5129 Clouds 31 1008 70 6000 3.6 280 09:22 03.01.2020
5130 Clouds 30 1008 66 6000 3.1 320 08:57 03.01.2020
5131 Haze 30 1009 74 5000 2.1 310 08:38 03.01.2020
5132 Haze 31 1009 74 5000 2.1 310 08:20 03.01.2020
5133 Rain 31 1009 74 5000 2.1 290 07:41 03.01.2020
5134 Haze 30 1010 74 5000 2.6 330 07:19 03.01.2020
5135 Clouds 30 1011 74 9000 4.6 330 06:54 03.01.2020
5136 Clouds 30 1011 83 8000 3.6 320 06:35 03.01.2020
5137 Rain 29 1012 79 6000 3.1 280 05:47 03.01.2020
5138 Haze 29 1012 74 5000 3.1 270 04:31 03.01.2020
5139 Clouds 30 1012 79 6000 4.1 250 03:18 03.01.2020
5140 Clouds 29 1012 83 6000 4.1 250 02:45 03.01.2020
5141 Clouds 27 1012 78 8000 4.6 260 01:45 03.01.2020
5142 Haze 26 1011 94 4000 3.1 260 00:56 03.01.2020
5143 Haze 26 1011 94 4000 3.1 240 00:32 03.01.2020
5144 Haze 26 1010 88 4000 2.1 250 23:58 02.01.2020
5145 Haze 26 1010 88 4000 2.6 240 23:39 02.01.2020
5146 Haze 26 1010 88 4000 2.6 240 23:19 02.01.2020
5147 Haze 26 1010 94 4000 2.6 250 22:58 02.01.2020
5148 Haze 25 1010 88 4000 3.1 280 22:39 02.01.2020
5149 Haze 25 1010 88 4000 3.1 280 22:19 02.01.2020
5150 Haze 25 1010 88 4000 2.6 280 21:54 02.01.2020
5151 Haze 25 1010 88 4000 3.1 270 21:36 02.01.2020
5152 Haze 25 1010 88 4000 3.1 270 21:36 02.01.2020
5153 Haze 25 1010 88 4000 3.1 270 21:18 02.01.2020
5154 Haze 25 1011 88 4000 2.6 290 20:40 02.01.2020
5155 Haze 25 1011 88 4000 2.6 290 20:21 02.01.2020
5156 Haze 25 1011 88 5000 3.1 280 19:56 02.01.2020
5157 Haze 25 1011 88 5000 3.1 280 19:56 02.01.2020
5158 Haze 25 1012 88 5000 3.6 260 19:38 02.01.2020
5159 Haze 25 1012 88 5000 3.6 260 19:19 02.01.2020
5160 Rain 25 1012 88 5000 2.6 290 18:59 02.01.2020
5161 Clouds 25 1013 83 6000 2.6 280 18:40 02.01.2020
5162 Clouds 26 1013 83 6000 2.6 280 18:22 02.01.2020
5163 Clouds 26 1013 83 6000 2.1 280 17:57 02.01.2020
5164 Clouds 26 1013 83 6000 1.5 300 17:37 02.01.2020
5165 Clouds 26 1013 83 6000 1.5 300 17:19 02.01.2020
5166 Clouds 26 1013 83 7000 3.6 270 16:57 02.01.2020
5167 Clouds 26 1013 83 7000 3.1 250 16:38 02.01.2020
5168 Clouds 26 1013 83 7000 3.1 250 16:20 02.01.2020
5169 Clouds 26 1013 83 7000 2.6 260 15:56 02.01.2020
5170 Clouds 26 1013 83 7000 2.6 260 15:37 02.01.2020
5171 Clouds 26 1012 78 7000 3.6 230 15:19 02.01.2020
5172 Clouds 25 1012 78 7000 3.6 230 14:54 02.01.2020
5173 Clouds 25 1012 78 7000 3.6 230 14:54 02.01.2020
5174 Clouds 26 1012 78 7000 3.6 230 14:36 02.01.2020
5175 Clouds 27 1012 83 8000 2.6 240 14:18 02.01.2020
5176 Haze 27 1011 88 5000 1.5 240 13:45 02.01.2020
5177 Haze 27 1011 88 5000 1.5 240 13:26 02.01.2020
5178 Clouds 27 1011 74 8000 6.2 300 12:43 02.01.2020
5179 Clouds 28 1011 70 9000 3.1 320 12:24 02.01.2020
5180 Clouds 28 1011 70 9000 3.1 320 12:24 02.01.2020
5181 Rain 28 1010 70 5000 2.1 330 11:43 02.01.2020
5182 Rain 29 1010 70 5000 2.1 330 11:24 02.01.2020
5183 Clouds 29 1010 70 9000 3.1 340 10:56 02.01.2020
5184 Clouds 29 1010 66 6000 2.1 300 10:37 02.01.2020
5185 Clouds 31 1010 66 6000 2.1 300 10:18 02.01.2020
5186 Clouds 31 1010 66 6000 2.6 330 09:41 02.01.2020
5187 Clouds 31 1010 66 6000 2.6 330 09:22 02.01.2020
5188 Clouds 31 1010 62 9000 4.6 340 08:44 02.01.2020
5189 Clouds 31 1011 66 6000 2.1 340 08:25 02.01.2020
5190 Clouds 31 1011 66 6000 2.1 340 07:48 02.01.2020
5191 Clouds 31 1012 66 8000 6.7 330 07:28 02.01.2020
5192 Clouds 31 1013 70 8000 5.1 340 06:43 02.01.2020
5193 Haze 30 1013 70 5000 1.5 300 05:58 02.01.2020
5194 Haze 29 1014 79 5000 2.1 270 04:40 02.01.2020
5195 Haze 29 1014 79 5000 2.1 270 04:21 02.01.2020
5196 Haze 29 1014 79 5000 2.1 270 04:21 02.01.2020
5197 Haze 27 1014 94 4000 2.6 230 02:28 02.01.2020
5198 Haze 26 1014 100 4000 2.6 220 01:58 02.01.2020
5199 Mist 26 1014 100 4000 2.1 210 01:32 02.01.2020
5200 Mist 25 1013 88 5000 2.6 210 00:53 02.01.2020
5201 Haze 25 1013 94 5000 2.1 200 00:33 02.01.2020
5202 Mist 25 1013 100 3000 1.5 210 23:49 01.01.2020
5203 Mist 25 1012 100 3000 7.51 287 23:26 01.01.2020
5204 Mist 25 1012 100 3000 7.51 287 22:56 01.01.2020
5205 Mist 25 1012 100 3000 7.51 287 22:37 01.01.2020
5206 Mist 25 1012 100 3000 7.51 287 22:19 01.01.2020
5207 Mist 24 1012 94 5000 2.6 250 21:55 01.01.2020
5208 Rain 24 1012 94 4000 2.6 240 21:37 01.01.2020
5209 Rain 24 1012 94 4000 2.6 240 21:18 01.01.2020
5210 Rain 24 1012 94 3000 2.1 260 20:42 01.01.2020
5211 Rain 24 1012 94 3000 3.1 240 20:22 01.01.2020
5212 Rain 24 1012 94 4000 2.6 240 19:58 01.01.2020
5213 Rain 24 1013 94 4000 3.1 260 19:39 01.01.2020
5214 Rain 24 1013 94 4000 3.1 260 19:20 01.01.2020
5215 Rain 24 1013 94 4000 2.1 260 18:57 01.01.2020
5216 Thunderstorm 24 1013 94 4000 3.1 280 18:39 01.01.2020
5217 Thunderstorm 24 1013 94 4000 3.1 280 18:20 01.01.2020
5218 Thunderstorm 24 1014 94 3000 3.1 240 17:59 01.01.2020
5219 Thunderstorm 24 1014 88 3000 7.7 280 17:40 01.01.2020
5220 Thunderstorm 25 1014 88 3000 7.7 280 17:20 01.01.2020
5221 Thunderstorm 26 1014 88 3000 3.6 350 16:59 01.01.2020
5222 Haze 27 1014 94 4000 1.28 226 16:38 01.01.2020
5223 Haze 27 1014 94 4000 1.28 226 16:20 01.01.2020
5224 Haze 26 1014 83 5000 2.1 150 15:57 01.01.2020
5225 Clouds 26 1013 83 6000 1 0 15:38 01.01.2020
5226 Clouds 26 1013 83 6000 1 0 15:20 01.01.2020
5227 Clouds 26 1013 78 6000 1 0 14:56 01.01.2020
5228 Clouds 26 1013 83 7000 1 0 14:37 01.01.2020
5229 Clouds 27 1013 83 7000 1 0 14:19 01.01.2020
5230 Clouds 27 1013 83 7000 1 0 14:19 01.01.2020
5231 Clouds 27 1012 78 7000 1 320 13:55 01.01.2020
5232 Haze 27 1012 88 5000 2.1 180 13:36 01.01.2020
5233 Haze 27 1012 88 5000 2.1 180 13:18 01.01.2020
5234 Haze 27 1012 88 5000 1.5 220 12:54 01.01.2020
5235 Haze 28 1011 88 5000 1.5 190 12:36 01.01.2020
5236 Haze 28 1011 88 5000 1.5 190 12:18 01.01.2020
5237 Haze 27 1011 83 5000 2.1 200 11:41 01.01.2020
5238 Haze 28 1011 83 5000 2.1 200 11:21 01.01.2020
5239 Haze 28 1011 83 5000 2.1 200 11:21 01.01.2020
5240 Clouds 28 1010 74 8000 2.1 320 10:56 01.01.2020
5241 Clouds 28 1010 78 8000 2.6 320 10:38 01.01.2020
5242 Clouds 27 1010 78 8000 2.6 320 10:19 01.01.2020
5243 Clouds 28 1010 78 8000 2.6 310 09:40 01.01.2020
5244 Clouds 28 1010 78 8000 2.6 310 09:22 01.01.2020
5245 Clouds 28 1011 74 8000 3.6 320 08:57 01.01.2020
5246 Clouds 28 1011 78 7000 4.1 320 08:38 01.01.2020
5247 Clouds 28 1011 78 7000 4.1 320 08:20 01.01.2020
5248 Clouds 28 1011 88 7000 2.6 0 07:58 01.01.2020
5249 Rain 27 1012 94 4000 4.6 260 07:40 01.01.2020
5250 Rain 27 1012 94 4000 4.6 260 07:19 01.01.2020
5251 Rain 26 1013 94 4000 5.1 230 06:36 01.01.2020
5252 Rain 26 1013 94 4000 5.1 230 06:18 01.01.2020
5253 Rain 25 1014 100 2500 5.7 270 04:36 01.01.2020
5254 Thunderstorm 26 1014 100 3000 1.5 270 03:39 01.01.2020
5255 Thunderstorm 26 1014 100 3000 1.5 270 03:21 01.01.2020
5256 Rain 25 1013 94 5000 4.1 290 02:43 01.01.2020
5257 Thunderstorm 25 1013 100 3000 2.6 240 02:24 01.01.2020
5258 Thunderstorm 26 1013 100 3000 2.6 240 01:45 01.01.2020
5259 Thunderstorm 26 1012 100 3000 2.1 270 01:23 01.01.2020
5260 Thunderstorm 25 1012 94 2500 2.6 0 00:45 01.01.2020
5261 Thunderstorm 25 1011 100 1200 3.6 260 00:26 01.01.2020
5262 Thunderstorm 25 1012 100 1800 1.5 60 23:58 31.12.2019
5263 Thunderstorm 25 1011 100 0 3.1 270 23:38 31.12.2019
5264 Thunderstorm 25 1011 100 0 3.1 270 23:18 31.12.2019
5265 Thunderstorm 26 1010 94 2000 2.1 0 22:56 31.12.2019
5266 Thunderstorm 26 1010 94 2000 2.1 0 22:37 31.12.2019
5267 Thunderstorm 26 1010 94 2000 2.1 0 22:18 31.12.2019
5268 Thunderstorm 25 1010 100 2000 3.6 330 21:43 31.12.2019
5269 Thunderstorm 25 1010 94 3000 2.1 0 21:25 31.12.2019
5270 Thunderstorm 25 1011 94 4000 4.6 290 20:57 31.12.2019
5271 Thunderstorm 25 1011 100 2500 6.2 310 20:39 31.12.2019
5272 Thunderstorm 25 1011 100 2500 6.2 310 20:21 31.12.2019
5273 Thunderstorm 26 1011 94 2000 5.7 330 19:58 31.12.2019
5274 Thunderstorm 27 1011 94 5000 4.1 340 19:40 31.12.2019
5275 Thunderstorm 27 1011 94 5000 4.1 340 19:21 31.12.2019
5276 Rain 27 1012 94 5000 3.6 300 18:57 31.12.2019
5277 Thunderstorm 27 1012 94 5000 2.6 310 18:38 31.12.2019
5278 Thunderstorm 27 1012 94 5000 2.6 310 18:19 31.12.2019
5279 Thunderstorm 27 1012 94 5000 3.1 310 17:56 31.12.2019
5280 Thunderstorm 27 1012 94 5000 3.1 310 17:56 31.12.2019
5281 Thunderstorm 27 1012 94 5000 2.6 0 17:36 31.12.2019
5282 Thunderstorm 27 1012 94 5000 2.6 0 17:18 31.12.2019
5283 Thunderstorm 27 1012 94 4000 2.1 0 16:56 31.12.2019
5284 Thunderstorm 27 1013 94 5000 2.6 0 16:37 31.12.2019
5285 Thunderstorm 27 1013 94 5000 2.6 0 16:18 31.12.2019
5286 Rain 28 1013 89 6000 1 0 15:56 31.12.2019
5287 Rain 27 1013 94 6000 2.6 0 15:38 31.12.2019
5288 Rain 27 1013 94 6000 2.6 0 15:19 31.12.2019
5289 Thunderstorm 27 1012 94 6000 2.1 0 14:55 31.12.2019
5290 Thunderstorm 27 1011 94 7000 2.6 170 14:37 31.12.2019
5291 Thunderstorm 27 1011 94 7000 2.6 170 14:18 31.12.2019
5292 Rain 27 1011 88 8000 2.6 0 13:56 31.12.2019
5293 Thunderstorm 26 1011 100 2000 2.1 120 13:38 31.12.2019
5294 Thunderstorm 26 1011 100 2000 2.1 120 13:19 31.12.2019
5295 Rain 26 1010 88 8000 2.1 0 12:55 31.12.2019
5296 Rain 26 1010 88 8000 2.1 0 12:55 31.12.2019
5297 Thunderstorm 26 1011 100 1500 1.5 270 12:37 31.12.2019
5298 Thunderstorm 26 1011 100 1500 1.5 270 12:37 31.12.2019
5299 Thunderstorm 26 1011 100 1500 1.5 270 12:18 31.12.2019
5300 Thunderstorm 26 1011 100 1500 2.1 260 11:55 31.12.2019
5301 Thunderstorm 26 1010 94 0 6.2 240 11:37 31.12.2019
5302 Thunderstorm 26 1010 94 0 6.2 240 11:19 31.12.2019
5303 Clouds 27 1009 74 7000 3.6 270 10:55 31.12.2019
5304 Clouds 27 1009 74 9000 4.6 290 10:37 31.12.2019
5305 Clouds 28 1009 74 9000 4.6 290 10:19 31.12.2019
5306 Clouds 29 1009 74 9000 5.1 290 09:57 31.12.2019
5307 Clouds 31 1008 70 6000 2.1 330 09:38 31.12.2019
5308 Clouds 31 1008 70 6000 2.1 330 09:19 31.12.2019
5309 Clouds 31 1008 79 9000 6.7 310 08:42 31.12.2019
5310 Thunderstorm 31 1008 79 9000 6.2 310 08:23 31.12.2019
5311 Thunderstorm 32 1009 74 9000 4.6 320 07:57 31.12.2019
5312 Rain 32 1010 70 5000 2.6 320 07:38 31.12.2019
5313 Rain 31 1010 70 5000 2.6 320 07:18 31.12.2019
5314 Haze 31 1010 70 5000 3.6 260 06:40 31.12.2019
5315 Rain 31 1011 74 5000 2.1 330 05:28 31.12.2019
5316 Rain 30 1012 74 5000 1.5 330 04:25 31.12.2019
5317 Clouds 31 1012 79 10000 4.1 260 02:59 31.12.2019
5318 Haze 31 1012 83 4000 2.1 220 02:34 31.12.2019
5319 Haze 29 1012 78 5000 1 0 01:51 31.12.2019
5320 Haze 28 1011 88 4000 2.1 230 01:32 31.12.2019
5321 Haze 27 1011 94 4000 1.5 220 00:54 31.12.2019
5322 Haze 27 1010 94 4000 1.5 220 00:36 31.12.2019
5323 Haze 26 1010 94 4000 1.5 220 00:18 31.12.2019
5324 Haze 26 1010 94 4000 1.5 200 23:54 30.12.2019
5325 Haze 26 1009 94 4000 1.5 260 23:36 30.12.2019
5326 Haze 26 1009 94 4000 1.5 260 23:18 30.12.2019
5327 Haze 26 1009 94 4000 1.5 230 22:54 30.12.2019
5328 Haze 26 1010 88 4000 1.5 190 22:36 30.12.2019
5329 Haze 26 1010 88 4000 1.5 190 22:18 30.12.2019
5330 Haze 26 1010 88 4000 1 170 21:55 30.12.2019
5331 Haze 27 1010 83 4000 1 210 21:36 30.12.2019
5332 Haze 27 1010 83 4000 1 210 21:18 30.12.2019
5333 Haze 27 1010 83 4000 1.75 288 20:41 30.12.2019
5334 Haze 27 1010 83 4000 1 150 20:20 30.12.2019
5335 Haze 27 1011 83 4000 1 0 19:59 30.12.2019
5336 Haze 27 1011 83 4000 0.5 0 19:40 30.12.2019
5337 Haze 27 1011 83 4000 0.5 0 19:20 30.12.2019
5338 Haze 27 1011 83 4000 1 0 18:59 30.12.2019
5339 Haze 27 1011 83 4000 0.5 0 18:41 30.12.2019
5340 Haze 27 1011 83 4000 0.5 0 18:21 30.12.2019
5341 Haze 27 1011 78 5000 1 140 17:58 30.12.2019
5342 Haze 27 1011 78 5000 1 0 17:40 30.12.2019
5343 Haze 27 1011 78 5000 1 0 17:19 30.12.2019
5344 Haze 27 1011 83 5000 2.1 160 16:59 30.12.2019
5345 Haze 27 1011 83 5000 0.5 0 16:39 30.12.2019
5346 Haze 27 1011 83 5000 0.5 0 16:20 30.12.2019
5347 Haze 27 1011 83 5000 0.5 0 15:56 30.12.2019
5348 Haze 27 1012 83 5000 0.5 0 15:38 30.12.2019
5349 Haze 28 1012 83 5000 0.5 0 15:19 30.12.2019
5350 Clouds 28 1011 79 6000 0.5 0 14:43 30.12.2019
5351 Clouds 29 1011 79 6000 0.5 0 14:21 30.12.2019
5352 Clouds 29 1010 79 6000 1.5 0 13:59 30.12.2019
5353 Clouds 29 1010 79 6000 1.5 350 13:41 30.12.2019
5354 Clouds 29 1010 79 6000 1.5 350 13:22 30.12.2019
5355 Clouds 29 1009 83 6000 2.6 360 12:57 30.12.2019
5356 Clouds 29 1009 74 6000 2.6 330 12:38 30.12.2019
5357 Clouds 29 1009 74 6000 2.6 330 12:19 30.12.2019
5358 Clouds 30 1009 74 6000 3.6 350 11:56 30.12.2019
5359 Clouds 30 1008 70 6000 4.1 30 11:37 30.12.2019
5360 Clouds 31 1008 70 6000 4.1 30 11:18 30.12.2019
5361 Clouds 31 1008 62 6000 3.6 350 10:40 30.12.2019
5362 Clouds 32 1008 62 6000 3.6 350 10:20 30.12.2019
5363 Clouds 32 1008 62 6000 3.1 320 09:44 30.12.2019
5364 Rain 32 1008 70 6000 2.6 350 09:21 30.12.2019
5365 Clouds 31 1008 66 6000 3.1 350 08:57 30.12.2019
5366 Clouds 32 1008 66 6000 2.1 350 08:39 30.12.2019
5367 Clouds 32 1008 66 6000 2.1 350 08:21 30.12.2019
5368 Clouds 32 1009 74 10000 6.7 330 07:49 30.12.2019
5369 Rain 32 1009 62 6000 3.6 330 07:25 30.12.2019
5370 Clouds 32 1010 66 6000 2.6 350 06:39 30.12.2019
5371 Clouds 31 1011 70 6000 1.5 90 04:31 30.12.2019
5372 Clouds 33 1011 70 6000 2.1 260 03:51 30.12.2019
5373 Clouds 32 1011 74 7000 1 0 02:47 30.12.2019
5374 Haze 30 1011 79 5000 2.6 180 02:27 30.12.2019
5375 Haze 28 1010 88 3000 2.1 200 01:39 30.12.2019
5376 Haze 28 1010 88 3000 2.1 200 01:18 30.12.2019
5377 Haze 26 1010 88 5000 2.1 160 00:42 30.12.2019
5378 Haze 26 1010 88 5000 2.1 140 23:58 29.12.2019
5379 Haze 26 1010 94 4000 1.47 310 23:37 29.12.2019
5380 Haze 26 1010 94 4000 2.2 7 23:19 29.12.2019
5381 Rain 26 1009 88 3500 1.5 0 22:41 29.12.2019
5382 Rain 26 1009 88 3500 1.5 0 22:22 29.12.2019
5383 Thunderstorm 26 1009 94 3500 2.6 0 21:56 29.12.2019
5384 Thunderstorm 26 1010 88 3600 1.5 150 21:38 29.12.2019
5385 Thunderstorm 26 1010 88 3600 1.5 150 21:19 29.12.2019
5386 Thunderstorm 26 1010 88 3600 1.5 150 21:19 29.12.2019
5387 Haze 26 1010 94 3500 2.1 160 20:55 29.12.2019
5388 Haze 27 1010 88 5000 2.1 160 20:37 29.12.2019
5389 Haze 27 1010 88 5000 2.1 160 20:18 29.12.2019
5390 Haze 27 1011 88 5000 1.5 170 19:56 29.12.2019
5391 Haze 27 1011 88 5000 1 150 19:38 29.12.2019
5392 Haze 27 1011 88 5000 1 150 19:19 29.12.2019
5393 Haze 27 1011 88 5000 1 150 18:55 29.12.2019
5394 Clouds 27 1011 88 6000 1 0 18:37 29.12.2019
5395 Clouds 28 1011 88 6000 1 0 18:18 29.12.2019
5396 Clouds 28 1012 88 6000 1 0 17:56 29.12.2019
5397 Clouds 28 1012 88 6000 1.5 40 17:38 29.12.2019
5398 Clouds 28 1012 88 6000 1.5 40 17:19 29.12.2019
5399 Clouds 28 1012 88 6000 1 60 16:55 29.12.2019
5400 Clouds 28 1012 88 6000 1 60 16:36 29.12.2019
5401 Clouds 28 1012 88 6000 1 60 16:18 29.12.2019
5402 Clouds 28 1011 88 6000 1 70 15:56 29.12.2019
5403 Clouds 28 1011 88 7000 1 130 15:38 29.12.2019
5404 Clouds 28 1011 88 7000 1 130 15:18 29.12.2019
5405 Clouds 28 1010 88 7000 1 250 14:55 29.12.2019
5406 Clouds 27 1010 88 7000 1 150 14:37 29.12.2019
5407 Clouds 27 1010 88 7000 1 150 14:18 29.12.2019
5408 Clouds 27 1010 83 8000 0.5 100 13:41 29.12.2019
5409 Clouds 27 1010 83 8000 0.5 100 13:41 29.12.2019
5410 Clouds 28 1009 78 6000 3.6 344 13:22 29.12.2019
5411 Clouds 28 1009 79 10000 1.5 0 12:59 29.12.2019
5412 Clouds 28 1009 79 10000 1.5 0 12:41 29.12.2019
5413 Clouds 29 1009 70 6000 2.1 330 12:22 29.12.2019
5414 Clouds 30 1009 74 10000 2.1 0 11:54 29.12.2019
5415 Clouds 30 1008 70 6000 2.1 320 11:36 29.12.2019
5416 Clouds 30 1008 70 6000 2.1 320 11:18 29.12.2019
5417 Clouds 31 1008 70 6000 1.5 300 10:41 29.12.2019
5418 Clouds 31 1008 70 6000 1.5 300 10:20 29.12.2019
5419 Clouds 30 1008 79 10000 2.1 0 09:54 29.12.2019
5420 Clouds 30 1008 70 6000 3.6 280 09:36 29.12.2019
5421 Clouds 30 1008 70 6000 3.6 280 09:18 29.12.2019
5422 Clouds 30 1009 79 10000 2.6 0 08:44 29.12.2019
5423 Clouds 29 1009 83 10000 4.1 260 08:24 29.12.2019
5424 Clouds 29 1010 83 10000 3.6 260 07:54 29.12.2019
5425 Clouds 29 1010 70 6000 2.6 290 07:27 29.12.2019
5426 Rain 29 1011 83 8000 3.6 260 06:53 29.12.2019
5427 Haze 30 1011 74 5000 2.1 240 06:23 29.12.2019
5428 Clouds 30 1012 83 9000 2.1 230 05:48 29.12.2019
5429 Haze 29 1012 88 3000 1.5 210 04:34 29.12.2019
5430 Haze 28 1012 94 3000 1.5 280 03:40 29.12.2019
5431 Haze 27 1012 94 3000 1.5 280 03:19 29.12.2019
5432 Rain 26 1012 100 3000 1.5 310 02:19 29.12.2019
5433 Rain 26 1011 100 2000 2.1 110 01:31 29.12.2019
5434 Rain 26 1011 100 1500 2.1 30 00:51 29.12.2019
5435 Mist 26 1011 100 2000 1.5 50 00:27 29.12.2019
5436 Mist 26 1010 100 4000 1.5 330 23:57 28.12.2019
5437 Mist 26 1010 94 4000 1.5 250 23:39 28.12.2019
5438 Mist 26 1010 94 4000 1.5 250 23:18 28.12.2019
5439 Haze 26 1009 94 4000 1.5 160 22:39 28.12.2019
5440 Haze 26 1009 94 4000 1.5 160 22:19 28.12.2019
5441 Thunderstorm 26 1009 88 6000 2.1 150 21:57 28.12.2019
5442 Haze 26 1009 88 5000 1.5 150 21:38 28.12.2019
5443 Haze 26 1009 88 5000 1.5 150 21:20 28.12.2019
5444 Thunderstorm 26 1009 88 5000 1.5 140 20:56 28.12.2019
5445 Thunderstorm 26 1009 88 4000 1.5 0 20:37 28.12.2019
5446 Thunderstorm 26 1009 88 4000 1.5 0 20:18 28.12.2019
5447 Thunderstorm 27 1010 88 4000 1 170 19:55 28.12.2019
5448 Thunderstorm 27 1010 88 5000 1.5 160 19:37 28.12.2019
5449 Thunderstorm 27 1010 88 5000 1.5 160 19:18 28.12.2019
5450 Thunderstorm 27 1010 94 5000 0.5 0 18:56 28.12.2019
5451 Thunderstorm 27 1011 94 5000 2.1 160 18:38 28.12.2019
5452 Thunderstorm 27 1011 94 5000 2.1 160 18:18 28.12.2019
5453 Haze 27 1011 88 5000 1.5 170 17:42 28.12.2019
5454 Haze 27 1011 94 5000 2.1 170 17:42 28.12.2019
5455 Haze 27 1011 88 5000 1.5 170 17:21 28.12.2019
5456 Haze 27 1011 88 5000 1.5 170 16:58 28.12.2019
5457 Clouds 27 1011 88 6000 1 190 16:40 28.12.2019
5458 Clouds 27 1011 88 6000 1 190 16:21 28.12.2019
5459 Clouds 28 1011 83 6000 1 110 15:43 28.12.2019
5460 Clouds 28 1011 83 6000 1 110 15:23 28.12.2019
5461 Clouds 28 1011 83 6000 1 130 14:56 28.12.2019
5462 Clouds 28 1010 83 7000 1 0 14:37 28.12.2019
5463 Clouds 28 1010 83 7000 1 0 14:19 28.12.2019
5464 Clouds 28 1010 83 9000 2.1 0 13:42 28.12.2019
5465 Thunderstorm 28 1010 78 6000 2.1 10 13:21 28.12.2019
5466 Thunderstorm 28 1009 78 5000 3.1 10 12:59 28.12.2019
5467 Thunderstorm 28 1009 78 5000 3.1 10 12:40 28.12.2019
5468 Thunderstorm 29 1009 78 6000 4.1 360 12:21 28.12.2019
5469 Rain 29 1009 78 6000 3.6 20 11:54 28.12.2019
5470 Rain 29 1008 70 6000 2.1 360 11:36 28.12.2019
5471 Rain 29 1008 70 6000 2.1 360 11:18 28.12.2019
5472 Clouds 30 1008 79 10000 3.6 360 10:41 28.12.2019
5473 Clouds 29 1008 70 6000 2.1 250 10:20 28.12.2019
5474 Clouds 30 1008 70 6000 1.5 320 09:55 28.12.2019
5475 Clouds 30 1008 70 6000 1.5 320 09:55 28.12.2019
5476 Clouds 30 1008 74 6000 2.1 150 09:37 28.12.2019
5477 Clouds 30 1008 74 6000 2.1 150 09:18 28.12.2019
5478 Clouds 31 1008 70 6000 2.1 300 08:43 28.12.2019
5479 Clouds 31 1008 74 6000 3.1 300 08:25 28.12.2019
5480 Clouds 30 1009 83 10000 3.1 320 07:49 28.12.2019
5481 Rain 30 1010 74 6000 4.1 320 07:25 28.12.2019
5482 Rain 28 1011 78 5000 4.6 350 05:52 28.12.2019
5483 Haze 30 1011 79 3000 2.6 30 03:52 28.12.2019
5484 Haze 29 1011 88 3000 2.64 326 03:33 28.12.2019
5485 Haze 29 1011 88 3000 2.64 326 02:43 28.12.2019
5486 Clouds 28 1011 88 8000 1.5 0 01:59 28.12.2019
5487 Mist 26 1010 100 2000 0.83 64 01:25 28.12.2019
5488 Clouds 27 1010 88 7000 1.5 0 00:51 28.12.2019
5489 Clouds 26 1010 88 6000 2.1 0 00:32 28.12.2019
5490 Clouds 26 1010 88 6000 2.1 0 00:32 28.12.2019
5491 Haze 26 1010 88 5000 1.5 0 23:59 27.12.2019
5492 Haze 26 1010 88 5000 1.5 0 23:41 27.12.2019
5493 Mist 26 1009 100 2000 1.38 166 23:19 27.12.2019
5494 Mist 26 1009 94 5000 1.5 0 22:57 27.12.2019
5495 Mist 26 1009 94 4500 1 150 22:38 27.12.2019
5496 Mist 26 1009 94 4500 1 150 22:20 27.12.2019
5497 Mist 26 1009 94 4500 1 0 21:44 27.12.2019
5498 Haze 26 1009 94 4500 1.5 130 21:25 27.12.2019
5499 Haze 26 1009 94 5000 1 120 20:58 27.12.2019
5500 Haze 26 1009 94 5000 1 0 20:40 27.12.2019
5501 Haze 26 1009 94 5000 1 0 20:21 27.12.2019
5502 Haze 25 1009 94 5000 1 220 19:42 27.12.2019
5503 Haze 25 1010 94 5000 1 0 19:20 27.12.2019
5504 Haze 26 1010 94 5000 1 0 18:58 27.12.2019
5505 Haze 26 1010 94 5000 1 150 18:37 27.12.2019
5506 Haze 25 1010 94 5000 1 150 18:19 27.12.2019
5507 Haze 26 1010 94 5000 1 130 17:56 27.12.2019
5508 Haze 26 1011 94 5000 1 160 17:38 27.12.2019
5509 Haze 26 1011 94 5000 1 160 17:18 27.12.2019
5510 Haze 26 1011 88 5000 1 0 16:56 27.12.2019
5511 Clouds 26 1011 94 6000 1.5 0 16:37 27.12.2019
5512 Clouds 26 1011 94 6000 1.5 0 16:19 27.12.2019
5513 Clouds 26 1010 94 6000 1 160 15:43 27.12.2019
5514 Clouds 25 1010 94 6000 1 0 15:20 27.12.2019
5515 Clouds 25 1011 94 6000 1 0 14:57 27.12.2019
5516 Thunderstorm 25 1011 100 3000 1.5 100 14:38 27.12.2019
5517 Thunderstorm 25 1011 100 3000 1.5 100 14:20 27.12.2019
5518 Rain 26 1010 94 8000 1.5 80 13:48 27.12.2019
5519 Thunderstorm 26 1010 94 3000 2.83 301 13:25 27.12.2019
5520 Thunderstorm 26 1010 94 3000 2.83 301 13:25 27.12.2019
5521 Thunderstorm 25 1010 88 8000 2.1 80 12:58 27.12.2019
5522 Thunderstorm 25 1010 100 3000 2.83 301 12:39 27.12.2019
5523 Thunderstorm 25 1010 100 3000 2.83 301 12:21 27.12.2019
5524 Thunderstorm 25 1009 94 4000 2.1 0 11:45 27.12.2019
5525 Thunderstorm 25 1009 100 3000 3.1 130 11:26 27.12.2019
5526 Thunderstorm 27 1008 79 7000 3.1 300 10:56 27.12.2019
5527 Thunderstorm 27 1009 94 1700 2.6 250 10:38 27.12.2019
5528 Thunderstorm 27 1009 94 1700 2.6 250 10:20 27.12.2019
5529 Thunderstorm 27 1008 100 1000 9.3 250 09:43 27.12.2019
5530 Thunderstorm 29 1007 74 5000 4.1 360 09:21 27.12.2019
5531 Clouds 30 1007 74 9000 5.1 350 08:58 27.12.2019
5532 Rain 31 1008 62 5000 4.6 360 08:36 27.12.2019
5533 Clouds 32 1008 70 10000 5.1 340 07:51 27.12.2019
5534 Haze 32 1008 66 5000 2.1 30 07:32 27.12.2019
5535 Clouds 33 1009 66 10000 4.1 20 06:37 27.12.2019
5536 Haze 32 1010 70 5000 1.5 70 05:37 27.12.2019
5537 Clouds 29 1010 74 8000 2.6 0 03:44 27.12.2019
5538 Haze 28 1010 88 4000 1.5 230 02:21 27.12.2019
5539 Mist 27 1010 100 3000 3.1 200 01:38 27.12.2019
5540 Mist 27 1010 100 3000 3.1 200 01:19 27.12.2019
5541 Mist 26 1010 100 3000 1.5 230 00:43 27.12.2019
5542 Mist 26 1010 100 3000 1.5 240 00:24 27.12.2019
5543 Rain 26 1010 100 3000 2.6 210 23:42 26.12.2019
5544 Rain 25 1009 100 3000 2.1 220 23:23 26.12.2019
5545 Rain 26 1010 100 3000 1.5 300 22:57 26.12.2019
5546 Rain 25 1010 100 3000 3.1 270 22:37 26.12.2019
5547 Rain 26 1010 100 3000 3.1 270 22:18 26.12.2019
5548 Mist 26 1010 94 2500 2.6 300 21:39 26.12.2019
5549 Mist 26 1010 94 2500 2.6 300 21:21 26.12.2019
5550 Mist 26 1010 94 2500 2.6 300 21:21 26.12.2019
5551 Mist 26 1010 88 2200 2.1 270 20:47 26.12.2019
5552 Mist 26 1010 94 2000 2.1 270 20:24 26.12.2019
5553 Mist 26 1010 94 2500 2.6 290 19:59 26.12.2019
5554 Mist 26 1010 88 2500 2.1 280 19:40 26.12.2019
5555 Mist 26 1010 94 2500 2.6 290 19:40 26.12.2019
5556 Mist 26 1010 88 2500 2.1 280 19:22 26.12.2019
5557 Thunderstorm 26 1010 88 3500 2.6 280 18:58 26.12.2019
5558 Mist 26 1011 94 4500 1 300 18:40 26.12.2019
5559 Mist 26 1011 94 4500 1 300 18:20 26.12.2019
5560 Haze 26 1010 94 3500 1.5 280 17:57 26.12.2019
5561 Haze 26 1011 88 5000 3.1 240 17:39 26.12.2019
5562 Haze 26 1011 88 5000 3.1 240 17:39 26.12.2019
5563 Haze 26 1011 88 5000 3.1 240 17:19 26.12.2019
5564 Clouds 26 1011 88 6000 1.5 0 16:45 26.12.2019
5565 Haze 25 1011 100 4000 1.5 240 16:24 26.12.2019
5566 Clouds 25 1011 94 6000 2.1 200 15:56 26.12.2019
5567 Rain 25 1011 94 5000 2.6 230 15:38 26.12.2019
5568 Rain 25 1011 94 5000 2.6 230 15:18 26.12.2019
5569 Rain 26 1010 100 4000 3.1 250 14:41 26.12.2019
5570 Rain 26 1010 100 4000 3.1 250 14:22 26.12.2019
5571 Rain 26 1010 88 5000 2.6 220 13:45 26.12.2019
5572 Thunderstorm 26 1011 94 4000 2.1 160 13:23 26.12.2019
5573 Thunderstorm 27 1010 94 3000 3.6 200 12:58 26.12.2019
5574 Rain 28 1009 88 4000 3.6 200 12:40 26.12.2019
5575 Rain 27 1009 88 4000 3.6 200 12:21 26.12.2019
5576 Thunderstorm 27 1009 94 4000 4.6 200 11:58 26.12.2019
5577 Thunderstorm 28 1009 79 4000 2.6 300 11:39 26.12.2019
5578 Thunderstorm 29 1009 79 4000 2.6 300 11:20 26.12.2019
5579 Thunderstorm 29 1008 79 4000 3.6 330 10:49 26.12.2019
5580 Rain 30 1007 66 5000 6.2 20 10:20 26.12.2019
5581 Clouds 31 1007 70 6000 3.6 360 09:54 26.12.2019
5582 Clouds 32 1008 66 10000 4.1 10 09:32 26.12.2019
5583 Clouds 32 1008 66 6000 4.6 340 08:57 26.12.2019
5584 Clouds 31 1008 70 6000 3.6 350 08:38 26.12.2019
5585 Clouds 31 1008 70 6000 3.6 350 08:20 26.12.2019
5586 Clouds 31 1008 70 6000 3.6 350 08:20 26.12.2019
5587 Clouds 31 1009 70 10000 3.1 350 07:31 26.12.2019
5588 Haze 31 1009 66 4000 2.1 330 06:56 26.12.2019
5589 Haze 31 1010 70 4000 2.6 300 06:34 26.12.2019
5590 Haze 32 1010 70 5000 2.1 320 05:57 26.12.2019
5591 Haze 32 1010 66 5000 2.1 40 05:38 26.12.2019
5592 Clouds 32 1011 74 6000 2.6 260 04:32 26.12.2019
5593 Haze 31 1011 79 5000 2.1 210 03:31 26.12.2019
5594 Haze 30 1011 79 4000 2.6 200 02:46 26.12.2019
5595 Haze 29 1011 83 4000 2.6 250 02:25 26.12.2019
5596 Haze 28 1011 88 3000 1.5 220 01:44 26.12.2019
5597 Haze 27 1011 83 3000 1.5 210 01:24 26.12.2019
5598 Haze 26 1010 94 3000 1.5 250 00:43 26.12.2019
5599 Mist 25 1010 94 3000 1.5 200 00:22 26.12.2019
5600 Mist 25 1010 94 3000 1.5 200 00:22 26.12.2019
5601 Haze 25 1010 88 2500 1.5 0 23:56 25.12.2019
5602 Haze 25 1010 94 5000 1.5 260 23:36 25.12.2019
5603 Haze 25 1010 94 5000 1.5 260 23:18 25.12.2019
5604 Haze 25 1009 88 2500 1 250 22:55 25.12.2019
5605 Haze 25 1009 88 2500 1 250 22:55 25.12.2019
5606 Haze 25 1009 88 2500 1.5 310 22:36 25.12.2019
5607 Haze 25 1009 88 2500 1.5 310 22:18 25.12.2019
5608 Mist 25 1009 94 2500 1.5 300 21:40 25.12.2019
5609 Mist 25 1009 94 2500 1.5 300 21:22 25.12.2019
5610 Mist 25 1009 94 2500 1.5 240 20:58 25.12.2019
5611 Haze 25 1009 88 3500 1 0 20:40 25.12.2019
5612 Haze 25 1009 88 3500 1 0 20:19 25.12.2019
5613 Haze 25 1009 88 3500 1 0 19:57 25.12.2019
5614 Haze 25 1010 88 4000 1.5 100 19:39 25.12.2019
5615 Haze 25 1010 88 4000 1.5 100 19:21 25.12.2019
5616 Haze 25 1010 83 5000 0.5 0 18:39 25.12.2019
5617 Haze 25 1010 83 5000 0.5 0 18:20 25.12.2019
5618 Rain 25 1011 88 5000 1.5 0 17:43 25.12.2019
5619 Rain 25 1011 88 5000 1.5 0 17:21 25.12.2019
5620 Rain 25 1011 88 4500 1.5 0 16:59 25.12.2019
5621 Rain 25 1011 88 4000 2.6 0 16:39 25.12.2019
5622 Rain 25 1011 88 4000 2.6 0 16:19 25.12.2019
5623 Rain 25 1011 88 4000 2.6 0 16:19 25.12.2019
5624 Thunderstorm 26 1012 88 4000 1.5 0 15:58 25.12.2019
5625 Thunderstorm 26 1012 88 4000 1 0 15:39 25.12.2019
5626 Thunderstorm 26 1012 88 4000 1 0 15:39 25.12.2019
5627 Thunderstorm 26 1012 88 4000 1 0 15:21 25.12.2019
5628 Thunderstorm 26 1012 88 4000 1 80 14:58 25.12.2019
5629 Thunderstorm 26 1011 83 2000 2.1 60 14:40 25.12.2019
5630 Thunderstorm 26 1011 83 2000 2.1 60 14:21 25.12.2019
5631 Thunderstorm 26 1011 83 2000 2.1 60 14:21 25.12.2019
5632 Thunderstorm 26 1011 83 2000 2.1 60 14:21 25.12.2019
5633 Thunderstorm 26 1011 83 2000 2.1 60 14:21 25.12.2019
5634 Thunderstorm 26 1011 83 2000 2.1 60 14:21 25.12.2019
5635 Thunderstorm 26 1011 83 7000 0.5 0 13:57 25.12.2019
5636 Clouds 26 1010 88 6000 1.5 320 13:38 25.12.2019
5637 Clouds 26 1010 88 6000 1.5 320 13:19 25.12.2019
5638 Thunderstorm 27 1010 74 8000 4.6 250 12:40 25.12.2019
5639 Clouds 28 1009 83 6000 2.1 330 12:20 25.12.2019
5640 Thunderstorm 28 1009 83 9000 2.6 60 11:55 25.12.2019
5641 Thunderstorm 28 1009 83 9000 2.6 60 11:55 25.12.2019
5642 Clouds 28 1009 79 6000 2.1 310 11:37 25.12.2019
5643 Clouds 28 1009 79 6000 2.1 310 11:18 25.12.2019
5644 Clouds 28 1008 79 6000 2.1 310 10:38 25.12.2019
5645 Clouds 28 1008 79 6000 2.1 310 10:19 25.12.2019
5646 Clouds 28 1008 83 10000 1 0 09:50 25.12.2019
5647 Clouds 29 1008 83 10000 1.5 0 09:32 25.12.2019
5648 Clouds 28 1008 88 10000 1 0 08:51 25.12.2019
5649 Clouds 28 1008 83 9000 1 0 08:30 25.12.2019
5650 Clouds 28 1009 88 8000 1.5 0 07:50 25.12.2019
5651 Rain 28 1010 83 7000 2.1 0 07:32 25.12.2019
5652 Rain 27 1010 88 7000 2.1 80 06:51 25.12.2019
5653 Rain 27 1011 94 5000 1.5 360 06:23 25.12.2019
5654 Rain 26 1012 94 5000 1.5 310 05:18 25.12.2019
5655 Haze 26 1012 94 5000 1.5 350 04:39 25.12.2019
5656 Haze 26 1012 94 5000 1.5 350 04:20 25.12.2019
5657 Thunderstorm 26 1012 94 3000 3.6 290 03:42 25.12.2019
5658 Thunderstorm 26 1012 94 3500 3.1 40 02:54 25.12.2019
5659 Haze 26 1011 100 4000 1.5 270 02:27 25.12.2019
5660 Rain 25 1011 94 4000 1.5 250 01:25 25.12.2019
5661 Thunderstorm 25 1011 94 3000 1.5 0 00:54 25.12.2019
5662 Thunderstorm 25 1011 94 3000 1.5 0 00:54 25.12.2019
5663 Rain 25 1010 100 3000 1.5 210 00:32 25.12.2019
5664 Rain 25 1010 100 3000 2.1 230 23:57 24.12.2019
5665 Rain 25 1009 100 3000 1.5 350 23:38 24.12.2019
5666 Rain 25 1009 100 3000 1.5 350 23:20 24.12.2019
5667 Rain 25 1009 100 3000 1.5 260 22:41 24.12.2019
5668 Rain 25 1009 100 3000 1.5 260 22:41 24.12.2019
5669 Thunderstorm 25 1009 100 3000 1.5 270 22:23 24.12.2019
5670 Thunderstorm 26 1009 88 4000 4.6 230 21:44 24.12.2019
5671 Thunderstorm 26 1009 88 4000 4.1 240 21:23 24.12.2019
5672 Thunderstorm 26 1009 83 5000 4.1 280 20:59 24.12.2019
5673 Thunderstorm 27 1009 83 5000 4.1 300 20:41 24.12.2019
5674 Thunderstorm 27 1009 83 5000 4.1 300 20:19 24.12.2019
5675 Thunderstorm 27 1009 83 5000 4.1 300 20:19 24.12.2019
5676 Thunderstorm 28 1009 78 5000 4.1 280 19:45 24.12.2019
5677 Clouds 27 1010 78 6000 2.1 260 19:21 24.12.2019
5678 Haze 27 1010 69 5000 1.5 290 18:58 24.12.2019
5679 Haze 27 1010 74 5000 2.1 290 18:40 24.12.2019
5680 Haze 27 1010 74 5000 2.1 290 18:18 24.12.2019
5681 Haze 27 1010 78 4000 3.1 320 17:42 24.12.2019
5682 Clouds 28 1010 74 7000 2.1 0 17:21 24.12.2019
5683 Clouds 28 1011 78 6000 1.5 180 16:58 24.12.2019
5684 Clouds 28 1011 88 6000 1 190 16:39 24.12.2019
5685 Clouds 28 1011 88 6000 1 190 16:20 24.12.2019
5686 Haze 27 1011 78 5000 1 0 15:56 24.12.2019
5687 Clouds 28 1011 74 6000 1 330 15:36 24.12.2019
5688 Clouds 28 1011 74 6000 1 330 15:18 24.12.2019
5689 Haze 28 1010 74 5000 1.5 200 14:57 24.12.2019
5690 Haze 28 1010 74 5000 1.5 200 14:57 24.12.2019
5691 Haze 28 1010 74 4500 1 0 14:38 24.12.2019
5692 Haze 29 1010 74 4500 1 0 14:20 24.12.2019
5693 Haze 29 1010 74 5000 0.5 0 13:55 24.12.2019
5694 Clouds 29 1010 83 6000 1.5 360 13:37 24.12.2019
5695 Clouds 30 1010 83 6000 1.5 360 13:19 24.12.2019
5696 Clouds 30 1009 83 6000 2.1 30 12:55 24.12.2019
5697 Clouds 30 1008 79 6000 2.1 10 12:36 24.12.2019
5698 Clouds 30 1008 79 6000 2.1 10 12:18 24.12.2019
5699 Clouds 30 1008 74 6000 2.6 20 11:55 24.12.2019
5700 Clouds 30 1007 74 6000 4.1 40 11:37 24.12.2019
5701 Clouds 31 1007 74 6000 4.1 40 11:18 24.12.2019
5702 Clouds 32 1007 70 6000 4.6 360 10:56 24.12.2019
5703 Thunderstorm 32 1007 62 6000 5.1 30 10:37 24.12.2019
5704 Thunderstorm 32 1007 62 6000 5.1 30 10:19 24.12.2019
5705 Clouds 32 1006 62 6000 6.7 30 09:55 24.12.2019
5706 Clouds 33 1007 66 6000 5.1 30 09:37 24.12.2019
5707 Clouds 33 1007 66 6000 5.1 30 09:37 24.12.2019
5708 Clouds 33 1007 66 6000 5.1 30 09:18 24.12.2019
5709 Clouds 33 1007 63 6000 4.6 30 08:45 24.12.2019
5710 Clouds 33 1007 59 6000 4.1 20 08:24 24.12.2019
5711 Clouds 33 1008 63 6000 3.6 30 07:46 24.12.2019
5712 Clouds 33 1008 55 6000 3.1 40 07:26 24.12.2019
5713 Clouds 34 1009 59 6000 3.1 40 06:58 24.12.2019
5714 Haze 34 1009 59 5000 4.1 20 06:38 24.12.2019
5715 Haze 33 1009 59 5000 4.1 20 06:19 24.12.2019
5716 Haze 34 1010 66 5000 3.1 40 05:40 24.12.2019
5717 Haze 33 1010 66 5000 3.1 40 05:18 24.12.2019
5718 Haze 32 1011 70 5000 3.1 120 03:50 24.12.2019
5719 Haze 32 1011 74 4000 2.1 120 03:25 24.12.2019
5720 Haze 30 1011 78 4000 1.5 140 02:25 24.12.2019
5721 Clouds 28 1011 74 8000 3.1 200 01:52 24.12.2019
5722 Haze 27 1010 94 4000 1.82 81 01:23 24.12.2019
5723 Haze 26 1010 83 5000 2.1 220 00:47 24.12.2019
5724 Mist 26 1010 100 3000 1.82 81 00:26 24.12.2019
5725 Haze 27 1009 78 5000 2.6 200 23:59 23.12.2019
5726 Haze 26 1009 78 5000 2.6 200 23:41 23.12.2019
5727 Clouds 26 1009 78 6000 2.6 200 23:23 23.12.2019
5728 Clouds 26 1009 78 7000 2.6 170 22:56 23.12.2019
5729 Clouds 26 1009 78 7000 2.6 170 22:56 23.12.2019
5730 Clouds 26 1009 78 7000 2.6 170 22:56 23.12.2019
5731 Clouds 26 1008 78 8000 1.5 150 22:37 23.12.2019
5732 Clouds 26 1008 78 8000 1.5 150 22:19 23.12.2019
5733 Clouds 26 1008 78 8000 1 0 21:55 23.12.2019
5734 Clouds 26 1009 78 10000 2.1 200 21:36 23.12.2019
5735 Clouds 26 1009 78 10000 2.1 200 21:36 23.12.2019
5736 Clouds 26 1009 78 10000 2.1 200 21:36 23.12.2019
5737 Clouds 26 1009 78 10000 2.1 200 21:18 23.12.2019
5738 Clouds 26 1009 78 8000 2.6 170 20:57 23.12.2019
5739 Clouds 26 1009 78 8000 1 190 20:39 23.12.2019
5740 Clouds 26 1009 78 8000 1 190 20:18 23.12.2019
5741 Clouds 26 1010 74 7000 1 190 19:56 23.12.2019
5742 Clouds 26 1010 74 7000 1 190 19:56 23.12.2019
5743 Clouds 27 1010 74 7000 1 190 19:38 23.12.2019
5744 Clouds 27 1010 74 7000 1 190 19:19 23.12.2019
5745 Clouds 27 1010 74 7000 1.5 0 18:57 23.12.2019
5746 Clouds 27 1010 74 7000 2.1 0 18:38 23.12.2019
5747 Clouds 27 1010 74 7000 2.1 0 18:20 23.12.2019
5748 Clouds 26 1011 69 6000 1.5 0 17:56 23.12.2019
5749 Clouds 26 1011 69 6000 2.1 0 17:37 23.12.2019
5750 Clouds 26 1011 69 6000 2.1 0 17:19 23.12.2019
5751 Clouds 27 1011 74 6000 1 0 16:54 23.12.2019
5752 Clouds 26 1011 74 7000 1.5 0 16:36 23.12.2019
5753 Clouds 26 1011 74 7000 1.5 0 16:18 23.12.2019
5754 Clouds 26 1011 78 7000 1.5 290 15:55 23.12.2019
5755 Clouds 26 1010 69 7000 1 0 15:36 23.12.2019
5756 Clouds 26 1010 69 7000 1 0 15:18 23.12.2019
5757 Clouds 26 1010 74 8000 1.5 0 14:42 23.12.2019
5758 Clouds 26 1010 61 8000 1 0 14:24 23.12.2019
5759 Clouds 26 1010 65 9000 2.6 100 13:59 23.12.2019
5760 Clouds 26 1010 65 9000 2.6 100 13:41 23.12.2019
5761 Haze 26 1009 94 4000 4.1 70 13:22 23.12.2019
5762 Clouds 26 1009 74 9000 4.1 140 12:58 23.12.2019
5763 Clouds 26 1009 74 9000 4.1 140 12:58 23.12.2019
5764 Thunderstorm 26 1009 100 2000 3.6 270 12:39 23.12.2019
5765 Thunderstorm 28 1009 100 2000 3.6 270 12:20 23.12.2019
5766 Clouds 29 1008 55 9000 2.6 240 11:55 23.12.2019
5767 Thunderstorm 29 1008 78 3000 7.7 140 11:37 23.12.2019
5768 Thunderstorm 30 1008 78 3000 7.7 140 11:18 23.12.2019
5769 Clouds 31 1007 74 9000 5.1 330 10:54 23.12.2019
5770 Haze 32 1007 74 5000 4.1 360 10:36 23.12.2019
5771 Haze 32 1007 74 5000 4.1 360 10:18 23.12.2019
5772 Clouds 32 1007 66 10000 5.1 350 09:40 23.12.2019
5773 Clouds 33 1007 66 10000 5.1 350 09:22 23.12.2019
5774 Clouds 33 1008 74 10000 4.6 340 08:58 23.12.2019
5775 Haze 33 1008 66 5000 2.6 330 08:40 23.12.2019
5776 Haze 32 1008 66 5000 2.6 330 08:22 23.12.2019
5777 Clouds 32 1008 70 10000 5.7 340 07:48 23.12.2019
5778 Haze 32 1009 59 5000 2.6 330 07:21 23.12.2019
5779 Clouds 32 1010 66 10000 4.1 350 06:57 23.12.2019
5780 Haze 33 1010 56 5000 1.5 150 06:27 23.12.2019
5781 Clouds 33 1011 59 10000 2.1 0 05:56 23.12.2019
5782 Haze 32 1011 62 5000 1.5 120 05:29 23.12.2019
5783 Haze 30 1012 74 4000 1.5 90 04:34 23.12.2019
5784 Haze 31 1012 83 4000 1.5 140 03:26 23.12.2019
5785 Clouds 30 1012 78 8000 3.1 290 02:42 23.12.2019
5786 Haze 29 1012 88 4000 2.1 110 02:19 23.12.2019
5787 Clouds 28 1011 83 6000 2.6 270 01:43 23.12.2019
5788 Haze 27 1011 88 5000 1 320 01:25 23.12.2019
5789 Mist 26 1010 100 4000 1.5 240 00:44 23.12.2019
5790 Mist 26 1010 100 4000 1.5 240 00:23 23.12.2019
5791 Haze 25 1009 88 5000 2.1 260 23:40 22.12.2019
5792 Haze 25 1009 88 5000 2.1 260 23:22 22.12.2019
5793 Haze 25 1009 88 5000 2.1 270 22:58 22.12.2019
5794 Mist 25 1009 100 4000 1.5 270 22:40 22.12.2019
5795 Mist 25 1009 100 4000 1.5 270 22:22 22.12.2019
5796 Haze 26 1008 83 5000 2.6 280 21:58 22.12.2019
5797 Haze 26 1009 83 5000 2.1 280 21:40 22.12.2019
5798 Haze 26 1009 83 5000 2.1 280 21:21 22.12.2019
5799 Haze 26 1009 83 5000 2.1 280 21:21 22.12.2019
5800 Haze 26 1009 83 5000 1 0 20:58 22.12.2019
5801 Haze 26 1009 88 5000 1 0 20:39 22.12.2019
5802 Haze 26 1009 88 5000 1 0 20:19 22.12.2019
5803 Haze 26 1009 83 5000 1.5 0 19:57 22.12.2019
5804 Haze 26 1010 88 5000 2.1 290 19:39 22.12.2019
5805 Haze 26 1010 88 5000 2.1 290 19:19 22.12.2019
5806 Haze 26 1010 83 5000 1 0 18:42 22.12.2019
5807 Haze 26 1010 83 5000 1 0 18:24 22.12.2019
5808 Haze 26 1011 83 5000 1 360 17:56 22.12.2019
5809 Clouds 26 1011 83 6000 1 0 17:38 22.12.2019
5810 Clouds 26 1011 83 6000 1 0 17:19 22.12.2019
5811 Clouds 26 1011 83 6000 1.5 290 16:57 22.12.2019
5812 Clouds 26 1011 83 6000 1.5 0 16:39 22.12.2019
5813 Clouds 26 1011 83 6000 1.5 0 16:21 22.12.2019
5814 Clouds 26 1010 88 6000 1.5 100 15:56 22.12.2019
5815 Clouds 26 1011 88 6000 1 0 15:38 22.12.2019
5816 Clouds 26 1011 88 6000 1 0 15:20 22.12.2019
5817 Clouds 26 1010 88 7000 1.5 0 14:55 22.12.2019
5818 Clouds 26 1010 88 7000 1.5 0 14:55 22.12.2019
5819 Clouds 25 1010 88 7000 2.1 0 14:37 22.12.2019
5820 Clouds 25 1010 88 7000 2.1 0 14:18 22.12.2019
5821 Clouds 25 1010 88 7000 2.1 0 14:18 22.12.2019
5822 Clouds 25 1010 88 7000 2.1 0 14:18 22.12.2019
5823 Clouds 25 1010 88 7000 2.6 0 13:55 22.12.2019
5824 Rain 25 1009 100 5000 3.1 200 13:37 22.12.2019
5825 Rain 25 1009 100 5000 3.1 200 13:18 22.12.2019
5826 Rain 25 1009 88 6000 3.6 210 12:56 22.12.2019
5827 Rain 25 1009 100 4000 3.6 200 12:37 22.12.2019
5828 Rain 26 1009 100 4000 3.6 200 12:18 22.12.2019
5829 Thunderstorm 26 1008 88 5000 2.1 0 11:56 22.12.2019
5830 Thunderstorm 26 1008 88 5000 2.1 0 11:56 22.12.2019
5831 Rain 26 1008 88 5000 3.6 130 11:37 22.12.2019
5832 Rain 26 1008 88 5000 3.6 130 11:18 22.12.2019
5833 Thunderstorm 27 1008 83 5000 4.1 170 10:54 22.12.2019
5834 Thunderstorm 27 1009 83 500 6.2 180 10:36 22.12.2019
5835 Thunderstorm 27 1009 83 500 6.2 180 10:18 22.12.2019
5836 Thunderstorm 27 1008 74 7000 6.7 260 09:56 22.12.2019
5837 Thunderstorm 29 1006 66 6000 4.1 360 09:37 22.12.2019
5838 Thunderstorm 29 1006 66 6000 4.1 360 09:19 22.12.2019
5839 Thunderstorm 31 1007 70 6000 5.1 10 08:39 22.12.2019
5840 Thunderstorm 32 1007 70 6000 5.1 10 08:21 22.12.2019
5841 Clouds 33 1008 70 10000 4.6 360 07:40 22.12.2019
5842 Clouds 33 1008 70 10000 4.1 350 07:21 22.12.2019
5843 Clouds 33 1009 66 10000 4.1 340 06:42 22.12.2019
5844 Clouds 33 1009 66 10000 3.1 340 06:21 22.12.2019
5845 Clouds 33 1010 62 6000 2.1 350 05:29 22.12.2019
5846 Clouds 31 1011 66 10000 2.6 0 04:45 22.12.2019
5847 Clouds 31 1010 70 6000 1.5 240 04:22 22.12.2019
5848 Haze 30 1010 83 5000 2.1 250 02:43 22.12.2019
5849 Haze 30 1010 83 5000 2.1 250 02:43 22.12.2019
5850 Clouds 28 1011 83 6000 3.6 280 01:57 22.12.2019
5851 Mist 28 1010 94 2000 1 250 01:31 22.12.2019
5852 Mist 26 1010 83 5000 4.1 240 00:48 22.12.2019
5853 Mist 25 1010 88 5000 2.6 250 00:29 22.12.2019
5854 Mist 25 1009 88 4500 3.6 230 23:59 21.12.2019
5855 Mist 25 1009 88 4500 3.6 240 23:40 21.12.2019
5856 Mist 25 1009 88 4500 3.6 240 23:20 21.12.2019
5857 Mist 25 1009 88 3000 3.1 250 22:47 21.12.2019
5858 Mist 25 1008 94 2500 2.6 240 22:20 21.12.2019
5859 Mist 25 1008 94 2500 2.1 260 21:58 21.12.2019
5860 Mist 25 1008 94 3000 2.1 240 21:40 21.12.2019
5861 Mist 25 1008 94 3000 2.1 240 21:21 21.12.2019
5862 Mist 25 1009 88 3000 2.6 270 20:59 21.12.2019
5863 Mist 25 1009 88 3000 2.6 270 20:59 21.12.2019
5864 Mist 25 1009 88 5000 3.1 240 20:41 21.12.2019
5865 Mist 25 1009 88 5000 3.1 240 20:22 21.12.2019
5866 Clouds 25 1009 88 5000 2.6 260 19:59 21.12.2019
5867 Clouds 25 1009 88 5000 2.6 260 19:59 21.12.2019
5868 Clouds 25 1009 83 6000 2.6 0 19:41 21.12.2019
5869 Clouds 25 1009 83 6000 2.6 0 19:20 21.12.2019
5870 Clouds 25 1009 83 6000 2.6 0 18:59 21.12.2019
5871 Clouds 25 1009 83 6000 2.6 0 18:40 21.12.2019
5872 Clouds 25 1009 83 6000 2.6 0 18:22 21.12.2019
5873 Rain 24 1010 83 6000 3.1 250 17:55 21.12.2019
5874 Thunderstorm 24 1010 88 5000 2.1 0 17:37 21.12.2019
5875 Thunderstorm 24 1010 88 5000 2.1 0 17:18 21.12.2019
5876 Thunderstorm 24 1011 88 4000 2.1 0 16:54 21.12.2019
5877 Thunderstorm 24 1010 88 4000 4.6 50 16:36 21.12.2019
5878 Thunderstorm 25 1010 88 4000 4.6 50 16:36 21.12.2019
5879 Thunderstorm 25 1010 88 4000 4.6 50 16:18 21.12.2019
5880 Thunderstorm 26 1011 88 3000 8.7 140 15:54 21.12.2019
5881 Thunderstorm 26 1011 78 6000 2.6 0 15:36 21.12.2019
5882 Thunderstorm 26 1011 78 6000 2.6 0 15:18 21.12.2019
5883 Thunderstorm 26 1009 78 5000 2.1 300 14:40 21.12.2019
5884 Thunderstorm 26 1009 78 5000 2.1 300 14:40 21.12.2019
5885 Thunderstorm 27 1009 78 5000 2.1 300 14:22 21.12.2019
5886 Thunderstorm 27 1009 78 5000 2.1 300 14:22 21.12.2019
5887 Thunderstorm 26 1009 88 5000 4.1 260 13:57 21.12.2019
5888 Rain 26 1009 83 6000 2.6 170 13:39 21.12.2019
5889 Rain 26 1009 83 6000 2.6 170 13:19 21.12.2019
5890 Thunderstorm 27 1008 74 7000 5.1 230 12:56 21.12.2019
5891 Rain 27 1007 70 5000 4.1 200 12:38 21.12.2019
5892 Rain 27 1007 70 5000 4.1 200 12:38 21.12.2019
5893 Rain 28 1007 70 5000 4.1 200 12:19 21.12.2019
5894 Clouds 29 1007 70 8000 2.1 350 11:45 21.12.2019
5895 Clouds 29 1007 70 9000 3.6 350 11:26 21.12.2019
5896 Clouds 30 1006 70 10000 4.1 360 10:57 21.12.2019
5897 Clouds 31 1006 66 9000 4.6 10 10:39 21.12.2019
5898 Clouds 31 1006 66 9000 4.6 10 10:21 21.12.2019
5899 Clouds 31 1006 66 9000 4.6 10 09:57 21.12.2019
5900 Clouds 32 1006 66 7000 5.1 360 09:39 21.12.2019
5901 Clouds 32 1006 66 7000 5.1 360 09:19 21.12.2019
5902 Clouds 32 1006 62 9000 5.7 350 08:46 21.12.2019
5903 Clouds 32 1007 66 6000 3.1 360 08:26 21.12.2019
5904 Clouds 32 1008 62 10000 5.7 340 07:47 21.12.2019
5905 Haze 33 1008 66 5000 5.1 10 07:23 21.12.2019
5906 Clouds 33 1008 66 10000 5.1 340 06:47 21.12.2019
5907 Haze 33 1008 63 5000 2.1 280 06:28 21.12.2019
5908 Clouds 33 1009 66 9000 4.6 350 05:59 21.12.2019
5909 Clouds 32 1010 66 6000 4.1 330 04:59 21.12.2019
5910 Haze 31 1010 70 5000 2.6 280 04:33 21.12.2019
5911 Clouds 31 1011 70 7000 2.1 0 03:56 21.12.2019
5912 Haze 30 1010 70 5000 2.1 0 02:23 21.12.2019
5913 Haze 29 1010 70 5000 2.1 0 01:42 21.12.2019
5914 Mist 28 1010 88 3000 1.5 260 01:23 21.12.2019
5915 Haze 27 1009 78 5000 2.6 220 00:39 21.12.2019
5916 Haze 27 1009 78 5000 2.6 220 00:20 21.12.2019
5917 Haze 26 1008 94 5000 1.5 190 23:39 20.12.2019
5918 Haze 26 1008 94 5000 1.5 190 23:20 20.12.2019
5919 Haze 27 1008 78 4000 2.1 160 22:57 20.12.2019
5920 Haze 27 1008 78 4000 1 200 22:38 20.12.2019
5921 Haze 27 1008 78 4000 1 200 22:18 20.12.2019
5922 Haze 26 1008 83 4000 2.6 270 21:41 20.12.2019
5923 Haze 26 1008 83 4000 2.6 270 21:21 20.12.2019
5924 Haze 26 1008 78 4000 1.5 0 20:57 20.12.2019
5925 Haze 27 1008 78 5000 1.5 0 20:38 20.12.2019
5926 Haze 27 1008 78 5000 1.5 0 20:19 20.12.2019
5927 Clouds 27 1009 78 6000 1.5 0 19:42 20.12.2019
5928 Clouds 27 1009 78 6000 1.5 0 19:21 20.12.2019
5929 Clouds 27 1009 74 6000 2.1 0 18:58 20.12.2019
5930 Clouds 27 1009 69 6000 2.1 0 18:39 20.12.2019
5931 Clouds 27 1009 69 6000 2.1 0 18:21 20.12.2019
5932 Clouds 27 1009 69 6000 2.1 0 18:21 20.12.2019
5933 Clouds 28 1009 69 7000 2.6 210 17:56 20.12.2019
5934 Clouds 28 1009 69 7000 2.6 210 17:56 20.12.2019
5935 Clouds 27 1009 69 7000 2.6 210 17:38 20.12.2019
5936 Clouds 27 1009 69 7000 2.6 210 17:20 20.12.2019
5937 Clouds 27 1009 69 7000 1.5 200 16:56 20.12.2019
5938 Clouds 27 1010 69 7000 3.1 200 16:37 20.12.2019
5939 Clouds 27 1010 69 7000 3.1 200 16:19 20.12.2019
5940 Clouds 27 1010 69 7000 3.1 200 15:54 20.12.2019
5941 Clouds 27 1010 69 7000 3.1 200 15:54 20.12.2019
5942 Clouds 27 1009 65 7000 3.1 200 15:36 20.12.2019
5943 Clouds 27 1009 65 7000 3.1 200 15:36 20.12.2019
5944 Clouds 27 1009 65 7000 3.1 200 15:18 20.12.2019
5945 Clouds 27 1009 62 0 3.1 230 14:42 20.12.2019
5946 Clouds 27 1009 62 0 3.1 230 14:23 20.12.2019
5947 Clouds 28 1008 74 7000 2.6 0 13:56 20.12.2019
5948 Thunderstorm 28 1008 74 5000 2.6 180 13:37 20.12.2019
5949 Thunderstorm 28 1008 74 5000 2.6 180 13:18 20.12.2019
5950 Clouds 29 1008 70 9000 1.5 10 12:55 20.12.2019
5951 Clouds 29 1007 70 9000 3.1 30 12:36 20.12.2019
5952 Clouds 30 1007 70 9000 3.1 30 12:18 20.12.2019
5953 Clouds 30 1007 62 9000 3.6 30 11:57 20.12.2019
5954 Clouds 31 1006 70 6000 3.1 20 11:38 20.12.2019
5955 Clouds 31 1006 70 6000 3.1 20 11:18 20.12.2019
5956 Clouds 32 1006 59 10000 3.6 20 10:55 20.12.2019
5957 Clouds 32 1006 66 6000 3.6 360 10:37 20.12.2019
5958 Clouds 32 1006 66 6000 3.6 360 10:18 20.12.2019
5959 Clouds 32 1006 66 6000 4.6 350 09:42 20.12.2019
5960 Clouds 32 1006 66 6000 4.6 350 09:21 20.12.2019
5961 Clouds 33 1006 62 10000 4.6 50 08:54 20.12.2019
5962 Clouds 32 1007 62 10000 4.1 20 08:36 20.12.2019
5963 Clouds 33 1007 62 10000 4.1 20 08:18 20.12.2019
5964 Haze 33 1008 59 5000 3.1 50 07:41 20.12.2019
5965 Haze 33 1008 59 5000 3.1 50 07:23 20.12.2019
5966 Clouds 33 1008 55 10000 4.6 20 06:55 20.12.2019
5967 Haze 33 1009 62 5000 2.6 20 06:36 20.12.2019
5968 Haze 33 1009 62 5000 2.6 20 06:18 20.12.2019
5969 Clouds 33 1009 52 10000 4.1 50 05:45 20.12.2019
5970 Haze 32 1010 66 5000 2.6 60 04:46 20.12.2019
5971 Haze 31 1010 66 5000 2.6 0 03:33 20.12.2019
5972 Haze 29 1010 78 3000 1.5 120 02:45 20.12.2019
5973 Haze 28 1010 74 5000 1.5 0 01:55 20.12.2019
5974 Haze 28 1010 94 3000 1.62 89 01:35 20.12.2019
5975 Haze 27 1010 78 5000 1.5 0 00:53 20.12.2019
5976 Haze 26 1009 83 5000 2.1 0 00:34 20.12.2019
5977 Haze 26 1009 83 5000 3.1 180 23:57 19.12.2019
5978 Haze 26 1009 94 4000 1.02 120 23:39 19.12.2019
5979 Haze 26 1009 94 4000 1.02 120 23:39 19.12.2019
5980 Haze 26 1009 94 4000 1.96 220 23:19 19.12.2019
5981 Haze 26 1009 94 4000 1.96 220 23:19 19.12.2019
5982 Haze 26 1008 83 5000 2.6 200 22:38 19.12.2019
5983 Haze 26 1008 83 5000 2.6 200 22:20 19.12.2019
5984 Haze 26 1008 83 3500 2.6 220 21:56 19.12.2019
5985 Haze 26 1008 78 3000 2.1 280 21:38 19.12.2019
5986 Haze 26 1008 78 3000 2.1 280 21:19 19.12.2019
5987 Haze 26 1008 78 4000 2.1 230 20:56 19.12.2019
5988 Haze 26 1009 78 4500 2.1 0 20:37 19.12.2019
5989 Haze 26 1009 78 4500 2.1 0 20:19 19.12.2019
5990 Haze 25 1009 83 4000 2.1 270 19:58 19.12.2019
5991 Haze 26 1009 78 5000 2.1 290 19:39 19.12.2019
5992 Haze 26 1009 78 5000 2.1 290 19:19 19.12.2019
5993 Haze 26 1009 78 5000 2.1 290 19:19 19.12.2019
5994 Clouds 26 1009 78 6000 2.1 280 18:57 19.12.2019
5995 Clouds 26 1010 78 7000 2.1 250 18:38 19.12.2019
5996 Clouds 26 1010 78 7000 2.1 250 18:19 19.12.2019
5997 Clouds 26 1010 78 7000 2.6 210 17:55 19.12.2019
5998 Clouds 26 1011 74 7000 2.6 0 17:37 19.12.2019
5999 Clouds 27 1011 74 7000 2.6 0 17:18 19.12.2019
6000 Clouds 27 1011 74 7000 2.1 0 16:55 19.12.2019
6001 Clouds 27 1011 78 7000 3.1 220 16:37 19.12.2019
6002 Clouds 27 1011 78 7000 3.1 220 16:19 19.12.2019
6003 Clouds 27 1011 74 7000 2.6 240 15:55 19.12.2019
6004 Clouds 27 1011 74 8000 2.6 0 15:37 19.12.2019
6005 Clouds 27 1011 74 8000 2.6 0 15:18 19.12.2019
6006 Clouds 28 1010 69 8000 3.6 240 14:42 19.12.2019
6007 Clouds 28 1010 69 8000 3.6 240 14:20 19.12.2019
6008 Clouds 27 1010 74 8000 4.6 250 13:58 19.12.2019
6009 Clouds 27 1010 74 8000 4.6 250 13:58 19.12.2019
6010 Rain 27 1010 74 6000 3.1 220 13:38 19.12.2019
6011 Rain 28 1010 74 6000 3.1 220 13:19 19.12.2019
6012 Clouds 28 1009 74 9000 2.6 310 12:57 19.12.2019
6013 Rain 28 1008 70 6000 3.1 320 12:39 19.12.2019
6014 Rain 28 1008 70 6000 3.1 320 12:39 19.12.2019
6015 Rain 29 1008 70 6000 3.1 320 12:19 19.12.2019
6016 Clouds 30 1008 66 10000 4.1 350 11:58 19.12.2019
6017 Clouds 30 1007 62 6000 3.6 10 11:40 19.12.2019
6018 Clouds 31 1007 62 6000 3.6 10 11:18 19.12.2019
6019 Clouds 31 1007 66 10000 4.1 330 10:56 19.12.2019
6020 Clouds 31 1007 62 6000 2.6 360 10:38 19.12.2019
6021 Clouds 32 1007 62 6000 2.6 360 10:19 19.12.2019
6022 Clouds 31 1007 62 10000 3.1 340 09:54 19.12.2019
6023 Clouds 31 1007 62 10000 3.1 350 09:36 19.12.2019
6024 Clouds 31 1008 66 10000 4.1 340 09:18 19.12.2019
6025 Clouds 31 1008 62 6000 4.1 30 08:41 19.12.2019
6026 Clouds 31 1008 62 6000 4.1 30 08:19 19.12.2019
6027 Clouds 31 1009 66 10000 4.1 340 07:58 19.12.2019
6028 Clouds 31 1009 70 6000 3.6 30 07:38 19.12.2019
6029 Clouds 30 1009 70 6000 3.6 30 07:20 19.12.2019
6030 Clouds 30 1010 70 10000 4.6 340 06:50 19.12.2019
6031 Clouds 32 1010 70 6000 4.1 10 06:30 19.12.2019
6032 Clouds 32 1011 70 10000 4.1 350 05:55 19.12.2019
6033 Rain 32 1011 74 5000 3.6 20 05:36 19.12.2019
6034 Clouds 31 1011 70 9000 3.6 350 04:52 19.12.2019
6035 Clouds 31 1011 70 8000 3.6 330 03:45 19.12.2019
6036 Haze 28 1012 83 4000 2.6 200 02:24 19.12.2019
6037 Haze 27 1011 83 3000 2.6 250 01:23 19.12.2019
6038 Haze 26 1010 94 4000 1.5 240 00:44 19.12.2019
6039 Haze 26 1010 94 4000 1.5 240 00:25 19.12.2019
6040 Haze 25 1010 83 5000 3.1 220 23:59 18.12.2019
6041 Haze 25 1010 94 5000 1.5 220 23:41 18.12.2019
6042 Haze 25 1010 94 5000 1.5 220 23:19 18.12.2019
6043 Haze 26 1010 83 5000 1.5 210 22:56 18.12.2019
6044 Haze 25 1009 88 4500 2.6 240 22:37 18.12.2019
6045 Haze 25 1009 88 4500 2.6 240 22:19 18.12.2019
6046 Haze 25 1009 83 4000 2.6 220 21:57 18.12.2019
6047 Haze 25 1009 88 3000 2.6 250 21:39 18.12.2019
6048 Haze 25 1009 88 3000 2.6 250 21:19 18.12.2019
6049 Haze 26 1009 83 5000 2.6 250 20:55 18.12.2019
6050 Haze 26 1009 83 4500 2.6 250 20:37 18.12.2019
6051 Haze 26 1009 83 5000 2.6 230 20:19 18.12.2019
6052 Haze 26 1009 83 5000 2.6 230 19:55 18.12.2019
6053 Haze 26 1009 83 5000 2.6 240 19:37 18.12.2019
6054 Clouds 26 1010 83 6000 2.6 220 19:18 18.12.2019
6055 Clouds 26 1010 78 7000 2.6 200 18:45 18.12.2019
6056 Clouds 26 1010 78 7000 2.6 200 18:25 18.12.2019
6057 Clouds 26 1010 78 7000 2.1 0 17:57 18.12.2019
6058 Clouds 26 1010 78 8000 2.6 0 17:39 18.12.2019
6059 Clouds 26 1010 78 8000 2.6 0 17:20 18.12.2019
6060 Clouds 26 1010 78 8000 2.6 0 17:20 18.12.2019
6061 Clouds 26 1011 74 7000 2.1 0 16:57 18.12.2019
6062 Clouds 27 1011 74 7000 2.1 0 16:39 18.12.2019
6063 Clouds 27 1011 78 7000 2.1 220 16:20 18.12.2019
6064 Clouds 27 1010 74 8000 2.1 0 15:56 18.12.2019
6065 Clouds 27 1010 74 8000 2.6 0 15:37 18.12.2019
6066 Clouds 27 1010 74 8000 2.6 0 15:19 18.12.2019
6067 Clouds 27 1010 78 7000 2.6 0 14:43 18.12.2019
6068 Clouds 27 1010 78 7000 2.6 0 14:22 18.12.2019
6069 Clouds 27 1010 78 7000 3.6 210 13:58 18.12.2019
6070 Clouds 27 1009 74 8000 4.6 200 13:39 18.12.2019
6071 Clouds 27 1009 74 8000 4.6 200 13:21 18.12.2019
6072 Clouds 27 1009 74 8000 4.1 220 12:59 18.12.2019
6073 Rain 27 1009 78 5000 3.1 170 12:40 18.12.2019
6074 Rain 27 1009 78 5000 3.1 170 12:21 18.12.2019
6075 Thunderstorm 28 1008 70 8000 5.7 270 11:56 18.12.2019
6076 Rain 28 1008 70 6000 2.1 340 11:38 18.12.2019
6077 Rain 29 1008 70 6000 2.1 340 11:20 18.12.2019
6078 Clouds 30 1008 58 10000 4.1 330 10:57 18.12.2019
6079 Rain 30 1007 62 6000 4.1 20 10:39 18.12.2019
6080 Rain 31 1007 62 6000 4.1 20 10:20 18.12.2019
6081 Clouds 31 1007 55 10000 4.1 10 09:57 18.12.2019
6082 Clouds 32 1007 62 6000 4.6 40 09:19 18.12.2019
6083 Clouds 33 1007 52 10000 5.7 40 08:42 18.12.2019
6084 Clouds 33 1008 52 10000 3.1 50 08:24 18.12.2019
6085 Clouds 33 1008 49 10000 5.7 50 07:57 18.12.2019
6086 Clouds 34 1008 49 10000 5.1 60 07:39 18.12.2019
6087 Clouds 33 1008 49 10000 5.1 60 07:19 18.12.2019
6088 Clouds 33 1009 52 10000 4.1 70 06:51 18.12.2019
6089 Clouds 34 1010 59 6000 4.1 20 06:23 18.12.2019
6090 Clouds 33 1011 59 6000 2.1 90 05:35 18.12.2019
6091 Clouds 32 1011 62 10000 1.5 0 03:49 18.12.2019
6092 Clouds 30 1011 70 10000 1.5 0 02:46 18.12.2019
6093 Haze 29 1011 88 5000 3.9 269 02:27 18.12.2019
6094 Clouds 28 1011 83 7000 1.5 0 01:44 18.12.2019
6095 Mist 26 1010 100 3000 3.69 270 01:25 18.12.2019
6096 Mist 25 1010 100 2500 3.69 270 00:42 18.12.2019
6097 Mist 25 1010 100 2500 3.69 270 00:24 18.12.2019
6098 Clouds 25 1009 88 7000 2.6 230 23:59 17.12.2019
6099 Mist 25 1009 100 4000 3.69 270 23:40 17.12.2019
6100 Mist 24 1009 100 4000 4.07 256 23:21 17.12.2019
6101 Clouds 24 1009 88 6000 3.6 230 22:57 17.12.2019
6102 Clouds 24 1008 88 6000 3.6 240 22:39 17.12.2019
6103 Clouds 24 1008 88 6000 3.6 240 22:19 17.12.2019
6104 Haze 24 1008 88 5000 3.1 230 21:57 17.12.2019
6105 Haze 24 1008 88 5000 2.6 220 21:39 17.12.2019
6106 Haze 24 1008 88 5000 2.6 220 21:20 17.12.2019
6107 Haze 24 1008 88 5000 2.6 240 20:59 17.12.2019
6108 Haze 24 1009 88 5000 2.6 0 20:40 17.12.2019
6109 Haze 24 1009 88 5000 2.6 0 20:19 17.12.2019
6110 Haze 24 1009 88 5000 2.6 260 19:57 17.12.2019
6111 Haze 24 1009 88 5000 2.1 0 19:39 17.12.2019
6112 Haze 24 1009 88 5000 2.1 0 19:20 17.12.2019
6113 Haze 24 1009 83 5000 2.6 0 18:57 17.12.2019
6114 Haze 24 1010 88 5000 2.6 250 18:38 17.12.2019
6115 Haze 24 1010 88 5000 3.1 260 18:20 17.12.2019
6116 Haze 24 1010 88 5000 3.1 260 17:55 17.12.2019
6117 Haze 24 1010 94 5000 1.5 290 17:37 17.12.2019
6118 Haze 24 1010 94 5000 1.5 290 17:18 17.12.2019
6119 Haze 24 1011 94 5000 1.5 320 16:55 17.12.2019
6120 Haze 24 1011 94 5000 2.1 270 16:36 17.12.2019
6121 Haze 24 1011 94 5000 2.1 270 16:18 17.12.2019
6122 Haze 24 1011 94 5000 2.1 270 16:18 17.12.2019
6123 Clouds 24 1011 94 6000 3.1 280 15:38 17.12.2019
6124 Clouds 24 1011 94 6000 3.1 280 15:20 17.12.2019
6125 Clouds 24 1011 83 6000 2.6 240 14:56 17.12.2019
6126 Clouds 25 1010 83 6000 2.6 220 14:38 17.12.2019
6127 Clouds 25 1010 83 6000 2.6 220 14:19 17.12.2019
6128 Clouds 25 1010 83 6000 2.6 210 13:58 17.12.2019
6129 Rain 25 1010 100 3000 2.6 140 13:39 17.12.2019
6130 Rain 25 1010 100 3000 2.6 140 13:19 17.12.2019
6131 Rain 25 1010 88 6000 3.6 200 12:59 17.12.2019
6132 Rain 24 1010 100 3000 3.6 150 12:38 17.12.2019
6133 Rain 25 1009 88 5000 4.1 190 12:18 17.12.2019
6134 Rain 25 1009 88 5000 4.1 190 11:57 17.12.2019
6135 Rain 25 1009 100 3000 2.1 210 11:37 17.12.2019
6136 Rain 25 1008 88 5000 2.6 0 11:18 17.12.2019
6137 Rain 25 1008 88 5000 2.6 0 10:57 17.12.2019
6138 Rain 25 1009 100 3000 2.1 300 10:38 17.12.2019
6139 Rain 25 1009 100 3000 2.1 300 10:19 17.12.2019
6140 Rain 25 1009 100 3000 2.1 300 10:19 17.12.2019
6141 Thunderstorm 24 1008 88 4000 3.1 210 09:56 17.12.2019
6142 Thunderstorm 25 1008 88 5000 3.6 180 09:38 17.12.2019
6143 Thunderstorm 26 1008 88 5000 3.6 180 09:18 17.12.2019
6144 Thunderstorm 27 1008 88 5000 3.6 230 08:54 17.12.2019
6145 Thunderstorm 28 1008 83 4000 8.2 240 08:36 17.12.2019
6146 Thunderstorm 28 1008 83 4000 8.2 240 08:18 17.12.2019
6147 Clouds 30 1008 66 10000 6.2 340 07:42 17.12.2019
6148 Clouds 31 1008 66 10000 6.2 340 07:22 17.12.2019
6149 Clouds 31 1009 62 10000 4.1 330 06:53 17.12.2019
6150 Clouds 31 1009 62 10000 4.1 290 06:32 17.12.2019
6151 Clouds 31 1010 62 10000 5.1 310 05:50 17.12.2019
6152 Clouds 31 1010 62 10000 5.1 310 05:50 17.12.2019
6153 Clouds 31 1010 62 10000 5.1 310 05:31 17.12.2019
6154 Clouds 29 1011 70 9000 4.1 270 04:00 17.12.2019
6155 Haze 28 1011 88 4000 3.1 270 02:27 17.12.2019
6156 Haze 26 1010 100 4000 1.5 270 01:34 17.12.2019
6157 Clouds 25 1010 88 6000 2.1 290 00:48 17.12.2019
6158 Clouds 25 1010 88 5000 1.5 0 00:22 17.12.2019
6159 Clouds 25 1010 88 5000 2.6 280 23:58 16.12.2019
6160 Mist 25 1010 100 2000 4.89 342 23:40 16.12.2019
6161 Mist 25 1010 100 2000 5.43 73 23:18 16.12.2019
6162 Haze 25 1010 88 4400 2.6 280 22:55 16.12.2019
6163 Mist 25 1009 100 2000 5.43 73 22:36 16.12.2019
6164 Mist 25 1009 100 2000 5.43 73 22:18 16.12.2019
6165 Clouds 25 1009 88 4000 2.6 290 21:54 16.12.2019
6166 Haze 25 1009 94 3000 2.6 280 21:36 16.12.2019
6167 Haze 25 1009 94 3000 2.6 280 21:18 16.12.2019
6168 Rain 26 1009 88 2500 2.1 280 20:56 16.12.2019
6169 Rain 26 1009 88 3000 0.5 0 20:37 16.12.2019
6170 Rain 26 1009 88 3000 0.5 0 20:37 16.12.2019
6171 Rain 26 1009 88 3000 0.5 0 20:18 16.12.2019
6172 Rain 26 1010 88 3500 2.1 200 19:55 16.12.2019
6173 Rain 26 1010 88 3500 1 230 19:36 16.12.2019
6174 Rain 26 1010 88 3500 1 230 19:18 16.12.2019
6175 Thunderstorm 27 1010 83 3500 3.1 220 18:55 16.12.2019
6176 Haze 27 1010 83 4000 2.6 210 18:37 16.12.2019
6177 Haze 26 1010 83 4000 2.6 210 18:18 16.12.2019
6178 Clouds 27 1010 83 6000 2.1 0 17:56 16.12.2019
6179 Clouds 27 1011 83 8000 3.1 220 17:37 16.12.2019
6180 Clouds 27 1011 83 8000 3.1 230 17:19 16.12.2019
6181 Clouds 27 1011 83 8000 3.1 230 16:54 16.12.2019
6182 Clouds 27 1010 78 8000 2.6 250 16:36 16.12.2019
6183 Clouds 27 1010 78 8000 2.6 250 16:18 16.12.2019
6184 Clouds 27 1011 83 8000 3.6 240 15:55 16.12.2019
6185 Clouds 27 1010 78 8000 3.6 260 15:37 16.12.2019
6186 Clouds 27 1010 78 8000 3.6 260 15:18 16.12.2019
6187 Clouds 27 1010 83 7000 5.1 250 14:54 16.12.2019
6188 Clouds 27 1010 83 6000 5.7 250 14:36 16.12.2019
6189 Clouds 27 1010 83 6000 5.7 250 14:18 16.12.2019
6190 Thunderstorm 27 1009 94 4000 1.5 270 13:38 16.12.2019
6191 Thunderstorm 27 1009 94 4000 1.5 270 13:20 16.12.2019
6192 Clouds 27 1008 74 7000 3.1 280 12:58 16.12.2019
6193 Clouds 27 1008 74 7000 3.1 280 12:58 16.12.2019
6194 Thunderstorm 27 1008 78 5000 2.1 240 12:40 16.12.2019
6195 Thunderstorm 27 1008 78 5000 2.1 240 12:20 16.12.2019
6196 Clouds 28 1008 74 8000 5.7 280 11:59 16.12.2019
6197 Clouds 28 1008 74 8000 5.7 280 11:59 16.12.2019
6198 Rain 28 1007 74 5000 3.1 300 11:41 16.12.2019
6199 Rain 28 1007 74 5000 3.1 300 11:22 16.12.2019
6200 Clouds 29 1007 70 8000 5.7 270 10:59 16.12.2019
6201 Rain 29 1006 74 4000 2.6 360 10:40 16.12.2019
6202 Rain 30 1006 74 4000 2.6 360 10:21 16.12.2019
6203 Clouds 30 1007 70 10000 5.7 340 09:47 16.12.2019
6204 Rain 31 1006 74 5000 1.5 330 09:29 16.12.2019
6205 Clouds 31 1006 66 10000 5.1 350 08:58 16.12.2019
6206 Rain 31 1006 74 4000 2.6 360 08:38 16.12.2019
6207 Rain 31 1006 74 4000 2.6 360 08:19 16.12.2019
6208 Clouds 32 1007 66 10000 2.6 340 07:51 16.12.2019
6209 Clouds 31 1007 62 9000 6.2 340 07:31 16.12.2019
6210 Clouds 31 1007 62 9000 6.2 340 07:31 16.12.2019
6211 Haze 31 1008 70 4000 3.1 270 06:48 16.12.2019
6212 Haze 31 1008 70 4000 3.1 270 06:27 16.12.2019
6213 Clouds 31 1009 62 9000 4.6 340 05:58 16.12.2019
6214 Haze 31 1009 70 3000 1.5 270 05:39 16.12.2019
6215 Haze 31 1009 70 3000 1.5 270 05:21 16.12.2019
6216 Haze 28 1010 78 3000 2.6 300 02:59 16.12.2019
6217 Haze 27 1010 83 3000 2.1 0 01:45 16.12.2019
6218 Haze 26 1009 88 4000 1.5 300 00:56 16.12.2019
6219 Mist 26 1008 100 2500 1.7 267 00:38 16.12.2019
6220 Mist 26 1008 100 2500 1.7 267 00:18 16.12.2019
6221 Haze 26 1008 94 4000 1.7 267 23:41 15.12.2019
6222 Haze 26 1008 94 4000 3.23 265 23:22 15.12.2019
6223 Haze 26 1008 83 5000 1 0 22:57 15.12.2019
6224 Thunderstorm 26 1008 83 6000 1.5 200 22:38 15.12.2019
6225 Thunderstorm 26 1008 83 6000 1.5 200 22:19 15.12.2019
6226 Clouds 26 1008 83 6000 2.1 230 21:58 15.12.2019
6227 Clouds 26 1008 78 6000 2.1 220 21:38 15.12.2019
6228 Clouds 27 1008 78 6000 2.1 220 21:20 15.12.2019
6229 Clouds 27 1008 78 6000 2.6 240 20:58 15.12.2019
6230 Clouds 26 1008 83 6000 3.1 240 20:39 15.12.2019
6231 Clouds 26 1008 83 6000 3.1 240 20:39 15.12.2019
6232 Clouds 26 1008 83 6000 3.1 240 20:21 15.12.2019
6233 Clouds 26 1008 83 6000 3.1 240 19:58 15.12.2019
6234 Clouds 26 1008 83 6000 3.6 250 19:40 15.12.2019
6235 Clouds 26 1008 83 6000 3.6 250 19:19 15.12.2019
6236 Clouds 27 1008 78 6000 2.6 250 18:57 15.12.2019
6237 Clouds 27 1009 78 6000 2.6 260 18:39 15.12.2019
6238 Clouds 27 1009 78 6000 2.6 260 18:19 15.12.2019
6239 Clouds 27 1009 78 6000 2.1 0 17:56 15.12.2019
6240 Clouds 27 1009 78 6000 2.1 0 17:37 15.12.2019
6241 Clouds 27 1009 78 6000 2.6 230 17:19 15.12.2019
6242 Clouds 27 1009 78 6000 2.6 230 16:57 15.12.2019
6243 Clouds 27 1009 78 7000 2.1 280 16:39 15.12.2019
6244 Clouds 27 1009 78 7000 2.1 280 16:20 15.12.2019
6245 Clouds 26 1009 78 7000 2.6 250 15:55 15.12.2019
6246 Clouds 26 1009 78 7000 2.6 260 15:37 15.12.2019
6247 Clouds 26 1009 78 7000 2.6 260 15:18 15.12.2019
6248 Clouds 27 1009 74 7000 3.6 250 14:55 15.12.2019
6249 Clouds 27 1009 74 7000 4.1 260 14:37 15.12.2019
6250 Clouds 27 1009 74 7000 4.1 260 14:18 15.12.2019
6251 Clouds 27 1008 78 8000 4.1 270 13:56 15.12.2019
6252 Clouds 27 1008 78 6000 3.1 210 13:37 15.12.2019
6253 Clouds 28 1008 78 6000 3.1 210 13:19 15.12.2019
6254 Clouds 28 1008 78 6000 3.1 210 13:19 15.12.2019
6255 Clouds 28 1008 74 8000 4.1 270 12:56 15.12.2019
6256 Rain 28 1007 78 5000 3.6 270 12:38 15.12.2019
6257 Rain 28 1007 78 5000 3.6 270 12:20 15.12.2019
6258 Clouds 29 1007 70 8000 4.6 270 11:55 15.12.2019
6259 Haze 29 1006 79 5000 2.1 260 11:36 15.12.2019
6260 Clouds 30 1007 66 10000 4.6 340 11:18 15.12.2019
6261 Clouds 30 1007 66 10000 4.6 340 10:54 15.12.2019
6262 Haze 30 1006 79 5000 2.1 310 10:36 15.12.2019
6263 Haze 31 1006 79 5000 2.1 310 10:18 15.12.2019
6264 Clouds 31 1007 66 9000 5.1 340 09:39 15.12.2019
6265 Clouds 31 1007 66 9000 5.1 340 09:20 15.12.2019
6266 Clouds 31 1007 66 9000 5.1 340 09:20 15.12.2019
6267 Clouds 30 1007 66 9000 4.1 330 08:57 15.12.2019
6268 Thunderstorm 30 1007 83 5000 3.6 280 08:39 15.12.2019
6269 Thunderstorm 30 1007 83 5000 3.6 280 08:20 15.12.2019
6270 Thunderstorm 30 1008 66 8000 5.1 340 07:55 15.12.2019
6271 Rain 31 1008 70 5000 3.1 300 07:34 15.12.2019
6272 Haze 32 1009 62 5000 2.6 310 06:39 15.12.2019
6273 Clouds 32 1009 66 8000 4.6 340 06:19 15.12.2019
6274 Haze 32 1009 62 5000 3.1 220 05:25 15.12.2019
6275 Haze 32 1009 62 5000 3.1 220 05:25 15.12.2019
6276 Clouds 32 1010 58 8000 4.1 340 04:47 15.12.2019
6277 Haze 31 1011 70 5000 1.5 270 03:22 15.12.2019
6278 Clouds 30 1010 78 5000 2.1 250 02:33 15.12.2019
6279 Clouds 28 1010 74 6000 2.6 230 01:46 15.12.2019
6280 Haze 27 1010 88 4000 2.1 240 01:28 15.12.2019
6281 Haze 26 1010 83 4500 2.6 220 00:54 15.12.2019
6282 Haze 25 1009 88 5000 1.64 78 00:35 15.12.2019
6283 Clouds 25 1009 83 4500 1 240 23:58 14.12.2019
6284 Haze 25 1009 88 5000 1.5 280 23:39 14.12.2019
6285 Haze 25 1008 83 4000 1.5 0 23:19 14.12.2019
6286 Haze 25 1008 83 4000 1.5 0 22:57 14.12.2019
6287 Haze 25 1008 88 5000 1.5 260 22:39 14.12.2019
6288 Haze 25 1008 88 5000 1.5 260 22:20 14.12.2019
6289 Haze 25 1009 83 5000 1.5 210 21:55 14.12.2019
6290 Haze 26 1009 78 5000 1.5 200 21:37 14.12.2019
6291 Haze 26 1009 78 5000 1.5 200 21:18 14.12.2019
6292 Haze 26 1009 78 5000 2.1 170 20:55 14.12.2019
6293 Haze 26 1009 78 5000 2.1 170 20:55 14.12.2019
6294 Haze 26 1009 78 5000 1.5 210 20:37 14.12.2019
6295 Haze 26 1009 78 5000 1.5 210 20:37 14.12.2019
6296 Haze 26 1009 78 5000 1.5 210 20:19 14.12.2019
6297 Haze 26 1009 78 5000 1.5 220 19:40 14.12.2019
6298 Haze 26 1010 74 5000 2.1 0 19:21 14.12.2019
6299 Haze 27 1010 74 5000 2.1 0 18:59 14.12.2019
6300 Clouds 27 1010 74 6000 3.1 190 18:40 14.12.2019
6301 Clouds 27 1010 74 6000 3.1 190 18:22 14.12.2019
6302 Clouds 26 1010 78 7000 2.1 0 17:59 14.12.2019
6303 Clouds 26 1010 74 7000 2.6 0 17:41 14.12.2019
6304 Clouds 27 1010 74 7000 2.6 0 17:22 14.12.2019
6305 Clouds 27 1010 74 8000 3.1 170 16:42 14.12.2019
6306 Clouds 27 1010 74 8000 3.1 170 16:20 14.12.2019
6307 Clouds 27 1010 74 8000 2.6 0 15:57 14.12.2019
6308 Clouds 27 1010 74 8000 4.1 190 15:38 14.12.2019
6309 Clouds 27 1010 74 8000 4.1 190 15:20 14.12.2019
6310 Clouds 27 1010 74 8000 4.1 190 14:57 14.12.2019
6311 Clouds 27 1010 74 8000 3.6 180 14:38 14.12.2019
6312 Clouds 27 1010 74 8000 3.6 180 14:19 14.12.2019
6313 Clouds 26 1009 74 8000 4.6 200 13:45 14.12.2019
6314 Clouds 27 1009 70 8000 2.6 280 13:20 14.12.2019
6315 Clouds 28 1009 66 8000 2.1 0 12:58 14.12.2019
6316 Rain 28 1008 62 6000 1.5 350 12:40 14.12.2019
6317 Clouds 29 1008 66 9000 3.1 350 12:21 14.12.2019
6318 Clouds 29 1008 66 9000 3.1 350 11:58 14.12.2019
6319 Clouds 30 1007 66 6000 3.1 340 11:39 14.12.2019
6320 Clouds 31 1007 62 10000 4.6 340 11:19 14.12.2019
6321 Clouds 31 1007 62 10000 4.6 340 10:57 14.12.2019
6322 Clouds 31 1006 59 6000 3.6 350 10:39 14.12.2019
6323 Clouds 32 1006 59 6000 3.6 350 10:21 14.12.2019
6324 Clouds 31 1007 62 10000 4.1 320 09:57 14.12.2019
6325 Rain 31 1007 55 6000 4.6 350 09:38 14.12.2019
6326 Rain 32 1007 55 6000 4.6 350 09:18 14.12.2019
6327 Rain 32 1007 66 6000 4.6 330 08:43 14.12.2019
6328 Rain 32 1007 66 6000 4.6 330 08:20 14.12.2019
6329 Clouds 31 1008 66 10000 5.7 330 07:44 14.12.2019
6330 Rain 32 1008 66 5000 2.6 340 07:23 14.12.2019
6331 Clouds 32 1009 66 10000 5.1 340 06:57 14.12.2019
6332 Haze 32 1009 62 5000 3.1 320 06:37 14.12.2019
6333 Clouds 32 1010 62 9000 5.7 330 05:59 14.12.2019
6334 Clouds 32 1011 66 9000 4.6 350 04:48 14.12.2019
6335 Haze 31 1011 74 5000 1.5 150 02:35 14.12.2019
6336 Clouds 29 1011 66 6000 3.1 170 01:56 14.12.2019
6337 Haze 28 1011 88 4000 1.5 220 01:37 14.12.2019
6338 Haze 26 1010 78 5000 3.6 200 00:49 14.12.2019
6339 Haze 26 1010 94 4000 2.1 210 00:28 14.12.2019
6340 Haze 25 1010 78 5000 3.6 180 23:57 13.12.2019
6341 Haze 25 1010 94 4000 0.94 38 23:37 13.12.2019
6342 Haze 25 1010 83 5000 3.1 180 23:18 13.12.2019
6343 Haze 25 1009 83 5000 3.6 190 22:41 13.12.2019
6344 Haze 25 1009 83 5000 3.6 190 22:19 13.12.2019
6345 Haze 25 1010 83 5000 4.1 190 21:56 13.12.2019
6346 Haze 25 1010 83 5000 2.1 0 21:38 13.12.2019
6347 Haze 25 1010 83 5000 2.1 0 21:20 13.12.2019
6348 Clouds 26 1010 78 6000 1.5 0 20:42 13.12.2019
6349 Clouds 26 1010 78 6000 1.5 0 20:23 13.12.2019
6350 Clouds 26 1010 78 6000 1.5 0 19:59 13.12.2019
6351 Clouds 26 1010 78 6000 2.1 0 19:41 13.12.2019
6352 Clouds 26 1010 78 6000 2.1 0 19:22 13.12.2019
6353 Clouds 26 1011 78 7000 0.5 0 18:59 13.12.2019
6354 Clouds 26 1011 78 7000 1 0 18:40 13.12.2019
6355 Clouds 26 1011 78 7000 1 0 18:19 13.12.2019
6356 Clouds 26 1011 78 7000 1.5 0 17:55 13.12.2019
6357 Clouds 26 1011 78 7000 2.1 0 17:37 13.12.2019
6358 Clouds 26 1011 78 7000 2.1 0 17:18 13.12.2019
6359 Clouds 26 1011 74 7000 2.6 210 16:54 13.12.2019
6360 Clouds 26 1011 74 7000 2.6 220 16:36 13.12.2019
6361 Clouds 26 1011 74 7000 3.6 200 16:18 13.12.2019
6362 Clouds 26 1011 74 7000 3.6 170 15:38 13.12.2019
6363 Clouds 26 1011 74 7000 3.6 170 15:20 13.12.2019
6364 Clouds 26 1011 69 7000 4.1 190 14:41 13.12.2019
6365 Clouds 27 1011 69 7000 4.1 190 14:21 13.12.2019
6366 Thunderstorm 26 1011 69 7000 4.1 210 13:58 13.12.2019
6367 Thunderstorm 26 1011 69 7000 4.1 210 13:58 13.12.2019
6368 Thunderstorm 27 1011 74 5000 8.2 180 13:39 13.12.2019
6369 Thunderstorm 27 1011 74 5000 8.2 180 13:21 13.12.2019
6370 Thunderstorm 27 1011 74 5000 8.2 180 13:21 13.12.2019
6371 Rain 28 1009 70 6000 3.6 10 12:43 13.12.2019
6372 Rain 28 1009 70 6000 3.6 10 12:20 13.12.2019
6373 Clouds 30 1008 70 10000 3.6 20 11:58 13.12.2019
6374 Clouds 30 1008 66 6000 4.1 340 11:40 13.12.2019
6375 Clouds 30 1008 66 6000 4.1 340 11:22 13.12.2019
6376 Clouds 31 1008 66 10000 3.6 10 10:55 13.12.2019
6377 Clouds 31 1007 59 6000 3.1 360 10:37 13.12.2019
6378 Clouds 31 1007 59 6000 3.1 360 10:19 13.12.2019
6379 Haze 32 1007 62 5000 3.6 360 09:39 13.12.2019
6380 Haze 32 1007 62 5000 3.6 360 09:20 13.12.2019
6381 Haze 32 1007 62 5000 3.6 360 09:20 13.12.2019
6382 Clouds 32 1008 59 10000 3.6 360 08:44 13.12.2019
6383 Clouds 32 1008 59 10000 3.6 360 08:25 13.12.2019
6384 Clouds 32 1009 55 10000 4.1 10 07:47 13.12.2019
6385 Clouds 32 1009 59 10000 3.6 10 07:24 13.12.2019
6386 Clouds 31 1010 62 10000 2.6 0 06:55 13.12.2019
6387 Clouds 31 1010 59 10000 2.6 0 06:29 13.12.2019
6388 Clouds 30 1011 66 10000 1.5 0 05:51 13.12.2019
6389 Clouds 31 1011 66 10000 1.5 0 05:30 13.12.2019
6390 Clouds 29 1012 66 9000 2.1 0 04:46 13.12.2019
6391 Clouds 30 1012 70 9000 1.5 0 03:48 13.12.2019
6392 Clouds 28 1012 78 6000 1.5 0 02:34 13.12.2019
6393 Clouds 28 1011 78 6000 2.1 0 01:49 13.12.2019
6394 Haze 27 1011 78 4000 2.6 0 01:19 13.12.2019
6395 Mist 26 1010 83 3500 2.6 0 00:45 13.12.2019
6396 Mist 26 1010 83 3500 2.6 0 00:22 13.12.2019
6397 Mist 25 1010 88 3000 2.6 150 23:41 12.12.2019
6398 Mist 25 1010 88 3000 2.6 150 23:22 12.12.2019
6399 Mist 25 1010 88 3000 2.1 0 22:56 12.12.2019
6400 Mist 25 1010 88 2500 2.6 180 22:38 12.12.2019
6401 Mist 25 1010 88 2500 2.6 180 22:19 12.12.2019
6402 Mist 25 1010 88 2500 2.6 180 22:19 12.12.2019
6403 Mist 25 1009 88 2500 2.1 0 21:55 12.12.2019
6404 Mist 25 1009 88 2500 1.5 200 21:37 12.12.2019
6405 Mist 25 1009 88 2500 1.5 200 21:19 12.12.2019
6406 Mist 25 1009 88 2500 2.1 250 20:57 12.12.2019
6407 Mist 25 1010 88 2500 1.5 250 20:38 12.12.2019
6408 Mist 25 1010 88 2500 1.5 250 20:20 12.12.2019
6409 Mist 25 1010 88 4600 1.5 270 19:55 12.12.2019
6410 Mist 25 1010 83 4500 1.5 280 19:37 12.12.2019
6411 Mist 25 1010 83 4500 1.5 280 19:18 12.12.2019
6412 Mist 25 1010 88 3500 1.5 280 18:55 12.12.2019
6413 Mist 25 1011 88 3000 2.1 270 18:36 12.12.2019
6414 Mist 25 1011 88 3000 2.1 270 18:18 12.12.2019
6415 Haze 25 1011 88 3000 2.1 280 17:55 12.12.2019
6416 Haze 25 1011 88 3000 2.1 280 17:55 12.12.2019
6417 Haze 25 1011 88 4000 1.5 280 17:37 12.12.2019
6418 Haze 25 1011 88 4000 1.5 280 17:18 12.12.2019
6419 Haze 26 1011 83 3500 1.5 300 16:54 12.12.2019
6420 Haze 26 1011 83 3500 1.5 290 16:36 12.12.2019
6421 Haze 26 1011 83 3500 1.5 290 16:18 12.12.2019
6422 Haze 26 1011 83 4000 1.5 310 15:42 12.12.2019
6423 Haze 26 1011 83 4000 1.5 310 15:19 12.12.2019
6424 Haze 26 1010 83 4500 2.1 310 14:57 12.12.2019
6425 Clouds 26 1010 83 6000 2.1 300 14:36 12.12.2019
6426 Clouds 26 1010 83 6000 2.1 300 14:18 12.12.2019
6427 Clouds 26 1009 83 9000 2.1 300 13:55 12.12.2019
6428 Clouds 26 1009 78 9000 2.6 300 13:36 12.12.2019
6429 Clouds 26 1009 78 9000 2.6 300 13:18 12.12.2019
6430 Clouds 26 1008 78 8000 2.1 340 12:42 12.12.2019
6431 Clouds 26 1008 78 8000 2.1 340 12:23 12.12.2019
6432 Clouds 27 1008 74 9000 1.5 0 11:59 12.12.2019
6433 Clouds 28 1008 74 9000 2.6 340 11:40 12.12.2019
6434 Clouds 28 1008 74 9000 2.6 340 11:22 12.12.2019
6435 Clouds 28 1008 78 9000 2.1 0 10:59 12.12.2019
6436 Clouds 28 1008 78 9000 2.1 0 10:59 12.12.2019
6437 Clouds 28 1009 78 7000 2.1 340 10:41 12.12.2019
6438 Clouds 28 1009 78 7000 2.1 340 10:22 12.12.2019
6439 Clouds 28 1009 74 6000 2.1 0 09:56 12.12.2019
6440 Clouds 28 1009 74 6000 2.1 0 09:56 12.12.2019
6441 Rain 28 1009 74 6000 2.6 360 09:38 12.12.2019
6442 Rain 28 1009 74 6000 2.6 360 09:20 12.12.2019
6443 Rain 28 1009 83 5000 2.1 0 08:50 12.12.2019
6444 Rain 28 1010 83 6000 1.5 0 08:29 12.12.2019
6445 Clouds 27 1010 83 9000 1.5 0 07:59 12.12.2019
6446 Clouds 28 1010 83 8000 1.5 350 07:39 12.12.2019
6447 Clouds 28 1010 83 8000 1.5 350 07:21 12.12.2019
6448 Rain 27 1011 83 6000 2.6 340 06:42 12.12.2019
6449 Rain 26 1011 83 6000 2.6 340 06:23 12.12.2019
6450 Thunderstorm 26 1012 83 6000 3.1 10 05:34 12.12.2019
6451 Thunderstorm 27 1012 83 5000 4.6 60 04:49 12.12.2019
6452 Haze 29 1011 83 3000 1.5 130 02:44 12.12.2019
6453 Haze 29 1011 83 3000 1.5 130 02:26 12.12.2019
6454 Clouds 28 1010 74 6000 3.1 180 01:59 12.12.2019
6455 Clouds 28 1010 78 6000 2.6 0 01:36 12.12.2019
6456 Haze 26 1010 78 5000 1.5 0 00:58 12.12.2019
6457 Haze 26 1009 74 5000 2.1 0 00:38 12.12.2019
6458 Haze 25 1009 78 5000 1.5 0 00:18 12.12.2019
6459 Haze 25 1009 83 5000 2.6 190 23:40 11.12.2019
6460 Haze 25 1009 83 5000 2.6 190 23:20 11.12.2019
6461 Haze 25 1008 78 5000 1.5 0 22:57 11.12.2019
6462 Haze 25 1008 78 5000 1 0 22:38 11.12.2019
6463 Haze 25 1008 78 5000 1 0 22:19 11.12.2019
6464 Haze 25 1008 78 5000 1.5 0 21:55 11.12.2019
6465 Haze 25 1009 74 5000 1.5 0 21:37 11.12.2019
6466 Haze 26 1009 74 5000 1.5 0 21:19 11.12.2019
6467 Haze 26 1009 74 5000 1.5 0 20:55 11.12.2019
6468 Haze 26 1009 74 5000 1 220 20:37 11.12.2019
6469 Haze 26 1009 74 5000 1 220 20:18 11.12.2019
6470 Haze 25 1009 78 5000 2.1 200 19:55 11.12.2019
6471 Clouds 25 1009 78 6000 1 0 19:36 11.12.2019
6472 Clouds 25 1009 78 6000 1 0 19:18 11.12.2019
6473 Clouds 25 1010 74 6000 1.5 160 18:40 11.12.2019
6474 Clouds 25 1010 74 6000 1.5 160 18:21 11.12.2019
6475 Clouds 25 1010 74 6000 1.5 160 18:21 11.12.2019
6476 Clouds 25 1010 78 6000 1 0 17:57 11.12.2019
6477 Clouds 25 1010 78 6000 1.5 0 17:38 11.12.2019
6478 Clouds 25 1010 78 6000 1.5 0 17:18 11.12.2019
6479 Clouds 25 1010 78 6000 2.1 0 16:56 11.12.2019
6480 Clouds 25 1010 78 6000 2.1 0 16:56 11.12.2019
6481 Clouds 25 1010 78 7000 2.1 0 16:38 11.12.2019
6482 Clouds 25 1010 78 7000 2.1 0 16:19 11.12.2019
6483 Clouds 25 1010 78 7000 2.6 200 15:57 11.12.2019
6484 Clouds 25 1010 78 7000 3.6 210 15:38 11.12.2019
6485 Clouds 25 1010 78 7000 3.6 210 15:20 11.12.2019
6486 Clouds 25 1010 78 8000 3.6 190 14:55 11.12.2019
6487 Clouds 25 1009 78 8000 2.6 0 14:37 11.12.2019
6488 Clouds 25 1009 78 8000 2.6 0 14:37 11.12.2019
6489 Clouds 25 1009 78 8000 3.6 200 14:19 11.12.2019
6490 Clouds 25 1009 78 8000 3.6 200 13:54 11.12.2019
6491 Clouds 25 1009 78 8000 2.6 0 13:36 11.12.2019
6492 Clouds 25 1009 78 8000 2.6 0 13:18 11.12.2019
6493 Clouds 25 1008 73 8000 3.1 190 12:54 11.12.2019
6494 Clouds 25 1008 78 7000 2.1 0 12:36 11.12.2019
6495 Clouds 25 1008 78 7000 2.1 0 12:36 11.12.2019
6496 Rain 24 1008 83 6000 5.1 160 12:18 11.12.2019
6497 Rain 24 1008 83 6000 5.1 160 11:54 11.12.2019
6498 Rain 27 1008 65 5000 7.7 180 11:36 11.12.2019
6499 Clouds 31 1007 62 8000 2.6 0 11:18 11.12.2019
6500 Clouds 31 1007 62 9000 3.1 360 10:40 11.12.2019
6501 Clouds 30 1007 62 9000 3.1 360 10:22 11.12.2019
6502 Clouds 31 1006 62 9000 4.6 350 09:58 11.12.2019
6503 Clouds 32 1006 59 10000 5.1 10 09:38 11.12.2019
6504 Clouds 32 1006 59 10000 5.1 10 09:20 11.12.2019
6505 Clouds 32 1007 59 10000 6.7 350 08:56 11.12.2019
6506 Clouds 33 1007 59 9000 6.2 10 08:37 11.12.2019
6507 Clouds 33 1007 59 9000 6.2 10 08:18 11.12.2019
6508 Clouds 33 1008 55 9000 5.1 10 07:44 11.12.2019
6509 Clouds 33 1008 55 9000 5.1 10 07:25 11.12.2019
6510 Clouds 33 1009 59 8000 5.1 10 06:46 11.12.2019
6511 Clouds 33 1009 59 7000 4.6 20 06:25 11.12.2019
6512 Clouds 34 1009 59 7000 3.6 360 05:56 11.12.2019
6513 Clouds 33 1010 59 8000 4.1 20 05:36 11.12.2019
6514 Clouds 32 1010 59 9000 3.6 30 04:53 11.12.2019
6515 Clouds 33 1011 62 9000 2.1 0 03:41 11.12.2019
6516 Clouds 31 1010 70 6000 2.6 0 02:39 11.12.2019
6517 Clouds 27 1010 78 5000 1 0 01:22 11.12.2019
6518 Haze 26 1009 88 3000 2.6 0 00:45 11.12.2019
6519 Haze 26 1009 88 3000 2.6 0 00:19 11.12.2019
6520 Haze 25 1009 88 3000 2.6 210 23:46 10.12.2019
6521 Haze 25 1009 88 3000 2.6 210 23:27 10.12.2019
6522 Haze 25 1008 88 3500 2.1 0 22:57 10.12.2019
6523 Haze 25 1008 83 4600 2.1 220 22:39 10.12.2019
6524 Haze 25 1008 83 4600 2.1 220 22:21 10.12.2019
6525 Haze 25 1008 83 4500 1 220 21:54 10.12.2019
6526 Haze 25 1008 83 4500 1 220 21:54 10.12.2019
6527 Haze 25 1008 83 4000 1 220 21:36 10.12.2019
6528 Haze 25 1008 83 4000 1 220 21:18 10.12.2019
6529 Haze 25 1009 83 4000 1.5 260 20:56 10.12.2019
6530 Clouds 25 1009 83 6000 2.1 230 20:37 10.12.2019
6531 Clouds 25 1009 83 6000 2.1 230 20:18 10.12.2019
6532 Haze 25 1009 83 4000 2.6 200 19:44 10.12.2019
6533 Clouds 26 1009 78 5000 3.1 230 19:26 10.12.2019
6534 Clouds 26 1009 78 6000 3.1 240 18:59 10.12.2019
6535 Clouds 26 1010 83 7000 3.6 240 18:39 10.12.2019
6536 Clouds 26 1010 83 7000 3.6 240 18:20 10.12.2019
6537 Clouds 26 1010 83 7000 2.6 260 17:57 10.12.2019
6538 Clouds 26 1010 88 7000 3.1 250 17:39 10.12.2019
6539 Clouds 26 1010 88 7000 3.1 250 17:19 10.12.2019
6540 Clouds 26 1010 83 7000 2.1 310 16:43 10.12.2019
6541 Clouds 26 1010 83 7000 2.1 310 16:20 10.12.2019
6542 Clouds 27 1010 78 7000 1.5 320 15:58 10.12.2019
6543 Clouds 27 1010 78 8000 1 0 15:37 10.12.2019
6544 Clouds 27 1010 78 8000 1 0 15:18 10.12.2019
6545 Clouds 27 1010 78 8000 1 0 14:55 10.12.2019
6546 Clouds 26 1010 78 8000 1 0 14:37 10.12.2019
6547 Clouds 26 1010 78 8000 1 0 14:19 10.12.2019
6548 Clouds 27 1009 74 8000 1 10 13:56 10.12.2019
6549 Clouds 27 1009 69 8000 1.5 0 13:38 10.12.2019
6550 Clouds 27 1009 69 8000 1.5 0 13:18 10.12.2019
6551 Clouds 27 1008 69 9000 1.5 0 12:40 10.12.2019
6552 Clouds 27 1008 69 9000 1.5 0 12:22 10.12.2019
6553 Clouds 28 1008 69 10000 1 0 11:44 10.12.2019
6554 Clouds 28 1008 66 10000 1.5 310 11:25 10.12.2019
6555 Clouds 28 1008 69 10000 1.5 0 10:57 10.12.2019
6556 Clouds 28 1008 69 10000 2.6 290 10:39 10.12.2019
6557 Clouds 28 1008 69 10000 2.6 290 10:39 10.12.2019
6558 Clouds 28 1008 69 10000 2.6 290 10:21 10.12.2019
6559 Clouds 29 1008 69 10000 1.5 0 09:56 10.12.2019
6560 Clouds 29 1008 69 10000 2.1 310 09:38 10.12.2019
6561 Clouds 29 1008 69 10000 2.1 310 09:38 10.12.2019
6562 Clouds 29 1008 69 10000 2.1 310 09:38 10.12.2019
6563 Clouds 29 1008 69 10000 2.1 310 09:20 10.12.2019
6564 Clouds 29 1008 69 10000 1.5 360 08:57 10.12.2019
6565 Clouds 29 1008 69 10000 2.1 20 08:38 10.12.2019
6566 Clouds 29 1008 69 10000 2.1 20 08:19 10.12.2019
6567 Clouds 28 1009 78 10000 2.1 10 07:44 10.12.2019
6568 Clouds 28 1009 78 10000 3.1 10 07:26 10.12.2019
6569 Clouds 27 1010 83 10000 3.1 350 06:49 10.12.2019
6570 Clouds 27 1011 78 10000 5.1 30 06:24 10.12.2019
6571 Clouds 28 1011 69 9000 2.1 0 05:55 10.12.2019
6572 Rain 28 1011 74 5000 6.2 360 04:58 10.12.2019
6573 Rain 31 1011 83 3000 4.1 250 03:47 10.12.2019
6574 Haze 30 1011 74 5000 1.5 0 02:48 10.12.2019
6575 Haze 29 1011 70 4000 0.5 0 01:51 10.12.2019
6576 Haze 28 1011 83 3500 2.1 0 01:26 10.12.2019
6577 Haze 28 1010 78 4000 2.1 220 00:49 10.12.2019
6578 Haze 28 1010 78 4000 2.6 210 00:24 10.12.2019
6579 Haze 27 1010 83 4500 2.1 210 23:43 09.12.2019
6580 Haze 27 1010 83 4500 2.1 210 23:24 09.12.2019
6581 Haze 27 1010 88 4500 1.5 220 22:59 09.12.2019
6582 Haze 27 1010 83 4500 1 220 22:40 09.12.2019
6583 Haze 27 1010 83 4500 1 220 22:21 09.12.2019
6584 Haze 27 1009 83 5000 1.5 190 21:58 09.12.2019
6585 Haze 27 1009 83 5000 1.5 240 21:39 09.12.2019
6586 Haze 27 1009 83 5000 1.5 240 21:19 09.12.2019
6587 Haze 27 1010 83 5000 1.5 230 20:57 09.12.2019
6588 Haze 27 1010 83 5000 2.1 200 20:39 09.12.2019
6589 Haze 27 1010 83 5000 2.1 200 20:20 09.12.2019
6590 Haze 28 1010 78 5000 1 220 19:57 09.12.2019
6591 Haze 28 1010 78 5000 0.5 200 19:39 09.12.2019
6592 Haze 28 1010 78 5000 0.5 200 19:20 09.12.2019
6593 Haze 28 1010 78 5000 2.1 190 18:59 09.12.2019
6594 Haze 28 1011 78 5000 1.5 200 18:40 09.12.2019
6595 Haze 28 1011 78 5000 1.5 200 18:20 09.12.2019
6596 Haze 28 1011 78 5000 2.1 210 17:59 09.12.2019
6597 Haze 28 1011 78 4000 2.1 190 17:40 09.12.2019
6598 Haze 28 1011 78 4000 2.1 190 17:21 09.12.2019
6599 Haze 27 1011 78 3500 2.1 190 16:56 09.12.2019
6600 Haze 28 1011 74 3500 1.5 0 16:38 09.12.2019
6601 Haze 28 1011 74 3500 1.5 0 16:20 09.12.2019
6602 Haze 28 1011 74 3500 1.5 0 16:20 09.12.2019
6603 Haze 27 1011 78 3500 1 250 15:56 09.12.2019
6604 Haze 27 1011 78 3500 1 250 15:56 09.12.2019
6605 Haze 27 1011 74 3500 1.5 260 15:37 09.12.2019
6606 Haze 28 1011 74 3500 1.5 260 15:19 09.12.2019
6607 Haze 28 1010 74 4000 2.6 260 14:58 09.12.2019
6608 Haze 28 1010 74 4000 1.5 280 14:39 09.12.2019
6609 Haze 28 1010 74 4000 1.5 280 14:18 09.12.2019
6610 Haze 28 1010 74 4000 2.1 270 13:55 09.12.2019
6611 Haze 28 1009 74 4500 2.6 0 13:36 09.12.2019
6612 Haze 27 1009 74 4500 2.6 0 13:18 09.12.2019
6613 Haze 27 1009 78 5000 2.1 0 12:54 09.12.2019
6614 Thunderstorm 27 1009 74 6000 3.1 260 12:36 09.12.2019
6615 Clouds 28 1008 74 8000 2.6 310 12:18 09.12.2019
6616 Clouds 28 1008 74 9000 3.1 290 11:40 09.12.2019
6617 Clouds 28 1008 74 9000 3.1 290 11:21 09.12.2019
6618 Clouds 28 1008 70 10000 3.1 300 10:57 09.12.2019
6619 Clouds 29 1007 70 10000 3.1 330 10:38 09.12.2019
6620 Clouds 29 1007 70 10000 4.1 340 10:19 09.12.2019
6621 Clouds 29 1008 70 10000 5.1 340 09:44 09.12.2019
6622 Clouds 30 1008 70 10000 5.1 340 09:25 09.12.2019
6623 Clouds 30 1008 66 10000 5.7 330 08:57 09.12.2019
6624 Clouds 30 1009 70 10000 4.6 350 08:39 09.12.2019
6625 Clouds 30 1009 70 10000 4.6 350 08:20 09.12.2019
6626 Clouds 31 1009 66 10000 4.1 20 07:52 09.12.2019
6627 Clouds 31 1009 55 10000 6.7 20 07:33 09.12.2019
6628 Clouds 31 1009 59 10000 6.7 20 06:58 09.12.2019
6629 Clouds 31 1010 55 10000 5.1 20 06:31 09.12.2019
6630 Clouds 33 1010 55 9000 3.6 360 05:48 09.12.2019
6631 Clouds 31 1010 55 7000 1.5 190 05:23 09.12.2019
6632 Clouds 31 1011 59 8000 1.5 0 04:28 09.12.2019
6633 Haze 30 1012 66 5000 2.6 0 02:29 09.12.2019
6634 Haze 28 1012 74 5000 2.6 0 01:47 09.12.2019
6635 Haze 27 1011 74 5000 1.5 0 00:58 09.12.2019
6636 Haze 27 1011 78 5000 2.1 180 00:33 09.12.2019
6637 Haze 26 1011 78 5000 2.6 180 23:57 08.12.2019
6638 Haze 26 1011 78 5000 1 190 23:37 08.12.2019
6639 Haze 26 1011 78 5000 1 190 23:19 08.12.2019
6640 Haze 26 1010 78 5000 1.5 200 22:56 08.12.2019
6641 Haze 26 1010 78 4500 1 190 22:38 08.12.2019
6642 Haze 26 1010 78 4500 1 190 22:18 08.12.2019
6643 Haze 26 1010 78 5000 1 200 21:56 08.12.2019
6644 Haze 26 1010 78 5000 1 190 21:37 08.12.2019
6645 Haze 26 1010 78 5000 1 190 21:19 08.12.2019
6646 Haze 26 1010 78 5000 1.5 180 20:56 08.12.2019
6647 Haze 26 1010 78 5000 1.5 210 20:37 08.12.2019
6648 Haze 26 1010 78 5000 1.5 210 20:19 08.12.2019
6649 Haze 26 1010 78 5000 1.5 210 20:19 08.12.2019
6650 Haze 26 1011 78 5000 2.1 220 19:55 08.12.2019
6651 Haze 26 1011 78 5000 1.5 210 19:37 08.12.2019
6652 Haze 26 1011 78 5000 1.5 210 19:19 08.12.2019
6653 Haze 27 1011 78 5000 2.1 240 18:54 08.12.2019
6654 Haze 27 1011 78 5000 1.5 270 18:36 08.12.2019
6655 Haze 27 1011 78 5000 1.5 270 18:18 08.12.2019
6656 Haze 27 1012 78 5000 1 0 17:55 08.12.2019
6657 Haze 27 1012 78 5000 1.5 0 17:37 08.12.2019
6658 Haze 26 1012 78 5000 1.5 0 17:19 08.12.2019
6659 Haze 26 1012 78 5000 1.5 220 16:55 08.12.2019
6660 Clouds 26 1012 78 6000 1.5 0 16:37 08.12.2019
6661 Clouds 26 1012 78 6000 1.5 0 16:18 08.12.2019
6662 Clouds 26 1012 83 6000 1 270 15:38 08.12.2019
6663 Clouds 26 1012 83 6000 1 270 15:19 08.12.2019
6664 Clouds 26 1012 83 6000 1 270 15:19 08.12.2019
6665 Clouds 26 1012 78 6000 1.5 0 14:58 08.12.2019
6666 Clouds 26 1012 74 6000 1 360 14:39 08.12.2019
6667 Clouds 27 1012 74 6000 1 360 14:21 08.12.2019
6668 Clouds 27 1011 74 6000 1 50 13:54 08.12.2019
6669 Clouds 27 1011 74 9000 0.5 0 13:36 08.12.2019
6670 Clouds 27 1011 74 9000 0.5 0 13:18 08.12.2019
6671 Clouds 27 1010 74 7000 2.1 340 12:41 08.12.2019
6672 Clouds 28 1010 74 7000 2.1 340 12:23 08.12.2019
6673 Clouds 28 1010 74 9000 2.6 360 11:59 08.12.2019
6674 Clouds 28 1009 70 10000 4.1 350 11:38 08.12.2019
6675 Clouds 29 1009 70 10000 4.1 350 11:19 08.12.2019
6676 Clouds 29 1009 70 10000 3.6 320 10:58 08.12.2019
6677 Clouds 30 1008 70 6000 2.1 360 10:38 08.12.2019
6678 Clouds 30 1008 70 6000 2.1 360 10:19 08.12.2019
6679 Clouds 31 1009 66 10000 4.1 340 09:56 08.12.2019
6680 Clouds 31 1009 66 10000 4.1 320 09:37 08.12.2019
6681 Clouds 31 1009 66 10000 4.1 320 09:37 08.12.2019
6682 Clouds 31 1009 66 10000 4.1 320 09:19 08.12.2019
6683 Clouds 31 1009 66 10000 4.1 320 09:19 08.12.2019
6684 Clouds 31 1009 70 10000 4.1 340 08:57 08.12.2019
6685 Clouds 31 1009 70 10000 4.1 340 08:57 08.12.2019
6686 Clouds 30 1009 70 10000 4.6 340 08:36 08.12.2019
6687 Clouds 30 1009 70 10000 4.6 340 08:18 08.12.2019
6688 Clouds 32 1010 70 10000 5.1 340 07:42 08.12.2019
6689 Clouds 32 1010 70 10000 5.1 340 07:19 08.12.2019
6690 Clouds 32 1010 70 10000 4.6 330 06:47 08.12.2019
6691 Clouds 31 1011 70 10000 5.1 320 06:22 08.12.2019
6692 Clouds 31 1011 70 10000 4.6 330 05:35 08.12.2019
6693 Clouds 31 1012 70 10000 3.6 330 04:59 08.12.2019
6694 Clouds 31 1012 74 10000 3.1 340 03:47 08.12.2019
6695 Clouds 31 1012 74 10000 3.1 330 03:21 08.12.2019
6696 Clouds 30 1012 83 9000 1 0 02:34 08.12.2019
6697 Clouds 28 1012 83 7000 2.1 0 01:54 08.12.2019
6698 Clouds 27 1012 88 6000 2.6 240 01:19 08.12.2019
6699 Haze 26 1011 94 5000 1.5 210 00:39 08.12.2019
6700 Haze 26 1011 94 5000 1.5 210 00:19 08.12.2019
6701 Haze 25 1011 94 5000 1 260 23:40 07.12.2019
6702 Haze 25 1011 94 5000 1 260 23:21 07.12.2019
6703 Haze 25 1010 94 5000 1.5 310 22:56 07.12.2019
6704 Thunderstorm 25 1010 94 5000 2.6 260 22:38 07.12.2019
6705 Thunderstorm 24 1010 94 5000 2.6 260 22:20 07.12.2019
6706 Thunderstorm 26 1011 83 5000 3.6 310 21:56 07.12.2019
6707 Thunderstorm 26 1010 88 4000 4.6 310 21:38 07.12.2019
6708 Thunderstorm 26 1010 88 4000 4.6 310 21:38 07.12.2019
6709 Thunderstorm 26 1010 88 4000 4.6 310 21:38 07.12.2019
6710 Thunderstorm 26 1010 88 4000 4.6 310 21:19 07.12.2019
6711 Mist 26 1010 88 3300 1.5 0 20:59 07.12.2019
6712 Mist 26 1010 88 3400 1.5 190 20:36 07.12.2019
6713 Mist 26 1010 88 3400 1.5 190 20:18 07.12.2019
6714 Mist 26 1010 88 3600 1.5 190 19:56 07.12.2019
6715 Mist 26 1011 88 3500 2.6 170 19:38 07.12.2019
6716 Mist 26 1011 88 3500 2.6 170 19:20 07.12.2019
6717 Mist 26 1011 88 3100 2.6 170 18:44 07.12.2019
6718 Mist 26 1011 88 3000 2.6 180 18:19 07.12.2019
6719 Mist 26 1012 88 3500 2.6